<?xml version="1.0" encoding="UTF-8"?>
<gpx version="1.0" creator="GPSBabel - https://www.gpsbabel.org" xmlns="http://www.topografix.com/GPX/1/0">
  <time>2021-05-16T01:38:29.974Z</time>
  <bounds minlat="35.219934110" minlon="-107.654927373" maxlat="35.239194250" maxlon="-107.606472830"/>
  <wpt lat="35.230389157" lon="-107.654927373">
    <ele>0.000</ele>
    <time>2021-05-10T03:02:22Z</time>
    <name>Campsite</name>
    <cmt>Campsite</cmt>
    <desc>Campsite</desc>
  </wpt>
  <wpt lat="35.229466885" lon="-107.607754131">
    <ele>0.000</ele>
    <name>MidHike Break Spot</name>
    <cmt>Mid-Hike Break Spot</cmt>
    <desc>Mid-Hike Break Spot</desc>
  </wpt>
  <trk>
    <name>Gooseberry Springs Trail Hike.PatJayNancy.2021-05-10</name>
    <trkseg>
      <trkpt lat="35.219934110" lon="-107.636966880">
        <ele>2818.100</ele>
        <time>2021-05-10T14:00:29Z</time>
        <name>WPT</name>
      </trkpt>
      <trkpt lat="35.219969290" lon="-107.636977500">
        <ele>2822.700</ele>
        <time>2021-05-10T14:00:50Z</time>
        <name>WPT.1</name>
      </trkpt>
      <trkpt lat="35.219983680" lon="-107.637021330">
        <ele>2817.600</ele>
        <time>2021-05-10T14:00:56Z</time>
        <name>WPT.2</name>
      </trkpt>
      <trkpt lat="35.219980640" lon="-107.636965060">
        <ele>2814.100</ele>
        <time>2021-05-10T14:01:10Z</time>
        <name>WPT.3</name>
      </trkpt>
      <trkpt lat="35.219993270" lon="-107.636921550">
        <ele>2815.200</ele>
        <time>2021-05-10T14:01:13Z</time>
        <name>WPT.4</name>
      </trkpt>
      <trkpt lat="35.220030240" lon="-107.636919440">
        <ele>2816.800</ele>
        <time>2021-05-10T14:01:25Z</time>
        <name>WPT.5</name>
      </trkpt>
      <trkpt lat="35.220069650" lon="-107.636945120">
        <ele>2815.400</ele>
        <time>2021-05-10T14:01:29Z</time>
        <name>WPT.6</name>
      </trkpt>
      <trkpt lat="35.220109880" lon="-107.636969160">
        <ele>2815.800</ele>
        <time>2021-05-10T14:01:32Z</time>
        <name>WPT.7</name>
      </trkpt>
      <trkpt lat="35.220141620" lon="-107.637002240">
        <ele>2815.000</ele>
        <time>2021-05-10T14:01:35Z</time>
        <name>WPT.8</name>
      </trkpt>
      <trkpt lat="35.220172810" lon="-107.637033730">
        <ele>2817.900</ele>
        <time>2021-05-10T14:01:46Z</time>
        <name>WPT.9</name>
      </trkpt>
      <trkpt lat="35.220216690" lon="-107.637044340">
        <ele>2820.100</ele>
        <time>2021-05-10T14:01:51Z</time>
        <name>WPT.10</name>
      </trkpt>
      <trkpt lat="35.220262230" lon="-107.637021640">
        <ele>2818.100</ele>
        <time>2021-05-10T14:01:55Z</time>
        <name>WPT.11</name>
      </trkpt>
      <trkpt lat="35.220295620" lon="-107.636992870">
        <ele>2817.100</ele>
        <time>2021-05-10T14:01:59Z</time>
        <name>WPT.12</name>
      </trkpt>
      <trkpt lat="35.220335470" lon="-107.636977280">
        <ele>2815.900</ele>
        <time>2021-05-10T14:02:04Z</time>
        <name>WPT.13</name>
      </trkpt>
      <trkpt lat="35.220370570" lon="-107.636951360">
        <ele>2814.100</ele>
        <time>2021-05-10T14:02:08Z</time>
        <name>WPT.14</name>
      </trkpt>
      <trkpt lat="35.220409400" lon="-107.636955750">
        <ele>2819.500</ele>
        <time>2021-05-10T14:02:13Z</time>
        <name>WPT.15</name>
      </trkpt>
      <trkpt lat="35.220448600" lon="-107.636945680">
        <ele>2819.200</ele>
        <time>2021-05-10T14:02:17Z</time>
        <name>WPT.16</name>
      </trkpt>
      <trkpt lat="35.220482290" lon="-107.636927900">
        <ele>2818.400</ele>
        <time>2021-05-10T14:02:21Z</time>
        <name>WPT.17</name>
      </trkpt>
      <trkpt lat="35.220506240" lon="-107.636889850">
        <ele>2813.800</ele>
        <time>2021-05-10T14:02:24Z</time>
        <name>WPT.18</name>
      </trkpt>
      <trkpt lat="35.220540310" lon="-107.636873950">
        <ele>2813.800</ele>
        <time>2021-05-10T14:02:30Z</time>
        <name>WPT.19</name>
      </trkpt>
      <trkpt lat="35.220558220" lon="-107.636832110">
        <ele>2811.700</ele>
        <time>2021-05-10T14:02:33Z</time>
        <name>WPT.20</name>
      </trkpt>
      <trkpt lat="35.220599620" lon="-107.636829030">
        <ele>2813.000</ele>
        <time>2021-05-10T14:02:36Z</time>
        <name>WPT.21</name>
      </trkpt>
      <trkpt lat="35.220636800" lon="-107.636829640">
        <ele>2814.200</ele>
        <time>2021-05-10T14:02:39Z</time>
        <name>WPT.22</name>
      </trkpt>
      <trkpt lat="35.220673340" lon="-107.636834890">
        <ele>2815.200</ele>
        <time>2021-05-10T14:02:42Z</time>
        <name>WPT.23</name>
      </trkpt>
      <trkpt lat="35.220711760" lon="-107.636835560">
        <ele>2815.700</ele>
        <time>2021-05-10T14:02:45Z</time>
        <name>WPT.24</name>
      </trkpt>
      <trkpt lat="35.220748970" lon="-107.636862390">
        <ele>2819.600</ele>
        <time>2021-05-10T14:02:55Z</time>
        <name>WPT.25</name>
      </trkpt>
      <trkpt lat="35.220790850" lon="-107.636872290">
        <ele>2820.700</ele>
        <time>2021-05-10T14:03:01Z</time>
        <name>WPT.26</name>
      </trkpt>
      <trkpt lat="35.220827030" lon="-107.636881670">
        <ele>2822.900</ele>
        <time>2021-05-10T14:03:06Z</time>
        <name>WPT.27</name>
      </trkpt>
      <trkpt lat="35.220862760" lon="-107.636889610">
        <ele>2821.100</ele>
        <time>2021-05-10T14:03:12Z</time>
        <name>WPT.28</name>
      </trkpt>
      <trkpt lat="35.220902920" lon="-107.636896480">
        <ele>2821.300</ele>
        <time>2021-05-10T14:03:18Z</time>
        <name>WPT.29</name>
      </trkpt>
      <trkpt lat="35.220948150" lon="-107.636887630">
        <ele>2819.600</ele>
        <time>2021-05-10T14:03:23Z</time>
        <name>WPT.30</name>
      </trkpt>
      <trkpt lat="35.220988440" lon="-107.636896310">
        <ele>2818.400</ele>
        <time>2021-05-10T14:03:30Z</time>
        <name>WPT.31</name>
      </trkpt>
      <trkpt lat="35.221008750" lon="-107.636935400">
        <ele>2820.600</ele>
        <time>2021-05-10T14:03:37Z</time>
        <name>WPT.32</name>
      </trkpt>
      <trkpt lat="35.221042730" lon="-107.636959010">
        <ele>2819.700</ele>
        <time>2021-05-10T14:03:43Z</time>
        <name>WPT.33</name>
      </trkpt>
      <trkpt lat="35.221072430" lon="-107.636985010">
        <ele>2824.000</ele>
        <time>2021-05-10T14:03:49Z</time>
        <name>WPT.34</name>
      </trkpt>
      <trkpt lat="35.221112190" lon="-107.636992180">
        <ele>2824.700</ele>
        <time>2021-05-10T14:03:55Z</time>
        <name>WPT.35</name>
      </trkpt>
      <trkpt lat="35.221152310" lon="-107.637008460">
        <ele>2826.600</ele>
        <time>2021-05-10T14:04:06Z</time>
        <name>WPT.36</name>
      </trkpt>
      <trkpt lat="35.221192320" lon="-107.637017310">
        <ele>2828.400</ele>
        <time>2021-05-10T14:04:11Z</time>
        <name>WPT.37</name>
      </trkpt>
      <trkpt lat="35.221219800" lon="-107.636979920">
        <ele>2824.300</ele>
        <time>2021-05-10T14:04:15Z</time>
        <name>WPT.38</name>
      </trkpt>
      <trkpt lat="35.221260310" lon="-107.636964960">
        <ele>2826.400</ele>
        <time>2021-05-10T14:04:20Z</time>
        <name>WPT.39</name>
      </trkpt>
      <trkpt lat="35.221296860" lon="-107.636960210">
        <ele>2827.100</ele>
        <time>2021-05-10T14:04:24Z</time>
        <name>WPT.40</name>
      </trkpt>
      <trkpt lat="35.221337440" lon="-107.636947070">
        <ele>2826.200</ele>
        <time>2021-05-10T14:04:30Z</time>
        <name>WPT.41</name>
      </trkpt>
      <trkpt lat="35.221372890" lon="-107.636920000">
        <ele>2826.900</ele>
        <time>2021-05-10T14:04:36Z</time>
        <name>WPT.42</name>
      </trkpt>
      <trkpt lat="35.221409720" lon="-107.636908470">
        <ele>2826.400</ele>
        <time>2021-05-10T14:04:44Z</time>
        <name>WPT.43</name>
      </trkpt>
      <trkpt lat="35.221441670" lon="-107.636884080">
        <ele>2827.200</ele>
        <time>2021-05-10T14:04:50Z</time>
        <name>WPT.44</name>
      </trkpt>
      <trkpt lat="35.221480270" lon="-107.636888890">
        <ele>2830.100</ele>
        <time>2021-05-10T14:04:56Z</time>
        <name>WPT.45</name>
      </trkpt>
      <trkpt lat="35.221511760" lon="-107.636860420">
        <ele>2826.300</ele>
        <time>2021-05-10T14:05:01Z</time>
        <name>WPT.46</name>
      </trkpt>
      <trkpt lat="35.221534740" lon="-107.636824710">
        <ele>2826.100</ele>
        <time>2021-05-10T14:05:06Z</time>
        <name>WPT.47</name>
      </trkpt>
      <trkpt lat="35.221530090" lon="-107.636780740">
        <ele>2821.800</ele>
        <time>2021-05-10T14:05:12Z</time>
        <name>WPT.48</name>
      </trkpt>
      <trkpt lat="35.221500230" lon="-107.636749600">
        <ele>2826.200</ele>
        <time>2021-05-10T14:05:19Z</time>
        <name>WPT.49</name>
      </trkpt>
      <trkpt lat="35.221464810" lon="-107.636725590">
        <ele>2828.000</ele>
        <time>2021-05-10T14:05:24Z</time>
        <name>WPT.50</name>
      </trkpt>
      <trkpt lat="35.221432940" lon="-107.636704080">
        <ele>2827.000</ele>
        <time>2021-05-10T14:05:27Z</time>
        <name>WPT.51</name>
      </trkpt>
      <trkpt lat="35.221399270" lon="-107.636670510">
        <ele>2826.900</ele>
        <time>2021-05-10T14:05:31Z</time>
        <name>WPT.52</name>
      </trkpt>
      <trkpt lat="35.221367070" lon="-107.636645910">
        <ele>2828.900</ele>
        <time>2021-05-10T14:05:35Z</time>
        <name>WPT.53</name>
      </trkpt>
      <trkpt lat="35.221342490" lon="-107.636607480">
        <ele>2832.900</ele>
        <time>2021-05-10T14:05:40Z</time>
        <name>WPT.54</name>
      </trkpt>
      <trkpt lat="35.221319420" lon="-107.636562480">
        <ele>2834.000</ele>
        <time>2021-05-10T14:05:45Z</time>
        <name>WPT.55</name>
      </trkpt>
      <trkpt lat="35.221310660" lon="-107.636518300">
        <ele>2836.100</ele>
        <time>2021-05-10T14:05:50Z</time>
        <name>WPT.56</name>
      </trkpt>
      <trkpt lat="35.221281220" lon="-107.636492290">
        <ele>2836.200</ele>
        <time>2021-05-10T14:05:55Z</time>
        <name>WPT.57</name>
      </trkpt>
      <trkpt lat="35.221264360" lon="-107.636451840">
        <ele>2836.100</ele>
        <time>2021-05-10T14:06:02Z</time>
        <name>WPT.58</name>
      </trkpt>
      <trkpt lat="35.221238280" lon="-107.636419150">
        <ele>2840.500</ele>
        <time>2021-05-10T14:06:13Z</time>
        <name>WPT.59</name>
      </trkpt>
      <trkpt lat="35.221221060" lon="-107.636379480">
        <ele>2841.200</ele>
        <time>2021-05-10T14:06:19Z</time>
        <name>WPT.60</name>
      </trkpt>
      <trkpt lat="35.221200330" lon="-107.636342940">
        <ele>2841.300</ele>
        <time>2021-05-10T14:06:26Z</time>
        <name>WPT.61</name>
      </trkpt>
      <trkpt lat="35.221167980" lon="-107.636308520">
        <ele>2841.800</ele>
        <time>2021-05-10T14:06:32Z</time>
        <name>WPT.62</name>
      </trkpt>
      <trkpt lat="35.221132300" lon="-107.636279860">
        <ele>2842.600</ele>
        <time>2021-05-10T14:07:01Z</time>
        <name>WPT.63</name>
      </trkpt>
      <trkpt lat="35.221101120" lon="-107.636251500">
        <ele>2842.100</ele>
        <time>2021-05-10T14:07:05Z</time>
        <name>WPT.64</name>
      </trkpt>
      <trkpt lat="35.221078890" lon="-107.636214540">
        <ele>2841.000</ele>
        <time>2021-05-10T14:07:10Z</time>
        <name>WPT.65</name>
      </trkpt>
      <trkpt lat="35.221070360" lon="-107.636162570">
        <ele>2838.400</ele>
        <time>2021-05-10T14:07:16Z</time>
        <name>WPT.66</name>
      </trkpt>
      <trkpt lat="35.221081590" lon="-107.636111640">
        <ele>2839.000</ele>
        <time>2021-05-10T14:07:21Z</time>
        <name>WPT.67</name>
      </trkpt>
      <trkpt lat="35.221078310" lon="-107.636056060">
        <ele>2839.000</ele>
        <time>2021-05-10T14:07:26Z</time>
        <name>WPT.68</name>
      </trkpt>
      <trkpt lat="35.221067980" lon="-107.636007600">
        <ele>2838.600</ele>
        <time>2021-05-10T14:07:31Z</time>
        <name>WPT.69</name>
      </trkpt>
      <trkpt lat="35.221047710" lon="-107.635968860">
        <ele>2839.400</ele>
        <time>2021-05-10T14:07:37Z</time>
        <name>WPT.70</name>
      </trkpt>
      <trkpt lat="35.221041930" lon="-107.635919700">
        <ele>2838.200</ele>
        <time>2021-05-10T14:07:42Z</time>
        <name>WPT.71</name>
      </trkpt>
      <trkpt lat="35.221038200" lon="-107.635868820">
        <ele>2840.600</ele>
        <time>2021-05-10T14:07:47Z</time>
        <name>WPT.72</name>
      </trkpt>
      <trkpt lat="35.221006190" lon="-107.635839060">
        <ele>2841.300</ele>
        <time>2021-05-10T14:07:53Z</time>
        <name>WPT.73</name>
      </trkpt>
      <trkpt lat="35.220990400" lon="-107.635792000">
        <ele>2841.400</ele>
        <time>2021-05-10T14:07:59Z</time>
        <name>WPT.74</name>
      </trkpt>
      <trkpt lat="35.220983380" lon="-107.635742870">
        <ele>2839.400</ele>
        <time>2021-05-10T14:08:03Z</time>
        <name>WPT.75</name>
      </trkpt>
      <trkpt lat="35.220979160" lon="-107.635693420">
        <ele>2842.100</ele>
        <time>2021-05-10T14:08:08Z</time>
        <name>WPT.76</name>
      </trkpt>
      <trkpt lat="35.220987970" lon="-107.635646310">
        <ele>2844.000</ele>
        <time>2021-05-10T14:08:13Z</time>
        <name>WPT.77</name>
      </trkpt>
      <trkpt lat="35.221003670" lon="-107.635605650">
        <ele>2845.000</ele>
        <time>2021-05-10T14:08:19Z</time>
        <name>WPT.78</name>
      </trkpt>
      <trkpt lat="35.221011700" lon="-107.635555770">
        <ele>2849.300</ele>
        <time>2021-05-10T14:08:25Z</time>
        <name>WPT.79</name>
      </trkpt>
      <trkpt lat="35.221009500" lon="-107.635507070">
        <ele>2848.900</ele>
        <time>2021-05-10T14:08:29Z</time>
        <name>WPT.80</name>
      </trkpt>
      <trkpt lat="35.221004440" lon="-107.635452890">
        <ele>2849.100</ele>
        <time>2021-05-10T14:08:34Z</time>
        <name>WPT.81</name>
      </trkpt>
      <trkpt lat="35.221012960" lon="-107.635402020">
        <ele>2849.200</ele>
        <time>2021-05-10T14:08:39Z</time>
        <name>WPT.82</name>
      </trkpt>
      <trkpt lat="35.221035700" lon="-107.635361160">
        <ele>2851.000</ele>
        <time>2021-05-10T14:08:47Z</time>
        <name>WPT.83</name>
      </trkpt>
      <trkpt lat="35.221068600" lon="-107.635338730">
        <ele>2853.600</ele>
        <time>2021-05-10T14:08:54Z</time>
        <name>WPT.84</name>
      </trkpt>
      <trkpt lat="35.221111860" lon="-107.635335400">
        <ele>2854.700</ele>
        <time>2021-05-10T14:09:01Z</time>
        <name>WPT.85</name>
      </trkpt>
      <trkpt lat="35.221152210" lon="-107.635325790">
        <ele>2856.300</ele>
        <time>2021-05-10T14:09:08Z</time>
        <name>WPT.86</name>
      </trkpt>
      <trkpt lat="35.221177700" lon="-107.635278760">
        <ele>2854.500</ele>
        <time>2021-05-10T14:09:13Z</time>
        <name>WPT.87</name>
      </trkpt>
      <trkpt lat="35.221187950" lon="-107.635228340">
        <ele>2855.400</ele>
        <time>2021-05-10T14:09:17Z</time>
        <name>WPT.88</name>
      </trkpt>
      <trkpt lat="35.221206130" lon="-107.635182060">
        <ele>2854.400</ele>
        <time>2021-05-10T14:09:22Z</time>
        <name>WPT.89</name>
      </trkpt>
      <trkpt lat="35.221222890" lon="-107.635141540">
        <ele>2850.600</ele>
        <time>2021-05-10T14:09:26Z</time>
        <name>WPT.90</name>
      </trkpt>
      <trkpt lat="35.221246980" lon="-107.635106660">
        <ele>2853.100</ele>
        <time>2021-05-10T14:09:31Z</time>
        <name>WPT.91</name>
      </trkpt>
      <trkpt lat="35.221273460" lon="-107.635075090">
        <ele>2854.000</ele>
        <time>2021-05-10T14:09:35Z</time>
        <name>WPT.92</name>
      </trkpt>
      <trkpt lat="35.221312100" lon="-107.635049580">
        <ele>2851.900</ele>
        <time>2021-05-10T14:09:39Z</time>
        <name>WPT.93</name>
      </trkpt>
      <trkpt lat="35.221323710" lon="-107.635001020">
        <ele>2853.600</ele>
        <time>2021-05-10T14:09:44Z</time>
        <name>WPT.94</name>
      </trkpt>
      <trkpt lat="35.221339950" lon="-107.634950360">
        <ele>2853.500</ele>
        <time>2021-05-10T14:09:50Z</time>
        <name>WPT.95</name>
      </trkpt>
      <trkpt lat="35.221364640" lon="-107.634908570">
        <ele>2853.500</ele>
        <time>2021-05-10T14:09:54Z</time>
        <name>WPT.96</name>
      </trkpt>
      <trkpt lat="35.221386490" lon="-107.634869330">
        <ele>2853.700</ele>
        <time>2021-05-10T14:09:58Z</time>
        <name>WPT.97</name>
      </trkpt>
      <trkpt lat="35.221408180" lon="-107.634829230">
        <ele>2854.600</ele>
        <time>2021-05-10T14:10:02Z</time>
        <name>WPT.98</name>
      </trkpt>
      <trkpt lat="35.221432860" lon="-107.634787110">
        <ele>2855.300</ele>
        <time>2021-05-10T14:10:08Z</time>
        <name>WPT.99</name>
      </trkpt>
      <trkpt lat="35.221463720" lon="-107.634749240">
        <ele>2853.300</ele>
        <time>2021-05-10T14:10:12Z</time>
        <name>WPT.100</name>
      </trkpt>
      <trkpt lat="35.221493350" lon="-107.634719620">
        <ele>2853.400</ele>
        <time>2021-05-10T14:10:17Z</time>
        <name>WPT.101</name>
      </trkpt>
      <trkpt lat="35.221525030" lon="-107.634688530">
        <ele>2855.400</ele>
        <time>2021-05-10T14:10:23Z</time>
        <name>WPT.102</name>
      </trkpt>
      <trkpt lat="35.221553920" lon="-107.634657770">
        <ele>2854.000</ele>
        <time>2021-05-10T14:10:27Z</time>
        <name>WPT.103</name>
      </trkpt>
      <trkpt lat="35.221587380" lon="-107.634622470">
        <ele>2853.200</ele>
        <time>2021-05-10T14:10:31Z</time>
        <name>WPT.104</name>
      </trkpt>
      <trkpt lat="35.221613270" lon="-107.634579470">
        <ele>2856.500</ele>
        <time>2021-05-10T14:10:40Z</time>
        <name>WPT.105</name>
      </trkpt>
      <trkpt lat="35.221631090" lon="-107.634536990">
        <ele>2856.700</ele>
        <time>2021-05-10T14:10:44Z</time>
        <name>WPT.106</name>
      </trkpt>
      <trkpt lat="35.221652950" lon="-107.634501720">
        <ele>2857.400</ele>
        <time>2021-05-10T14:10:49Z</time>
        <name>WPT.107</name>
      </trkpt>
      <trkpt lat="35.221677330" lon="-107.634468930">
        <ele>2856.400</ele>
        <time>2021-05-10T14:10:55Z</time>
        <name>WPT.108</name>
      </trkpt>
      <trkpt lat="35.221699160" lon="-107.634422430">
        <ele>2858.200</ele>
        <time>2021-05-10T14:11:00Z</time>
        <name>WPT.109</name>
      </trkpt>
      <trkpt lat="35.221699240" lon="-107.634371240">
        <ele>2858.800</ele>
        <time>2021-05-10T14:11:04Z</time>
        <name>WPT.110</name>
      </trkpt>
      <trkpt lat="35.221700090" lon="-107.634323730">
        <ele>2862.200</ele>
        <time>2021-05-10T14:11:09Z</time>
        <name>WPT.111</name>
      </trkpt>
      <trkpt lat="35.221723140" lon="-107.634282870">
        <ele>2864.700</ele>
        <time>2021-05-10T14:11:16Z</time>
        <name>WPT.112</name>
      </trkpt>
      <trkpt lat="35.221719630" lon="-107.634236560">
        <ele>2864.600</ele>
        <time>2021-05-10T14:11:34Z</time>
        <name>WPT.113</name>
      </trkpt>
      <trkpt lat="35.221703560" lon="-107.634196620">
        <ele>2861.900</ele>
        <time>2021-05-10T14:11:37Z</time>
        <name>WPT.114</name>
      </trkpt>
      <trkpt lat="35.221673130" lon="-107.634162100">
        <ele>2858.400</ele>
        <time>2021-05-10T14:11:43Z</time>
        <name>WPT.115</name>
      </trkpt>
      <trkpt lat="35.221659070" lon="-107.634118100">
        <ele>2857.100</ele>
        <time>2021-05-10T14:11:47Z</time>
        <name>WPT.116</name>
      </trkpt>
      <trkpt lat="35.221656880" lon="-107.634063610">
        <ele>2857.300</ele>
        <time>2021-05-10T14:11:52Z</time>
        <name>WPT.117</name>
      </trkpt>
      <trkpt lat="35.221636670" lon="-107.634019700">
        <ele>2858.100</ele>
        <time>2021-05-10T14:11:58Z</time>
        <name>WPT.118</name>
      </trkpt>
      <trkpt lat="35.221624030" lon="-107.633977500">
        <ele>2856.700</ele>
        <time>2021-05-10T14:12:02Z</time>
        <name>WPT.119</name>
      </trkpt>
      <trkpt lat="35.221617870" lon="-107.633927400">
        <ele>2856.600</ele>
        <time>2021-05-10T14:12:08Z</time>
        <name>WPT.120</name>
      </trkpt>
      <trkpt lat="35.221619010" lon="-107.633873100">
        <ele>2855.700</ele>
        <time>2021-05-10T14:12:14Z</time>
        <name>WPT.121</name>
      </trkpt>
      <trkpt lat="35.221637070" lon="-107.633832860">
        <ele>2855.300</ele>
        <time>2021-05-10T14:12:19Z</time>
        <name>WPT.122</name>
      </trkpt>
      <trkpt lat="35.221645990" lon="-107.633786970">
        <ele>2853.300</ele>
        <time>2021-05-10T14:12:24Z</time>
        <name>WPT.123</name>
      </trkpt>
      <trkpt lat="35.221656710" lon="-107.633740900">
        <ele>2852.700</ele>
        <time>2021-05-10T14:12:31Z</time>
        <name>WPT.124</name>
      </trkpt>
      <trkpt lat="35.221667710" lon="-107.633697620">
        <ele>2855.700</ele>
        <time>2021-05-10T14:12:36Z</time>
        <name>WPT.125</name>
      </trkpt>
      <trkpt lat="35.221678370" lon="-107.633648710">
        <ele>2856.200</ele>
        <time>2021-05-10T14:12:41Z</time>
        <name>WPT.126</name>
      </trkpt>
      <trkpt lat="35.221697510" lon="-107.633611120">
        <ele>2860.600</ele>
        <time>2021-05-10T14:12:48Z</time>
        <name>WPT.127</name>
      </trkpt>
      <trkpt lat="35.221736930" lon="-107.633610860">
        <ele>2861.100</ele>
        <time>2021-05-10T14:12:53Z</time>
        <name>WPT.128</name>
      </trkpt>
      <trkpt lat="35.221774310" lon="-107.633594670">
        <ele>2858.900</ele>
        <time>2021-05-10T14:12:57Z</time>
        <name>WPT.129</name>
      </trkpt>
      <trkpt lat="35.221811080" lon="-107.633590020">
        <ele>2860.600</ele>
        <time>2021-05-10T14:13:04Z</time>
        <name>WPT.130</name>
      </trkpt>
      <trkpt lat="35.221850720" lon="-107.633571280">
        <ele>2861.000</ele>
        <time>2021-05-10T14:13:10Z</time>
        <name>WPT.131</name>
      </trkpt>
      <trkpt lat="35.221863320" lon="-107.633528300">
        <ele>2859.600</ele>
        <time>2021-05-10T14:13:15Z</time>
        <name>WPT.132</name>
      </trkpt>
      <trkpt lat="35.221876560" lon="-107.633481130">
        <ele>2858.600</ele>
        <time>2021-05-10T14:13:19Z</time>
        <name>WPT.133</name>
      </trkpt>
      <trkpt lat="35.221874870" lon="-107.633436210">
        <ele>2859.500</ele>
        <time>2021-05-10T14:13:25Z</time>
        <name>WPT.134</name>
      </trkpt>
      <trkpt lat="35.221900450" lon="-107.633396800">
        <ele>2861.400</ele>
        <time>2021-05-10T14:13:33Z</time>
        <name>WPT.135</name>
      </trkpt>
      <trkpt lat="35.221924850" lon="-107.633363450">
        <ele>2865.200</ele>
        <time>2021-05-10T14:13:41Z</time>
        <name>WPT.136</name>
      </trkpt>
      <trkpt lat="35.221960090" lon="-107.633334760">
        <ele>2868.100</ele>
        <time>2021-05-10T14:13:47Z</time>
        <name>WPT.137</name>
      </trkpt>
      <trkpt lat="35.221984970" lon="-107.633292930">
        <ele>2867.600</ele>
        <time>2021-05-10T14:13:51Z</time>
        <name>WPT.138</name>
      </trkpt>
      <trkpt lat="35.222017590" lon="-107.633272650">
        <ele>2870.500</ele>
        <time>2021-05-10T14:13:54Z</time>
        <name>WPT.139</name>
      </trkpt>
      <trkpt lat="35.222054870" lon="-107.633264690">
        <ele>2870.500</ele>
        <time>2021-05-10T14:13:57Z</time>
        <name>WPT.140</name>
      </trkpt>
      <trkpt lat="35.222089240" lon="-107.633247650">
        <ele>2871.200</ele>
        <time>2021-05-10T14:14:00Z</time>
        <name>WPT.141</name>
      </trkpt>
      <trkpt lat="35.222127770" lon="-107.633239230">
        <ele>2874.600</ele>
        <time>2021-05-10T14:14:05Z</time>
        <name>WPT.142</name>
      </trkpt>
      <trkpt lat="35.222164450" lon="-107.633219410">
        <ele>2876.500</ele>
        <time>2021-05-10T14:14:10Z</time>
        <name>WPT.143</name>
      </trkpt>
      <trkpt lat="35.222199520" lon="-107.633199180">
        <ele>2875.900</ele>
        <time>2021-05-10T14:14:15Z</time>
        <name>WPT.144</name>
      </trkpt>
      <trkpt lat="35.222237770" lon="-107.633187750">
        <ele>2871.400</ele>
        <time>2021-05-10T14:14:20Z</time>
        <name>WPT.145</name>
      </trkpt>
      <trkpt lat="35.222270530" lon="-107.633168110">
        <ele>2871.700</ele>
        <time>2021-05-10T14:14:25Z</time>
        <name>WPT.146</name>
      </trkpt>
      <trkpt lat="35.222303550" lon="-107.633147370">
        <ele>2870.800</ele>
        <time>2021-05-10T14:14:36Z</time>
        <name>WPT.147</name>
      </trkpt>
      <trkpt lat="35.222340710" lon="-107.633149180">
        <ele>2875.000</ele>
        <time>2021-05-10T14:14:43Z</time>
        <name>WPT.148</name>
      </trkpt>
      <trkpt lat="35.222368570" lon="-107.633115430">
        <ele>2874.600</ele>
        <time>2021-05-10T14:14:49Z</time>
        <name>WPT.149</name>
      </trkpt>
      <trkpt lat="35.222404110" lon="-107.633087270">
        <ele>2875.100</ele>
        <time>2021-05-10T14:14:55Z</time>
        <name>WPT.150</name>
      </trkpt>
      <trkpt lat="35.222441900" lon="-107.633075410">
        <ele>2873.700</ele>
        <time>2021-05-10T14:14:59Z</time>
        <name>WPT.151</name>
      </trkpt>
      <trkpt lat="35.222478960" lon="-107.633075940">
        <ele>2872.600</ele>
        <time>2021-05-10T14:15:03Z</time>
        <name>WPT.152</name>
      </trkpt>
      <trkpt lat="35.222515720" lon="-107.633065890">
        <ele>2871.700</ele>
        <time>2021-05-10T14:15:08Z</time>
        <name>WPT.153</name>
      </trkpt>
      <trkpt lat="35.222548040" lon="-107.633043570">
        <ele>2870.600</ele>
        <time>2021-05-10T14:15:12Z</time>
        <name>WPT.154</name>
      </trkpt>
      <trkpt lat="35.222587890" lon="-107.633024040">
        <ele>2873.000</ele>
        <time>2021-05-10T14:15:17Z</time>
        <name>WPT.155</name>
      </trkpt>
      <trkpt lat="35.222626730" lon="-107.633021360">
        <ele>2873.000</ele>
        <time>2021-05-10T14:15:20Z</time>
        <name>WPT.156</name>
      </trkpt>
      <trkpt lat="35.222669780" lon="-107.633018380">
        <ele>2872.100</ele>
        <time>2021-05-10T14:15:24Z</time>
        <name>WPT.157</name>
      </trkpt>
      <trkpt lat="35.222685320" lon="-107.632967970">
        <ele>2871.300</ele>
        <time>2021-05-10T14:15:31Z</time>
        <name>WPT.158</name>
      </trkpt>
      <trkpt lat="35.222700560" lon="-107.632917200">
        <ele>2868.700</ele>
        <time>2021-05-10T14:15:36Z</time>
        <name>WPT.159</name>
      </trkpt>
      <trkpt lat="35.222706640" lon="-107.632865230">
        <ele>2867.300</ele>
        <time>2021-05-10T14:15:40Z</time>
        <name>WPT.160</name>
      </trkpt>
      <trkpt lat="35.222710420" lon="-107.632813100">
        <ele>2869.200</ele>
        <time>2021-05-10T14:15:44Z</time>
        <name>WPT.161</name>
      </trkpt>
      <trkpt lat="35.222721610" lon="-107.632765650">
        <ele>2872.100</ele>
        <time>2021-05-10T14:15:48Z</time>
        <name>WPT.162</name>
      </trkpt>
      <trkpt lat="35.222709660" lon="-107.632712280">
        <ele>2873.400</ele>
        <time>2021-05-10T14:15:53Z</time>
        <name>WPT.163</name>
      </trkpt>
      <trkpt lat="35.222699850" lon="-107.632661250">
        <ele>2873.100</ele>
        <time>2021-05-10T14:15:58Z</time>
        <name>WPT.164</name>
      </trkpt>
      <trkpt lat="35.222700900" lon="-107.632614180">
        <ele>2872.500</ele>
        <time>2021-05-10T14:16:03Z</time>
        <name>WPT.165</name>
      </trkpt>
      <trkpt lat="35.222721130" lon="-107.632576790">
        <ele>2872.300</ele>
        <time>2021-05-10T14:16:07Z</time>
        <name>WPT.166</name>
      </trkpt>
      <trkpt lat="35.222750780" lon="-107.632546840">
        <ele>2873.900</ele>
        <time>2021-05-10T14:16:15Z</time>
        <name>WPT.167</name>
      </trkpt>
      <trkpt lat="35.222780170" lon="-107.632520690">
        <ele>2872.100</ele>
        <time>2021-05-10T14:16:20Z</time>
        <name>WPT.168</name>
      </trkpt>
      <trkpt lat="35.222819640" lon="-107.632496990">
        <ele>2870.800</ele>
        <time>2021-05-10T14:16:26Z</time>
        <name>WPT.169</name>
      </trkpt>
      <trkpt lat="35.222848680" lon="-107.632468420">
        <ele>2872.900</ele>
        <time>2021-05-10T14:16:32Z</time>
        <name>WPT.170</name>
      </trkpt>
      <trkpt lat="35.222866620" lon="-107.632430190">
        <ele>2873.400</ele>
        <time>2021-05-10T14:16:37Z</time>
        <name>WPT.171</name>
      </trkpt>
      <trkpt lat="35.222901340" lon="-107.632405180">
        <ele>2872.100</ele>
        <time>2021-05-10T14:16:42Z</time>
        <name>WPT.172</name>
      </trkpt>
      <trkpt lat="35.222946640" lon="-107.632392660">
        <ele>2873.600</ele>
        <time>2021-05-10T14:16:48Z</time>
        <name>WPT.173</name>
      </trkpt>
      <trkpt lat="35.222990070" lon="-107.632390710">
        <ele>2873.500</ele>
        <time>2021-05-10T14:16:54Z</time>
        <name>WPT.174</name>
      </trkpt>
      <trkpt lat="35.223026120" lon="-107.632393180">
        <ele>2873.400</ele>
        <time>2021-05-10T14:16:59Z</time>
        <name>WPT.175</name>
      </trkpt>
      <trkpt lat="35.223066440" lon="-107.632380620">
        <ele>2873.100</ele>
        <time>2021-05-10T14:17:03Z</time>
        <name>WPT.176</name>
      </trkpt>
      <trkpt lat="35.223091890" lon="-107.632339400">
        <ele>2875.200</ele>
        <time>2021-05-10T14:17:11Z</time>
        <name>WPT.177</name>
      </trkpt>
      <trkpt lat="35.223120500" lon="-107.632308120">
        <ele>2875.500</ele>
        <time>2021-05-10T14:17:16Z</time>
        <name>WPT.178</name>
      </trkpt>
      <trkpt lat="35.223146970" lon="-107.632276980">
        <ele>2873.700</ele>
        <time>2021-05-10T14:17:21Z</time>
        <name>WPT.179</name>
      </trkpt>
      <trkpt lat="35.223181600" lon="-107.632244180">
        <ele>2875.300</ele>
        <time>2021-05-10T14:17:27Z</time>
        <name>WPT.180</name>
      </trkpt>
      <trkpt lat="35.223210380" lon="-107.632212320">
        <ele>2875.000</ele>
        <time>2021-05-10T14:17:32Z</time>
        <name>WPT.181</name>
      </trkpt>
      <trkpt lat="35.223245220" lon="-107.632182630">
        <ele>2876.300</ele>
        <time>2021-05-10T14:17:39Z</time>
        <name>WPT.182</name>
      </trkpt>
      <trkpt lat="35.223277320" lon="-107.632158960">
        <ele>2878.400</ele>
        <time>2021-05-10T14:17:46Z</time>
        <name>WPT.183</name>
      </trkpt>
      <trkpt lat="35.223297680" lon="-107.632119350">
        <ele>2877.400</ele>
        <time>2021-05-10T14:17:50Z</time>
        <name>WPT.184</name>
      </trkpt>
      <trkpt lat="35.223333250" lon="-107.632099960">
        <ele>2879.200</ele>
        <time>2021-05-10T14:17:57Z</time>
        <name>WPT.185</name>
      </trkpt>
      <trkpt lat="35.223366050" lon="-107.632073870">
        <ele>2877.000</ele>
        <time>2021-05-10T14:18:01Z</time>
        <name>WPT.186</name>
      </trkpt>
      <trkpt lat="35.223397140" lon="-107.632045490">
        <ele>2880.900</ele>
        <time>2021-05-10T14:18:07Z</time>
        <name>WPT.187</name>
      </trkpt>
      <trkpt lat="35.223425920" lon="-107.632018770">
        <ele>2884.200</ele>
        <time>2021-05-10T14:18:33Z</time>
        <name>WPT.188</name>
      </trkpt>
      <trkpt lat="35.223445220" lon="-107.631972230">
        <ele>2882.400</ele>
        <time>2021-05-10T14:18:39Z</time>
        <name>WPT.189</name>
      </trkpt>
      <trkpt lat="35.223424970" lon="-107.631926620">
        <ele>2882.800</ele>
        <time>2021-05-10T14:18:45Z</time>
        <name>WPT.190</name>
      </trkpt>
      <trkpt lat="35.223384680" lon="-107.631898780">
        <ele>2881.800</ele>
        <time>2021-05-10T14:18:50Z</time>
        <name>WPT.191</name>
      </trkpt>
      <trkpt lat="35.223353520" lon="-107.631867300">
        <ele>2882.400</ele>
        <time>2021-05-10T14:18:54Z</time>
        <name>WPT.192</name>
      </trkpt>
      <trkpt lat="35.223316870" lon="-107.631826930">
        <ele>2883.500</ele>
        <time>2021-05-10T14:18:59Z</time>
        <name>WPT.193</name>
      </trkpt>
      <trkpt lat="35.223281100" lon="-107.631816550">
        <ele>2881.200</ele>
        <time>2021-05-10T14:19:02Z</time>
        <name>WPT.194</name>
      </trkpt>
      <trkpt lat="35.223264470" lon="-107.631772530">
        <ele>2881.100</ele>
        <time>2021-05-10T14:19:05Z</time>
        <name>WPT.195</name>
      </trkpt>
      <trkpt lat="35.223268970" lon="-107.631719360">
        <ele>2881.500</ele>
        <time>2021-05-10T14:19:08Z</time>
        <name>WPT.196</name>
      </trkpt>
      <trkpt lat="35.223275610" lon="-107.631673090">
        <ele>2879.400</ele>
        <time>2021-05-10T14:19:10Z</time>
        <name>WPT.197</name>
      </trkpt>
      <trkpt lat="35.223280330" lon="-107.631622040">
        <ele>2880.400</ele>
        <time>2021-05-10T14:19:12Z</time>
        <name>WPT.198</name>
      </trkpt>
      <trkpt lat="35.223307980" lon="-107.631583670">
        <ele>2881.000</ele>
        <time>2021-05-10T14:19:29Z</time>
        <name>WPT.199</name>
      </trkpt>
      <trkpt lat="35.223346620" lon="-107.631547770">
        <ele>2880.500</ele>
        <time>2021-05-10T14:19:34Z</time>
        <name>WPT.200</name>
      </trkpt>
      <trkpt lat="35.223380810" lon="-107.631529400">
        <ele>2881.200</ele>
        <time>2021-05-10T14:19:37Z</time>
        <name>WPT.201</name>
      </trkpt>
      <trkpt lat="35.223378070" lon="-107.631476480">
        <ele>2880.100</ele>
        <time>2021-05-10T14:19:45Z</time>
        <name>WPT.202</name>
      </trkpt>
      <trkpt lat="35.223388380" lon="-107.631426580">
        <ele>2882.200</ele>
        <time>2021-05-10T14:19:48Z</time>
        <name>WPT.203</name>
      </trkpt>
      <trkpt lat="35.223418770" lon="-107.631386380">
        <ele>2881.600</ele>
        <time>2021-05-10T14:19:52Z</time>
        <name>WPT.204</name>
      </trkpt>
      <trkpt lat="35.223443730" lon="-107.631350570">
        <ele>2881.900</ele>
        <time>2021-05-10T14:20:32Z</time>
        <name>WPT.205</name>
      </trkpt>
      <trkpt lat="35.223459230" lon="-107.631309630">
        <ele>2882.600</ele>
        <time>2021-05-10T14:20:58Z</time>
        <name>WPT.206</name>
      </trkpt>
      <trkpt lat="35.223485610" lon="-107.631266850">
        <ele>2881.900</ele>
        <time>2021-05-10T14:21:07Z</time>
        <name>WPT.207</name>
      </trkpt>
      <trkpt lat="35.223507040" lon="-107.631228590">
        <ele>2882.300</ele>
        <time>2021-05-10T14:21:12Z</time>
        <name>WPT.208</name>
      </trkpt>
      <trkpt lat="35.223542510" lon="-107.631208830">
        <ele>2882.300</ele>
        <time>2021-05-10T14:21:16Z</time>
        <name>WPT.209</name>
      </trkpt>
      <trkpt lat="35.223580910" lon="-107.631195170">
        <ele>2881.600</ele>
        <time>2021-05-10T14:21:19Z</time>
        <name>WPT.210</name>
      </trkpt>
      <trkpt lat="35.223613350" lon="-107.631170880">
        <ele>2880.100</ele>
        <time>2021-05-10T14:21:22Z</time>
        <name>WPT.211</name>
      </trkpt>
      <trkpt lat="35.223651760" lon="-107.631138550">
        <ele>2879.200</ele>
        <time>2021-05-10T14:21:26Z</time>
        <name>WPT.212</name>
      </trkpt>
      <trkpt lat="35.223682460" lon="-107.631110960">
        <ele>2880.200</ele>
        <time>2021-05-10T14:21:30Z</time>
        <name>WPT.213</name>
      </trkpt>
      <trkpt lat="35.223715000" lon="-107.631082460">
        <ele>2878.900</ele>
        <time>2021-05-10T14:21:35Z</time>
        <name>WPT.214</name>
      </trkpt>
      <trkpt lat="35.223737420" lon="-107.631042270">
        <ele>2883.100</ele>
        <time>2021-05-10T14:21:43Z</time>
        <name>WPT.215</name>
      </trkpt>
      <trkpt lat="35.223775020" lon="-107.631018020">
        <ele>2884.800</ele>
        <time>2021-05-10T14:21:49Z</time>
        <name>WPT.216</name>
      </trkpt>
      <trkpt lat="35.223801340" lon="-107.630977360">
        <ele>2879.600</ele>
        <time>2021-05-10T14:21:54Z</time>
        <name>WPT.217</name>
      </trkpt>
      <trkpt lat="35.223825500" lon="-107.630942460">
        <ele>2876.500</ele>
        <time>2021-05-10T14:21:57Z</time>
        <name>WPT.218</name>
      </trkpt>
      <trkpt lat="35.223840460" lon="-107.630894630">
        <ele>2875.900</ele>
        <time>2021-05-10T14:22:01Z</time>
        <name>WPT.219</name>
      </trkpt>
      <trkpt lat="35.223842010" lon="-107.630846070">
        <ele>2875.400</ele>
        <time>2021-05-10T14:22:05Z</time>
        <name>WPT.220</name>
      </trkpt>
      <trkpt lat="35.223830860" lon="-107.630798770">
        <ele>2871.600</ele>
        <time>2021-05-10T14:22:10Z</time>
        <name>WPT.221</name>
      </trkpt>
      <trkpt lat="35.223822660" lon="-107.630749910">
        <ele>2871.000</ele>
        <time>2021-05-10T14:22:15Z</time>
        <name>WPT.222</name>
      </trkpt>
      <trkpt lat="35.223832500" lon="-107.630695110">
        <ele>2872.500</ele>
        <time>2021-05-10T14:22:19Z</time>
        <name>WPT.223</name>
      </trkpt>
      <trkpt lat="35.223833820" lon="-107.630646670">
        <ele>2873.600</ele>
        <time>2021-05-10T14:22:23Z</time>
        <name>WPT.224</name>
      </trkpt>
      <trkpt lat="35.223846620" lon="-107.630597410">
        <ele>2871.900</ele>
        <time>2021-05-10T14:22:28Z</time>
        <name>WPT.225</name>
      </trkpt>
      <trkpt lat="35.223843060" lon="-107.630551270">
        <ele>2870.700</ele>
        <time>2021-05-10T14:22:33Z</time>
        <name>WPT.226</name>
      </trkpt>
      <trkpt lat="35.223823590" lon="-107.630507070">
        <ele>2870.200</ele>
        <time>2021-05-10T14:22:39Z</time>
        <name>WPT.227</name>
      </trkpt>
      <trkpt lat="35.223798290" lon="-107.630465330">
        <ele>2870.200</ele>
        <time>2021-05-10T14:22:44Z</time>
        <name>WPT.228</name>
      </trkpt>
      <trkpt lat="35.223793600" lon="-107.630414610">
        <ele>2873.200</ele>
        <time>2021-05-10T14:22:49Z</time>
        <name>WPT.229</name>
      </trkpt>
      <trkpt lat="35.223773940" lon="-107.630368100">
        <ele>2874.100</ele>
        <time>2021-05-10T14:22:55Z</time>
        <name>WPT.230</name>
      </trkpt>
      <trkpt lat="35.223736870" lon="-107.630347600">
        <ele>2873.000</ele>
        <time>2021-05-10T14:23:02Z</time>
        <name>WPT.231</name>
      </trkpt>
      <trkpt lat="35.223704280" lon="-107.630315070">
        <ele>2874.200</ele>
        <time>2021-05-10T14:23:06Z</time>
        <name>WPT.232</name>
      </trkpt>
      <trkpt lat="35.223667720" lon="-107.630290820">
        <ele>2875.000</ele>
        <time>2021-05-10T14:23:10Z</time>
        <name>WPT.233</name>
      </trkpt>
      <trkpt lat="35.223633350" lon="-107.630270030">
        <ele>2875.700</ele>
        <time>2021-05-10T14:23:14Z</time>
        <name>WPT.234</name>
      </trkpt>
      <trkpt lat="35.223607930" lon="-107.630234070">
        <ele>2876.100</ele>
        <time>2021-05-10T14:23:20Z</time>
        <name>WPT.235</name>
      </trkpt>
      <trkpt lat="35.223574060" lon="-107.630208480">
        <ele>2878.900</ele>
        <time>2021-05-10T14:23:47Z</time>
        <name>WPT.236</name>
      </trkpt>
      <trkpt lat="35.223547850" lon="-107.630178020">
        <ele>2881.900</ele>
        <time>2021-05-10T14:24:03Z</time>
        <name>WPT.237</name>
      </trkpt>
      <trkpt lat="35.223504260" lon="-107.630158950">
        <ele>2882.400</ele>
        <time>2021-05-10T14:24:08Z</time>
        <name>WPT.238</name>
      </trkpt>
      <trkpt lat="35.223467020" lon="-107.630145290">
        <ele>2883.800</ele>
        <time>2021-05-10T14:24:11Z</time>
        <name>WPT.239</name>
      </trkpt>
      <trkpt lat="35.223422500" lon="-107.630130340">
        <ele>2885.200</ele>
        <time>2021-05-10T14:24:15Z</time>
        <name>WPT.240</name>
      </trkpt>
      <trkpt lat="35.223380750" lon="-107.630101290">
        <ele>2884.900</ele>
        <time>2021-05-10T14:24:19Z</time>
        <name>WPT.241</name>
      </trkpt>
      <trkpt lat="35.223335670" lon="-107.630084870">
        <ele>2884.800</ele>
        <time>2021-05-10T14:24:23Z</time>
        <name>WPT.242</name>
      </trkpt>
      <trkpt lat="35.223302010" lon="-107.630060940">
        <ele>2884.100</ele>
        <time>2021-05-10T14:24:27Z</time>
        <name>WPT.243</name>
      </trkpt>
      <trkpt lat="35.223259300" lon="-107.630055270">
        <ele>2885.700</ele>
        <time>2021-05-10T14:24:31Z</time>
        <name>WPT.244</name>
      </trkpt>
      <trkpt lat="35.223214720" lon="-107.630043680">
        <ele>2887.100</ele>
        <time>2021-05-10T14:24:34Z</time>
        <name>WPT.245</name>
      </trkpt>
      <trkpt lat="35.223177110" lon="-107.630050200">
        <ele>2890.100</ele>
        <time>2021-05-10T14:24:37Z</time>
        <name>WPT.246</name>
      </trkpt>
      <trkpt lat="35.223135820" lon="-107.630048610">
        <ele>2893.500</ele>
        <time>2021-05-10T14:24:41Z</time>
        <name>WPT.247</name>
      </trkpt>
      <trkpt lat="35.223088190" lon="-107.630036650">
        <ele>2895.700</ele>
        <time>2021-05-10T14:24:46Z</time>
        <name>WPT.248</name>
      </trkpt>
      <trkpt lat="35.223049980" lon="-107.630041560">
        <ele>2897.100</ele>
        <time>2021-05-10T14:24:49Z</time>
        <name>WPT.249</name>
      </trkpt>
      <trkpt lat="35.223006940" lon="-107.630047070">
        <ele>2898.900</ele>
        <time>2021-05-10T14:24:53Z</time>
        <name>WPT.250</name>
      </trkpt>
      <trkpt lat="35.222969260" lon="-107.630050870">
        <ele>2898.900</ele>
        <time>2021-05-10T14:24:58Z</time>
        <name>WPT.251</name>
      </trkpt>
      <trkpt lat="35.222931830" lon="-107.630042580">
        <ele>2900.500</ele>
        <time>2021-05-10T14:25:02Z</time>
        <name>WPT.252</name>
      </trkpt>
      <trkpt lat="35.222895830" lon="-107.630050160">
        <ele>2900.900</ele>
        <time>2021-05-10T14:25:06Z</time>
        <name>WPT.253</name>
      </trkpt>
      <trkpt lat="35.222855310" lon="-107.630055830">
        <ele>2900.400</ele>
        <time>2021-05-10T14:25:10Z</time>
        <name>WPT.254</name>
      </trkpt>
      <trkpt lat="35.222814350" lon="-107.630057320">
        <ele>2903.100</ele>
        <time>2021-05-10T14:25:14Z</time>
        <name>WPT.255</name>
      </trkpt>
      <trkpt lat="35.222769180" lon="-107.630063340">
        <ele>2903.900</ele>
        <time>2021-05-10T14:25:19Z</time>
        <name>WPT.256</name>
      </trkpt>
      <trkpt lat="35.222725080" lon="-107.630064370">
        <ele>2899.400</ele>
        <time>2021-05-10T14:25:23Z</time>
        <name>WPT.257</name>
      </trkpt>
      <trkpt lat="35.222678140" lon="-107.630070130">
        <ele>2898.400</ele>
        <time>2021-05-10T14:25:27Z</time>
        <name>WPT.258</name>
      </trkpt>
      <trkpt lat="35.222640120" lon="-107.630067360">
        <ele>2897.300</ele>
        <time>2021-05-10T14:25:30Z</time>
        <name>WPT.259</name>
      </trkpt>
      <trkpt lat="35.222600640" lon="-107.630058990">
        <ele>2898.000</ele>
        <time>2021-05-10T14:25:34Z</time>
        <name>WPT.260</name>
      </trkpt>
      <trkpt lat="35.222562600" lon="-107.630059110">
        <ele>2896.600</ele>
        <time>2021-05-10T14:25:38Z</time>
        <name>WPT.261</name>
      </trkpt>
      <trkpt lat="35.222526620" lon="-107.630068340">
        <ele>2899.200</ele>
        <time>2021-05-10T14:25:42Z</time>
        <name>WPT.262</name>
      </trkpt>
      <trkpt lat="35.222490170" lon="-107.630064450">
        <ele>2901.700</ele>
        <time>2021-05-10T14:25:47Z</time>
        <name>WPT.263</name>
      </trkpt>
      <trkpt lat="35.222527620" lon="-107.630070790">
        <ele>2893.300</ele>
        <time>2021-05-10T14:25:54Z</time>
        <name>WPT.264</name>
      </trkpt>
      <trkpt lat="35.222569580" lon="-107.630060590">
        <ele>2891.800</ele>
        <time>2021-05-10T14:26:00Z</time>
        <name>WPT.265</name>
      </trkpt>
      <trkpt lat="35.222612630" lon="-107.630054640">
        <ele>2891.000</ele>
        <time>2021-05-10T14:26:05Z</time>
        <name>WPT.266</name>
      </trkpt>
      <trkpt lat="35.222651500" lon="-107.630047210">
        <ele>2891.300</ele>
        <time>2021-05-10T14:26:13Z</time>
        <name>WPT.267</name>
      </trkpt>
      <trkpt lat="35.222690610" lon="-107.630038870">
        <ele>2890.300</ele>
        <time>2021-05-10T14:26:19Z</time>
        <name>WPT.268</name>
      </trkpt>
      <trkpt lat="35.222730500" lon="-107.630025930">
        <ele>2891.000</ele>
        <time>2021-05-10T14:26:25Z</time>
        <name>WPT.269</name>
      </trkpt>
      <trkpt lat="35.222764770" lon="-107.629995600">
        <ele>2889.000</ele>
        <time>2021-05-10T14:26:30Z</time>
        <name>WPT.270</name>
      </trkpt>
      <trkpt lat="35.222791380" lon="-107.629961070">
        <ele>2887.200</ele>
        <time>2021-05-10T14:26:35Z</time>
        <name>WPT.271</name>
      </trkpt>
      <trkpt lat="35.222825870" lon="-107.629933930">
        <ele>2888.400</ele>
        <time>2021-05-10T14:26:40Z</time>
        <name>WPT.272</name>
      </trkpt>
      <trkpt lat="35.222855510" lon="-107.629894060">
        <ele>2886.200</ele>
        <time>2021-05-10T14:26:44Z</time>
        <name>WPT.273</name>
      </trkpt>
      <trkpt lat="35.222890720" lon="-107.629862470">
        <ele>2886.900</ele>
        <time>2021-05-10T14:26:48Z</time>
        <name>WPT.274</name>
      </trkpt>
      <trkpt lat="35.222921450" lon="-107.629836110">
        <ele>2888.100</ele>
        <time>2021-05-10T14:26:52Z</time>
        <name>WPT.275</name>
      </trkpt>
      <trkpt lat="35.222957840" lon="-107.629808170">
        <ele>2887.700</ele>
        <time>2021-05-10T14:26:57Z</time>
        <name>WPT.276</name>
      </trkpt>
      <trkpt lat="35.222990930" lon="-107.629779550">
        <ele>2887.600</ele>
        <time>2021-05-10T14:27:02Z</time>
        <name>WPT.277</name>
      </trkpt>
      <trkpt lat="35.223035140" lon="-107.629775450">
        <ele>2890.700</ele>
        <time>2021-05-10T14:27:07Z</time>
        <name>WPT.278</name>
      </trkpt>
      <trkpt lat="35.223076990" lon="-107.629764600">
        <ele>2891.400</ele>
        <time>2021-05-10T14:27:12Z</time>
        <name>WPT.279</name>
      </trkpt>
      <trkpt lat="35.223117560" lon="-107.629753500">
        <ele>2891.300</ele>
        <time>2021-05-10T14:27:17Z</time>
        <name>WPT.280</name>
      </trkpt>
      <trkpt lat="35.223151450" lon="-107.629734460">
        <ele>2890.900</ele>
        <time>2021-05-10T14:27:23Z</time>
        <name>WPT.281</name>
      </trkpt>
      <trkpt lat="35.223190510" lon="-107.629730150">
        <ele>2890.300</ele>
        <time>2021-05-10T14:27:28Z</time>
        <name>WPT.282</name>
      </trkpt>
      <trkpt lat="35.223233280" lon="-107.629715080">
        <ele>2892.900</ele>
        <time>2021-05-10T14:27:33Z</time>
        <name>WPT.283</name>
      </trkpt>
      <trkpt lat="35.223273140" lon="-107.629721440">
        <ele>2894.600</ele>
        <time>2021-05-10T14:27:37Z</time>
        <name>WPT.284</name>
      </trkpt>
      <trkpt lat="35.223307520" lon="-107.629705270">
        <ele>2896.100</ele>
        <time>2021-05-10T14:27:44Z</time>
        <name>WPT.285</name>
      </trkpt>
      <trkpt lat="35.223345430" lon="-107.629703610">
        <ele>2899.600</ele>
        <time>2021-05-10T14:27:51Z</time>
        <name>WPT.286</name>
      </trkpt>
      <trkpt lat="35.223388570" lon="-107.629698150">
        <ele>2898.300</ele>
        <time>2021-05-10T14:27:57Z</time>
        <name>WPT.287</name>
      </trkpt>
      <trkpt lat="35.223426090" lon="-107.629702800">
        <ele>2899.800</ele>
        <time>2021-05-10T14:28:02Z</time>
        <name>WPT.288</name>
      </trkpt>
      <trkpt lat="35.223464770" lon="-107.629689600">
        <ele>2897.600</ele>
        <time>2021-05-10T14:28:06Z</time>
        <name>WPT.289</name>
      </trkpt>
      <trkpt lat="35.223504720" lon="-107.629677680">
        <ele>2893.700</ele>
        <time>2021-05-10T14:28:10Z</time>
        <name>WPT.290</name>
      </trkpt>
      <trkpt lat="35.223542140" lon="-107.629653090">
        <ele>2891.600</ele>
        <time>2021-05-10T14:28:15Z</time>
        <name>WPT.291</name>
      </trkpt>
      <trkpt lat="35.223582090" lon="-107.629642560">
        <ele>2892.200</ele>
        <time>2021-05-10T14:28:22Z</time>
        <name>WPT.292</name>
      </trkpt>
      <trkpt lat="35.223613490" lon="-107.629620370">
        <ele>2890.500</ele>
        <time>2021-05-10T14:28:41Z</time>
        <name>WPT.293</name>
      </trkpt>
      <trkpt lat="35.223650500" lon="-107.629613260">
        <ele>2891.900</ele>
        <time>2021-05-10T14:28:46Z</time>
        <name>WPT.294</name>
      </trkpt>
      <trkpt lat="35.223688610" lon="-107.629602470">
        <ele>2895.400</ele>
        <time>2021-05-10T14:28:51Z</time>
        <name>WPT.295</name>
      </trkpt>
      <trkpt lat="35.223723750" lon="-107.629580330">
        <ele>2898.700</ele>
        <time>2021-05-10T14:28:57Z</time>
        <name>WPT.296</name>
      </trkpt>
      <trkpt lat="35.223762650" lon="-107.629572190">
        <ele>2901.600</ele>
        <time>2021-05-10T14:29:02Z</time>
        <name>WPT.297</name>
      </trkpt>
      <trkpt lat="35.223803260" lon="-107.629553950">
        <ele>2902.500</ele>
        <time>2021-05-10T14:29:07Z</time>
        <name>WPT.298</name>
      </trkpt>
      <trkpt lat="35.223838210" lon="-107.629538510">
        <ele>2903.500</ele>
        <time>2021-05-10T14:29:12Z</time>
        <name>WPT.299</name>
      </trkpt>
      <trkpt lat="35.223875280" lon="-107.629507640">
        <ele>2904.300</ele>
        <time>2021-05-10T14:29:17Z</time>
        <name>WPT.300</name>
      </trkpt>
      <trkpt lat="35.223909850" lon="-107.629470430">
        <ele>2905.200</ele>
        <time>2021-05-10T14:29:22Z</time>
        <name>WPT.301</name>
      </trkpt>
      <trkpt lat="35.223939830" lon="-107.629439240">
        <ele>2904.600</ele>
        <time>2021-05-10T14:29:27Z</time>
        <name>WPT.302</name>
      </trkpt>
      <trkpt lat="35.223979090" lon="-107.629433650">
        <ele>2903.700</ele>
        <time>2021-05-10T14:29:31Z</time>
        <name>WPT.303</name>
      </trkpt>
      <trkpt lat="35.224018680" lon="-107.629414730">
        <ele>2904.400</ele>
        <time>2021-05-10T14:29:36Z</time>
        <name>WPT.304</name>
      </trkpt>
      <trkpt lat="35.224061120" lon="-107.629407560">
        <ele>2903.300</ele>
        <time>2021-05-10T14:29:41Z</time>
        <name>WPT.305</name>
      </trkpt>
      <trkpt lat="35.224100550" lon="-107.629400830">
        <ele>2902.200</ele>
        <time>2021-05-10T14:29:46Z</time>
        <name>WPT.306</name>
      </trkpt>
      <trkpt lat="35.224133400" lon="-107.629368910">
        <ele>2903.200</ele>
        <time>2021-05-10T14:29:52Z</time>
        <name>WPT.307</name>
      </trkpt>
      <trkpt lat="35.224176510" lon="-107.629360300">
        <ele>2905.400</ele>
        <time>2021-05-10T14:29:57Z</time>
        <name>WPT.308</name>
      </trkpt>
      <trkpt lat="35.224211520" lon="-107.629345290">
        <ele>2905.600</ele>
        <time>2021-05-10T14:30:02Z</time>
        <name>WPT.309</name>
      </trkpt>
      <trkpt lat="35.224249450" lon="-107.629328570">
        <ele>2905.900</ele>
        <time>2021-05-10T14:30:07Z</time>
        <name>WPT.310</name>
      </trkpt>
      <trkpt lat="35.224284740" lon="-107.629300670">
        <ele>2905.700</ele>
        <time>2021-05-10T14:30:13Z</time>
        <name>WPT.311</name>
      </trkpt>
      <trkpt lat="35.224317970" lon="-107.629280060">
        <ele>2907.100</ele>
        <time>2021-05-10T14:30:18Z</time>
        <name>WPT.312</name>
      </trkpt>
      <trkpt lat="35.224358510" lon="-107.629252800">
        <ele>2906.300</ele>
        <time>2021-05-10T14:30:23Z</time>
        <name>WPT.313</name>
      </trkpt>
      <trkpt lat="35.224386230" lon="-107.629223430">
        <ele>2906.200</ele>
        <time>2021-05-10T14:30:28Z</time>
        <name>WPT.314</name>
      </trkpt>
      <trkpt lat="35.224424040" lon="-107.629218960">
        <ele>2906.600</ele>
        <time>2021-05-10T14:30:32Z</time>
        <name>WPT.315</name>
      </trkpt>
      <trkpt lat="35.224456390" lon="-107.629194920">
        <ele>2906.600</ele>
        <time>2021-05-10T14:30:36Z</time>
        <name>WPT.316</name>
      </trkpt>
      <trkpt lat="35.224494340" lon="-107.629181200">
        <ele>2908.500</ele>
        <time>2021-05-10T14:30:41Z</time>
        <name>WPT.317</name>
      </trkpt>
      <trkpt lat="35.224529060" lon="-107.629151370">
        <ele>2908.900</ele>
        <time>2021-05-10T14:30:47Z</time>
        <name>WPT.318</name>
      </trkpt>
      <trkpt lat="35.224557300" lon="-107.629122890">
        <ele>2910.000</ele>
        <time>2021-05-10T14:30:52Z</time>
        <name>WPT.319</name>
      </trkpt>
      <trkpt lat="35.224588500" lon="-107.629081590">
        <ele>2909.600</ele>
        <time>2021-05-10T14:30:58Z</time>
        <name>WPT.320</name>
      </trkpt>
      <trkpt lat="35.224617560" lon="-107.629054800">
        <ele>2911.600</ele>
        <time>2021-05-10T14:31:03Z</time>
        <name>WPT.321</name>
      </trkpt>
      <trkpt lat="35.224647530" lon="-107.629025870">
        <ele>2914.200</ele>
        <time>2021-05-10T14:31:08Z</time>
        <name>WPT.322</name>
      </trkpt>
      <trkpt lat="35.224677790" lon="-107.628994540">
        <ele>2915.800</ele>
        <time>2021-05-10T14:31:14Z</time>
        <name>WPT.323</name>
      </trkpt>
      <trkpt lat="35.224685570" lon="-107.628946250">
        <ele>2913.900</ele>
        <time>2021-05-10T14:31:19Z</time>
        <name>WPT.324</name>
      </trkpt>
      <trkpt lat="35.224706580" lon="-107.628909280">
        <ele>2915.100</ele>
        <time>2021-05-10T14:31:24Z</time>
        <name>WPT.325</name>
      </trkpt>
      <trkpt lat="35.224728760" lon="-107.628872270">
        <ele>2914.500</ele>
        <time>2021-05-10T14:31:29Z</time>
        <name>WPT.326</name>
      </trkpt>
      <trkpt lat="35.224748530" lon="-107.628826420">
        <ele>2915.500</ele>
        <time>2021-05-10T14:31:35Z</time>
        <name>WPT.327</name>
      </trkpt>
      <trkpt lat="35.224774650" lon="-107.628793470">
        <ele>2916.200</ele>
        <time>2021-05-10T14:31:41Z</time>
        <name>WPT.328</name>
      </trkpt>
      <trkpt lat="35.224746400" lon="-107.628765880">
        <ele>2916.100</ele>
        <time>2021-05-10T14:31:53Z</time>
        <name>WPT.329</name>
      </trkpt>
      <trkpt lat="35.224719030" lon="-107.628728530">
        <ele>2913.700</ele>
        <time>2021-05-10T14:32:00Z</time>
        <name>WPT.330</name>
      </trkpt>
      <trkpt lat="35.224757010" lon="-107.628715300">
        <ele>2913.500</ele>
        <time>2021-05-10T14:34:25Z</time>
        <name>WPT.331</name>
      </trkpt>
      <trkpt lat="35.224784960" lon="-107.628685430">
        <ele>2912.900</ele>
        <time>2021-05-10T14:34:29Z</time>
        <name>WPT.332</name>
      </trkpt>
      <trkpt lat="35.224804390" lon="-107.628641740">
        <ele>2912.800</ele>
        <time>2021-05-10T14:34:34Z</time>
        <name>WPT.333</name>
      </trkpt>
      <trkpt lat="35.224839100" lon="-107.628624100">
        <ele>2914.800</ele>
        <time>2021-05-10T14:34:39Z</time>
        <name>WPT.334</name>
      </trkpt>
      <trkpt lat="35.224866740" lon="-107.628589750">
        <ele>2915.900</ele>
        <time>2021-05-10T14:34:45Z</time>
        <name>WPT.335</name>
      </trkpt>
      <trkpt lat="35.224895990" lon="-107.628553760">
        <ele>2914.600</ele>
        <time>2021-05-10T14:34:49Z</time>
        <name>WPT.336</name>
      </trkpt>
      <trkpt lat="35.224930110" lon="-107.628529620">
        <ele>2916.400</ele>
        <time>2021-05-10T14:34:54Z</time>
        <name>WPT.337</name>
      </trkpt>
      <trkpt lat="35.224952840" lon="-107.628492890">
        <ele>2916.700</ele>
        <time>2021-05-10T14:34:59Z</time>
        <name>WPT.338</name>
      </trkpt>
      <trkpt lat="35.224974200" lon="-107.628450310">
        <ele>2918.300</ele>
        <time>2021-05-10T14:35:08Z</time>
        <name>WPT.339</name>
      </trkpt>
      <trkpt lat="35.225002770" lon="-107.628422860">
        <ele>2920.000</ele>
        <time>2021-05-10T14:35:12Z</time>
        <name>WPT.340</name>
      </trkpt>
      <trkpt lat="35.225023360" lon="-107.628386130">
        <ele>2919.300</ele>
        <time>2021-05-10T14:35:16Z</time>
        <name>WPT.341</name>
      </trkpt>
      <trkpt lat="35.225044180" lon="-107.628338900">
        <ele>2919.900</ele>
        <time>2021-05-10T14:35:20Z</time>
        <name>WPT.342</name>
      </trkpt>
      <trkpt lat="35.225074570" lon="-107.628294670">
        <ele>2920.300</ele>
        <time>2021-05-10T14:35:24Z</time>
        <name>WPT.343</name>
      </trkpt>
      <trkpt lat="35.225094400" lon="-107.628252990">
        <ele>2921.400</ele>
        <time>2021-05-10T14:35:28Z</time>
        <name>WPT.344</name>
      </trkpt>
      <trkpt lat="35.225130030" lon="-107.628227610">
        <ele>2923.800</ele>
        <time>2021-05-10T14:35:33Z</time>
        <name>WPT.345</name>
      </trkpt>
      <trkpt lat="35.225148680" lon="-107.628188900">
        <ele>2924.800</ele>
        <time>2021-05-10T14:35:37Z</time>
        <name>WPT.346</name>
      </trkpt>
      <trkpt lat="35.225168240" lon="-107.628149380">
        <ele>2925.500</ele>
        <time>2021-05-10T14:35:41Z</time>
        <name>WPT.347</name>
      </trkpt>
      <trkpt lat="35.225191600" lon="-107.628114060">
        <ele>2927.400</ele>
        <time>2021-05-10T14:35:46Z</time>
        <name>WPT.348</name>
      </trkpt>
      <trkpt lat="35.225204500" lon="-107.628062340">
        <ele>2925.000</ele>
        <time>2021-05-10T14:35:50Z</time>
        <name>WPT.349</name>
      </trkpt>
      <trkpt lat="35.225223530" lon="-107.628018790">
        <ele>2924.400</ele>
        <time>2021-05-10T14:35:54Z</time>
        <name>WPT.350</name>
      </trkpt>
      <trkpt lat="35.225231700" lon="-107.627964960">
        <ele>2925.800</ele>
        <time>2021-05-10T14:35:59Z</time>
        <name>WPT.351</name>
      </trkpt>
      <trkpt lat="35.225246290" lon="-107.627916960">
        <ele>2924.600</ele>
        <time>2021-05-10T14:36:02Z</time>
        <name>WPT.352</name>
      </trkpt>
      <trkpt lat="35.225261580" lon="-107.627873700">
        <ele>2923.700</ele>
        <time>2021-05-10T14:36:05Z</time>
        <name>WPT.353</name>
      </trkpt>
      <trkpt lat="35.225296370" lon="-107.627847990">
        <ele>2925.800</ele>
        <time>2021-05-10T14:36:08Z</time>
        <name>WPT.354</name>
      </trkpt>
      <trkpt lat="35.225312190" lon="-107.627796220">
        <ele>2925.500</ele>
        <time>2021-05-10T14:36:12Z</time>
        <name>WPT.355</name>
      </trkpt>
      <trkpt lat="35.225311900" lon="-107.627749000">
        <ele>2924.700</ele>
        <time>2021-05-10T14:36:16Z</time>
        <name>WPT.356</name>
      </trkpt>
      <trkpt lat="35.225340840" lon="-107.627703330">
        <ele>2925.400</ele>
        <time>2021-05-10T14:36:21Z</time>
        <name>WPT.357</name>
      </trkpt>
      <trkpt lat="35.225371430" lon="-107.627676320">
        <ele>2926.700</ele>
        <time>2021-05-10T14:36:24Z</time>
        <name>WPT.358</name>
      </trkpt>
      <trkpt lat="35.225397750" lon="-107.627635840">
        <ele>2928.100</ele>
        <time>2021-05-10T14:36:28Z</time>
        <name>WPT.359</name>
      </trkpt>
      <trkpt lat="35.225410210" lon="-107.627589760">
        <ele>2930.100</ele>
        <time>2021-05-10T14:36:32Z</time>
        <name>WPT.360</name>
      </trkpt>
      <trkpt lat="35.225425400" lon="-107.627534260">
        <ele>2928.600</ele>
        <time>2021-05-10T14:36:36Z</time>
        <name>WPT.361</name>
      </trkpt>
      <trkpt lat="35.225441920" lon="-107.627492690">
        <ele>2927.200</ele>
        <time>2021-05-10T14:36:39Z</time>
        <name>WPT.362</name>
      </trkpt>
      <trkpt lat="35.225449390" lon="-107.627448390">
        <ele>2924.900</ele>
        <time>2021-05-10T14:36:42Z</time>
        <name>WPT.363</name>
      </trkpt>
      <trkpt lat="35.225464660" lon="-107.627396580">
        <ele>2924.800</ele>
        <time>2021-05-10T14:36:45Z</time>
        <name>WPT.364</name>
      </trkpt>
      <trkpt lat="35.225464600" lon="-107.627342200">
        <ele>2924.700</ele>
        <time>2021-05-10T14:36:48Z</time>
        <name>WPT.365</name>
      </trkpt>
      <trkpt lat="35.225474590" lon="-107.627292320">
        <ele>2923.900</ele>
        <time>2021-05-10T14:36:51Z</time>
        <name>WPT.366</name>
      </trkpt>
      <trkpt lat="35.225482770" lon="-107.627244880">
        <ele>2925.000</ele>
        <time>2021-05-10T14:36:54Z</time>
        <name>WPT.367</name>
      </trkpt>
      <trkpt lat="35.225494420" lon="-107.627198430">
        <ele>2924.200</ele>
        <time>2021-05-10T14:36:57Z</time>
        <name>WPT.368</name>
      </trkpt>
      <trkpt lat="35.225510300" lon="-107.627155250">
        <ele>2924.100</ele>
        <time>2021-05-10T14:37:00Z</time>
        <name>WPT.369</name>
      </trkpt>
      <trkpt lat="35.225524390" lon="-107.627100260">
        <ele>2924.400</ele>
        <time>2021-05-10T14:37:04Z</time>
        <name>WPT.370</name>
      </trkpt>
      <trkpt lat="35.225545030" lon="-107.627060640">
        <ele>2924.000</ele>
        <time>2021-05-10T14:37:07Z</time>
        <name>WPT.371</name>
      </trkpt>
      <trkpt lat="35.225581370" lon="-107.627020250">
        <ele>2925.500</ele>
        <time>2021-05-10T14:37:10Z</time>
        <name>WPT.372</name>
      </trkpt>
      <trkpt lat="35.225599370" lon="-107.626981440">
        <ele>2924.800</ele>
        <time>2021-05-10T14:37:13Z</time>
        <name>WPT.373</name>
      </trkpt>
      <trkpt lat="35.225621970" lon="-107.626939670">
        <ele>2925.900</ele>
        <time>2021-05-10T14:37:17Z</time>
        <name>WPT.374</name>
      </trkpt>
      <trkpt lat="35.225633100" lon="-107.626888850">
        <ele>2925.300</ele>
        <time>2021-05-10T14:37:21Z</time>
        <name>WPT.375</name>
      </trkpt>
      <trkpt lat="35.225666900" lon="-107.626869750">
        <ele>2927.500</ele>
        <time>2021-05-10T14:37:26Z</time>
        <name>WPT.376</name>
      </trkpt>
      <trkpt lat="35.225695780" lon="-107.626837920">
        <ele>2928.900</ele>
        <time>2021-05-10T14:37:30Z</time>
        <name>WPT.377</name>
      </trkpt>
      <trkpt lat="35.225727530" lon="-107.626807210">
        <ele>2925.900</ele>
        <time>2021-05-10T14:37:33Z</time>
        <name>WPT.378</name>
      </trkpt>
      <trkpt lat="35.225740040" lon="-107.626759360">
        <ele>2924.500</ele>
        <time>2021-05-10T14:37:36Z</time>
        <name>WPT.379</name>
      </trkpt>
      <trkpt lat="35.225743170" lon="-107.626707420">
        <ele>2923.800</ele>
        <time>2021-05-10T14:37:39Z</time>
        <name>WPT.380</name>
      </trkpt>
      <trkpt lat="35.225752570" lon="-107.626655960">
        <ele>2925.400</ele>
        <time>2021-05-10T14:37:43Z</time>
        <name>WPT.381</name>
      </trkpt>
      <trkpt lat="35.225776600" lon="-107.626619970">
        <ele>2926.300</ele>
        <time>2021-05-10T14:37:47Z</time>
        <name>WPT.382</name>
      </trkpt>
      <trkpt lat="35.225806550" lon="-107.626580550">
        <ele>2926.400</ele>
        <time>2021-05-10T14:37:51Z</time>
        <name>WPT.383</name>
      </trkpt>
      <trkpt lat="35.225826780" lon="-107.626534630">
        <ele>2926.500</ele>
        <time>2021-05-10T14:37:55Z</time>
        <name>WPT.384</name>
      </trkpt>
      <trkpt lat="35.225826320" lon="-107.626479810">
        <ele>2927.600</ele>
        <time>2021-05-10T14:37:59Z</time>
        <name>WPT.385</name>
      </trkpt>
      <trkpt lat="35.225843590" lon="-107.626428240">
        <ele>2929.700</ele>
        <time>2021-05-10T14:38:03Z</time>
        <name>WPT.386</name>
      </trkpt>
      <trkpt lat="35.225861290" lon="-107.626385520">
        <ele>2931.000</ele>
        <time>2021-05-10T14:38:07Z</time>
        <name>WPT.387</name>
      </trkpt>
      <trkpt lat="35.225868000" lon="-107.626332900">
        <ele>2929.200</ele>
        <time>2021-05-10T14:38:11Z</time>
        <name>WPT.388</name>
      </trkpt>
      <trkpt lat="35.225887960" lon="-107.626294230">
        <ele>2929.000</ele>
        <time>2021-05-10T14:38:14Z</time>
        <name>WPT.389</name>
      </trkpt>
      <trkpt lat="35.225902720" lon="-107.626248090">
        <ele>2929.900</ele>
        <time>2021-05-10T14:38:18Z</time>
        <name>WPT.390</name>
      </trkpt>
      <trkpt lat="35.225920400" lon="-107.626207370">
        <ele>2931.700</ele>
        <time>2021-05-10T14:38:22Z</time>
        <name>WPT.391</name>
      </trkpt>
      <trkpt lat="35.225925410" lon="-107.626158270">
        <ele>2932.900</ele>
        <time>2021-05-10T14:38:28Z</time>
        <name>WPT.392</name>
      </trkpt>
      <trkpt lat="35.225939060" lon="-107.626115590">
        <ele>2935.800</ele>
        <time>2021-05-10T14:38:34Z</time>
        <name>WPT.393</name>
      </trkpt>
      <trkpt lat="35.225955950" lon="-107.626068970">
        <ele>2937.600</ele>
        <time>2021-05-10T14:38:39Z</time>
        <name>WPT.394</name>
      </trkpt>
      <trkpt lat="35.225983690" lon="-107.626028070">
        <ele>2938.400</ele>
        <time>2021-05-10T14:38:44Z</time>
        <name>WPT.395</name>
      </trkpt>
      <trkpt lat="35.226008380" lon="-107.625979350">
        <ele>2938.600</ele>
        <time>2021-05-10T14:38:49Z</time>
        <name>WPT.396</name>
      </trkpt>
      <trkpt lat="35.226030950" lon="-107.625936310">
        <ele>2939.000</ele>
        <time>2021-05-10T14:38:53Z</time>
        <name>WPT.397</name>
      </trkpt>
      <trkpt lat="35.226038590" lon="-107.625890230">
        <ele>2940.300</ele>
        <time>2021-05-10T14:38:58Z</time>
        <name>WPT.398</name>
      </trkpt>
      <trkpt lat="35.226073490" lon="-107.625872060">
        <ele>2941.800</ele>
        <time>2021-05-10T14:39:53Z</time>
        <name>WPT.399</name>
      </trkpt>
      <trkpt lat="35.226112160" lon="-107.625860190">
        <ele>2940.700</ele>
        <time>2021-05-10T14:43:26Z</time>
        <name>WPT.400</name>
      </trkpt>
      <trkpt lat="35.226131150" lon="-107.625817220">
        <ele>2942.800</ele>
        <time>2021-05-10T14:44:17Z</time>
        <name>WPT.401</name>
      </trkpt>
      <trkpt lat="35.226132560" lon="-107.625771260">
        <ele>2944.900</ele>
        <time>2021-05-10T14:44:22Z</time>
        <name>WPT.402</name>
      </trkpt>
      <trkpt lat="35.226155000" lon="-107.625733910">
        <ele>2951.000</ele>
        <time>2021-05-10T14:44:29Z</time>
        <name>WPT.403</name>
      </trkpt>
      <trkpt lat="35.226162570" lon="-107.625683970">
        <ele>2950.300</ele>
        <time>2021-05-10T14:44:33Z</time>
        <name>WPT.404</name>
      </trkpt>
      <trkpt lat="35.226174370" lon="-107.625642130">
        <ele>2948.800</ele>
        <time>2021-05-10T14:44:37Z</time>
        <name>WPT.405</name>
      </trkpt>
      <trkpt lat="35.226189000" lon="-107.625594890">
        <ele>2949.400</ele>
        <time>2021-05-10T14:44:41Z</time>
        <name>WPT.406</name>
      </trkpt>
      <trkpt lat="35.226189560" lon="-107.625541410">
        <ele>2949.600</ele>
        <time>2021-05-10T14:44:45Z</time>
        <name>WPT.407</name>
      </trkpt>
      <trkpt lat="35.226205710" lon="-107.625491160">
        <ele>2949.700</ele>
        <time>2021-05-10T14:44:50Z</time>
        <name>WPT.408</name>
      </trkpt>
      <trkpt lat="35.226221400" lon="-107.625450590">
        <ele>2950.100</ele>
        <time>2021-05-10T14:44:54Z</time>
        <name>WPT.409</name>
      </trkpt>
      <trkpt lat="35.226235830" lon="-107.625400300">
        <ele>2950.900</ele>
        <time>2021-05-10T14:44:59Z</time>
        <name>WPT.410</name>
      </trkpt>
      <trkpt lat="35.226265090" lon="-107.625360560">
        <ele>2949.900</ele>
        <time>2021-05-10T14:45:04Z</time>
        <name>WPT.411</name>
      </trkpt>
      <trkpt lat="35.226273280" lon="-107.625305690">
        <ele>2950.300</ele>
        <time>2021-05-10T14:45:09Z</time>
        <name>WPT.412</name>
      </trkpt>
      <trkpt lat="35.226294980" lon="-107.625268730">
        <ele>2948.200</ele>
        <time>2021-05-10T14:45:14Z</time>
        <name>WPT.413</name>
      </trkpt>
      <trkpt lat="35.226319240" lon="-107.625232860">
        <ele>2952.300</ele>
        <time>2021-05-10T14:45:20Z</time>
        <name>WPT.414</name>
      </trkpt>
      <trkpt lat="35.226340560" lon="-107.625193530">
        <ele>2951.200</ele>
        <time>2021-05-10T14:45:24Z</time>
        <name>WPT.415</name>
      </trkpt>
      <trkpt lat="35.226355480" lon="-107.625149280">
        <ele>2952.300</ele>
        <time>2021-05-10T14:45:28Z</time>
        <name>WPT.416</name>
      </trkpt>
      <trkpt lat="35.226351130" lon="-107.625094560">
        <ele>2951.000</ele>
        <time>2021-05-10T14:45:32Z</time>
        <name>WPT.417</name>
      </trkpt>
      <trkpt lat="35.226351610" lon="-107.625049370">
        <ele>2951.000</ele>
        <time>2021-05-10T14:45:35Z</time>
        <name>WPT.418</name>
      </trkpt>
      <trkpt lat="35.226361620" lon="-107.625004180">
        <ele>2952.800</ele>
        <time>2021-05-10T14:45:39Z</time>
        <name>WPT.419</name>
      </trkpt>
      <trkpt lat="35.226366180" lon="-107.624955550">
        <ele>2951.300</ele>
        <time>2021-05-10T14:45:44Z</time>
        <name>WPT.420</name>
      </trkpt>
      <trkpt lat="35.226389550" lon="-107.624920970">
        <ele>2951.200</ele>
        <time>2021-05-10T14:45:48Z</time>
        <name>WPT.421</name>
      </trkpt>
      <trkpt lat="35.226419540" lon="-107.624893630">
        <ele>2954.900</ele>
        <time>2021-05-10T14:45:53Z</time>
        <name>WPT.422</name>
      </trkpt>
      <trkpt lat="35.226424190" lon="-107.624845960">
        <ele>2955.700</ele>
        <time>2021-05-10T14:45:58Z</time>
        <name>WPT.423</name>
      </trkpt>
      <trkpt lat="35.226431110" lon="-107.624800920">
        <ele>2956.500</ele>
        <time>2021-05-10T14:46:02Z</time>
        <name>WPT.424</name>
      </trkpt>
      <trkpt lat="35.226442860" lon="-107.624756790">
        <ele>2959.800</ele>
        <time>2021-05-10T14:46:08Z</time>
        <name>WPT.425</name>
      </trkpt>
      <trkpt lat="35.226446240" lon="-107.624709790">
        <ele>2962.500</ele>
        <time>2021-05-10T14:46:15Z</time>
        <name>WPT.426</name>
      </trkpt>
      <trkpt lat="35.226451470" lon="-107.624663670">
        <ele>2964.000</ele>
        <time>2021-05-10T14:46:19Z</time>
        <name>WPT.427</name>
      </trkpt>
      <trkpt lat="35.226471680" lon="-107.624623110">
        <ele>2964.900</ele>
        <time>2021-05-10T14:46:24Z</time>
        <name>WPT.428</name>
      </trkpt>
      <trkpt lat="35.226489830" lon="-107.624581030">
        <ele>2966.800</ele>
        <time>2021-05-10T14:46:30Z</time>
        <name>WPT.429</name>
      </trkpt>
      <trkpt lat="35.226503400" lon="-107.624539280">
        <ele>2967.200</ele>
        <time>2021-05-10T14:46:36Z</time>
        <name>WPT.430</name>
      </trkpt>
      <trkpt lat="35.226516640" lon="-107.624495060">
        <ele>2965.700</ele>
        <time>2021-05-10T14:46:40Z</time>
        <name>WPT.431</name>
      </trkpt>
      <trkpt lat="35.226520840" lon="-107.624445730">
        <ele>2964.400</ele>
        <time>2021-05-10T14:46:44Z</time>
        <name>WPT.432</name>
      </trkpt>
      <trkpt lat="35.226525240" lon="-107.624396390">
        <ele>2965.500</ele>
        <time>2021-05-10T14:46:49Z</time>
        <name>WPT.433</name>
      </trkpt>
      <trkpt lat="35.226527080" lon="-107.624344900">
        <ele>2966.700</ele>
        <time>2021-05-10T14:46:54Z</time>
        <name>WPT.434</name>
      </trkpt>
      <trkpt lat="35.226510250" lon="-107.624304690">
        <ele>2967.600</ele>
        <time>2021-05-10T14:46:58Z</time>
        <name>WPT.435</name>
      </trkpt>
      <trkpt lat="35.226511640" lon="-107.624257480">
        <ele>2965.800</ele>
        <time>2021-05-10T14:47:02Z</time>
        <name>WPT.436</name>
      </trkpt>
      <trkpt lat="35.226527700" lon="-107.624215840">
        <ele>2967.000</ele>
        <time>2021-05-10T14:47:08Z</time>
        <name>WPT.437</name>
      </trkpt>
      <trkpt lat="35.226549410" lon="-107.624180310">
        <ele>2968.800</ele>
        <time>2021-05-10T14:47:14Z</time>
        <name>WPT.438</name>
      </trkpt>
      <trkpt lat="35.226539190" lon="-107.624136310">
        <ele>2966.400</ele>
        <time>2021-05-10T14:47:18Z</time>
        <name>WPT.439</name>
      </trkpt>
      <trkpt lat="35.226529220" lon="-107.624093340">
        <ele>2966.000</ele>
        <time>2021-05-10T14:47:21Z</time>
        <name>WPT.440</name>
      </trkpt>
      <trkpt lat="35.226517090" lon="-107.624040570">
        <ele>2965.000</ele>
        <time>2021-05-10T14:47:25Z</time>
        <name>WPT.441</name>
      </trkpt>
      <trkpt lat="35.226514390" lon="-107.623990750">
        <ele>2965.600</ele>
        <time>2021-05-10T14:47:29Z</time>
        <name>WPT.442</name>
      </trkpt>
      <trkpt lat="35.226517480" lon="-107.623943740">
        <ele>2966.300</ele>
        <time>2021-05-10T14:47:33Z</time>
        <name>WPT.443</name>
      </trkpt>
      <trkpt lat="35.226523160" lon="-107.623898850">
        <ele>2966.000</ele>
        <time>2021-05-10T14:47:37Z</time>
        <name>WPT.444</name>
      </trkpt>
      <trkpt lat="35.226530520" lon="-107.623853510">
        <ele>2969.700</ele>
        <time>2021-05-10T14:47:43Z</time>
        <name>WPT.445</name>
      </trkpt>
      <trkpt lat="35.226532060" lon="-107.623808520">
        <ele>2969.800</ele>
        <time>2021-05-10T14:47:49Z</time>
        <name>WPT.446</name>
      </trkpt>
      <trkpt lat="35.226522350" lon="-107.623762240">
        <ele>2968.000</ele>
        <time>2021-05-10T14:47:54Z</time>
        <name>WPT.447</name>
      </trkpt>
      <trkpt lat="35.226514620" lon="-107.623715910">
        <ele>2966.200</ele>
        <time>2021-05-10T14:47:58Z</time>
        <name>WPT.448</name>
      </trkpt>
      <trkpt lat="35.226513510" lon="-107.623670050">
        <ele>2965.700</ele>
        <time>2021-05-10T14:48:03Z</time>
        <name>WPT.449</name>
      </trkpt>
      <trkpt lat="35.226495270" lon="-107.623620820">
        <ele>2964.400</ele>
        <time>2021-05-10T14:48:09Z</time>
        <name>WPT.450</name>
      </trkpt>
      <trkpt lat="35.226483770" lon="-107.623578720">
        <ele>2965.500</ele>
        <time>2021-05-10T14:48:15Z</time>
        <name>WPT.451</name>
      </trkpt>
      <trkpt lat="35.226467660" lon="-107.623533310">
        <ele>2967.100</ele>
        <time>2021-05-10T14:48:27Z</time>
        <name>WPT.452</name>
      </trkpt>
      <trkpt lat="35.226464210" lon="-107.623482760">
        <ele>2968.300</ele>
        <time>2021-05-10T14:48:32Z</time>
        <name>WPT.453</name>
      </trkpt>
      <trkpt lat="35.226486210" lon="-107.623440830">
        <ele>2972.800</ele>
        <time>2021-05-10T14:48:37Z</time>
        <name>WPT.454</name>
      </trkpt>
      <trkpt lat="35.226474770" lon="-107.623396530">
        <ele>2973.500</ele>
        <time>2021-05-10T14:48:42Z</time>
        <name>WPT.455</name>
      </trkpt>
      <trkpt lat="35.226447670" lon="-107.623351860">
        <ele>2974.600</ele>
        <time>2021-05-10T14:48:47Z</time>
        <name>WPT.456</name>
      </trkpt>
      <trkpt lat="35.226439190" lon="-107.623306090">
        <ele>2973.600</ele>
        <time>2021-05-10T14:48:52Z</time>
        <name>WPT.457</name>
      </trkpt>
      <trkpt lat="35.226422620" lon="-107.623255360">
        <ele>2973.400</ele>
        <time>2021-05-10T14:50:11Z</time>
        <name>WPT.458</name>
      </trkpt>
      <trkpt lat="35.226401610" lon="-107.623218490">
        <ele>2974.300</ele>
        <time>2021-05-10T14:50:15Z</time>
        <name>WPT.459</name>
      </trkpt>
      <trkpt lat="35.226385160" lon="-107.623177960">
        <ele>2974.500</ele>
        <time>2021-05-10T14:50:19Z</time>
        <name>WPT.460</name>
      </trkpt>
      <trkpt lat="35.226355390" lon="-107.623135920">
        <ele>2974.800</ele>
        <time>2021-05-10T14:50:29Z</time>
        <name>WPT.461</name>
      </trkpt>
      <trkpt lat="35.226359700" lon="-107.623091580">
        <ele>2976.700</ele>
        <time>2021-05-10T14:50:38Z</time>
        <name>WPT.462</name>
      </trkpt>
      <trkpt lat="35.226365130" lon="-107.623046840">
        <ele>2974.800</ele>
        <time>2021-05-10T14:51:07Z</time>
        <name>WPT.463</name>
      </trkpt>
      <trkpt lat="35.226340070" lon="-107.623011700">
        <ele>2974.000</ele>
        <time>2021-05-10T14:51:18Z</time>
        <name>WPT.464</name>
      </trkpt>
      <trkpt lat="35.226334870" lon="-107.622958380">
        <ele>2975.000</ele>
        <time>2021-05-10T14:51:23Z</time>
        <name>WPT.465</name>
      </trkpt>
      <trkpt lat="35.226343750" lon="-107.622905340">
        <ele>2976.200</ele>
        <time>2021-05-10T14:51:28Z</time>
        <name>WPT.466</name>
      </trkpt>
      <trkpt lat="35.226354200" lon="-107.622856770">
        <ele>2977.400</ele>
        <time>2021-05-10T14:51:33Z</time>
        <name>WPT.467</name>
      </trkpt>
      <trkpt lat="35.226328890" lon="-107.622818040">
        <ele>2977.000</ele>
        <time>2021-05-10T14:51:38Z</time>
        <name>WPT.468</name>
      </trkpt>
      <trkpt lat="35.226317990" lon="-107.622768540">
        <ele>2976.100</ele>
        <time>2021-05-10T14:51:44Z</time>
        <name>WPT.469</name>
      </trkpt>
      <trkpt lat="35.226329630" lon="-107.622725200">
        <ele>2976.800</ele>
        <time>2021-05-10T14:51:50Z</time>
        <name>WPT.470</name>
      </trkpt>
      <trkpt lat="35.226349980" lon="-107.622686860">
        <ele>2977.000</ele>
        <time>2021-05-10T14:51:53Z</time>
        <name>WPT.471</name>
      </trkpt>
      <trkpt lat="35.226361820" lon="-107.622640710">
        <ele>2978.000</ele>
        <time>2021-05-10T14:52:01Z</time>
        <name>WPT.472</name>
      </trkpt>
      <trkpt lat="35.226351300" lon="-107.622597590">
        <ele>2980.900</ele>
        <time>2021-05-10T14:52:08Z</time>
        <name>WPT.473</name>
      </trkpt>
      <trkpt lat="35.226334610" lon="-107.622548840">
        <ele>2981.800</ele>
        <time>2021-05-10T14:52:14Z</time>
        <name>WPT.474</name>
      </trkpt>
      <trkpt lat="35.226315320" lon="-107.622503980">
        <ele>2983.500</ele>
        <time>2021-05-10T14:52:19Z</time>
        <name>WPT.475</name>
      </trkpt>
      <trkpt lat="35.226300980" lon="-107.622453370">
        <ele>2984.300</ele>
        <time>2021-05-10T14:52:23Z</time>
        <name>WPT.476</name>
      </trkpt>
      <trkpt lat="35.226292900" lon="-107.622402150">
        <ele>2983.300</ele>
        <time>2021-05-10T14:52:28Z</time>
        <name>WPT.477</name>
      </trkpt>
      <trkpt lat="35.226281180" lon="-107.622360580">
        <ele>2984.200</ele>
        <time>2021-05-10T14:52:32Z</time>
        <name>WPT.478</name>
      </trkpt>
      <trkpt lat="35.226268520" lon="-107.622309120">
        <ele>2984.100</ele>
        <time>2021-05-10T14:52:39Z</time>
        <name>WPT.479</name>
      </trkpt>
      <trkpt lat="35.226267060" lon="-107.622255240">
        <ele>2984.400</ele>
        <time>2021-05-10T14:52:44Z</time>
        <name>WPT.480</name>
      </trkpt>
      <trkpt lat="35.226269930" lon="-107.622211140">
        <ele>2985.400</ele>
        <time>2021-05-10T14:52:49Z</time>
        <name>WPT.481</name>
      </trkpt>
      <trkpt lat="35.226240970" lon="-107.622176180">
        <ele>2984.700</ele>
        <time>2021-05-10T14:52:54Z</time>
        <name>WPT.482</name>
      </trkpt>
      <trkpt lat="35.226223610" lon="-107.622135100">
        <ele>2984.200</ele>
        <time>2021-05-10T14:52:58Z</time>
        <name>WPT.483</name>
      </trkpt>
      <trkpt lat="35.226211040" lon="-107.622093690">
        <ele>2984.600</ele>
        <time>2021-05-10T14:53:03Z</time>
        <name>WPT.484</name>
      </trkpt>
      <trkpt lat="35.226183600" lon="-107.622062580">
        <ele>2985.600</ele>
        <time>2021-05-10T14:53:09Z</time>
        <name>WPT.485</name>
      </trkpt>
      <trkpt lat="35.226174450" lon="-107.622009950">
        <ele>2986.400</ele>
        <time>2021-05-10T14:53:15Z</time>
        <name>WPT.486</name>
      </trkpt>
      <trkpt lat="35.226182230" lon="-107.621964750">
        <ele>2987.200</ele>
        <time>2021-05-10T14:53:20Z</time>
        <name>WPT.487</name>
      </trkpt>
      <trkpt lat="35.226171330" lon="-107.621913280">
        <ele>2986.800</ele>
        <time>2021-05-10T14:53:28Z</time>
        <name>WPT.488</name>
      </trkpt>
      <trkpt lat="35.226157220" lon="-107.621862250">
        <ele>2986.700</ele>
        <time>2021-05-10T14:53:32Z</time>
        <name>WPT.489</name>
      </trkpt>
      <trkpt lat="35.226173260" lon="-107.621814460">
        <ele>2987.800</ele>
        <time>2021-05-10T14:53:36Z</time>
        <name>WPT.490</name>
      </trkpt>
      <trkpt lat="35.226171150" lon="-107.621766290">
        <ele>2988.600</ele>
        <time>2021-05-10T14:53:41Z</time>
        <name>WPT.491</name>
      </trkpt>
      <trkpt lat="35.226149910" lon="-107.621729700">
        <ele>2988.300</ele>
        <time>2021-05-10T14:53:46Z</time>
        <name>WPT.492</name>
      </trkpt>
      <trkpt lat="35.226131160" lon="-107.621690300">
        <ele>2989.400</ele>
        <time>2021-05-10T14:53:52Z</time>
        <name>WPT.493</name>
      </trkpt>
      <trkpt lat="35.226142940" lon="-107.621641760">
        <ele>2991.900</ele>
        <time>2021-05-10T14:53:56Z</time>
        <name>WPT.494</name>
      </trkpt>
      <trkpt lat="35.226156850" lon="-107.621591230">
        <ele>2993.500</ele>
        <time>2021-05-10T14:54:01Z</time>
        <name>WPT.495</name>
      </trkpt>
      <trkpt lat="35.226148390" lon="-107.621547840">
        <ele>2997.100</ele>
        <time>2021-05-10T14:54:09Z</time>
        <name>WPT.496</name>
      </trkpt>
      <trkpt lat="35.226150530" lon="-107.621493950">
        <ele>2996.700</ele>
        <time>2021-05-10T14:54:16Z</time>
        <name>WPT.497</name>
      </trkpt>
      <trkpt lat="35.226150400" lon="-107.621440950">
        <ele>2996.300</ele>
        <time>2021-05-10T14:54:20Z</time>
        <name>WPT.498</name>
      </trkpt>
      <trkpt lat="35.226143130" lon="-107.621384440">
        <ele>2995.500</ele>
        <time>2021-05-10T14:54:24Z</time>
        <name>WPT.499</name>
      </trkpt>
      <trkpt lat="35.226135700" lon="-107.621335280">
        <ele>2995.400</ele>
        <time>2021-05-10T14:54:27Z</time>
        <name>WPT.500</name>
      </trkpt>
      <trkpt lat="35.226136620" lon="-107.621291110">
        <ele>2994.800</ele>
        <time>2021-05-10T14:54:30Z</time>
        <name>WPT.501</name>
      </trkpt>
      <trkpt lat="35.226140680" lon="-107.621238740">
        <ele>2993.500</ele>
        <time>2021-05-10T14:54:34Z</time>
        <name>WPT.502</name>
      </trkpt>
      <trkpt lat="35.226158690" lon="-107.621189450">
        <ele>2993.600</ele>
        <time>2021-05-10T14:54:39Z</time>
        <name>WPT.503</name>
      </trkpt>
      <trkpt lat="35.226149090" lon="-107.621137950">
        <ele>2992.500</ele>
        <time>2021-05-10T14:54:43Z</time>
        <name>WPT.504</name>
      </trkpt>
      <trkpt lat="35.226165350" lon="-107.621097310">
        <ele>2994.800</ele>
        <time>2021-05-10T14:54:48Z</time>
        <name>WPT.505</name>
      </trkpt>
      <trkpt lat="35.226188970" lon="-107.621052220">
        <ele>2997.000</ele>
        <time>2021-05-10T14:54:55Z</time>
        <name>WPT.506</name>
      </trkpt>
      <trkpt lat="35.226218270" lon="-107.621016490">
        <ele>2997.800</ele>
        <time>2021-05-10T14:54:59Z</time>
        <name>WPT.507</name>
      </trkpt>
      <trkpt lat="35.226238610" lon="-107.620975690">
        <ele>2997.300</ele>
        <time>2021-05-10T14:55:51Z</time>
        <name>WPT.508</name>
      </trkpt>
      <trkpt lat="35.226239990" lon="-107.620931740">
        <ele>2996.300</ele>
        <time>2021-05-10T14:55:56Z</time>
        <name>WPT.509</name>
      </trkpt>
      <trkpt lat="35.226247050" lon="-107.620884190">
        <ele>2999.000</ele>
        <time>2021-05-10T14:56:08Z</time>
        <name>WPT.510</name>
      </trkpt>
      <trkpt lat="35.226264240" lon="-107.620843430">
        <ele>3001.000</ele>
        <time>2021-05-10T14:56:15Z</time>
        <name>WPT.511</name>
      </trkpt>
      <trkpt lat="35.226294070" lon="-107.620812940">
        <ele>3001.400</ele>
        <time>2021-05-10T14:56:20Z</time>
        <name>WPT.512</name>
      </trkpt>
      <trkpt lat="35.226311900" lon="-107.620770110">
        <ele>3002.600</ele>
        <time>2021-05-10T14:56:27Z</time>
        <name>WPT.513</name>
      </trkpt>
      <trkpt lat="35.226317240" lon="-107.620724370">
        <ele>3002.500</ele>
        <time>2021-05-10T14:56:34Z</time>
        <name>WPT.514</name>
      </trkpt>
      <trkpt lat="35.226337900" lon="-107.620681370">
        <ele>3003.200</ele>
        <time>2021-05-10T14:56:38Z</time>
        <name>WPT.515</name>
      </trkpt>
      <trkpt lat="35.226347000" lon="-107.620630350">
        <ele>3000.700</ele>
        <time>2021-05-10T14:56:42Z</time>
        <name>WPT.516</name>
      </trkpt>
      <trkpt lat="35.226358610" lon="-107.620580460">
        <ele>3004.000</ele>
        <time>2021-05-10T14:56:48Z</time>
        <name>WPT.517</name>
      </trkpt>
      <trkpt lat="35.226369930" lon="-107.620532590">
        <ele>3003.600</ele>
        <time>2021-05-10T14:56:53Z</time>
        <name>WPT.518</name>
      </trkpt>
      <trkpt lat="35.226371620" lon="-107.620485610">
        <ele>3004.700</ele>
        <time>2021-05-10T14:56:58Z</time>
        <name>WPT.519</name>
      </trkpt>
      <trkpt lat="35.226389010" lon="-107.620443020">
        <ele>3006.900</ele>
        <time>2021-05-10T14:57:05Z</time>
        <name>WPT.520</name>
      </trkpt>
      <trkpt lat="35.226386840" lon="-107.620392940">
        <ele>3004.200</ele>
        <time>2021-05-10T14:57:09Z</time>
        <name>WPT.521</name>
      </trkpt>
      <trkpt lat="35.226379820" lon="-107.620347660">
        <ele>3002.500</ele>
        <time>2021-05-10T14:57:12Z</time>
        <name>WPT.522</name>
      </trkpt>
      <trkpt lat="35.226383290" lon="-107.620294840">
        <ele>3004.600</ele>
        <time>2021-05-10T14:57:44Z</time>
        <name>WPT.523</name>
      </trkpt>
      <trkpt lat="35.226381830" lon="-107.620237840">
        <ele>3004.800</ele>
        <time>2021-05-10T14:57:49Z</time>
        <name>WPT.524</name>
      </trkpt>
      <trkpt lat="35.226377200" lon="-107.620183370">
        <ele>3006.500</ele>
        <time>2021-05-10T14:57:54Z</time>
        <name>WPT.525</name>
      </trkpt>
      <trkpt lat="35.226374980" lon="-107.620134040">
        <ele>3006.900</ele>
        <time>2021-05-10T14:57:59Z</time>
        <name>WPT.526</name>
      </trkpt>
      <trkpt lat="35.226365310" lon="-107.620089300">
        <ele>3009.300</ele>
        <time>2021-05-10T14:58:08Z</time>
        <name>WPT.527</name>
      </trkpt>
      <trkpt lat="35.226352460" lon="-107.620044910">
        <ele>3010.100</ele>
        <time>2021-05-10T14:58:12Z</time>
        <name>WPT.528</name>
      </trkpt>
      <trkpt lat="35.226336080" lon="-107.619997760">
        <ele>3008.700</ele>
        <time>2021-05-10T14:58:17Z</time>
        <name>WPT.529</name>
      </trkpt>
      <trkpt lat="35.226325210" lon="-107.619953830">
        <ele>3008.400</ele>
        <time>2021-05-10T14:58:21Z</time>
        <name>WPT.530</name>
      </trkpt>
      <trkpt lat="35.226321970" lon="-107.619904580">
        <ele>3009.100</ele>
        <time>2021-05-10T14:58:25Z</time>
        <name>WPT.531</name>
      </trkpt>
      <trkpt lat="35.226318170" lon="-107.619856900">
        <ele>3008.300</ele>
        <time>2021-05-10T14:58:29Z</time>
        <name>WPT.532</name>
      </trkpt>
      <trkpt lat="35.226306300" lon="-107.619809160">
        <ele>3008.100</ele>
        <time>2021-05-10T14:58:33Z</time>
        <name>WPT.533</name>
      </trkpt>
      <trkpt lat="35.226304530" lon="-107.619764760">
        <ele>3010.700</ele>
        <time>2021-05-10T14:58:38Z</time>
        <name>WPT.534</name>
      </trkpt>
      <trkpt lat="35.226307660" lon="-107.619711980">
        <ele>3011.400</ele>
        <time>2021-05-10T14:58:42Z</time>
        <name>WPT.535</name>
      </trkpt>
      <trkpt lat="35.226297170" lon="-107.619667500">
        <ele>3011.100</ele>
        <time>2021-05-10T14:58:47Z</time>
        <name>WPT.536</name>
      </trkpt>
      <trkpt lat="35.226288500" lon="-107.619624300">
        <ele>3010.700</ele>
        <time>2021-05-10T14:58:51Z</time>
        <name>WPT.537</name>
      </trkpt>
      <trkpt lat="35.226281500" lon="-107.619575080">
        <ele>3013.600</ele>
        <time>2021-05-10T14:58:59Z</time>
        <name>WPT.538</name>
      </trkpt>
      <trkpt lat="35.226272910" lon="-107.619526650">
        <ele>3014.200</ele>
        <time>2021-05-10T14:59:03Z</time>
        <name>WPT.539</name>
      </trkpt>
      <trkpt lat="35.226243760" lon="-107.619498060">
        <ele>3013.300</ele>
        <time>2021-05-10T14:59:08Z</time>
        <name>WPT.540</name>
      </trkpt>
      <trkpt lat="35.226264840" lon="-107.619451290">
        <ele>3010.400</ele>
        <time>2021-05-10T14:59:55Z</time>
        <name>WPT.541</name>
      </trkpt>
      <trkpt lat="35.226260560" lon="-107.619402150">
        <ele>3011.300</ele>
        <time>2021-05-10T14:59:59Z</time>
        <name>WPT.542</name>
      </trkpt>
      <trkpt lat="35.226262910" lon="-107.619355800">
        <ele>3011.900</ele>
        <time>2021-05-10T15:00:03Z</time>
        <name>WPT.543</name>
      </trkpt>
      <trkpt lat="35.226260600" lon="-107.619307930">
        <ele>3011.400</ele>
        <time>2021-05-10T15:00:07Z</time>
        <name>WPT.544</name>
      </trkpt>
      <trkpt lat="35.226258910" lon="-107.619262320">
        <ele>3012.200</ele>
        <time>2021-05-10T15:00:13Z</time>
        <name>WPT.545</name>
      </trkpt>
      <trkpt lat="35.226243200" lon="-107.619222680">
        <ele>3013.400</ele>
        <time>2021-05-10T15:00:42Z</time>
        <name>WPT.546</name>
      </trkpt>
      <trkpt lat="35.226241190" lon="-107.619176590">
        <ele>3014.300</ele>
        <time>2021-05-10T15:04:10Z</time>
        <name>WPT.547</name>
      </trkpt>
      <trkpt lat="35.226233710" lon="-107.619127750">
        <ele>3016.100</ele>
        <time>2021-05-10T15:04:18Z</time>
        <name>WPT.548</name>
      </trkpt>
      <trkpt lat="35.226246590" lon="-107.619079120">
        <ele>3015.800</ele>
        <time>2021-05-10T15:04:24Z</time>
        <name>WPT.549</name>
      </trkpt>
      <trkpt lat="35.226267160" lon="-107.619039280">
        <ele>3016.200</ele>
        <time>2021-05-10T15:04:28Z</time>
        <name>WPT.550</name>
      </trkpt>
      <trkpt lat="35.226277720" lon="-107.618990420">
        <ele>3017.000</ele>
        <time>2021-05-10T15:04:33Z</time>
        <name>WPT.551</name>
      </trkpt>
      <trkpt lat="35.226286280" lon="-107.618935800">
        <ele>3017.600</ele>
        <time>2021-05-10T15:04:38Z</time>
        <name>WPT.552</name>
      </trkpt>
      <trkpt lat="35.226293080" lon="-107.618889780">
        <ele>3019.200</ele>
        <time>2021-05-10T15:04:42Z</time>
        <name>WPT.553</name>
      </trkpt>
      <trkpt lat="35.226308930" lon="-107.618849480">
        <ele>3019.600</ele>
        <time>2021-05-10T15:04:47Z</time>
        <name>WPT.554</name>
      </trkpt>
      <trkpt lat="35.226322440" lon="-107.618805460">
        <ele>3019.900</ele>
        <time>2021-05-10T15:04:52Z</time>
        <name>WPT.555</name>
      </trkpt>
      <trkpt lat="35.226325630" lon="-107.618749770">
        <ele>3020.700</ele>
        <time>2021-05-10T15:04:57Z</time>
        <name>WPT.556</name>
      </trkpt>
      <trkpt lat="35.226329900" lon="-107.618698660">
        <ele>3020.400</ele>
        <time>2021-05-10T15:05:02Z</time>
        <name>WPT.557</name>
      </trkpt>
      <trkpt lat="35.226332170" lon="-107.618653350">
        <ele>3021.100</ele>
        <time>2021-05-10T15:05:06Z</time>
        <name>WPT.558</name>
      </trkpt>
      <trkpt lat="35.226340190" lon="-107.618602520">
        <ele>3021.900</ele>
        <time>2021-05-10T15:05:11Z</time>
        <name>WPT.559</name>
      </trkpt>
      <trkpt lat="35.226348920" lon="-107.618552640">
        <ele>3023.900</ele>
        <time>2021-05-10T15:05:16Z</time>
        <name>WPT.560</name>
      </trkpt>
      <trkpt lat="35.226349960" lon="-107.618507380">
        <ele>3025.300</ele>
        <time>2021-05-10T15:05:21Z</time>
        <name>WPT.561</name>
      </trkpt>
      <trkpt lat="35.226346440" lon="-107.618458850">
        <ele>3025.900</ele>
        <time>2021-05-10T15:05:26Z</time>
        <name>WPT.562</name>
      </trkpt>
      <trkpt lat="35.226345650" lon="-107.618405010">
        <ele>3026.600</ele>
        <time>2021-05-10T15:05:31Z</time>
        <name>WPT.563</name>
      </trkpt>
      <trkpt lat="35.226352390" lon="-107.618351780">
        <ele>3027.600</ele>
        <time>2021-05-10T15:05:36Z</time>
        <name>WPT.564</name>
      </trkpt>
      <trkpt lat="35.226361690" lon="-107.618306950">
        <ele>3028.800</ele>
        <time>2021-05-10T15:05:40Z</time>
        <name>WPT.565</name>
      </trkpt>
      <trkpt lat="35.226367110" lon="-107.618258800">
        <ele>3029.700</ele>
        <time>2021-05-10T15:05:45Z</time>
        <name>WPT.566</name>
      </trkpt>
      <trkpt lat="35.226367310" lon="-107.618210980">
        <ele>3030.100</ele>
        <time>2021-05-10T15:05:50Z</time>
        <name>WPT.567</name>
      </trkpt>
      <trkpt lat="35.226364290" lon="-107.618157950">
        <ele>3030.200</ele>
        <time>2021-05-10T15:05:55Z</time>
        <name>WPT.568</name>
      </trkpt>
      <trkpt lat="35.226364870" lon="-107.618107290">
        <ele>3030.700</ele>
        <time>2021-05-10T15:06:00Z</time>
        <name>WPT.569</name>
      </trkpt>
      <trkpt lat="35.226365970" lon="-107.618059970">
        <ele>3031.100</ele>
        <time>2021-05-10T15:06:05Z</time>
        <name>WPT.570</name>
      </trkpt>
      <trkpt lat="35.226355640" lon="-107.618010590">
        <ele>3031.300</ele>
        <time>2021-05-10T15:06:10Z</time>
        <name>WPT.571</name>
      </trkpt>
      <trkpt lat="35.226344170" lon="-107.617962320">
        <ele>3031.200</ele>
        <time>2021-05-10T15:06:21Z</time>
        <name>WPT.572</name>
      </trkpt>
      <trkpt lat="35.226334110" lon="-107.617915770">
        <ele>3031.300</ele>
        <time>2021-05-10T15:07:06Z</time>
        <name>WPT.573</name>
      </trkpt>
      <trkpt lat="35.226336570" lon="-107.617863160">
        <ele>3032.600</ele>
        <time>2021-05-10T15:07:12Z</time>
        <name>WPT.574</name>
      </trkpt>
      <trkpt lat="35.226345260" lon="-107.617820230">
        <ele>3033.800</ele>
        <time>2021-05-10T15:07:17Z</time>
        <name>WPT.575</name>
      </trkpt>
      <trkpt lat="35.226355640" lon="-107.617769820">
        <ele>3034.300</ele>
        <time>2021-05-10T15:07:23Z</time>
        <name>WPT.576</name>
      </trkpt>
      <trkpt lat="35.226365110" lon="-107.617722210">
        <ele>3034.900</ele>
        <time>2021-05-10T15:07:28Z</time>
        <name>WPT.577</name>
      </trkpt>
      <trkpt lat="35.226360590" lon="-107.617675650">
        <ele>3034.400</ele>
        <time>2021-05-10T15:07:34Z</time>
        <name>WPT.578</name>
      </trkpt>
      <trkpt lat="35.226363350" lon="-107.617630780">
        <ele>3035.400</ele>
        <time>2021-05-10T15:07:39Z</time>
        <name>WPT.579</name>
      </trkpt>
      <trkpt lat="35.226371860" lon="-107.617578430">
        <ele>3036.800</ele>
        <time>2021-05-10T15:07:45Z</time>
        <name>WPT.580</name>
      </trkpt>
      <trkpt lat="35.226372050" lon="-107.617531220">
        <ele>3037.100</ele>
        <time>2021-05-10T15:07:50Z</time>
        <name>WPT.581</name>
      </trkpt>
      <trkpt lat="35.226384840" lon="-107.617483500">
        <ele>3037.000</ele>
        <time>2021-05-10T15:07:55Z</time>
        <name>WPT.582</name>
      </trkpt>
      <trkpt lat="35.226397640" lon="-107.617441580">
        <ele>3038.100</ele>
        <time>2021-05-10T15:08:00Z</time>
        <name>WPT.583</name>
      </trkpt>
      <trkpt lat="35.226387960" lon="-107.617393610">
        <ele>3038.300</ele>
        <time>2021-05-10T15:08:07Z</time>
        <name>WPT.584</name>
      </trkpt>
      <trkpt lat="35.226377100" lon="-107.617349690">
        <ele>3040.400</ele>
        <time>2021-05-10T15:08:12Z</time>
        <name>WPT.585</name>
      </trkpt>
      <trkpt lat="35.226363680" lon="-107.617306140">
        <ele>3041.100</ele>
        <time>2021-05-10T15:08:17Z</time>
        <name>WPT.586</name>
      </trkpt>
      <trkpt lat="35.226364510" lon="-107.617254250">
        <ele>3041.900</ele>
        <time>2021-05-10T15:08:23Z</time>
        <name>WPT.587</name>
      </trkpt>
      <trkpt lat="35.226371120" lon="-107.617204960">
        <ele>3043.400</ele>
        <time>2021-05-10T15:08:28Z</time>
        <name>WPT.588</name>
      </trkpt>
      <trkpt lat="35.226388640" lon="-107.617161570">
        <ele>3044.400</ele>
        <time>2021-05-10T15:08:54Z</time>
        <name>WPT.589</name>
      </trkpt>
      <trkpt lat="35.226416070" lon="-107.617121100">
        <ele>3045.600</ele>
        <time>2021-05-10T15:08:59Z</time>
        <name>WPT.590</name>
      </trkpt>
      <trkpt lat="35.226435930" lon="-107.617076370">
        <ele>3047.500</ele>
        <time>2021-05-10T15:09:04Z</time>
        <name>WPT.591</name>
      </trkpt>
      <trkpt lat="35.226441080" lon="-107.617024650">
        <ele>3048.200</ele>
        <time>2021-05-10T15:09:09Z</time>
        <name>WPT.592</name>
      </trkpt>
      <trkpt lat="35.226460080" lon="-107.616984790">
        <ele>3050.200</ele>
        <time>2021-05-10T15:09:14Z</time>
        <name>WPT.593</name>
      </trkpt>
      <trkpt lat="35.226476080" lon="-107.616945200">
        <ele>3052.200</ele>
        <time>2021-05-10T15:09:20Z</time>
        <name>WPT.594</name>
      </trkpt>
      <trkpt lat="35.226474490" lon="-107.616899590">
        <ele>3052.300</ele>
        <time>2021-05-10T15:09:25Z</time>
        <name>WPT.595</name>
      </trkpt>
      <trkpt lat="35.226484700" lon="-107.616851300">
        <ele>3052.200</ele>
        <time>2021-05-10T15:09:31Z</time>
        <name>WPT.596</name>
      </trkpt>
      <trkpt lat="35.226496540" lon="-107.616805870">
        <ele>3053.200</ele>
        <time>2021-05-10T15:09:38Z</time>
        <name>WPT.597</name>
      </trkpt>
      <trkpt lat="35.226517980" lon="-107.616770080">
        <ele>3052.400</ele>
        <time>2021-05-10T15:09:44Z</time>
        <name>WPT.598</name>
      </trkpt>
      <trkpt lat="35.226545670" lon="-107.616738110">
        <ele>3052.900</ele>
        <time>2021-05-10T15:09:49Z</time>
        <name>WPT.599</name>
      </trkpt>
      <trkpt lat="35.226546900" lon="-107.616688980">
        <ele>3053.300</ele>
        <time>2021-05-10T15:09:55Z</time>
        <name>WPT.600</name>
      </trkpt>
      <trkpt lat="35.226566730" lon="-107.616644230">
        <ele>3053.900</ele>
        <time>2021-05-10T15:10:01Z</time>
        <name>WPT.601</name>
      </trkpt>
      <trkpt lat="35.226587230" lon="-107.616607500">
        <ele>3054.800</ele>
        <time>2021-05-10T15:10:57Z</time>
        <name>WPT.602</name>
      </trkpt>
      <trkpt lat="35.226570890" lon="-107.616563280">
        <ele>3056.000</ele>
        <time>2021-05-10T15:11:04Z</time>
        <name>WPT.603</name>
      </trkpt>
      <trkpt lat="35.226547270" lon="-107.616520230">
        <ele>3057.500</ele>
        <time>2021-05-10T15:11:10Z</time>
        <name>WPT.604</name>
      </trkpt>
      <trkpt lat="35.226548730" lon="-107.616469910">
        <ele>3057.500</ele>
        <time>2021-05-10T15:11:16Z</time>
        <name>WPT.605</name>
      </trkpt>
      <trkpt lat="35.226552310" lon="-107.616417830">
        <ele>3057.700</ele>
        <time>2021-05-10T15:11:21Z</time>
        <name>WPT.606</name>
      </trkpt>
      <trkpt lat="35.226569440" lon="-107.616378460">
        <ele>3059.000</ele>
        <time>2021-05-10T15:11:26Z</time>
        <name>WPT.607</name>
      </trkpt>
      <trkpt lat="35.226593490" lon="-107.616337140">
        <ele>3059.900</ele>
        <time>2021-05-10T15:11:32Z</time>
        <name>WPT.608</name>
      </trkpt>
      <trkpt lat="35.226617300" lon="-107.616295830">
        <ele>3061.600</ele>
        <time>2021-05-10T15:11:37Z</time>
        <name>WPT.609</name>
      </trkpt>
      <trkpt lat="35.226612830" lon="-107.616251520">
        <ele>3060.500</ele>
        <time>2021-05-10T15:11:42Z</time>
        <name>WPT.610</name>
      </trkpt>
      <trkpt lat="35.226613860" lon="-107.616199250">
        <ele>3062.400</ele>
        <time>2021-05-10T15:11:49Z</time>
        <name>WPT.611</name>
      </trkpt>
      <trkpt lat="35.226615030" lon="-107.616153350">
        <ele>3063.400</ele>
        <time>2021-05-10T15:11:55Z</time>
        <name>WPT.612</name>
      </trkpt>
      <trkpt lat="35.226620720" lon="-107.616105870">
        <ele>3064.600</ele>
        <time>2021-05-10T15:12:01Z</time>
        <name>WPT.613</name>
      </trkpt>
      <trkpt lat="35.226616460" lon="-107.616061390">
        <ele>3064.800</ele>
        <time>2021-05-10T15:12:53Z</time>
        <name>WPT.614</name>
      </trkpt>
      <trkpt lat="35.226636200" lon="-107.616022970">
        <ele>3065.100</ele>
        <time>2021-05-10T15:13:01Z</time>
        <name>WPT.615</name>
      </trkpt>
      <trkpt lat="35.226643200" lon="-107.615977720">
        <ele>3066.600</ele>
        <time>2021-05-10T15:13:53Z</time>
        <name>WPT.616</name>
      </trkpt>
      <trkpt lat="35.226631260" lon="-107.615933090">
        <ele>3067.500</ele>
        <time>2021-05-10T15:14:01Z</time>
        <name>WPT.617</name>
      </trkpt>
      <trkpt lat="35.226637880" lon="-107.615889560">
        <ele>3067.100</ele>
        <time>2021-05-10T15:14:06Z</time>
        <name>WPT.618</name>
      </trkpt>
      <trkpt lat="35.226654010" lon="-107.615842220">
        <ele>3068.300</ele>
        <time>2021-05-10T15:14:18Z</time>
        <name>WPT.619</name>
      </trkpt>
      <trkpt lat="35.226658070" lon="-107.615795010">
        <ele>3070.800</ele>
        <time>2021-05-10T15:14:25Z</time>
        <name>WPT.620</name>
      </trkpt>
      <trkpt lat="35.226668500" lon="-107.615749910">
        <ele>3071.500</ele>
        <time>2021-05-10T15:14:31Z</time>
        <name>WPT.621</name>
      </trkpt>
      <trkpt lat="35.226687710" lon="-107.615708470">
        <ele>3073.300</ele>
        <time>2021-05-10T15:14:36Z</time>
        <name>WPT.622</name>
      </trkpt>
      <trkpt lat="35.226692240" lon="-107.615655860">
        <ele>3073.800</ele>
        <time>2021-05-10T15:14:42Z</time>
        <name>WPT.623</name>
      </trkpt>
      <trkpt lat="35.226697810" lon="-107.615606900">
        <ele>3074.300</ele>
        <time>2021-05-10T15:14:47Z</time>
        <name>WPT.624</name>
      </trkpt>
      <trkpt lat="35.226696470" lon="-107.615556770">
        <ele>3075.300</ele>
        <time>2021-05-10T15:14:53Z</time>
        <name>WPT.625</name>
      </trkpt>
      <trkpt lat="35.226706920" lon="-107.615513870">
        <ele>3076.800</ele>
        <time>2021-05-10T15:14:58Z</time>
        <name>WPT.626</name>
      </trkpt>
      <trkpt lat="35.226711690" lon="-107.615459340">
        <ele>3076.800</ele>
        <time>2021-05-10T15:15:03Z</time>
        <name>WPT.627</name>
      </trkpt>
      <trkpt lat="35.226716210" lon="-107.615415520">
        <ele>3076.400</ele>
        <time>2021-05-10T15:15:08Z</time>
        <name>WPT.628</name>
      </trkpt>
      <trkpt lat="35.226723320" lon="-107.615370780">
        <ele>3079.000</ele>
        <time>2021-05-10T15:15:34Z</time>
        <name>WPT.629</name>
      </trkpt>
      <trkpt lat="35.226717210" lon="-107.615322230">
        <ele>3079.900</ele>
        <time>2021-05-10T15:15:41Z</time>
        <name>WPT.630</name>
      </trkpt>
      <trkpt lat="35.226712880" lon="-107.615277420">
        <ele>3080.700</ele>
        <time>2021-05-10T15:15:46Z</time>
        <name>WPT.631</name>
      </trkpt>
      <trkpt lat="35.226716910" lon="-107.615225010">
        <ele>3082.300</ele>
        <time>2021-05-10T15:15:52Z</time>
        <name>WPT.632</name>
      </trkpt>
      <trkpt lat="35.226719040" lon="-107.615178380">
        <ele>3084.700</ele>
        <time>2021-05-10T15:15:59Z</time>
        <name>WPT.633</name>
      </trkpt>
      <trkpt lat="35.226727230" lon="-107.615131800">
        <ele>3084.800</ele>
        <time>2021-05-10T15:16:04Z</time>
        <name>WPT.634</name>
      </trkpt>
      <trkpt lat="35.226739350" lon="-107.615089200">
        <ele>3086.000</ele>
        <time>2021-05-10T15:16:10Z</time>
        <name>WPT.635</name>
      </trkpt>
      <trkpt lat="35.226761060" lon="-107.615051330">
        <ele>3087.300</ele>
        <time>2021-05-10T15:16:15Z</time>
        <name>WPT.636</name>
      </trkpt>
      <trkpt lat="35.226771760" lon="-107.615007020">
        <ele>3088.300</ele>
        <time>2021-05-10T15:16:21Z</time>
        <name>WPT.637</name>
      </trkpt>
      <trkpt lat="35.226775170" lon="-107.614958690">
        <ele>3089.900</ele>
        <time>2021-05-10T15:16:27Z</time>
        <name>WPT.638</name>
      </trkpt>
      <trkpt lat="35.226747650" lon="-107.614924130">
        <ele>3088.500</ele>
        <time>2021-05-10T15:17:18Z</time>
        <name>WPT.639</name>
      </trkpt>
      <trkpt lat="35.226734990" lon="-107.614880580">
        <ele>3089.000</ele>
        <time>2021-05-10T15:19:12Z</time>
        <name>WPT.640</name>
      </trkpt>
      <trkpt lat="35.226730420" lon="-107.614831210">
        <ele>3089.800</ele>
        <time>2021-05-10T15:19:17Z</time>
        <name>WPT.641</name>
      </trkpt>
      <trkpt lat="35.226731520" lon="-107.614781700">
        <ele>3090.600</ele>
        <time>2021-05-10T15:19:22Z</time>
        <name>WPT.642</name>
      </trkpt>
      <trkpt lat="35.226729540" lon="-107.614735390">
        <ele>3091.300</ele>
        <time>2021-05-10T15:19:27Z</time>
        <name>WPT.643</name>
      </trkpt>
      <trkpt lat="35.226739880" lon="-107.614687360">
        <ele>3092.600</ele>
        <time>2021-05-10T15:19:33Z</time>
        <name>WPT.644</name>
      </trkpt>
      <trkpt lat="35.226749010" lon="-107.614638270">
        <ele>3093.000</ele>
        <time>2021-05-10T15:19:38Z</time>
        <name>WPT.645</name>
      </trkpt>
      <trkpt lat="35.226747410" lon="-107.614585380">
        <ele>3093.900</ele>
        <time>2021-05-10T15:19:44Z</time>
        <name>WPT.646</name>
      </trkpt>
      <trkpt lat="35.226743570" lon="-107.614535080">
        <ele>3094.900</ele>
        <time>2021-05-10T15:19:49Z</time>
        <name>WPT.647</name>
      </trkpt>
      <trkpt lat="35.226737920" lon="-107.614485730">
        <ele>3095.400</ele>
        <time>2021-05-10T15:19:54Z</time>
        <name>WPT.648</name>
      </trkpt>
      <trkpt lat="35.226717990" lon="-107.614448060">
        <ele>3095.500</ele>
        <time>2021-05-10T15:19:58Z</time>
        <name>WPT.649</name>
      </trkpt>
      <trkpt lat="35.226694930" lon="-107.614410300">
        <ele>3097.000</ele>
        <time>2021-05-10T15:20:03Z</time>
        <name>WPT.650</name>
      </trkpt>
      <trkpt lat="35.226714020" lon="-107.614364410">
        <ele>3098.700</ele>
        <time>2021-05-10T15:20:08Z</time>
        <name>WPT.651</name>
      </trkpt>
      <trkpt lat="35.226719560" lon="-107.614314470">
        <ele>3100.100</ele>
        <time>2021-05-10T15:20:15Z</time>
        <name>WPT.652</name>
      </trkpt>
      <trkpt lat="35.226723190" lon="-107.614264400">
        <ele>3100.800</ele>
        <time>2021-05-10T15:20:20Z</time>
        <name>WPT.653</name>
      </trkpt>
      <trkpt lat="35.226726840" lon="-107.614214310">
        <ele>3101.000</ele>
        <time>2021-05-10T15:20:26Z</time>
        <name>WPT.654</name>
      </trkpt>
      <trkpt lat="35.226715320" lon="-107.614169910">
        <ele>3101.600</ele>
        <time>2021-05-10T15:20:31Z</time>
        <name>WPT.655</name>
      </trkpt>
      <trkpt lat="35.226694080" lon="-107.614123510">
        <ele>3102.300</ele>
        <time>2021-05-10T15:21:22Z</time>
        <name>WPT.656</name>
      </trkpt>
      <trkpt lat="35.226689130" lon="-107.614077720">
        <ele>3102.500</ele>
        <time>2021-05-10T15:21:29Z</time>
        <name>WPT.657</name>
      </trkpt>
      <trkpt lat="35.226688790" lon="-107.614030050">
        <ele>3103.000</ele>
        <time>2021-05-10T15:22:01Z</time>
        <name>WPT.658</name>
      </trkpt>
      <trkpt lat="35.226691810" lon="-107.613984600">
        <ele>3104.900</ele>
        <time>2021-05-10T15:22:10Z</time>
        <name>WPT.659</name>
      </trkpt>
      <trkpt lat="35.226701830" lon="-107.613934300">
        <ele>3105.800</ele>
        <time>2021-05-10T15:22:16Z</time>
        <name>WPT.660</name>
      </trkpt>
      <trkpt lat="35.226718840" lon="-107.613893470">
        <ele>3107.100</ele>
        <time>2021-05-10T15:22:22Z</time>
        <name>WPT.661</name>
      </trkpt>
      <trkpt lat="35.226753040" lon="-107.613861330">
        <ele>3106.600</ele>
        <time>2021-05-10T15:22:30Z</time>
        <name>WPT.662</name>
      </trkpt>
      <trkpt lat="35.226774670" lon="-107.613819080">
        <ele>3107.000</ele>
        <time>2021-05-10T15:22:37Z</time>
        <name>WPT.663</name>
      </trkpt>
      <trkpt lat="35.226773220" lon="-107.613767260">
        <ele>3108.800</ele>
        <time>2021-05-10T15:22:43Z</time>
        <name>WPT.664</name>
      </trkpt>
      <trkpt lat="35.226770330" lon="-107.613723280">
        <ele>3108.800</ele>
        <time>2021-05-10T15:22:47Z</time>
        <name>WPT.665</name>
      </trkpt>
      <trkpt lat="35.226768320" lon="-107.613669400">
        <ele>3109.600</ele>
        <time>2021-05-10T15:22:52Z</time>
        <name>WPT.666</name>
      </trkpt>
      <trkpt lat="35.226762510" lon="-107.613621270">
        <ele>3109.700</ele>
        <time>2021-05-10T15:22:56Z</time>
        <name>WPT.667</name>
      </trkpt>
      <trkpt lat="35.226761060" lon="-107.613576150">
        <ele>3110.500</ele>
        <time>2021-05-10T15:23:01Z</time>
        <name>WPT.668</name>
      </trkpt>
      <trkpt lat="35.226764720" lon="-107.613530940">
        <ele>3111.600</ele>
        <time>2021-05-10T15:23:21Z</time>
        <name>WPT.669</name>
      </trkpt>
      <trkpt lat="35.226763740" lon="-107.613484840">
        <ele>3112.800</ele>
        <time>2021-05-10T15:23:26Z</time>
        <name>WPT.670</name>
      </trkpt>
      <trkpt lat="35.226767630" lon="-107.613436040">
        <ele>3112.800</ele>
        <time>2021-05-10T15:23:31Z</time>
        <name>WPT.671</name>
      </trkpt>
      <trkpt lat="35.226759400" lon="-107.613386740">
        <ele>3113.300</ele>
        <time>2021-05-10T15:23:46Z</time>
        <name>WPT.672</name>
      </trkpt>
      <trkpt lat="35.226750880" lon="-107.613339010">
        <ele>3115.100</ele>
        <time>2021-05-10T15:23:51Z</time>
        <name>WPT.673</name>
      </trkpt>
      <trkpt lat="35.226735310" lon="-107.613292010">
        <ele>3115.500</ele>
        <time>2021-05-10T15:23:57Z</time>
        <name>WPT.674</name>
      </trkpt>
      <trkpt lat="35.226722640" lon="-107.613245830">
        <ele>3115.900</ele>
        <time>2021-05-10T15:24:02Z</time>
        <name>WPT.675</name>
      </trkpt>
      <trkpt lat="35.226723200" lon="-107.613198640">
        <ele>3116.800</ele>
        <time>2021-05-10T15:24:07Z</time>
        <name>WPT.676</name>
      </trkpt>
      <trkpt lat="35.226717010" lon="-107.613153140">
        <ele>3116.900</ele>
        <time>2021-05-10T15:24:12Z</time>
        <name>WPT.677</name>
      </trkpt>
      <trkpt lat="35.226701610" lon="-107.613112320">
        <ele>3117.600</ele>
        <time>2021-05-10T15:24:19Z</time>
        <name>WPT.678</name>
      </trkpt>
      <trkpt lat="35.226690490" lon="-107.613063560">
        <ele>3118.200</ele>
        <time>2021-05-10T15:24:24Z</time>
        <name>WPT.679</name>
      </trkpt>
      <trkpt lat="35.226669920" lon="-107.613018870">
        <ele>3119.100</ele>
        <time>2021-05-10T15:24:29Z</time>
        <name>WPT.680</name>
      </trkpt>
      <trkpt lat="35.226650760" lon="-107.612978240">
        <ele>3120.600</ele>
        <time>2021-05-10T15:25:21Z</time>
        <name>WPT.681</name>
      </trkpt>
      <trkpt lat="35.226629690" lon="-107.612939870">
        <ele>3122.100</ele>
        <time>2021-05-10T15:25:33Z</time>
        <name>WPT.682</name>
      </trkpt>
      <trkpt lat="35.226630860" lon="-107.612890870">
        <ele>3122.600</ele>
        <time>2021-05-10T15:25:38Z</time>
        <name>WPT.683</name>
      </trkpt>
      <trkpt lat="35.226624580" lon="-107.612843630">
        <ele>3124.300</ele>
        <time>2021-05-10T15:25:43Z</time>
        <name>WPT.684</name>
      </trkpt>
      <trkpt lat="35.226605760" lon="-107.612794700">
        <ele>3124.700</ele>
        <time>2021-05-10T15:25:48Z</time>
        <name>WPT.685</name>
      </trkpt>
      <trkpt lat="35.226588790" lon="-107.612744640">
        <ele>3126.000</ele>
        <time>2021-05-10T15:25:53Z</time>
        <name>WPT.686</name>
      </trkpt>
      <trkpt lat="35.226574300" lon="-107.612690900">
        <ele>3127.100</ele>
        <time>2021-05-10T15:25:58Z</time>
        <name>WPT.687</name>
      </trkpt>
      <trkpt lat="35.226563380" lon="-107.612646070">
        <ele>3127.100</ele>
        <time>2021-05-10T15:26:02Z</time>
        <name>WPT.688</name>
      </trkpt>
      <trkpt lat="35.226541120" lon="-107.612600000">
        <ele>3127.800</ele>
        <time>2021-05-10T15:26:07Z</time>
        <name>WPT.689</name>
      </trkpt>
      <trkpt lat="35.226528240" lon="-107.612556310">
        <ele>3127.700</ele>
        <time>2021-05-10T15:26:11Z</time>
        <name>WPT.690</name>
      </trkpt>
      <trkpt lat="35.226512550" lon="-107.612509340">
        <ele>3129.000</ele>
        <time>2021-05-10T15:26:15Z</time>
        <name>WPT.691</name>
      </trkpt>
      <trkpt lat="35.226482690" lon="-107.612472230">
        <ele>3130.200</ele>
        <time>2021-05-10T15:26:19Z</time>
        <name>WPT.692</name>
      </trkpt>
      <trkpt lat="35.226469110" lon="-107.612423440">
        <ele>3130.600</ele>
        <time>2021-05-10T15:26:23Z</time>
        <name>WPT.693</name>
      </trkpt>
      <trkpt lat="35.226451260" lon="-107.612381990">
        <ele>3132.400</ele>
        <time>2021-05-10T15:26:27Z</time>
        <name>WPT.694</name>
      </trkpt>
      <trkpt lat="35.226443260" lon="-107.612336730">
        <ele>3133.100</ele>
        <time>2021-05-10T15:26:32Z</time>
        <name>WPT.695</name>
      </trkpt>
      <trkpt lat="35.226437950" lon="-107.612292640">
        <ele>3133.400</ele>
        <time>2021-05-10T15:26:36Z</time>
        <name>WPT.696</name>
      </trkpt>
      <trkpt lat="35.226425850" lon="-107.612250790">
        <ele>3133.600</ele>
        <time>2021-05-10T15:26:40Z</time>
        <name>WPT.697</name>
      </trkpt>
      <trkpt lat="35.226408440" lon="-107.612210370">
        <ele>3134.100</ele>
        <time>2021-05-10T15:26:44Z</time>
        <name>WPT.698</name>
      </trkpt>
      <trkpt lat="35.226406300" lon="-107.612159000">
        <ele>3133.900</ele>
        <time>2021-05-10T15:26:49Z</time>
        <name>WPT.699</name>
      </trkpt>
      <trkpt lat="35.226386720" lon="-107.612111860">
        <ele>3135.000</ele>
        <time>2021-05-10T15:26:54Z</time>
        <name>WPT.700</name>
      </trkpt>
      <trkpt lat="35.226379800" lon="-107.612068670">
        <ele>3134.600</ele>
        <time>2021-05-10T15:26:58Z</time>
        <name>WPT.701</name>
      </trkpt>
      <trkpt lat="35.226375690" lon="-107.612018860">
        <ele>3134.900</ele>
        <time>2021-05-10T15:27:04Z</time>
        <name>WPT.702</name>
      </trkpt>
      <trkpt lat="35.226403240" lon="-107.611985800">
        <ele>3134.600</ele>
        <time>2021-05-10T15:27:37Z</time>
        <name>WPT.703</name>
      </trkpt>
      <trkpt lat="35.226441310" lon="-107.611977580">
        <ele>3135.100</ele>
        <time>2021-05-10T15:27:43Z</time>
        <name>WPT.704</name>
      </trkpt>
      <trkpt lat="35.226462920" lon="-107.611938960">
        <ele>3136.000</ele>
        <time>2021-05-10T15:27:50Z</time>
        <name>WPT.705</name>
      </trkpt>
      <trkpt lat="35.226495530" lon="-107.611902660">
        <ele>3136.900</ele>
        <time>2021-05-10T15:27:55Z</time>
        <name>WPT.706</name>
      </trkpt>
      <trkpt lat="35.226510690" lon="-107.611858460">
        <ele>3137.200</ele>
        <time>2021-05-10T15:28:02Z</time>
        <name>WPT.707</name>
      </trkpt>
      <trkpt lat="35.226524280" lon="-107.611811870">
        <ele>3136.700</ele>
        <time>2021-05-10T15:28:12Z</time>
        <name>WPT.708</name>
      </trkpt>
      <trkpt lat="35.226548980" lon="-107.611767400">
        <ele>3136.800</ele>
        <time>2021-05-10T15:28:18Z</time>
        <name>WPT.709</name>
      </trkpt>
      <trkpt lat="35.226577250" lon="-107.611730220">
        <ele>3137.300</ele>
        <time>2021-05-10T15:28:23Z</time>
        <name>WPT.710</name>
      </trkpt>
      <trkpt lat="35.226601140" lon="-107.611690390">
        <ele>3136.700</ele>
        <time>2021-05-10T15:28:34Z</time>
        <name>WPT.711</name>
      </trkpt>
      <trkpt lat="35.226627720" lon="-107.611649050">
        <ele>3136.300</ele>
        <time>2021-05-10T15:28:41Z</time>
        <name>WPT.712</name>
      </trkpt>
      <trkpt lat="35.226655150" lon="-107.611610510">
        <ele>3136.600</ele>
        <time>2021-05-10T15:28:46Z</time>
        <name>WPT.713</name>
      </trkpt>
      <trkpt lat="35.226677410" lon="-107.611572420">
        <ele>3136.500</ele>
        <time>2021-05-10T15:28:51Z</time>
        <name>WPT.714</name>
      </trkpt>
      <trkpt lat="35.226708440" lon="-107.611535850">
        <ele>3136.600</ele>
        <time>2021-05-10T15:29:09Z</time>
        <name>WPT.715</name>
      </trkpt>
      <trkpt lat="35.226732090" lon="-107.611498630">
        <ele>3137.300</ele>
        <time>2021-05-10T15:29:16Z</time>
        <name>WPT.716</name>
      </trkpt>
      <trkpt lat="35.226760990" lon="-107.611460260">
        <ele>3137.600</ele>
        <time>2021-05-10T15:29:22Z</time>
        <name>WPT.717</name>
      </trkpt>
      <trkpt lat="35.226781220" lon="-107.611414280">
        <ele>3137.400</ele>
        <time>2021-05-10T15:29:27Z</time>
        <name>WPT.718</name>
      </trkpt>
      <trkpt lat="35.226806220" lon="-107.611377520">
        <ele>3137.000</ele>
        <time>2021-05-10T15:29:32Z</time>
        <name>WPT.719</name>
      </trkpt>
      <trkpt lat="35.226826020" lon="-107.611340150">
        <ele>3137.200</ele>
        <time>2021-05-10T15:29:37Z</time>
        <name>WPT.720</name>
      </trkpt>
      <trkpt lat="35.226854500" lon="-107.611309060">
        <ele>3136.600</ele>
        <time>2021-05-10T15:29:43Z</time>
        <name>WPT.721</name>
      </trkpt>
      <trkpt lat="35.226870530" lon="-107.611269520">
        <ele>3136.600</ele>
        <time>2021-05-10T15:29:49Z</time>
        <name>WPT.722</name>
      </trkpt>
      <trkpt lat="35.226889040" lon="-107.611229030">
        <ele>3138.000</ele>
        <time>2021-05-10T15:29:56Z</time>
        <name>WPT.723</name>
      </trkpt>
      <trkpt lat="35.226919470" lon="-107.611197260">
        <ele>3138.700</ele>
        <time>2021-05-10T15:30:02Z</time>
        <name>WPT.724</name>
      </trkpt>
      <trkpt lat="35.226946010" lon="-107.611162850">
        <ele>3139.500</ele>
        <time>2021-05-10T15:30:07Z</time>
        <name>WPT.725</name>
      </trkpt>
      <trkpt lat="35.226971640" lon="-107.611126630">
        <ele>3138.700</ele>
        <time>2021-05-10T15:30:14Z</time>
        <name>WPT.726</name>
      </trkpt>
      <trkpt lat="35.226991050" lon="-107.611087450">
        <ele>3139.100</ele>
        <time>2021-05-10T15:30:20Z</time>
        <name>WPT.727</name>
      </trkpt>
      <trkpt lat="35.227018280" lon="-107.611046410">
        <ele>3139.300</ele>
        <time>2021-05-10T15:30:26Z</time>
        <name>WPT.728</name>
      </trkpt>
      <trkpt lat="35.227030960" lon="-107.611004570">
        <ele>3139.300</ele>
        <time>2021-05-10T15:30:31Z</time>
        <name>WPT.729</name>
      </trkpt>
      <trkpt lat="35.227052120" lon="-107.610960410">
        <ele>3139.900</ele>
        <time>2021-05-10T15:30:36Z</time>
        <name>WPT.730</name>
      </trkpt>
      <trkpt lat="35.227070220" lon="-107.610920840">
        <ele>3140.400</ele>
        <time>2021-05-10T15:30:40Z</time>
        <name>WPT.731</name>
      </trkpt>
      <trkpt lat="35.227076370" lon="-107.610877040">
        <ele>3139.900</ele>
        <time>2021-05-10T15:30:44Z</time>
        <name>WPT.732</name>
      </trkpt>
      <trkpt lat="35.227079240" lon="-107.610830950">
        <ele>3138.900</ele>
        <time>2021-05-10T15:30:48Z</time>
        <name>WPT.733</name>
      </trkpt>
      <trkpt lat="35.227085590" lon="-107.610776960">
        <ele>3139.400</ele>
        <time>2021-05-10T15:30:53Z</time>
        <name>WPT.734</name>
      </trkpt>
      <trkpt lat="35.227092600" lon="-107.610728140">
        <ele>3139.900</ele>
        <time>2021-05-10T15:30:58Z</time>
        <name>WPT.735</name>
      </trkpt>
      <trkpt lat="35.227103670" lon="-107.610682690">
        <ele>3140.200</ele>
        <time>2021-05-10T15:31:03Z</time>
        <name>WPT.736</name>
      </trkpt>
      <trkpt lat="35.227119360" lon="-107.610640910">
        <ele>3140.800</ele>
        <time>2021-05-10T15:31:08Z</time>
        <name>WPT.737</name>
      </trkpt>
      <trkpt lat="35.227123820" lon="-107.610594600">
        <ele>3141.600</ele>
        <time>2021-05-10T15:31:13Z</time>
        <name>WPT.738</name>
      </trkpt>
      <trkpt lat="35.227138300" lon="-107.610552170">
        <ele>3142.500</ele>
        <time>2021-05-10T15:31:18Z</time>
        <name>WPT.739</name>
      </trkpt>
      <trkpt lat="35.227149810" lon="-107.610505920">
        <ele>3142.300</ele>
        <time>2021-05-10T15:31:23Z</time>
        <name>WPT.740</name>
      </trkpt>
      <trkpt lat="35.227162840" lon="-107.610461780">
        <ele>3143.000</ele>
        <time>2021-05-10T15:31:33Z</time>
        <name>WPT.741</name>
      </trkpt>
      <trkpt lat="35.227172600" lon="-107.610417210">
        <ele>3144.200</ele>
        <time>2021-05-10T15:32:16Z</time>
        <name>WPT.742</name>
      </trkpt>
      <trkpt lat="35.227184820" lon="-107.610370140">
        <ele>3143.600</ele>
        <time>2021-05-10T15:32:21Z</time>
        <name>WPT.743</name>
      </trkpt>
      <trkpt lat="35.227188790" lon="-107.610321950">
        <ele>3144.100</ele>
        <time>2021-05-10T15:32:26Z</time>
        <name>WPT.744</name>
      </trkpt>
      <trkpt lat="35.227206520" lon="-107.610281690">
        <ele>3144.200</ele>
        <time>2021-05-10T15:32:31Z</time>
        <name>WPT.745</name>
      </trkpt>
      <trkpt lat="35.227217710" lon="-107.610237010">
        <ele>3144.600</ele>
        <time>2021-05-10T15:32:36Z</time>
        <name>WPT.746</name>
      </trkpt>
      <trkpt lat="35.227234490" lon="-107.610191680">
        <ele>3145.800</ele>
        <time>2021-05-10T15:32:42Z</time>
        <name>WPT.747</name>
      </trkpt>
      <trkpt lat="35.227237250" lon="-107.610143580">
        <ele>3147.000</ele>
        <time>2021-05-10T15:32:48Z</time>
        <name>WPT.748</name>
      </trkpt>
      <trkpt lat="35.227254850" lon="-107.610098280">
        <ele>3148.000</ele>
        <time>2021-05-10T15:32:54Z</time>
        <name>WPT.749</name>
      </trkpt>
      <trkpt lat="35.227260360" lon="-107.610051980">
        <ele>3148.200</ele>
        <time>2021-05-10T15:33:00Z</time>
        <name>WPT.750</name>
      </trkpt>
      <trkpt lat="35.227276080" lon="-107.610010710">
        <ele>3148.800</ele>
        <time>2021-05-10T15:33:05Z</time>
        <name>WPT.751</name>
      </trkpt>
      <trkpt lat="35.227287400" lon="-107.609959000">
        <ele>3150.400</ele>
        <time>2021-05-10T15:33:11Z</time>
        <name>WPT.752</name>
      </trkpt>
      <trkpt lat="35.227298800" lon="-107.609917230">
        <ele>3150.800</ele>
        <time>2021-05-10T15:33:19Z</time>
        <name>WPT.753</name>
      </trkpt>
      <trkpt lat="35.227313300" lon="-107.609876760">
        <ele>3151.300</ele>
        <time>2021-05-10T15:33:24Z</time>
        <name>WPT.754</name>
      </trkpt>
      <trkpt lat="35.227322250" lon="-107.609832040">
        <ele>3151.500</ele>
        <time>2021-05-10T15:33:30Z</time>
        <name>WPT.755</name>
      </trkpt>
      <trkpt lat="35.227319130" lon="-107.609787600">
        <ele>3153.900</ele>
        <time>2021-05-10T15:33:53Z</time>
        <name>WPT.756</name>
      </trkpt>
      <trkpt lat="35.227336480" lon="-107.609744090">
        <ele>3152.700</ele>
        <time>2021-05-10T15:33:58Z</time>
        <name>WPT.757</name>
      </trkpt>
      <trkpt lat="35.227358840" lon="-107.609706260">
        <ele>3154.500</ele>
        <time>2021-05-10T15:34:21Z</time>
        <name>WPT.758</name>
      </trkpt>
      <trkpt lat="35.227366640" lon="-107.609660240">
        <ele>3153.800</ele>
        <time>2021-05-10T15:34:26Z</time>
        <name>WPT.759</name>
      </trkpt>
      <trkpt lat="35.227393880" lon="-107.609625180">
        <ele>3152.600</ele>
        <time>2021-05-10T15:34:30Z</time>
        <name>WPT.760</name>
      </trkpt>
      <trkpt lat="35.227429780" lon="-107.609601830">
        <ele>3152.500</ele>
        <time>2021-05-10T15:34:35Z</time>
        <name>WPT.761</name>
      </trkpt>
      <trkpt lat="35.227465540" lon="-107.609564140">
        <ele>3152.400</ele>
        <time>2021-05-10T15:34:42Z</time>
        <name>WPT.762</name>
      </trkpt>
      <trkpt lat="35.227497180" lon="-107.609540840">
        <ele>3152.800</ele>
        <time>2021-05-10T15:34:47Z</time>
        <name>WPT.763</name>
      </trkpt>
      <trkpt lat="35.227528910" lon="-107.609512830">
        <ele>3153.700</ele>
        <time>2021-05-10T15:34:52Z</time>
        <name>WPT.764</name>
      </trkpt>
      <trkpt lat="35.227562330" lon="-107.609479800">
        <ele>3152.700</ele>
        <time>2021-05-10T15:35:00Z</time>
        <name>WPT.765</name>
      </trkpt>
      <trkpt lat="35.227597930" lon="-107.609457170">
        <ele>3152.500</ele>
        <time>2021-05-10T15:35:06Z</time>
        <name>WPT.766</name>
      </trkpt>
      <trkpt lat="35.227624180" lon="-107.609420480">
        <ele>3153.000</ele>
        <time>2021-05-10T15:35:12Z</time>
        <name>WPT.767</name>
      </trkpt>
      <trkpt lat="35.227664560" lon="-107.609400580">
        <ele>3152.800</ele>
        <time>2021-05-10T15:35:17Z</time>
        <name>WPT.768</name>
      </trkpt>
      <trkpt lat="35.227691480" lon="-107.609364170">
        <ele>3154.300</ele>
        <time>2021-05-10T15:35:23Z</time>
        <name>WPT.769</name>
      </trkpt>
      <trkpt lat="35.227723790" lon="-107.609343350">
        <ele>3153.800</ele>
        <time>2021-05-10T15:35:32Z</time>
        <name>WPT.770</name>
      </trkpt>
      <trkpt lat="35.227756240" lon="-107.609318360">
        <ele>3153.900</ele>
        <time>2021-05-10T15:35:43Z</time>
        <name>WPT.771</name>
      </trkpt>
      <trkpt lat="35.227792530" lon="-107.609298630">
        <ele>3155.200</ele>
        <time>2021-05-10T15:36:13Z</time>
        <name>WPT.772</name>
      </trkpt>
      <trkpt lat="35.227830820" lon="-107.609288300">
        <ele>3154.700</ele>
        <time>2021-05-10T15:36:29Z</time>
        <name>WPT.773</name>
      </trkpt>
      <trkpt lat="35.227868240" lon="-107.609287510">
        <ele>3153.300</ele>
        <time>2021-05-10T15:36:34Z</time>
        <name>WPT.774</name>
      </trkpt>
      <trkpt lat="35.227897230" lon="-107.609259370">
        <ele>3158.800</ele>
        <time>2021-05-10T15:36:50Z</time>
        <name>WPT.775</name>
      </trkpt>
      <trkpt lat="35.227933130" lon="-107.609255310">
        <ele>3158.000</ele>
        <time>2021-05-10T15:36:55Z</time>
        <name>WPT.776</name>
      </trkpt>
      <trkpt lat="35.227972780" lon="-107.609254530">
        <ele>3156.500</ele>
        <time>2021-05-10T15:37:00Z</time>
        <name>WPT.777</name>
      </trkpt>
      <trkpt lat="35.228006090" lon="-107.609234420">
        <ele>3158.000</ele>
        <time>2021-05-10T15:37:06Z</time>
        <name>WPT.778</name>
      </trkpt>
      <trkpt lat="35.228041450" lon="-107.609218790">
        <ele>3158.200</ele>
        <time>2021-05-10T15:37:11Z</time>
        <name>WPT.779</name>
      </trkpt>
      <trkpt lat="35.228074700" lon="-107.609192780">
        <ele>3158.500</ele>
        <time>2021-05-10T15:37:16Z</time>
        <name>WPT.780</name>
      </trkpt>
      <trkpt lat="35.228108330" lon="-107.609173670">
        <ele>3158.600</ele>
        <time>2021-05-10T15:37:22Z</time>
        <name>WPT.781</name>
      </trkpt>
      <trkpt lat="35.228142490" lon="-107.609150290">
        <ele>3159.200</ele>
        <time>2021-05-10T15:37:29Z</time>
        <name>WPT.782</name>
      </trkpt>
      <trkpt lat="35.228179320" lon="-107.609129430">
        <ele>3160.500</ele>
        <time>2021-05-10T15:37:36Z</time>
        <name>WPT.783</name>
      </trkpt>
      <trkpt lat="35.228220500" lon="-107.609120450">
        <ele>3161.100</ele>
        <time>2021-05-10T15:37:42Z</time>
        <name>WPT.784</name>
      </trkpt>
      <trkpt lat="35.228255810" lon="-107.609109680">
        <ele>3159.900</ele>
        <time>2021-05-10T15:37:47Z</time>
        <name>WPT.785</name>
      </trkpt>
      <trkpt lat="35.228290730" lon="-107.609080270">
        <ele>3161.000</ele>
        <time>2021-05-10T15:38:06Z</time>
        <name>WPT.786</name>
      </trkpt>
      <trkpt lat="35.228319960" lon="-107.609043060">
        <ele>3161.700</ele>
        <time>2021-05-10T15:38:12Z</time>
        <name>WPT.787</name>
      </trkpt>
      <trkpt lat="35.228349920" lon="-107.609007470">
        <ele>3161.700</ele>
        <time>2021-05-10T15:38:19Z</time>
        <name>WPT.788</name>
      </trkpt>
      <trkpt lat="35.228375690" lon="-107.608972660">
        <ele>3162.200</ele>
        <time>2021-05-10T15:38:26Z</time>
        <name>WPT.789</name>
      </trkpt>
      <trkpt lat="35.228404810" lon="-107.608934790">
        <ele>3163.300</ele>
        <time>2021-05-10T15:38:31Z</time>
        <name>WPT.790</name>
      </trkpt>
      <trkpt lat="35.228442580" lon="-107.608918530">
        <ele>3162.400</ele>
        <time>2021-05-10T15:38:36Z</time>
        <name>WPT.791</name>
      </trkpt>
      <trkpt lat="35.228476130" lon="-107.608885090">
        <ele>3162.400</ele>
        <time>2021-05-10T15:38:42Z</time>
        <name>WPT.792</name>
      </trkpt>
      <trkpt lat="35.228505800" lon="-107.608853880">
        <ele>3162.600</ele>
        <time>2021-05-10T15:38:47Z</time>
        <name>WPT.793</name>
      </trkpt>
      <trkpt lat="35.228545770" lon="-107.608834080">
        <ele>3162.100</ele>
        <time>2021-05-10T15:38:53Z</time>
        <name>WPT.794</name>
      </trkpt>
      <trkpt lat="35.228570270" lon="-107.608791360">
        <ele>3163.000</ele>
        <time>2021-05-10T15:38:59Z</time>
        <name>WPT.795</name>
      </trkpt>
      <trkpt lat="35.228598470" lon="-107.608757860">
        <ele>3164.300</ele>
        <time>2021-05-10T15:39:03Z</time>
        <name>WPT.796</name>
      </trkpt>
      <trkpt lat="35.228613670" lon="-107.608717950">
        <ele>3165.100</ele>
        <time>2021-05-10T15:39:07Z</time>
        <name>WPT.797</name>
      </trkpt>
      <trkpt lat="35.228630740" lon="-107.608674600">
        <ele>3166.400</ele>
        <time>2021-05-10T15:39:12Z</time>
        <name>WPT.798</name>
      </trkpt>
      <trkpt lat="35.228657980" lon="-107.608634050">
        <ele>3167.900</ele>
        <time>2021-05-10T15:39:18Z</time>
        <name>WPT.799</name>
      </trkpt>
      <trkpt lat="35.228683010" lon="-107.608595510">
        <ele>3167.500</ele>
        <time>2021-05-10T15:39:23Z</time>
        <name>WPT.800</name>
      </trkpt>
      <trkpt lat="35.228709930" lon="-107.608556310">
        <ele>3167.700</ele>
        <time>2021-05-10T15:39:29Z</time>
        <name>WPT.801</name>
      </trkpt>
      <trkpt lat="35.228743690" lon="-107.608521010">
        <ele>3168.400</ele>
        <time>2021-05-10T15:39:34Z</time>
        <name>WPT.802</name>
      </trkpt>
      <trkpt lat="35.228765930" lon="-107.608484290">
        <ele>3168.500</ele>
        <time>2021-05-10T15:39:39Z</time>
        <name>WPT.803</name>
      </trkpt>
      <trkpt lat="35.228797910" lon="-107.608457150">
        <ele>3170.000</ele>
        <time>2021-05-10T15:39:44Z</time>
        <name>WPT.804</name>
      </trkpt>
      <trkpt lat="35.228821040" lon="-107.608413120">
        <ele>3171.700</ele>
        <time>2021-05-10T15:39:49Z</time>
        <name>WPT.805</name>
      </trkpt>
      <trkpt lat="35.228853370" lon="-107.608380600">
        <ele>3172.600</ele>
        <time>2021-05-10T15:39:54Z</time>
        <name>WPT.806</name>
      </trkpt>
      <trkpt lat="35.228886530" lon="-107.608363030">
        <ele>3171.900</ele>
        <time>2021-05-10T15:39:58Z</time>
        <name>WPT.807</name>
      </trkpt>
      <trkpt lat="35.228929950" lon="-107.608347970">
        <ele>3171.200</ele>
        <time>2021-05-10T15:40:04Z</time>
        <name>WPT.808</name>
      </trkpt>
      <trkpt lat="35.228960700" lon="-107.608324760">
        <ele>3171.800</ele>
        <time>2021-05-10T15:40:09Z</time>
        <name>WPT.809</name>
      </trkpt>
      <trkpt lat="35.228994310" lon="-107.608295900">
        <ele>3173.400</ele>
        <time>2021-05-10T15:40:15Z</time>
        <name>WPT.810</name>
      </trkpt>
      <trkpt lat="35.229026710" lon="-107.608264000">
        <ele>3173.300</ele>
        <time>2021-05-10T15:40:20Z</time>
        <name>WPT.811</name>
      </trkpt>
      <trkpt lat="35.229063880" lon="-107.608240800">
        <ele>3172.900</ele>
        <time>2021-05-10T15:40:25Z</time>
        <name>WPT.812</name>
      </trkpt>
      <trkpt lat="35.229105750" lon="-107.608232900">
        <ele>3173.000</ele>
        <time>2021-05-10T15:40:30Z</time>
        <name>WPT.813</name>
      </trkpt>
      <trkpt lat="35.229142940" lon="-107.608220560">
        <ele>3173.500</ele>
        <time>2021-05-10T15:40:35Z</time>
        <name>WPT.814</name>
      </trkpt>
      <trkpt lat="35.229174550" lon="-107.608194390">
        <ele>3175.100</ele>
        <time>2021-05-10T15:40:40Z</time>
        <name>WPT.815</name>
      </trkpt>
      <trkpt lat="35.229216520" lon="-107.608188540">
        <ele>3175.900</ele>
        <time>2021-05-10T15:40:47Z</time>
        <name>WPT.816</name>
      </trkpt>
      <trkpt lat="35.229253350" lon="-107.608173220">
        <ele>3177.300</ele>
        <time>2021-05-10T15:40:52Z</time>
        <name>WPT.817</name>
      </trkpt>
      <trkpt lat="35.229288700" lon="-107.608142930">
        <ele>3178.700</ele>
        <time>2021-05-10T15:40:57Z</time>
        <name>WPT.818</name>
      </trkpt>
      <trkpt lat="35.229324880" lon="-107.608121220">
        <ele>3178.600</ele>
        <time>2021-05-10T15:41:02Z</time>
        <name>WPT.819</name>
      </trkpt>
      <trkpt lat="35.229357720" lon="-107.608101400">
        <ele>3178.900</ele>
        <time>2021-05-10T15:41:06Z</time>
        <name>WPT.820</name>
      </trkpt>
      <trkpt lat="35.229398370" lon="-107.608094960">
        <ele>3179.300</ele>
        <time>2021-05-10T15:41:11Z</time>
        <name>WPT.821</name>
      </trkpt>
      <trkpt lat="35.229441890" lon="-107.608094910">
        <ele>3178.400</ele>
        <time>2021-05-10T15:41:16Z</time>
        <name>WPT.822</name>
      </trkpt>
      <trkpt lat="35.229478230" lon="-107.608083890">
        <ele>3180.000</ele>
        <time>2021-05-10T15:41:22Z</time>
        <name>WPT.823</name>
      </trkpt>
      <trkpt lat="35.229518620" lon="-107.608072160">
        <ele>3182.500</ele>
        <time>2021-05-10T15:41:28Z</time>
        <name>WPT.824</name>
      </trkpt>
      <trkpt lat="35.229552990" lon="-107.608052880">
        <ele>3183.000</ele>
        <time>2021-05-10T15:41:33Z</time>
        <name>WPT.825</name>
      </trkpt>
      <trkpt lat="35.229587510" lon="-107.608025630">
        <ele>3182.600</ele>
        <time>2021-05-10T15:41:37Z</time>
        <name>WPT.826</name>
      </trkpt>
      <trkpt lat="35.229625440" lon="-107.608001110">
        <ele>3182.500</ele>
        <time>2021-05-10T15:41:42Z</time>
        <name>WPT.827</name>
      </trkpt>
      <trkpt lat="35.229650780" lon="-107.607960520">
        <ele>3182.500</ele>
        <time>2021-05-10T15:41:48Z</time>
        <name>WPT.828</name>
      </trkpt>
      <trkpt lat="35.229652250" lon="-107.607915420">
        <ele>3183.600</ele>
        <time>2021-05-10T15:42:33Z</time>
        <name>WPT.829</name>
      </trkpt>
      <trkpt lat="35.229659820" lon="-107.607863340">
        <ele>3185.200</ele>
        <time>2021-05-10T15:47:17Z</time>
        <name>WPT.830</name>
      </trkpt>
      <trkpt lat="35.229667830" lon="-107.607818670">
        <ele>3184.000</ele>
        <time>2021-05-10T15:47:23Z</time>
        <name>WPT.831</name>
      </trkpt>
      <trkpt lat="35.229641260" lon="-107.607864510">
        <ele>3182.400</ele>
        <time>2021-05-10T15:52:06Z</time>
        <name>WPT.832</name>
      </trkpt>
      <trkpt lat="35.229632370" lon="-107.607910990">
        <ele>3184.800</ele>
        <time>2021-05-10T15:52:13Z</time>
        <name>WPT.833</name>
      </trkpt>
      <trkpt lat="35.229652760" lon="-107.607952160">
        <ele>3185.500</ele>
        <time>2021-05-10T15:52:19Z</time>
        <name>WPT.834</name>
      </trkpt>
      <trkpt lat="35.229647890" lon="-107.607904660">
        <ele>3185.800</ele>
        <time>2021-05-10T15:53:01Z</time>
        <name>WPT.835</name>
      </trkpt>
      <trkpt lat="35.229645520" lon="-107.607859020">
        <ele>3185.100</ele>
        <time>2021-05-10T15:53:20Z</time>
        <name>WPT.836</name>
      </trkpt>
      <trkpt lat="35.229650070" lon="-107.607813640">
        <ele>3184.200</ele>
        <time>2021-05-10T15:53:25Z</time>
        <name>WPT.837</name>
      </trkpt>
      <trkpt lat="35.229685790" lon="-107.607824580">
        <ele>3184.200</ele>
        <time>2021-05-10T16:28:49Z</time>
        <name>WPT.838</name>
      </trkpt>
      <trkpt lat="35.229726720" lon="-107.607836980">
        <ele>3185.000</ele>
        <time>2021-05-10T16:28:55Z</time>
        <name>WPT.839</name>
      </trkpt>
      <trkpt lat="35.229763550" lon="-107.607840960">
        <ele>3185.000</ele>
        <time>2021-05-10T16:29:07Z</time>
        <name>WPT.840</name>
      </trkpt>
      <trkpt lat="35.229800710" lon="-107.607857830">
        <ele>3184.800</ele>
        <time>2021-05-10T16:29:12Z</time>
        <name>WPT.841</name>
      </trkpt>
      <trkpt lat="35.229836110" lon="-107.607841840">
        <ele>3186.800</ele>
        <time>2021-05-10T16:29:17Z</time>
        <name>WPT.842</name>
      </trkpt>
      <trkpt lat="35.229876060" lon="-107.607822260">
        <ele>3187.200</ele>
        <time>2021-05-10T16:29:21Z</time>
        <name>WPT.843</name>
      </trkpt>
      <trkpt lat="35.229912150" lon="-107.607810600">
        <ele>3188.900</ele>
        <time>2021-05-10T16:29:26Z</time>
        <name>WPT.844</name>
      </trkpt>
      <trkpt lat="35.229945550" lon="-107.607787830">
        <ele>3190.300</ele>
        <time>2021-05-10T16:29:30Z</time>
        <name>WPT.845</name>
      </trkpt>
      <trkpt lat="35.229978580" lon="-107.607768490">
        <ele>3191.000</ele>
        <time>2021-05-10T16:29:34Z</time>
        <name>WPT.846</name>
      </trkpt>
      <trkpt lat="35.230010770" lon="-107.607743760">
        <ele>3191.400</ele>
        <time>2021-05-10T16:29:42Z</time>
        <name>WPT.847</name>
      </trkpt>
      <trkpt lat="35.230049050" lon="-107.607724830">
        <ele>3192.200</ele>
        <time>2021-05-10T16:29:47Z</time>
        <name>WPT.848</name>
      </trkpt>
      <trkpt lat="35.230086690" lon="-107.607707520">
        <ele>3192.700</ele>
        <time>2021-05-10T16:29:52Z</time>
        <name>WPT.849</name>
      </trkpt>
      <trkpt lat="35.230119250" lon="-107.607684660">
        <ele>3191.700</ele>
        <time>2021-05-10T16:29:57Z</time>
        <name>WPT.850</name>
      </trkpt>
      <trkpt lat="35.230155690" lon="-107.607680550">
        <ele>3192.700</ele>
        <time>2021-05-10T16:30:02Z</time>
        <name>WPT.851</name>
      </trkpt>
      <trkpt lat="35.230188630" lon="-107.607657350">
        <ele>3193.300</ele>
        <time>2021-05-10T16:30:12Z</time>
        <name>WPT.852</name>
      </trkpt>
      <trkpt lat="35.230220230" lon="-107.607635530">
        <ele>3193.500</ele>
        <time>2021-05-10T16:30:20Z</time>
        <name>WPT.853</name>
      </trkpt>
      <trkpt lat="35.230256700" lon="-107.607620020">
        <ele>3191.900</ele>
        <time>2021-05-10T16:30:57Z</time>
        <name>WPT.854</name>
      </trkpt>
      <trkpt lat="35.230290040" lon="-107.607588930">
        <ele>3191.300</ele>
        <time>2021-05-10T16:31:01Z</time>
        <name>WPT.855</name>
      </trkpt>
      <trkpt lat="35.230325010" lon="-107.607565570">
        <ele>3193.300</ele>
        <time>2021-05-10T16:31:06Z</time>
        <name>WPT.856</name>
      </trkpt>
      <trkpt lat="35.230365120" lon="-107.607550270">
        <ele>3193.500</ele>
        <time>2021-05-10T16:31:11Z</time>
        <name>WPT.857</name>
      </trkpt>
      <trkpt lat="35.230404440" lon="-107.607527250">
        <ele>3195.800</ele>
        <time>2021-05-10T16:31:16Z</time>
        <name>WPT.858</name>
      </trkpt>
      <trkpt lat="35.230440600" lon="-107.607511740">
        <ele>3195.100</ele>
        <time>2021-05-10T16:31:30Z</time>
        <name>WPT.859</name>
      </trkpt>
      <trkpt lat="35.230475710" lon="-107.607491780">
        <ele>3195.900</ele>
        <time>2021-05-10T16:31:36Z</time>
        <name>WPT.860</name>
      </trkpt>
      <trkpt lat="35.230516110" lon="-107.607470380">
        <ele>3196.300</ele>
        <time>2021-05-10T16:31:42Z</time>
        <name>WPT.861</name>
      </trkpt>
      <trkpt lat="35.230557190" lon="-107.607468210">
        <ele>3197.600</ele>
        <time>2021-05-10T16:31:49Z</time>
        <name>WPT.862</name>
      </trkpt>
      <trkpt lat="35.230592230" lon="-107.607478560">
        <ele>3198.500</ele>
        <time>2021-05-10T16:31:54Z</time>
        <name>WPT.863</name>
      </trkpt>
      <trkpt lat="35.230628850" lon="-107.607491610">
        <ele>3200.300</ele>
        <time>2021-05-10T16:31:59Z</time>
        <name>WPT.864</name>
      </trkpt>
      <trkpt lat="35.230671690" lon="-107.607502630">
        <ele>3200.000</ele>
        <time>2021-05-10T16:32:06Z</time>
        <name>WPT.865</name>
      </trkpt>
      <trkpt lat="35.230714330" lon="-107.607503490">
        <ele>3201.500</ele>
        <time>2021-05-10T16:32:11Z</time>
        <name>WPT.866</name>
      </trkpt>
      <trkpt lat="35.230751510" lon="-107.607508540">
        <ele>3202.500</ele>
        <time>2021-05-10T16:32:16Z</time>
        <name>WPT.867</name>
      </trkpt>
      <trkpt lat="35.230793400" lon="-107.607520340">
        <ele>3205.000</ele>
        <time>2021-05-10T16:32:22Z</time>
        <name>WPT.868</name>
      </trkpt>
      <trkpt lat="35.230831750" lon="-107.607535950">
        <ele>3206.400</ele>
        <time>2021-05-10T16:32:27Z</time>
        <name>WPT.869</name>
      </trkpt>
      <trkpt lat="35.230868640" lon="-107.607542990">
        <ele>3207.100</ele>
        <time>2021-05-10T16:32:32Z</time>
        <name>WPT.870</name>
      </trkpt>
      <trkpt lat="35.230908190" lon="-107.607552090">
        <ele>3208.800</ele>
        <time>2021-05-10T16:32:37Z</time>
        <name>WPT.871</name>
      </trkpt>
      <trkpt lat="35.230947530" lon="-107.607567940">
        <ele>3209.300</ele>
        <time>2021-05-10T16:32:46Z</time>
        <name>WPT.872</name>
      </trkpt>
      <trkpt lat="35.230990090" lon="-107.607573810">
        <ele>3210.600</ele>
        <time>2021-05-10T16:32:51Z</time>
        <name>WPT.873</name>
      </trkpt>
      <trkpt lat="35.231029920" lon="-107.607569580">
        <ele>3211.400</ele>
        <time>2021-05-10T16:32:56Z</time>
        <name>WPT.874</name>
      </trkpt>
      <trkpt lat="35.231067100" lon="-107.607567770">
        <ele>3212.500</ele>
        <time>2021-05-10T16:33:01Z</time>
        <name>WPT.875</name>
      </trkpt>
      <trkpt lat="35.231106420" lon="-107.607580880">
        <ele>3213.600</ele>
        <time>2021-05-10T16:33:06Z</time>
        <name>WPT.876</name>
      </trkpt>
      <trkpt lat="35.231149300" lon="-107.607574060">
        <ele>3214.000</ele>
        <time>2021-05-10T16:33:11Z</time>
        <name>WPT.877</name>
      </trkpt>
      <trkpt lat="35.231192220" lon="-107.607565760">
        <ele>3213.500</ele>
        <time>2021-05-10T16:33:16Z</time>
        <name>WPT.878</name>
      </trkpt>
      <trkpt lat="35.231226420" lon="-107.607551730">
        <ele>3213.100</ele>
        <time>2021-05-10T16:33:21Z</time>
        <name>WPT.879</name>
      </trkpt>
      <trkpt lat="35.231265100" lon="-107.607552100">
        <ele>3214.200</ele>
        <time>2021-05-10T16:33:28Z</time>
        <name>WPT.880</name>
      </trkpt>
      <trkpt lat="35.231304200" lon="-107.607559680">
        <ele>3214.900</ele>
        <time>2021-05-10T16:33:34Z</time>
        <name>WPT.881</name>
      </trkpt>
      <trkpt lat="35.231339320" lon="-107.607576760">
        <ele>3215.000</ele>
        <time>2021-05-10T16:33:39Z</time>
        <name>WPT.882</name>
      </trkpt>
      <trkpt lat="35.231374470" lon="-107.607558810">
        <ele>3214.800</ele>
        <time>2021-05-10T16:33:44Z</time>
        <name>WPT.883</name>
      </trkpt>
      <trkpt lat="35.231404600" lon="-107.607532540">
        <ele>3215.600</ele>
        <time>2021-05-10T16:33:49Z</time>
        <name>WPT.884</name>
      </trkpt>
      <trkpt lat="35.231434840" lon="-107.607505840">
        <ele>3215.100</ele>
        <time>2021-05-10T16:37:44Z</time>
        <name>WPT.885</name>
      </trkpt>
      <trkpt lat="35.231474750" lon="-107.607501490">
        <ele>3215.600</ele>
        <time>2021-05-10T16:38:01Z</time>
        <name>WPT.886</name>
      </trkpt>
      <trkpt lat="35.231510150" lon="-107.607478750">
        <ele>3214.200</ele>
        <time>2021-05-10T16:38:06Z</time>
        <name>WPT.887</name>
      </trkpt>
      <trkpt lat="35.231546870" lon="-107.607455270">
        <ele>3214.000</ele>
        <time>2021-05-10T16:38:10Z</time>
        <name>WPT.888</name>
      </trkpt>
      <trkpt lat="35.231575110" lon="-107.607419200">
        <ele>3213.800</ele>
        <time>2021-05-10T16:38:14Z</time>
        <name>WPT.889</name>
      </trkpt>
      <trkpt lat="35.231603220" lon="-107.607389990">
        <ele>3214.200</ele>
        <time>2021-05-10T16:38:18Z</time>
        <name>WPT.890</name>
      </trkpt>
      <trkpt lat="35.231632900" lon="-107.607364980">
        <ele>3214.500</ele>
        <time>2021-05-10T16:38:22Z</time>
        <name>WPT.891</name>
      </trkpt>
      <trkpt lat="35.231667770" lon="-107.607349430">
        <ele>3215.900</ele>
        <time>2021-05-10T16:38:35Z</time>
        <name>WPT.892</name>
      </trkpt>
      <trkpt lat="35.231695570" lon="-107.607312670">
        <ele>3217.400</ele>
        <time>2021-05-10T16:38:42Z</time>
        <name>WPT.893</name>
      </trkpt>
      <trkpt lat="35.231727410" lon="-107.607278090">
        <ele>3217.200</ele>
        <time>2021-05-10T16:38:47Z</time>
        <name>WPT.894</name>
      </trkpt>
      <trkpt lat="35.231760740" lon="-107.607254150">
        <ele>3219.700</ele>
        <time>2021-05-10T16:38:58Z</time>
        <name>WPT.895</name>
      </trkpt>
      <trkpt lat="35.231786880" lon="-107.607213720">
        <ele>3219.700</ele>
        <time>2021-05-10T16:39:03Z</time>
        <name>WPT.896</name>
      </trkpt>
      <trkpt lat="35.231814830" lon="-107.607177260">
        <ele>3219.900</ele>
        <time>2021-05-10T16:39:07Z</time>
        <name>WPT.897</name>
      </trkpt>
      <trkpt lat="35.231842970" lon="-107.607141240">
        <ele>3219.700</ele>
        <time>2021-05-10T16:39:11Z</time>
        <name>WPT.898</name>
      </trkpt>
      <trkpt lat="35.231866610" lon="-107.607102010">
        <ele>3221.200</ele>
        <time>2021-05-10T16:39:16Z</time>
        <name>WPT.899</name>
      </trkpt>
      <trkpt lat="35.231899540" lon="-107.607078980">
        <ele>3221.600</ele>
        <time>2021-05-10T16:39:21Z</time>
        <name>WPT.900</name>
      </trkpt>
      <trkpt lat="35.231924700" lon="-107.607042210">
        <ele>3222.000</ele>
        <time>2021-05-10T16:39:29Z</time>
        <name>WPT.901</name>
      </trkpt>
      <trkpt lat="35.231960480" lon="-107.607012550">
        <ele>3222.400</ele>
        <time>2021-05-10T16:39:34Z</time>
        <name>WPT.902</name>
      </trkpt>
      <trkpt lat="35.231989760" lon="-107.606974560">
        <ele>3222.800</ele>
        <time>2021-05-10T16:39:39Z</time>
        <name>WPT.903</name>
      </trkpt>
      <trkpt lat="35.232026750" lon="-107.606948420">
        <ele>3222.600</ele>
        <time>2021-05-10T16:39:44Z</time>
        <name>WPT.904</name>
      </trkpt>
      <trkpt lat="35.232064980" lon="-107.606932730">
        <ele>3222.600</ele>
        <time>2021-05-10T16:39:49Z</time>
        <name>WPT.905</name>
      </trkpt>
      <trkpt lat="35.232106720" lon="-107.606930900">
        <ele>3222.500</ele>
        <time>2021-05-10T16:39:54Z</time>
        <name>WPT.906</name>
      </trkpt>
      <trkpt lat="35.232151790" lon="-107.606924130">
        <ele>3222.000</ele>
        <time>2021-05-10T16:39:59Z</time>
        <name>WPT.907</name>
      </trkpt>
      <trkpt lat="35.232184330" lon="-107.606903980">
        <ele>3222.100</ele>
        <time>2021-05-10T16:40:03Z</time>
        <name>WPT.908</name>
      </trkpt>
      <trkpt lat="35.232221460" lon="-107.606887840">
        <ele>3222.400</ele>
        <time>2021-05-10T16:40:08Z</time>
        <name>WPT.909</name>
      </trkpt>
      <trkpt lat="35.232258520" lon="-107.606879590">
        <ele>3222.500</ele>
        <time>2021-05-10T16:40:13Z</time>
        <name>WPT.910</name>
      </trkpt>
      <trkpt lat="35.232292810" lon="-107.606863500">
        <ele>3223.500</ele>
        <time>2021-05-10T16:40:17Z</time>
        <name>WPT.911</name>
      </trkpt>
      <trkpt lat="35.232326160" lon="-107.606840910">
        <ele>3223.600</ele>
        <time>2021-05-10T16:40:21Z</time>
        <name>WPT.912</name>
      </trkpt>
      <trkpt lat="35.232359350" lon="-107.606820280">
        <ele>3225.100</ele>
        <time>2021-05-10T16:40:26Z</time>
        <name>WPT.913</name>
      </trkpt>
      <trkpt lat="35.232396220" lon="-107.606823560">
        <ele>3227.700</ele>
        <time>2021-05-10T16:40:31Z</time>
        <name>WPT.914</name>
      </trkpt>
      <trkpt lat="35.232433440" lon="-107.606831990">
        <ele>3229.100</ele>
        <time>2021-05-10T16:40:36Z</time>
        <name>WPT.915</name>
      </trkpt>
      <trkpt lat="35.232475150" lon="-107.606815850">
        <ele>3230.900</ele>
        <time>2021-05-10T16:40:41Z</time>
        <name>WPT.916</name>
      </trkpt>
      <trkpt lat="35.232510370" lon="-107.606802800">
        <ele>3233.200</ele>
        <time>2021-05-10T16:41:20Z</time>
        <name>WPT.917</name>
      </trkpt>
      <trkpt lat="35.232552480" lon="-107.606798520">
        <ele>3234.100</ele>
        <time>2021-05-10T16:41:25Z</time>
        <name>WPT.918</name>
      </trkpt>
      <trkpt lat="35.232588830" lon="-107.606799480">
        <ele>3235.200</ele>
        <time>2021-05-10T16:41:29Z</time>
        <name>WPT.919</name>
      </trkpt>
      <trkpt lat="35.232625940" lon="-107.606798290">
        <ele>3235.700</ele>
        <time>2021-05-10T16:41:34Z</time>
        <name>WPT.920</name>
      </trkpt>
      <trkpt lat="35.232665280" lon="-107.606798030">
        <ele>3237.100</ele>
        <time>2021-05-10T16:41:39Z</time>
        <name>WPT.921</name>
      </trkpt>
      <trkpt lat="35.232708190" lon="-107.606801540">
        <ele>3238.200</ele>
        <time>2021-05-10T16:41:45Z</time>
        <name>WPT.922</name>
      </trkpt>
      <trkpt lat="35.232749270" lon="-107.606801170">
        <ele>3239.300</ele>
        <time>2021-05-10T16:41:51Z</time>
        <name>WPT.923</name>
      </trkpt>
      <trkpt lat="35.232785420" lon="-107.606795400">
        <ele>3240.000</ele>
        <time>2021-05-10T16:41:56Z</time>
        <name>WPT.924</name>
      </trkpt>
      <trkpt lat="35.232825750" lon="-107.606810080">
        <ele>3240.500</ele>
        <time>2021-05-10T16:42:01Z</time>
        <name>WPT.925</name>
      </trkpt>
      <trkpt lat="35.232863280" lon="-107.606811910">
        <ele>3240.700</ele>
        <time>2021-05-10T16:42:06Z</time>
        <name>WPT.926</name>
      </trkpt>
      <trkpt lat="35.232906820" lon="-107.606815640">
        <ele>3242.000</ele>
        <time>2021-05-10T16:42:11Z</time>
        <name>WPT.927</name>
      </trkpt>
      <trkpt lat="35.232943390" lon="-107.606816680">
        <ele>3242.800</ele>
        <time>2021-05-10T16:42:17Z</time>
        <name>WPT.928</name>
      </trkpt>
      <trkpt lat="35.232985860" lon="-107.606824030">
        <ele>3243.100</ele>
        <time>2021-05-10T16:43:48Z</time>
        <name>WPT.929</name>
      </trkpt>
      <trkpt lat="35.233027940" lon="-107.606831820">
        <ele>3242.600</ele>
        <time>2021-05-10T16:43:53Z</time>
        <name>WPT.930</name>
      </trkpt>
      <trkpt lat="35.233069310" lon="-107.606844160">
        <ele>3244.400</ele>
        <time>2021-05-10T16:43:59Z</time>
        <name>WPT.931</name>
      </trkpt>
      <trkpt lat="35.233104550" lon="-107.606856720">
        <ele>3244.300</ele>
        <time>2021-05-10T16:44:04Z</time>
        <name>WPT.932</name>
      </trkpt>
      <trkpt lat="35.233146800" lon="-107.606863190">
        <ele>3244.600</ele>
        <time>2021-05-10T16:44:10Z</time>
        <name>WPT.933</name>
      </trkpt>
      <trkpt lat="35.233183320" lon="-107.606880200">
        <ele>3246.800</ele>
        <time>2021-05-10T16:44:16Z</time>
        <name>WPT.934</name>
      </trkpt>
      <trkpt lat="35.233217840" lon="-107.606906280">
        <ele>3247.000</ele>
        <time>2021-05-10T16:44:22Z</time>
        <name>WPT.935</name>
      </trkpt>
      <trkpt lat="35.233253240" lon="-107.606930080">
        <ele>3247.800</ele>
        <time>2021-05-10T16:44:36Z</time>
        <name>WPT.936</name>
      </trkpt>
      <trkpt lat="35.233289900" lon="-107.606950370">
        <ele>3250.400</ele>
        <time>2021-05-10T16:44:43Z</time>
        <name>WPT.937</name>
      </trkpt>
      <trkpt lat="35.233321650" lon="-107.606979740">
        <ele>3250.100</ele>
        <time>2021-05-10T16:44:51Z</time>
        <name>WPT.938</name>
      </trkpt>
      <trkpt lat="35.233361700" lon="-107.606993730">
        <ele>3250.800</ele>
        <time>2021-05-10T16:44:57Z</time>
        <name>WPT.939</name>
      </trkpt>
      <trkpt lat="35.233402540" lon="-107.607000700">
        <ele>3250.500</ele>
        <time>2021-05-10T16:45:02Z</time>
        <name>WPT.940</name>
      </trkpt>
      <trkpt lat="35.233438660" lon="-107.607015530">
        <ele>3251.800</ele>
        <time>2021-05-10T16:45:20Z</time>
        <name>WPT.941</name>
      </trkpt>
      <trkpt lat="35.233476170" lon="-107.607028420">
        <ele>3252.400</ele>
        <time>2021-05-10T16:45:25Z</time>
        <name>WPT.942</name>
      </trkpt>
      <trkpt lat="35.233501580" lon="-107.607072620">
        <ele>3253.000</ele>
        <time>2021-05-10T16:45:30Z</time>
        <name>WPT.943</name>
      </trkpt>
      <trkpt lat="35.233528350" lon="-107.607107990">
        <ele>3252.500</ele>
        <time>2021-05-10T16:45:35Z</time>
        <name>WPT.944</name>
      </trkpt>
      <trkpt lat="35.233555130" lon="-107.607143310">
        <ele>3253.700</ele>
        <time>2021-05-10T16:45:40Z</time>
        <name>WPT.945</name>
      </trkpt>
      <trkpt lat="35.233575870" lon="-107.607183630">
        <ele>3254.400</ele>
        <time>2021-05-10T16:45:45Z</time>
        <name>WPT.946</name>
      </trkpt>
      <trkpt lat="35.233594950" lon="-107.607225600">
        <ele>3255.400</ele>
        <time>2021-05-10T16:45:50Z</time>
        <name>WPT.947</name>
      </trkpt>
      <trkpt lat="35.233619300" lon="-107.607268080">
        <ele>3256.500</ele>
        <time>2021-05-10T16:45:55Z</time>
        <name>WPT.948</name>
      </trkpt>
      <trkpt lat="35.233643380" lon="-107.607303980">
        <ele>3256.700</ele>
        <time>2021-05-10T16:46:00Z</time>
        <name>WPT.949</name>
      </trkpt>
      <trkpt lat="35.233678520" lon="-107.607332480">
        <ele>3256.100</ele>
        <time>2021-05-10T16:46:24Z</time>
        <name>WPT.950</name>
      </trkpt>
      <trkpt lat="35.233709810" lon="-107.607360360">
        <ele>3256.800</ele>
        <time>2021-05-10T16:46:36Z</time>
        <name>WPT.951</name>
      </trkpt>
      <trkpt lat="35.233736150" lon="-107.607394920">
        <ele>3257.400</ele>
        <time>2021-05-10T16:46:42Z</time>
        <name>WPT.952</name>
      </trkpt>
      <trkpt lat="35.233756760" lon="-107.607436510">
        <ele>3257.900</ele>
        <time>2021-05-10T16:46:47Z</time>
        <name>WPT.953</name>
      </trkpt>
      <trkpt lat="35.233787290" lon="-107.607462950">
        <ele>3258.400</ele>
        <time>2021-05-10T16:46:56Z</time>
        <name>WPT.954</name>
      </trkpt>
      <trkpt lat="35.233808850" lon="-107.607501170">
        <ele>3258.800</ele>
        <time>2021-05-10T16:47:01Z</time>
        <name>WPT.955</name>
      </trkpt>
      <trkpt lat="35.233836010" lon="-107.607535360">
        <ele>3257.700</ele>
        <time>2021-05-10T16:47:06Z</time>
        <name>WPT.956</name>
      </trkpt>
      <trkpt lat="35.233858700" lon="-107.607577280">
        <ele>3259.200</ele>
        <time>2021-05-10T16:47:11Z</time>
        <name>WPT.957</name>
      </trkpt>
      <trkpt lat="35.233881540" lon="-107.607617570">
        <ele>3259.000</ele>
        <time>2021-05-10T16:47:28Z</time>
        <name>WPT.958</name>
      </trkpt>
      <trkpt lat="35.233914230" lon="-107.607647210">
        <ele>3260.900</ele>
        <time>2021-05-10T16:47:34Z</time>
        <name>WPT.959</name>
      </trkpt>
      <trkpt lat="35.233942230" lon="-107.607677860">
        <ele>3260.600</ele>
        <time>2021-05-10T16:48:00Z</time>
        <name>WPT.960</name>
      </trkpt>
      <trkpt lat="35.233970210" lon="-107.607712560">
        <ele>3260.800</ele>
        <time>2021-05-10T16:48:35Z</time>
        <name>WPT.961</name>
      </trkpt>
      <trkpt lat="35.233989970" lon="-107.607750640">
        <ele>3261.700</ele>
        <time>2021-05-10T16:49:35Z</time>
        <name>WPT.962</name>
      </trkpt>
      <trkpt lat="35.234016660" lon="-107.607788450">
        <ele>3261.200</ele>
        <time>2021-05-10T16:49:51Z</time>
        <name>WPT.963</name>
      </trkpt>
      <trkpt lat="35.234031250" lon="-107.607829670">
        <ele>3261.800</ele>
        <time>2021-05-10T16:49:55Z</time>
        <name>WPT.964</name>
      </trkpt>
      <trkpt lat="35.234046110" lon="-107.607881640">
        <ele>3263.100</ele>
        <time>2021-05-10T16:50:00Z</time>
        <name>WPT.965</name>
      </trkpt>
      <trkpt lat="35.234066350" lon="-107.607923610">
        <ele>3267.300</ele>
        <time>2021-05-10T16:50:09Z</time>
        <name>WPT.966</name>
      </trkpt>
      <trkpt lat="35.234088020" lon="-107.607967890">
        <ele>3267.200</ele>
        <time>2021-05-10T16:50:14Z</time>
        <name>WPT.967</name>
      </trkpt>
      <trkpt lat="35.234103450" lon="-107.608012650">
        <ele>3267.200</ele>
        <time>2021-05-10T16:50:19Z</time>
        <name>WPT.968</name>
      </trkpt>
      <trkpt lat="35.234118480" lon="-107.608057630">
        <ele>3268.600</ele>
        <time>2021-05-10T16:50:26Z</time>
        <name>WPT.969</name>
      </trkpt>
      <trkpt lat="35.234133960" lon="-107.608107980">
        <ele>3268.600</ele>
        <time>2021-05-10T16:50:31Z</time>
        <name>WPT.970</name>
      </trkpt>
      <trkpt lat="35.234153110" lon="-107.608146540">
        <ele>3268.800</ele>
        <time>2021-05-10T16:50:53Z</time>
        <name>WPT.971</name>
      </trkpt>
      <trkpt lat="35.234180580" lon="-107.608178550">
        <ele>3268.800</ele>
        <time>2021-05-10T16:51:13Z</time>
        <name>WPT.972</name>
      </trkpt>
      <trkpt lat="35.234210960" lon="-107.608206300">
        <ele>3267.400</ele>
        <time>2021-05-10T16:51:19Z</time>
        <name>WPT.973</name>
      </trkpt>
      <trkpt lat="35.234224180" lon="-107.608254060">
        <ele>3267.100</ele>
        <time>2021-05-10T16:51:25Z</time>
        <name>WPT.974</name>
      </trkpt>
      <trkpt lat="35.234240220" lon="-107.608293680">
        <ele>3266.700</ele>
        <time>2021-05-10T16:51:29Z</time>
        <name>WPT.975</name>
      </trkpt>
      <trkpt lat="35.234256410" lon="-107.608335310">
        <ele>3267.400</ele>
        <time>2021-05-10T16:51:33Z</time>
        <name>WPT.976</name>
      </trkpt>
      <trkpt lat="35.234278340" lon="-107.608377610">
        <ele>3268.700</ele>
        <time>2021-05-10T16:51:46Z</time>
        <name>WPT.977</name>
      </trkpt>
      <trkpt lat="35.234301140" lon="-107.608338940">
        <ele>3269.300</ele>
        <time>2021-05-10T16:52:19Z</time>
        <name>WPT.978</name>
      </trkpt>
      <trkpt lat="35.234304610" lon="-107.608288810">
        <ele>3270.500</ele>
        <time>2021-05-10T16:52:24Z</time>
        <name>WPT.979</name>
      </trkpt>
      <trkpt lat="35.234312060" lon="-107.608238090">
        <ele>3271.400</ele>
        <time>2021-05-10T16:52:29Z</time>
        <name>WPT.980</name>
      </trkpt>
      <trkpt lat="35.234321470" lon="-107.608188850">
        <ele>3272.200</ele>
        <time>2021-05-10T16:52:34Z</time>
        <name>WPT.981</name>
      </trkpt>
      <trkpt lat="35.234328960" lon="-107.608144680">
        <ele>3273.600</ele>
        <time>2021-05-10T16:52:39Z</time>
        <name>WPT.982</name>
      </trkpt>
      <trkpt lat="35.234324430" lon="-107.608101030">
        <ele>3274.800</ele>
        <time>2021-05-10T16:52:43Z</time>
        <name>WPT.983</name>
      </trkpt>
      <trkpt lat="35.234333770" lon="-107.608058400">
        <ele>3275.500</ele>
        <time>2021-05-10T16:52:47Z</time>
        <name>WPT.984</name>
      </trkpt>
      <trkpt lat="35.234341060" lon="-107.608007200">
        <ele>3277.200</ele>
        <time>2021-05-10T16:52:53Z</time>
        <name>WPT.985</name>
      </trkpt>
      <trkpt lat="35.234335410" lon="-107.607956390">
        <ele>3279.300</ele>
        <time>2021-05-10T16:52:59Z</time>
        <name>WPT.986</name>
      </trkpt>
      <trkpt lat="35.234340700" lon="-107.607907660">
        <ele>3280.900</ele>
        <time>2021-05-10T16:53:04Z</time>
        <name>WPT.987</name>
      </trkpt>
      <trkpt lat="35.234335490" lon="-107.607860740">
        <ele>3282.500</ele>
        <time>2021-05-10T16:53:09Z</time>
        <name>WPT.988</name>
      </trkpt>
      <trkpt lat="35.234334220" lon="-107.607812730">
        <ele>3283.800</ele>
        <time>2021-05-10T16:53:15Z</time>
        <name>WPT.989</name>
      </trkpt>
      <trkpt lat="35.234333470" lon="-107.607768370">
        <ele>3286.200</ele>
        <time>2021-05-10T16:53:20Z</time>
        <name>WPT.990</name>
      </trkpt>
      <trkpt lat="35.234339040" lon="-107.607720890">
        <ele>3287.900</ele>
        <time>2021-05-10T16:53:25Z</time>
        <name>WPT.991</name>
      </trkpt>
      <trkpt lat="35.234345010" lon="-107.607671090">
        <ele>3289.500</ele>
        <time>2021-05-10T16:54:09Z</time>
        <name>WPT.992</name>
      </trkpt>
      <trkpt lat="35.234339570" lon="-107.607627610">
        <ele>3291.000</ele>
        <time>2021-05-10T16:54:13Z</time>
        <name>WPT.993</name>
      </trkpt>
      <trkpt lat="35.234337330" lon="-107.607582440">
        <ele>3291.500</ele>
        <time>2021-05-10T16:54:17Z</time>
        <name>WPT.994</name>
      </trkpt>
      <trkpt lat="35.234335890" lon="-107.607529860">
        <ele>3292.900</ele>
        <time>2021-05-10T16:54:22Z</time>
        <name>WPT.995</name>
      </trkpt>
      <trkpt lat="35.234323940" lon="-107.607481010">
        <ele>3293.100</ele>
        <time>2021-05-10T16:54:28Z</time>
        <name>WPT.996</name>
      </trkpt>
      <trkpt lat="35.234319130" lon="-107.607428290">
        <ele>3293.800</ele>
        <time>2021-05-10T16:54:35Z</time>
        <name>WPT.997</name>
      </trkpt>
      <trkpt lat="35.234313380" lon="-107.607375940">
        <ele>3294.700</ele>
        <time>2021-05-10T16:54:40Z</time>
        <name>WPT.998</name>
      </trkpt>
      <trkpt lat="35.234311080" lon="-107.607325220">
        <ele>3295.400</ele>
        <time>2021-05-10T16:54:45Z</time>
        <name>WPT.999</name>
      </trkpt>
      <trkpt lat="35.234317590" lon="-107.607277720">
        <ele>3294.800</ele>
        <time>2021-05-10T16:54:50Z</time>
        <name>WPT.1000</name>
      </trkpt>
      <trkpt lat="35.234315190" lon="-107.607227660">
        <ele>3296.300</ele>
        <time>2021-05-10T16:54:56Z</time>
        <name>WPT.1001</name>
      </trkpt>
      <trkpt lat="35.234306950" lon="-107.607181140">
        <ele>3297.500</ele>
        <time>2021-05-10T16:55:01Z</time>
        <name>WPT.1002</name>
      </trkpt>
      <trkpt lat="35.234292430" lon="-107.607138560">
        <ele>3299.000</ele>
        <time>2021-05-10T16:55:07Z</time>
        <name>WPT.1003</name>
      </trkpt>
      <trkpt lat="35.234285720" lon="-107.607090250">
        <ele>3300.000</ele>
        <time>2021-05-10T16:55:28Z</time>
        <name>WPT.1004</name>
      </trkpt>
      <trkpt lat="35.234278810" lon="-107.607039620">
        <ele>3301.800</ele>
        <time>2021-05-10T16:55:33Z</time>
        <name>WPT.1005</name>
      </trkpt>
      <trkpt lat="35.234271950" lon="-107.606994220">
        <ele>3302.600</ele>
        <time>2021-05-10T16:55:38Z</time>
        <name>WPT.1006</name>
      </trkpt>
      <trkpt lat="35.234260400" lon="-107.606945350">
        <ele>3302.900</ele>
        <time>2021-05-10T16:55:43Z</time>
        <name>WPT.1007</name>
      </trkpt>
      <trkpt lat="35.234257970" lon="-107.606895900">
        <ele>3303.200</ele>
        <time>2021-05-10T16:55:48Z</time>
        <name>WPT.1008</name>
      </trkpt>
      <trkpt lat="35.234240090" lon="-107.606847370">
        <ele>3304.300</ele>
        <time>2021-05-10T16:55:54Z</time>
        <name>WPT.1009</name>
      </trkpt>
      <trkpt lat="35.234223540" lon="-107.606804420">
        <ele>3305.200</ele>
        <time>2021-05-10T16:55:59Z</time>
        <name>WPT.1010</name>
      </trkpt>
      <trkpt lat="35.234211470" lon="-107.606760690">
        <ele>3306.400</ele>
        <time>2021-05-10T16:56:20Z</time>
        <name>WPT.1011</name>
      </trkpt>
      <trkpt lat="35.234196110" lon="-107.606714760">
        <ele>3307.300</ele>
        <time>2021-05-10T16:56:35Z</time>
        <name>WPT.1012</name>
      </trkpt>
      <trkpt lat="35.234205000" lon="-107.606671320">
        <ele>3306.500</ele>
        <time>2021-05-10T16:57:32Z</time>
        <name>WPT.1013</name>
      </trkpt>
      <trkpt lat="35.234197030" lon="-107.606620110">
        <ele>3304.400</ele>
        <time>2021-05-10T16:57:38Z</time>
        <name>WPT.1014</name>
      </trkpt>
      <trkpt lat="35.234182250" lon="-107.606576240">
        <ele>3304.600</ele>
        <time>2021-05-10T16:57:43Z</time>
        <name>WPT.1015</name>
      </trkpt>
      <trkpt lat="35.234158860" lon="-107.606539370">
        <ele>3307.700</ele>
        <time>2021-05-10T16:57:55Z</time>
        <name>WPT.1016</name>
      </trkpt>
      <trkpt lat="35.234151700" lon="-107.606493520">
        <ele>3309.100</ele>
        <time>2021-05-10T16:58:01Z</time>
        <name>WPT.1017</name>
      </trkpt>
      <trkpt lat="35.234185540" lon="-107.606520410">
        <ele>3309.100</ele>
        <time>2021-05-10T16:58:23Z</time>
        <name>WPT.1018</name>
      </trkpt>
      <trkpt lat="35.234210430" lon="-107.606552330">
        <ele>3309.700</ele>
        <time>2021-05-10T16:58:27Z</time>
        <name>WPT.1019</name>
      </trkpt>
      <trkpt lat="35.234242530" lon="-107.606584110">
        <ele>3310.900</ele>
        <time>2021-05-10T16:58:32Z</time>
        <name>WPT.1020</name>
      </trkpt>
      <trkpt lat="35.234263650" lon="-107.606620670">
        <ele>3310.800</ele>
        <time>2021-05-10T16:58:37Z</time>
        <name>WPT.1021</name>
      </trkpt>
      <trkpt lat="35.234293400" lon="-107.606645610">
        <ele>3310.300</ele>
        <time>2021-05-10T16:58:42Z</time>
        <name>WPT.1022</name>
      </trkpt>
      <trkpt lat="35.234323780" lon="-107.606671980">
        <ele>3311.300</ele>
        <time>2021-05-10T16:58:49Z</time>
        <name>WPT.1023</name>
      </trkpt>
      <trkpt lat="35.234349100" lon="-107.606706180">
        <ele>3311.600</ele>
        <time>2021-05-10T16:58:54Z</time>
        <name>WPT.1024</name>
      </trkpt>
      <trkpt lat="35.234382400" lon="-107.606734860">
        <ele>3312.800</ele>
        <time>2021-05-10T16:58:59Z</time>
        <name>WPT.1025</name>
      </trkpt>
      <trkpt lat="35.234412930" lon="-107.606764620">
        <ele>3312.800</ele>
        <time>2021-05-10T16:59:04Z</time>
        <name>WPT.1026</name>
      </trkpt>
      <trkpt lat="35.234445520" lon="-107.606789350">
        <ele>3313.600</ele>
        <time>2021-05-10T16:59:09Z</time>
        <name>WPT.1027</name>
      </trkpt>
      <trkpt lat="35.234477950" lon="-107.606818590">
        <ele>3314.800</ele>
        <time>2021-05-10T16:59:42Z</time>
        <name>WPT.1028</name>
      </trkpt>
      <trkpt lat="35.234512620" lon="-107.606843240">
        <ele>3316.000</ele>
        <time>2021-05-10T16:59:47Z</time>
        <name>WPT.1029</name>
      </trkpt>
      <trkpt lat="35.234541140" lon="-107.606884950">
        <ele>3317.100</ele>
        <time>2021-05-10T16:59:52Z</time>
        <name>WPT.1030</name>
      </trkpt>
      <trkpt lat="35.234579060" lon="-107.606906210">
        <ele>3318.200</ele>
        <time>2021-05-10T16:59:57Z</time>
        <name>WPT.1031</name>
      </trkpt>
      <trkpt lat="35.234613350" lon="-107.606931290">
        <ele>3318.200</ele>
        <time>2021-05-10T17:00:01Z</time>
        <name>WPT.1032</name>
      </trkpt>
      <trkpt lat="35.234650680" lon="-107.606953190">
        <ele>3318.700</ele>
        <time>2021-05-10T17:00:06Z</time>
        <name>WPT.1033</name>
      </trkpt>
      <trkpt lat="35.234685020" lon="-107.606969530">
        <ele>3321.000</ele>
        <time>2021-05-10T17:01:37Z</time>
        <name>WPT.1034</name>
      </trkpt>
      <trkpt lat="35.234717470" lon="-107.606995540">
        <ele>3321.400</ele>
        <time>2021-05-10T17:01:46Z</time>
        <name>WPT.1035</name>
      </trkpt>
      <trkpt lat="35.234745130" lon="-107.607025260">
        <ele>3321.900</ele>
        <time>2021-05-10T17:01:51Z</time>
        <name>WPT.1036</name>
      </trkpt>
      <trkpt lat="35.234778550" lon="-107.607050620">
        <ele>3322.100</ele>
        <time>2021-05-10T17:01:56Z</time>
        <name>WPT.1037</name>
      </trkpt>
      <trkpt lat="35.234804660" lon="-107.607085660">
        <ele>3322.900</ele>
        <time>2021-05-10T17:02:01Z</time>
        <name>WPT.1038</name>
      </trkpt>
      <trkpt lat="35.234831750" lon="-107.607121470">
        <ele>3323.700</ele>
        <time>2021-05-10T17:02:07Z</time>
        <name>WPT.1039</name>
      </trkpt>
      <trkpt lat="35.234861090" lon="-107.607152140">
        <ele>3324.600</ele>
        <time>2021-05-10T17:02:12Z</time>
        <name>WPT.1040</name>
      </trkpt>
      <trkpt lat="35.234883480" lon="-107.607195880">
        <ele>3326.800</ele>
        <time>2021-05-10T17:02:18Z</time>
        <name>WPT.1041</name>
      </trkpt>
      <trkpt lat="35.234910950" lon="-107.607227320">
        <ele>3327.300</ele>
        <time>2021-05-10T17:02:24Z</time>
        <name>WPT.1042</name>
      </trkpt>
      <trkpt lat="35.234938650" lon="-107.607260280">
        <ele>3326.400</ele>
        <time>2021-05-10T17:02:38Z</time>
        <name>WPT.1043</name>
      </trkpt>
      <trkpt lat="35.234970530" lon="-107.607285840">
        <ele>3325.600</ele>
        <time>2021-05-10T17:02:42Z</time>
        <name>WPT.1044</name>
      </trkpt>
      <trkpt lat="35.235001970" lon="-107.607317520">
        <ele>3325.200</ele>
        <time>2021-05-10T17:02:47Z</time>
        <name>WPT.1045</name>
      </trkpt>
      <trkpt lat="35.235032140" lon="-107.607347640">
        <ele>3324.800</ele>
        <time>2021-05-10T17:02:52Z</time>
        <name>WPT.1046</name>
      </trkpt>
      <trkpt lat="35.235058070" lon="-107.607378550">
        <ele>3325.700</ele>
        <time>2021-05-10T17:02:57Z</time>
        <name>WPT.1047</name>
      </trkpt>
      <trkpt lat="35.235095150" lon="-107.607404540">
        <ele>3326.700</ele>
        <time>2021-05-10T17:03:03Z</time>
        <name>WPT.1048</name>
      </trkpt>
      <trkpt lat="35.235128510" lon="-107.607434910">
        <ele>3328.700</ele>
        <time>2021-05-10T17:03:09Z</time>
        <name>WPT.1049</name>
      </trkpt>
      <trkpt lat="35.235159100" lon="-107.607460370">
        <ele>3328.200</ele>
        <time>2021-05-10T17:03:18Z</time>
        <name>WPT.1050</name>
      </trkpt>
      <trkpt lat="35.235181630" lon="-107.607497730">
        <ele>3327.000</ele>
        <time>2021-05-10T17:03:35Z</time>
        <name>WPT.1051</name>
      </trkpt>
      <trkpt lat="35.235197650" lon="-107.607540850">
        <ele>3329.200</ele>
        <time>2021-05-10T17:03:52Z</time>
        <name>WPT.1052</name>
      </trkpt>
      <trkpt lat="35.235227730" lon="-107.607565500">
        <ele>3329.900</ele>
        <time>2021-05-10T17:03:57Z</time>
        <name>WPT.1053</name>
      </trkpt>
      <trkpt lat="35.235260320" lon="-107.607594030">
        <ele>3332.400</ele>
        <time>2021-05-10T17:04:02Z</time>
        <name>WPT.1054</name>
      </trkpt>
      <trkpt lat="35.235288550" lon="-107.607622190">
        <ele>3335.100</ele>
        <time>2021-05-10T17:04:06Z</time>
        <name>WPT.1055</name>
      </trkpt>
      <trkpt lat="35.235322670" lon="-107.607655660">
        <ele>3334.600</ele>
        <time>2021-05-10T17:04:11Z</time>
        <name>WPT.1056</name>
      </trkpt>
      <trkpt lat="35.235355670" lon="-107.607686820">
        <ele>3333.500</ele>
        <time>2021-05-10T17:04:17Z</time>
        <name>WPT.1057</name>
      </trkpt>
      <trkpt lat="35.235385740" lon="-107.607713520">
        <ele>3333.700</ele>
        <time>2021-05-10T17:04:22Z</time>
        <name>WPT.1058</name>
      </trkpt>
      <trkpt lat="35.235420200" lon="-107.607733280">
        <ele>3334.400</ele>
        <time>2021-05-10T17:04:27Z</time>
        <name>WPT.1059</name>
      </trkpt>
      <trkpt lat="35.235462490" lon="-107.607744190">
        <ele>3335.200</ele>
        <time>2021-05-10T17:04:41Z</time>
        <name>WPT.1060</name>
      </trkpt>
      <trkpt lat="35.235496250" lon="-107.607781640">
        <ele>3336.900</ele>
        <time>2021-05-10T17:04:46Z</time>
        <name>WPT.1061</name>
      </trkpt>
      <trkpt lat="35.235526660" lon="-107.607812090">
        <ele>3338.100</ele>
        <time>2021-05-10T17:04:50Z</time>
        <name>WPT.1062</name>
      </trkpt>
      <trkpt lat="35.235561760" lon="-107.607848600">
        <ele>3340.000</ele>
        <time>2021-05-10T17:04:55Z</time>
        <name>WPT.1063</name>
      </trkpt>
      <trkpt lat="35.235590340" lon="-107.607875700">
        <ele>3340.400</ele>
        <time>2021-05-10T17:04:59Z</time>
        <name>WPT.1064</name>
      </trkpt>
      <trkpt lat="35.235623990" lon="-107.607910770">
        <ele>3342.700</ele>
        <time>2021-05-10T17:05:04Z</time>
        <name>WPT.1065</name>
      </trkpt>
      <trkpt lat="35.235659670" lon="-107.607936310">
        <ele>3343.700</ele>
        <time>2021-05-10T17:05:09Z</time>
        <name>WPT.1066</name>
      </trkpt>
      <trkpt lat="35.235686550" lon="-107.607974270">
        <ele>3346.200</ele>
        <time>2021-05-10T17:05:20Z</time>
        <name>WPT.1067</name>
      </trkpt>
      <trkpt lat="35.235717490" lon="-107.608005090">
        <ele>3348.100</ele>
        <time>2021-05-10T17:05:26Z</time>
        <name>WPT.1068</name>
      </trkpt>
      <trkpt lat="35.235744400" lon="-107.608037840">
        <ele>3349.500</ele>
        <time>2021-05-10T17:07:04Z</time>
        <name>WPT.1069</name>
      </trkpt>
      <trkpt lat="35.235770660" lon="-107.608068060">
        <ele>3351.000</ele>
        <time>2021-05-10T17:07:09Z</time>
        <name>WPT.1070</name>
      </trkpt>
      <trkpt lat="35.235807860" lon="-107.608092080">
        <ele>3351.000</ele>
        <time>2021-05-10T17:07:14Z</time>
        <name>WPT.1071</name>
      </trkpt>
      <trkpt lat="35.235848480" lon="-107.608089240">
        <ele>3351.000</ele>
        <time>2021-05-10T17:07:18Z</time>
        <name>WPT.1072</name>
      </trkpt>
      <trkpt lat="35.235884850" lon="-107.608085410">
        <ele>3351.700</ele>
        <time>2021-05-10T17:07:22Z</time>
        <name>WPT.1073</name>
      </trkpt>
      <trkpt lat="35.235923660" lon="-107.608079360">
        <ele>3352.400</ele>
        <time>2021-05-10T17:07:27Z</time>
        <name>WPT.1074</name>
      </trkpt>
      <trkpt lat="35.235959320" lon="-107.608071730">
        <ele>3353.800</ele>
        <time>2021-05-10T17:07:31Z</time>
        <name>WPT.1075</name>
      </trkpt>
      <trkpt lat="35.235997880" lon="-107.608061620">
        <ele>3353.900</ele>
        <time>2021-05-10T17:07:36Z</time>
        <name>WPT.1076</name>
      </trkpt>
      <trkpt lat="35.236037430" lon="-107.608053290">
        <ele>3354.700</ele>
        <time>2021-05-10T17:07:41Z</time>
        <name>WPT.1077</name>
      </trkpt>
      <trkpt lat="35.236080490" lon="-107.608045650">
        <ele>3354.900</ele>
        <time>2021-05-10T17:07:46Z</time>
        <name>WPT.1078</name>
      </trkpt>
      <trkpt lat="35.236121750" lon="-107.608024060">
        <ele>3354.900</ele>
        <time>2021-05-10T17:07:51Z</time>
        <name>WPT.1079</name>
      </trkpt>
      <trkpt lat="35.236158410" lon="-107.608012290">
        <ele>3355.600</ele>
        <time>2021-05-10T17:07:56Z</time>
        <name>WPT.1080</name>
      </trkpt>
      <trkpt lat="35.236197060" lon="-107.608002760">
        <ele>3356.500</ele>
        <time>2021-05-10T17:08:05Z</time>
        <name>WPT.1081</name>
      </trkpt>
      <trkpt lat="35.236232980" lon="-107.607995950">
        <ele>3357.800</ele>
        <time>2021-05-10T17:08:10Z</time>
        <name>WPT.1082</name>
      </trkpt>
      <trkpt lat="35.236273720" lon="-107.607989720">
        <ele>3358.300</ele>
        <time>2021-05-10T17:08:15Z</time>
        <name>WPT.1083</name>
      </trkpt>
      <trkpt lat="35.236310780" lon="-107.607995500">
        <ele>3358.800</ele>
        <time>2021-05-10T17:08:20Z</time>
        <name>WPT.1084</name>
      </trkpt>
      <trkpt lat="35.236348710" lon="-107.607969890">
        <ele>3359.900</ele>
        <time>2021-05-10T17:08:36Z</time>
        <name>WPT.1085</name>
      </trkpt>
      <trkpt lat="35.236388910" lon="-107.607960730">
        <ele>3360.300</ele>
        <time>2021-05-10T17:08:40Z</time>
        <name>WPT.1086</name>
      </trkpt>
      <trkpt lat="35.236436310" lon="-107.607964850">
        <ele>3361.000</ele>
        <time>2021-05-10T17:08:45Z</time>
        <name>WPT.1087</name>
      </trkpt>
      <trkpt lat="35.236473290" lon="-107.607980620">
        <ele>3360.600</ele>
        <time>2021-05-10T17:08:49Z</time>
        <name>WPT.1088</name>
      </trkpt>
      <trkpt lat="35.236512990" lon="-107.607988590">
        <ele>3360.900</ele>
        <time>2021-05-10T17:08:54Z</time>
        <name>WPT.1089</name>
      </trkpt>
      <trkpt lat="35.236554640" lon="-107.608000360">
        <ele>3360.900</ele>
        <time>2021-05-10T17:08:59Z</time>
        <name>WPT.1090</name>
      </trkpt>
      <trkpt lat="35.236591610" lon="-107.608019870">
        <ele>3361.800</ele>
        <time>2021-05-10T17:09:04Z</time>
        <name>WPT.1091</name>
      </trkpt>
      <trkpt lat="35.236634820" lon="-107.608031430">
        <ele>3362.500</ele>
        <time>2021-05-10T17:09:09Z</time>
        <name>WPT.1092</name>
      </trkpt>
      <trkpt lat="35.236675090" lon="-107.608051890">
        <ele>3363.600</ele>
        <time>2021-05-10T17:09:54Z</time>
        <name>WPT.1093</name>
      </trkpt>
      <trkpt lat="35.236711230" lon="-107.608080940">
        <ele>3364.700</ele>
        <time>2021-05-10T17:09:59Z</time>
        <name>WPT.1094</name>
      </trkpt>
      <trkpt lat="35.236737060" lon="-107.608117070">
        <ele>3366.800</ele>
        <time>2021-05-10T17:10:30Z</time>
        <name>WPT.1095</name>
      </trkpt>
      <trkpt lat="35.236761010" lon="-107.608158010">
        <ele>3366.700</ele>
        <time>2021-05-10T17:10:35Z</time>
        <name>WPT.1096</name>
      </trkpt>
      <trkpt lat="35.236793300" lon="-107.608189610">
        <ele>3367.000</ele>
        <time>2021-05-10T17:10:40Z</time>
        <name>WPT.1097</name>
      </trkpt>
      <trkpt lat="35.236821670" lon="-107.608226410">
        <ele>3367.600</ele>
        <time>2021-05-10T17:10:46Z</time>
        <name>WPT.1098</name>
      </trkpt>
      <trkpt lat="35.236848130" lon="-107.608260990">
        <ele>3368.800</ele>
        <time>2021-05-10T17:10:51Z</time>
        <name>WPT.1099</name>
      </trkpt>
      <trkpt lat="35.236880940" lon="-107.608284840">
        <ele>3370.100</ele>
        <time>2021-05-10T17:10:56Z</time>
        <name>WPT.1100</name>
      </trkpt>
      <trkpt lat="35.236919170" lon="-107.608278350">
        <ele>3371.700</ele>
        <time>2021-05-10T17:11:05Z</time>
        <name>WPT.1101</name>
      </trkpt>
      <trkpt lat="35.236953570" lon="-107.608295830">
        <ele>3372.300</ele>
        <time>2021-05-10T17:11:11Z</time>
        <name>WPT.1102</name>
      </trkpt>
      <trkpt lat="35.236986190" lon="-107.608319660">
        <ele>3372.800</ele>
        <time>2021-05-10T17:11:16Z</time>
        <name>WPT.1103</name>
      </trkpt>
      <trkpt lat="35.237021590" lon="-107.608341920">
        <ele>3374.500</ele>
        <time>2021-05-10T17:11:22Z</time>
        <name>WPT.1104</name>
      </trkpt>
      <trkpt lat="35.237054980" lon="-107.608362910">
        <ele>3375.800</ele>
        <time>2021-05-10T17:11:31Z</time>
        <name>WPT.1105</name>
      </trkpt>
      <trkpt lat="35.237086960" lon="-107.608394980">
        <ele>3376.000</ele>
        <time>2021-05-10T17:11:36Z</time>
        <name>WPT.1106</name>
      </trkpt>
      <trkpt lat="35.237123440" lon="-107.608417960">
        <ele>3376.500</ele>
        <time>2021-05-10T17:11:42Z</time>
        <name>WPT.1107</name>
      </trkpt>
      <trkpt lat="35.237158230" lon="-107.608429900">
        <ele>3376.100</ele>
        <time>2021-05-10T17:11:50Z</time>
        <name>WPT.1108</name>
      </trkpt>
      <trkpt lat="35.237193670" lon="-107.608444260">
        <ele>3377.000</ele>
        <time>2021-05-10T17:11:54Z</time>
        <name>WPT.1109</name>
      </trkpt>
      <trkpt lat="35.237234570" lon="-107.608450650">
        <ele>3378.200</ele>
        <time>2021-05-10T17:12:05Z</time>
        <name>WPT.1110</name>
      </trkpt>
      <trkpt lat="35.237266460" lon="-107.608476400">
        <ele>3379.100</ele>
        <time>2021-05-10T17:12:10Z</time>
        <name>WPT.1111</name>
      </trkpt>
      <trkpt lat="35.237308980" lon="-107.608488540">
        <ele>3380.400</ele>
        <time>2021-05-10T17:12:15Z</time>
        <name>WPT.1112</name>
      </trkpt>
      <trkpt lat="35.237350310" lon="-107.608496860">
        <ele>3380.700</ele>
        <time>2021-05-10T17:13:01Z</time>
        <name>WPT.1113</name>
      </trkpt>
      <trkpt lat="35.237380740" lon="-107.608521430">
        <ele>3381.500</ele>
        <time>2021-05-10T17:13:06Z</time>
        <name>WPT.1114</name>
      </trkpt>
      <trkpt lat="35.237418190" lon="-107.608538900">
        <ele>3381.800</ele>
        <time>2021-05-10T17:13:12Z</time>
        <name>WPT.1115</name>
      </trkpt>
      <trkpt lat="35.237461910" lon="-107.608550220">
        <ele>3383.200</ele>
        <time>2021-05-10T17:13:17Z</time>
        <name>WPT.1116</name>
      </trkpt>
      <trkpt lat="35.237503880" lon="-107.608564400">
        <ele>3383.800</ele>
        <time>2021-05-10T17:13:21Z</time>
        <name>WPT.1117</name>
      </trkpt>
      <trkpt lat="35.237540960" lon="-107.608574770">
        <ele>3383.900</ele>
        <time>2021-05-10T17:13:25Z</time>
        <name>WPT.1118</name>
      </trkpt>
      <trkpt lat="35.237570630" lon="-107.608603840">
        <ele>3385.000</ele>
        <time>2021-05-10T17:13:30Z</time>
        <name>WPT.1119</name>
      </trkpt>
      <trkpt lat="35.237598520" lon="-107.608640040">
        <ele>3385.900</ele>
        <time>2021-05-10T17:13:35Z</time>
        <name>WPT.1120</name>
      </trkpt>
      <trkpt lat="35.237620980" lon="-107.608674770">
        <ele>3386.200</ele>
        <time>2021-05-10T17:13:40Z</time>
        <name>WPT.1121</name>
      </trkpt>
      <trkpt lat="35.237649190" lon="-107.608706930">
        <ele>3386.500</ele>
        <time>2021-05-10T17:13:46Z</time>
        <name>WPT.1122</name>
      </trkpt>
      <trkpt lat="35.237678780" lon="-107.608736730">
        <ele>3387.900</ele>
        <time>2021-05-10T17:14:01Z</time>
        <name>WPT.1123</name>
      </trkpt>
      <trkpt lat="35.237708910" lon="-107.608770730">
        <ele>3388.600</ele>
        <time>2021-05-10T17:14:29Z</time>
        <name>WPT.1124</name>
      </trkpt>
      <trkpt lat="35.237740280" lon="-107.608796750">
        <ele>3388.600</ele>
        <time>2021-05-10T17:14:35Z</time>
        <name>WPT.1125</name>
      </trkpt>
      <trkpt lat="35.237767940" lon="-107.608827060">
        <ele>3389.600</ele>
        <time>2021-05-10T17:14:40Z</time>
        <name>WPT.1126</name>
      </trkpt>
      <trkpt lat="35.237802900" lon="-107.608857280">
        <ele>3390.500</ele>
        <time>2021-05-10T17:14:45Z</time>
        <name>WPT.1127</name>
      </trkpt>
      <trkpt lat="35.237832710" lon="-107.608883300">
        <ele>3390.400</ele>
        <time>2021-05-10T17:14:51Z</time>
        <name>WPT.1128</name>
      </trkpt>
      <trkpt lat="35.237865960" lon="-107.608907610">
        <ele>3390.600</ele>
        <time>2021-05-10T17:14:56Z</time>
        <name>WPT.1129</name>
      </trkpt>
      <trkpt lat="35.237903340" lon="-107.608926050">
        <ele>3391.000</ele>
        <time>2021-05-10T17:15:02Z</time>
        <name>WPT.1130</name>
      </trkpt>
      <trkpt lat="35.237942400" lon="-107.608945120">
        <ele>3393.300</ele>
        <time>2021-05-10T17:15:13Z</time>
        <name>WPT.1131</name>
      </trkpt>
      <trkpt lat="35.237975010" lon="-107.608965410">
        <ele>3394.200</ele>
        <time>2021-05-10T17:15:18Z</time>
        <name>WPT.1132</name>
      </trkpt>
      <trkpt lat="35.238015670" lon="-107.608972490">
        <ele>3394.600</ele>
        <time>2021-05-10T17:15:23Z</time>
        <name>WPT.1133</name>
      </trkpt>
      <trkpt lat="35.238055650" lon="-107.608982260">
        <ele>3395.300</ele>
        <time>2021-05-10T17:15:36Z</time>
        <name>WPT.1134</name>
      </trkpt>
      <trkpt lat="35.238096690" lon="-107.609000520">
        <ele>3397.500</ele>
        <time>2021-05-10T17:15:41Z</time>
        <name>WPT.1135</name>
      </trkpt>
      <trkpt lat="35.238137510" lon="-107.609018160">
        <ele>3398.100</ele>
        <time>2021-05-10T17:15:46Z</time>
        <name>WPT.1136</name>
      </trkpt>
      <trkpt lat="35.238174330" lon="-107.609026510">
        <ele>3398.600</ele>
        <time>2021-05-10T17:15:50Z</time>
        <name>WPT.1137</name>
      </trkpt>
      <trkpt lat="35.238213020" lon="-107.609035290">
        <ele>3398.900</ele>
        <time>2021-05-10T17:16:22Z</time>
        <name>WPT.1138</name>
      </trkpt>
      <trkpt lat="35.238253410" lon="-107.609035270">
        <ele>3399.800</ele>
        <time>2021-05-10T17:16:27Z</time>
        <name>WPT.1139</name>
      </trkpt>
      <trkpt lat="35.238290050" lon="-107.609050590">
        <ele>3400.200</ele>
        <time>2021-05-10T17:16:32Z</time>
        <name>WPT.1140</name>
      </trkpt>
      <trkpt lat="35.238325740" lon="-107.609072750">
        <ele>3400.800</ele>
        <time>2021-05-10T17:16:37Z</time>
        <name>WPT.1141</name>
      </trkpt>
      <trkpt lat="35.238359150" lon="-107.609090870">
        <ele>3400.800</ele>
        <time>2021-05-10T17:16:41Z</time>
        <name>WPT.1142</name>
      </trkpt>
      <trkpt lat="35.238401080" lon="-107.609101360">
        <ele>3401.500</ele>
        <time>2021-05-10T17:16:46Z</time>
        <name>WPT.1143</name>
      </trkpt>
      <trkpt lat="35.238443930" lon="-107.609119280">
        <ele>3402.400</ele>
        <time>2021-05-10T17:16:51Z</time>
        <name>WPT.1144</name>
      </trkpt>
      <trkpt lat="35.238479200" lon="-107.609130040">
        <ele>3404.500</ele>
        <time>2021-05-10T17:17:02Z</time>
        <name>WPT.1145</name>
      </trkpt>
      <trkpt lat="35.238512610" lon="-107.609151840">
        <ele>3404.900</ele>
        <time>2021-05-10T17:17:07Z</time>
        <name>WPT.1146</name>
      </trkpt>
      <trkpt lat="35.238543920" lon="-107.609176770">
        <ele>3404.700</ele>
        <time>2021-05-10T17:17:11Z</time>
        <name>WPT.1147</name>
      </trkpt>
      <trkpt lat="35.238582030" lon="-107.609180750">
        <ele>3404.200</ele>
        <time>2021-05-10T17:17:15Z</time>
        <name>WPT.1148</name>
      </trkpt>
      <trkpt lat="35.238619060" lon="-107.609190540">
        <ele>3406.600</ele>
        <time>2021-05-10T17:17:43Z</time>
        <name>WPT.1149</name>
      </trkpt>
      <trkpt lat="35.238659340" lon="-107.609178320">
        <ele>3406.800</ele>
        <time>2021-05-10T17:18:38Z</time>
        <name>WPT.1150</name>
      </trkpt>
      <trkpt lat="35.238676060" lon="-107.609137470">
        <ele>3406.900</ele>
        <time>2021-05-10T17:18:43Z</time>
        <name>WPT.1151</name>
      </trkpt>
      <trkpt lat="35.238677370" lon="-107.609091020">
        <ele>3407.500</ele>
        <time>2021-05-10T17:18:48Z</time>
        <name>WPT.1152</name>
      </trkpt>
      <trkpt lat="35.238700060" lon="-107.609053060">
        <ele>3410.200</ele>
        <time>2021-05-10T17:18:54Z</time>
        <name>WPT.1153</name>
      </trkpt>
      <trkpt lat="35.238719780" lon="-107.609014900">
        <ele>3411.400</ele>
        <time>2021-05-10T17:19:00Z</time>
        <name>WPT.1154</name>
      </trkpt>
      <trkpt lat="35.238740690" lon="-107.608974860">
        <ele>3412.300</ele>
        <time>2021-05-10T17:19:05Z</time>
        <name>WPT.1155</name>
      </trkpt>
      <trkpt lat="35.238760670" lon="-107.608929350">
        <ele>3413.800</ele>
        <time>2021-05-10T17:19:10Z</time>
        <name>WPT.1156</name>
      </trkpt>
      <trkpt lat="35.238774170" lon="-107.608886720">
        <ele>3415.100</ele>
        <time>2021-05-10T17:19:20Z</time>
        <name>WPT.1157</name>
      </trkpt>
      <trkpt lat="35.238781210" lon="-107.608839920">
        <ele>3416.200</ele>
        <time>2021-05-10T17:19:27Z</time>
        <name>WPT.1158</name>
      </trkpt>
      <trkpt lat="35.238784150" lon="-107.608789060">
        <ele>3418.900</ele>
        <time>2021-05-10T17:19:44Z</time>
        <name>WPT.1159</name>
      </trkpt>
      <trkpt lat="35.238784130" lon="-107.608744250">
        <ele>3419.600</ele>
        <time>2021-05-10T17:19:50Z</time>
        <name>WPT.1160</name>
      </trkpt>
      <trkpt lat="35.238798830" lon="-107.608702460">
        <ele>3419.500</ele>
        <time>2021-05-10T17:19:56Z</time>
        <name>WPT.1161</name>
      </trkpt>
      <trkpt lat="35.238807520" lon="-107.608659320">
        <ele>3419.800</ele>
        <time>2021-05-10T17:20:48Z</time>
        <name>WPT.1162</name>
      </trkpt>
      <trkpt lat="35.238794750" lon="-107.608613750">
        <ele>3421.300</ele>
        <time>2021-05-10T17:20:55Z</time>
        <name>WPT.1163</name>
      </trkpt>
      <trkpt lat="35.238788200" lon="-107.608567650">
        <ele>3422.600</ele>
        <time>2021-05-10T17:21:02Z</time>
        <name>WPT.1164</name>
      </trkpt>
      <trkpt lat="35.238793620" lon="-107.608514040">
        <ele>3422.400</ele>
        <time>2021-05-10T17:21:35Z</time>
        <name>WPT.1165</name>
      </trkpt>
      <trkpt lat="35.238756790" lon="-107.608509820">
        <ele>3422.400</ele>
        <time>2021-05-10T17:21:59Z</time>
        <name>WPT.1166</name>
      </trkpt>
      <trkpt lat="35.238795350" lon="-107.608494560">
        <ele>3423.500</ele>
        <time>2021-05-10T17:33:00Z</time>
        <name>WPT.1167</name>
      </trkpt>
      <trkpt lat="35.238832040" lon="-107.608513820">
        <ele>3422.300</ele>
        <time>2021-05-10T17:33:06Z</time>
        <name>WPT.1168</name>
      </trkpt>
      <trkpt lat="35.238872820" lon="-107.608504940">
        <ele>3421.400</ele>
        <time>2021-05-10T17:33:11Z</time>
        <name>WPT.1169</name>
      </trkpt>
      <trkpt lat="35.238889900" lon="-107.608465880">
        <ele>3421.800</ele>
        <time>2021-05-10T17:33:14Z</time>
        <name>WPT.1170</name>
      </trkpt>
      <trkpt lat="35.238922570" lon="-107.608445680">
        <ele>3422.000</ele>
        <time>2021-05-10T17:33:19Z</time>
        <name>WPT.1171</name>
      </trkpt>
      <trkpt lat="35.238956580" lon="-107.608466420">
        <ele>3422.800</ele>
        <time>2021-05-10T17:33:26Z</time>
        <name>WPT.1172</name>
      </trkpt>
      <trkpt lat="35.238981070" lon="-107.608422610">
        <ele>3421.400</ele>
        <time>2021-05-10T17:33:52Z</time>
        <name>WPT.1173</name>
      </trkpt>
      <trkpt lat="35.239019740" lon="-107.608400120">
        <ele>3422.800</ele>
        <time>2021-05-10T17:33:57Z</time>
        <name>WPT.1174</name>
      </trkpt>
      <trkpt lat="35.239048900" lon="-107.608371330">
        <ele>3421.500</ele>
        <time>2021-05-10T17:34:01Z</time>
        <name>WPT.1175</name>
      </trkpt>
      <trkpt lat="35.239083470" lon="-107.608356650">
        <ele>3419.900</ele>
        <time>2021-05-10T17:34:05Z</time>
        <name>WPT.1176</name>
      </trkpt>
      <trkpt lat="35.239118170" lon="-107.608319290">
        <ele>3417.500</ele>
        <time>2021-05-10T17:34:11Z</time>
        <name>WPT.1177</name>
      </trkpt>
      <trkpt lat="35.239158280" lon="-107.608296230">
        <ele>3417.800</ele>
        <time>2021-05-10T17:34:15Z</time>
        <name>WPT.1178</name>
      </trkpt>
      <trkpt lat="35.239194250" lon="-107.608300320">
        <ele>3420.200</ele>
        <time>2021-05-10T17:38:00Z</time>
        <name>WPT.1179</name>
      </trkpt>
      <trkpt lat="35.239156820" lon="-107.608290850">
        <ele>3419.200</ele>
        <time>2021-05-10T18:15:17Z</time>
        <name>WPT.1180</name>
      </trkpt>
      <trkpt lat="35.239124730" lon="-107.608324050">
        <ele>3420.400</ele>
        <time>2021-05-10T18:15:45Z</time>
        <name>WPT.1181</name>
      </trkpt>
      <trkpt lat="35.239085880" lon="-107.608331230">
        <ele>3420.700</ele>
        <time>2021-05-10T18:15:51Z</time>
        <name>WPT.1182</name>
      </trkpt>
      <trkpt lat="35.239046750" lon="-107.608341160">
        <ele>3420.500</ele>
        <time>2021-05-10T18:15:56Z</time>
        <name>WPT.1183</name>
      </trkpt>
      <trkpt lat="35.239010170" lon="-107.608341180">
        <ele>3420.500</ele>
        <time>2021-05-10T18:16:00Z</time>
        <name>WPT.1184</name>
      </trkpt>
      <trkpt lat="35.238968740" lon="-107.608344750">
        <ele>3421.200</ele>
        <time>2021-05-10T18:16:05Z</time>
        <name>WPT.1185</name>
      </trkpt>
      <trkpt lat="35.238930980" lon="-107.608356200">
        <ele>3422.100</ele>
        <time>2021-05-10T18:16:10Z</time>
        <name>WPT.1186</name>
      </trkpt>
      <trkpt lat="35.238892690" lon="-107.608363610">
        <ele>3423.700</ele>
        <time>2021-05-10T18:16:14Z</time>
        <name>WPT.1187</name>
      </trkpt>
      <trkpt lat="35.238862250" lon="-107.608393520">
        <ele>3424.100</ele>
        <time>2021-05-10T18:16:20Z</time>
        <name>WPT.1188</name>
      </trkpt>
      <trkpt lat="35.238833130" lon="-107.608424470">
        <ele>3426.400</ele>
        <time>2021-05-10T18:16:24Z</time>
        <name>WPT.1189</name>
      </trkpt>
      <trkpt lat="35.238794960" lon="-107.608431340">
        <ele>3426.300</ele>
        <time>2021-05-10T18:16:29Z</time>
        <name>WPT.1190</name>
      </trkpt>
      <trkpt lat="35.238785160" lon="-107.608474420">
        <ele>3425.700</ele>
        <time>2021-05-10T18:16:49Z</time>
        <name>WPT.1191</name>
      </trkpt>
      <trkpt lat="35.238818590" lon="-107.608496410">
        <ele>3424.800</ele>
        <time>2021-05-10T18:18:24Z</time>
        <name>WPT.1192</name>
      </trkpt>
      <trkpt lat="35.238846180" lon="-107.608529550">
        <ele>3423.400</ele>
        <time>2021-05-10T18:18:28Z</time>
        <name>WPT.1193</name>
      </trkpt>
      <trkpt lat="35.238867550" lon="-107.608570520">
        <ele>3422.300</ele>
        <time>2021-05-10T18:18:33Z</time>
        <name>WPT.1194</name>
      </trkpt>
      <trkpt lat="35.238883590" lon="-107.608616340">
        <ele>3420.500</ele>
        <time>2021-05-10T18:18:37Z</time>
        <name>WPT.1195</name>
      </trkpt>
      <trkpt lat="35.238914640" lon="-107.608654720">
        <ele>3419.700</ele>
        <time>2021-05-10T18:18:42Z</time>
        <name>WPT.1196</name>
      </trkpt>
      <trkpt lat="35.238918470" lon="-107.608702390">
        <ele>3418.900</ele>
        <time>2021-05-10T18:18:46Z</time>
        <name>WPT.1197</name>
      </trkpt>
      <trkpt lat="35.238905540" lon="-107.608748150">
        <ele>3418.900</ele>
        <time>2021-05-10T18:18:50Z</time>
        <name>WPT.1198</name>
      </trkpt>
      <trkpt lat="35.238912120" lon="-107.608792240">
        <ele>3418.000</ele>
        <time>2021-05-10T18:18:57Z</time>
        <name>WPT.1199</name>
      </trkpt>
      <trkpt lat="35.238889150" lon="-107.608827040">
        <ele>3419.500</ele>
        <time>2021-05-10T18:20:04Z</time>
        <name>WPT.1200</name>
      </trkpt>
      <trkpt lat="35.238869170" lon="-107.608869760">
        <ele>3421.100</ele>
        <time>2021-05-10T18:20:08Z</time>
        <name>WPT.1201</name>
      </trkpt>
      <trkpt lat="35.238868170" lon="-107.608913980">
        <ele>3418.100</ele>
        <time>2021-05-10T18:20:14Z</time>
        <name>WPT.1202</name>
      </trkpt>
      <trkpt lat="35.238867480" lon="-107.608958780">
        <ele>3416.900</ele>
        <time>2021-05-10T18:20:19Z</time>
        <name>WPT.1203</name>
      </trkpt>
      <trkpt lat="35.238866460" lon="-107.609008530">
        <ele>3415.900</ele>
        <time>2021-05-10T18:20:45Z</time>
        <name>WPT.1204</name>
      </trkpt>
      <trkpt lat="35.238863200" lon="-107.609056690">
        <ele>3415.600</ele>
        <time>2021-05-10T18:20:49Z</time>
        <name>WPT.1205</name>
      </trkpt>
      <trkpt lat="35.238859650" lon="-107.609102600">
        <ele>3414.800</ele>
        <time>2021-05-10T18:20:54Z</time>
        <name>WPT.1206</name>
      </trkpt>
      <trkpt lat="35.238843040" lon="-107.609145010">
        <ele>3412.700</ele>
        <time>2021-05-10T18:21:01Z</time>
        <name>WPT.1207</name>
      </trkpt>
      <trkpt lat="35.238803240" lon="-107.609154450">
        <ele>3413.000</ele>
        <time>2021-05-10T18:21:07Z</time>
        <name>WPT.1208</name>
      </trkpt>
      <trkpt lat="35.238762360" lon="-107.609151210">
        <ele>3413.400</ele>
        <time>2021-05-10T18:21:11Z</time>
        <name>WPT.1209</name>
      </trkpt>
      <trkpt lat="35.238720000" lon="-107.609146230">
        <ele>3412.300</ele>
        <time>2021-05-10T18:21:16Z</time>
        <name>WPT.1210</name>
      </trkpt>
      <trkpt lat="35.238679110" lon="-107.609141650">
        <ele>3412.900</ele>
        <time>2021-05-10T18:21:21Z</time>
        <name>WPT.1211</name>
      </trkpt>
      <trkpt lat="35.238641540" lon="-107.609159350">
        <ele>3413.100</ele>
        <time>2021-05-10T18:21:25Z</time>
        <name>WPT.1212</name>
      </trkpt>
      <trkpt lat="35.238599780" lon="-107.609151460">
        <ele>3412.600</ele>
        <time>2021-05-10T18:21:29Z</time>
        <name>WPT.1213</name>
      </trkpt>
      <trkpt lat="35.238559270" lon="-107.609130920">
        <ele>3411.200</ele>
        <time>2021-05-10T18:21:34Z</time>
        <name>WPT.1214</name>
      </trkpt>
      <trkpt lat="35.238523000" lon="-107.609129020">
        <ele>3411.900</ele>
        <time>2021-05-10T18:21:38Z</time>
        <name>WPT.1215</name>
      </trkpt>
      <trkpt lat="35.238483640" lon="-107.609115740">
        <ele>3409.800</ele>
        <time>2021-05-10T18:21:43Z</time>
        <name>WPT.1216</name>
      </trkpt>
      <trkpt lat="35.238446080" lon="-107.609088440">
        <ele>3408.100</ele>
        <time>2021-05-10T18:21:48Z</time>
        <name>WPT.1217</name>
      </trkpt>
      <trkpt lat="35.238402710" lon="-107.609066250">
        <ele>3408.500</ele>
        <time>2021-05-10T18:21:52Z</time>
        <name>WPT.1218</name>
      </trkpt>
      <trkpt lat="35.238369430" lon="-107.609043880">
        <ele>3408.000</ele>
        <time>2021-05-10T18:21:55Z</time>
        <name>WPT.1219</name>
      </trkpt>
      <trkpt lat="35.238334860" lon="-107.609019100">
        <ele>3407.700</ele>
        <time>2021-05-10T18:21:59Z</time>
        <name>WPT.1220</name>
      </trkpt>
      <trkpt lat="35.238293440" lon="-107.609003560">
        <ele>3405.500</ele>
        <time>2021-05-10T18:22:04Z</time>
        <name>WPT.1221</name>
      </trkpt>
      <trkpt lat="35.238249680" lon="-107.608990010">
        <ele>3404.800</ele>
        <time>2021-05-10T18:22:09Z</time>
        <name>WPT.1222</name>
      </trkpt>
      <trkpt lat="35.238206960" lon="-107.608976070">
        <ele>3405.700</ele>
        <time>2021-05-10T18:22:13Z</time>
        <name>WPT.1223</name>
      </trkpt>
      <trkpt lat="35.238169930" lon="-107.608974560">
        <ele>3402.700</ele>
        <time>2021-05-10T18:22:17Z</time>
        <name>WPT.1224</name>
      </trkpt>
      <trkpt lat="35.238124580" lon="-107.608966290">
        <ele>3403.100</ele>
        <time>2021-05-10T18:22:21Z</time>
        <name>WPT.1225</name>
      </trkpt>
      <trkpt lat="35.238086470" lon="-107.608952550">
        <ele>3402.800</ele>
        <time>2021-05-10T18:22:25Z</time>
        <name>WPT.1226</name>
      </trkpt>
      <trkpt lat="35.238046440" lon="-107.608941280">
        <ele>3401.600</ele>
        <time>2021-05-10T18:22:29Z</time>
        <name>WPT.1227</name>
      </trkpt>
      <trkpt lat="35.238008150" lon="-107.608927820">
        <ele>3402.200</ele>
        <time>2021-05-10T18:22:33Z</time>
        <name>WPT.1228</name>
      </trkpt>
      <trkpt lat="35.237967940" lon="-107.608931820">
        <ele>3399.100</ele>
        <time>2021-05-10T18:22:38Z</time>
        <name>WPT.1229</name>
      </trkpt>
      <trkpt lat="35.237927530" lon="-107.608919990">
        <ele>3397.700</ele>
        <time>2021-05-10T18:22:43Z</time>
        <name>WPT.1230</name>
      </trkpt>
      <trkpt lat="35.237890810" lon="-107.608902900">
        <ele>3396.500</ele>
        <time>2021-05-10T18:22:48Z</time>
        <name>WPT.1231</name>
      </trkpt>
      <trkpt lat="35.237858390" lon="-107.608879130">
        <ele>3395.400</ele>
        <time>2021-05-10T18:22:52Z</time>
        <name>WPT.1232</name>
      </trkpt>
      <trkpt lat="35.237816340" lon="-107.608872290">
        <ele>3396.100</ele>
        <time>2021-05-10T18:22:57Z</time>
        <name>WPT.1233</name>
      </trkpt>
      <trkpt lat="35.237781060" lon="-107.608843890">
        <ele>3394.500</ele>
        <time>2021-05-10T18:23:02Z</time>
        <name>WPT.1234</name>
      </trkpt>
      <trkpt lat="35.237750030" lon="-107.608804820">
        <ele>3393.100</ele>
        <time>2021-05-10T18:23:06Z</time>
        <name>WPT.1235</name>
      </trkpt>
      <trkpt lat="35.237725530" lon="-107.608771600">
        <ele>3392.300</ele>
        <time>2021-05-10T18:23:11Z</time>
        <name>WPT.1236</name>
      </trkpt>
      <trkpt lat="35.237692650" lon="-107.608744670">
        <ele>3392.400</ele>
        <time>2021-05-10T18:23:16Z</time>
        <name>WPT.1237</name>
      </trkpt>
      <trkpt lat="35.237662300" lon="-107.608715520">
        <ele>3390.500</ele>
        <time>2021-05-10T18:23:21Z</time>
        <name>WPT.1238</name>
      </trkpt>
      <trkpt lat="35.237632450" lon="-107.608677930">
        <ele>3388.600</ele>
        <time>2021-05-10T18:23:26Z</time>
        <name>WPT.1239</name>
      </trkpt>
      <trkpt lat="35.237606060" lon="-107.608643950">
        <ele>3388.100</ele>
        <time>2021-05-10T18:23:31Z</time>
        <name>WPT.1240</name>
      </trkpt>
      <trkpt lat="35.237580740" lon="-107.608606130">
        <ele>3386.200</ele>
        <time>2021-05-10T18:23:36Z</time>
        <name>WPT.1241</name>
      </trkpt>
      <trkpt lat="35.237552420" lon="-107.608576270">
        <ele>3385.400</ele>
        <time>2021-05-10T18:23:40Z</time>
        <name>WPT.1242</name>
      </trkpt>
      <trkpt lat="35.237512430" lon="-107.608554160">
        <ele>3383.400</ele>
        <time>2021-05-10T18:23:45Z</time>
        <name>WPT.1243</name>
      </trkpt>
      <trkpt lat="35.237470550" lon="-107.608538350">
        <ele>3381.500</ele>
        <time>2021-05-10T18:23:50Z</time>
        <name>WPT.1244</name>
      </trkpt>
      <trkpt lat="35.237429350" lon="-107.608524110">
        <ele>3381.400</ele>
        <time>2021-05-10T18:23:56Z</time>
        <name>WPT.1245</name>
      </trkpt>
      <trkpt lat="35.237390800" lon="-107.608502680">
        <ele>3381.400</ele>
        <time>2021-05-10T18:24:01Z</time>
        <name>WPT.1246</name>
      </trkpt>
      <trkpt lat="35.237360970" lon="-107.608477540">
        <ele>3380.300</ele>
        <time>2021-05-10T18:24:05Z</time>
        <name>WPT.1247</name>
      </trkpt>
      <trkpt lat="35.237323860" lon="-107.608460680">
        <ele>3379.400</ele>
        <time>2021-05-10T18:24:10Z</time>
        <name>WPT.1248</name>
      </trkpt>
      <trkpt lat="35.237286210" lon="-107.608446320">
        <ele>3379.600</ele>
        <time>2021-05-10T18:24:14Z</time>
        <name>WPT.1249</name>
      </trkpt>
      <trkpt lat="35.237249310" lon="-107.608430790">
        <ele>3377.900</ele>
        <time>2021-05-10T18:24:18Z</time>
        <name>WPT.1250</name>
      </trkpt>
      <trkpt lat="35.237213200" lon="-107.608407340">
        <ele>3377.500</ele>
        <time>2021-05-10T18:24:22Z</time>
        <name>WPT.1251</name>
      </trkpt>
      <trkpt lat="35.237177370" lon="-107.608395310">
        <ele>3376.900</ele>
        <time>2021-05-10T18:24:27Z</time>
        <name>WPT.1252</name>
      </trkpt>
      <trkpt lat="35.237136610" lon="-107.608378040">
        <ele>3375.700</ele>
        <time>2021-05-10T18:24:32Z</time>
        <name>WPT.1253</name>
      </trkpt>
      <trkpt lat="35.237100390" lon="-107.608353430">
        <ele>3377.000</ele>
        <time>2021-05-10T18:24:37Z</time>
        <name>WPT.1254</name>
      </trkpt>
      <trkpt lat="35.237067930" lon="-107.608328400">
        <ele>3375.200</ele>
        <time>2021-05-10T18:24:42Z</time>
        <name>WPT.1255</name>
      </trkpt>
      <trkpt lat="35.237029720" lon="-107.608323660">
        <ele>3372.700</ele>
        <time>2021-05-10T18:25:19Z</time>
        <name>WPT.1256</name>
      </trkpt>
      <trkpt lat="35.237000230" lon="-107.608291570">
        <ele>3371.600</ele>
        <time>2021-05-10T18:25:25Z</time>
        <name>WPT.1257</name>
      </trkpt>
      <trkpt lat="35.236962420" lon="-107.608274510">
        <ele>3373.000</ele>
        <time>2021-05-10T18:25:31Z</time>
        <name>WPT.1258</name>
      </trkpt>
      <trkpt lat="35.236926330" lon="-107.608265850">
        <ele>3372.300</ele>
        <time>2021-05-10T18:25:36Z</time>
        <name>WPT.1259</name>
      </trkpt>
      <trkpt lat="35.236889190" lon="-107.608243610">
        <ele>3371.600</ele>
        <time>2021-05-10T18:25:41Z</time>
        <name>WPT.1260</name>
      </trkpt>
      <trkpt lat="35.236850380" lon="-107.608223690">
        <ele>3370.600</ele>
        <time>2021-05-10T18:25:46Z</time>
        <name>WPT.1261</name>
      </trkpt>
      <trkpt lat="35.236827000" lon="-107.608184760">
        <ele>3369.300</ele>
        <time>2021-05-10T18:25:50Z</time>
        <name>WPT.1262</name>
      </trkpt>
      <trkpt lat="35.236794150" lon="-107.608152270">
        <ele>3367.600</ele>
        <time>2021-05-10T18:25:55Z</time>
        <name>WPT.1263</name>
      </trkpt>
      <trkpt lat="35.236764690" lon="-107.608115180">
        <ele>3366.900</ele>
        <time>2021-05-10T18:26:00Z</time>
        <name>WPT.1264</name>
      </trkpt>
      <trkpt lat="35.236741250" lon="-107.608079620">
        <ele>3365.700</ele>
        <time>2021-05-10T18:26:05Z</time>
        <name>WPT.1265</name>
      </trkpt>
      <trkpt lat="35.236713170" lon="-107.608041910">
        <ele>3364.800</ele>
        <time>2021-05-10T18:26:10Z</time>
        <name>WPT.1266</name>
      </trkpt>
      <trkpt lat="35.236677630" lon="-107.608008900">
        <ele>3363.700</ele>
        <time>2021-05-10T18:26:16Z</time>
        <name>WPT.1267</name>
      </trkpt>
      <trkpt lat="35.236639670" lon="-107.607995290">
        <ele>3364.000</ele>
        <time>2021-05-10T18:26:21Z</time>
        <name>WPT.1268</name>
      </trkpt>
      <trkpt lat="35.236601490" lon="-107.607985150">
        <ele>3362.000</ele>
        <time>2021-05-10T18:26:26Z</time>
        <name>WPT.1269</name>
      </trkpt>
      <trkpt lat="35.236565500" lon="-107.607967120">
        <ele>3361.400</ele>
        <time>2021-05-10T18:26:31Z</time>
        <name>WPT.1270</name>
      </trkpt>
      <trkpt lat="35.236523110" lon="-107.607961130">
        <ele>3360.700</ele>
        <time>2021-05-10T18:26:36Z</time>
        <name>WPT.1271</name>
      </trkpt>
      <trkpt lat="35.236483580" lon="-107.607950230">
        <ele>3360.600</ele>
        <time>2021-05-10T18:26:40Z</time>
        <name>WPT.1272</name>
      </trkpt>
      <trkpt lat="35.236445130" lon="-107.607940130">
        <ele>3360.000</ele>
        <time>2021-05-10T18:26:44Z</time>
        <name>WPT.1273</name>
      </trkpt>
      <trkpt lat="35.236408400" lon="-107.607940040">
        <ele>3359.800</ele>
        <time>2021-05-10T18:26:48Z</time>
        <name>WPT.1274</name>
      </trkpt>
      <trkpt lat="35.236370270" lon="-107.607950800">
        <ele>3360.000</ele>
        <time>2021-05-10T18:26:52Z</time>
        <name>WPT.1275</name>
      </trkpt>
      <trkpt lat="35.236337770" lon="-107.607978240">
        <ele>3359.800</ele>
        <time>2021-05-10T18:26:56Z</time>
        <name>WPT.1276</name>
      </trkpt>
      <trkpt lat="35.236297980" lon="-107.607982480">
        <ele>3360.200</ele>
        <time>2021-05-10T18:27:01Z</time>
        <name>WPT.1277</name>
      </trkpt>
      <trkpt lat="35.236262300" lon="-107.607994810">
        <ele>3359.700</ele>
        <time>2021-05-10T18:27:06Z</time>
        <name>WPT.1278</name>
      </trkpt>
      <trkpt lat="35.236221240" lon="-107.608005440">
        <ele>3358.800</ele>
        <time>2021-05-10T18:27:12Z</time>
        <name>WPT.1279</name>
      </trkpt>
      <trkpt lat="35.236184910" lon="-107.608010130">
        <ele>3358.300</ele>
        <time>2021-05-10T18:27:17Z</time>
        <name>WPT.1280</name>
      </trkpt>
      <trkpt lat="35.236147240" lon="-107.608020860">
        <ele>3358.500</ele>
        <time>2021-05-10T18:27:24Z</time>
        <name>WPT.1281</name>
      </trkpt>
      <trkpt lat="35.236106300" lon="-107.608037700">
        <ele>3358.200</ele>
        <time>2021-05-10T18:27:29Z</time>
        <name>WPT.1282</name>
      </trkpt>
      <trkpt lat="35.236072280" lon="-107.608054980">
        <ele>3357.600</ele>
        <time>2021-05-10T18:27:33Z</time>
        <name>WPT.1283</name>
      </trkpt>
      <trkpt lat="35.236035630" lon="-107.608058920">
        <ele>3356.700</ele>
        <time>2021-05-10T18:27:37Z</time>
        <name>WPT.1284</name>
      </trkpt>
      <trkpt lat="35.235994980" lon="-107.608056260">
        <ele>3356.000</ele>
        <time>2021-05-10T18:27:41Z</time>
        <name>WPT.1285</name>
      </trkpt>
      <trkpt lat="35.235958670" lon="-107.608068640">
        <ele>3355.600</ele>
        <time>2021-05-10T18:27:45Z</time>
        <name>WPT.1286</name>
      </trkpt>
      <trkpt lat="35.235920440" lon="-107.608068860">
        <ele>3354.700</ele>
        <time>2021-05-10T18:27:49Z</time>
        <name>WPT.1287</name>
      </trkpt>
      <trkpt lat="35.235884570" lon="-107.608083000">
        <ele>3353.800</ele>
        <time>2021-05-10T18:27:53Z</time>
        <name>WPT.1288</name>
      </trkpt>
      <trkpt lat="35.235843730" lon="-107.608083010">
        <ele>3352.700</ele>
        <time>2021-05-10T18:27:57Z</time>
        <name>WPT.1289</name>
      </trkpt>
      <trkpt lat="35.235811230" lon="-107.608063160">
        <ele>3352.300</ele>
        <time>2021-05-10T18:28:01Z</time>
        <name>WPT.1290</name>
      </trkpt>
      <trkpt lat="35.235779010" lon="-107.608028450">
        <ele>3352.000</ele>
        <time>2021-05-10T18:28:06Z</time>
        <name>WPT.1291</name>
      </trkpt>
      <trkpt lat="35.235745850" lon="-107.608002410">
        <ele>3352.600</ele>
        <time>2021-05-10T18:28:10Z</time>
        <name>WPT.1292</name>
      </trkpt>
      <trkpt lat="35.235706430" lon="-107.607975930">
        <ele>3353.000</ele>
        <time>2021-05-10T18:28:15Z</time>
        <name>WPT.1293</name>
      </trkpt>
      <trkpt lat="35.235678790" lon="-107.607945610">
        <ele>3351.000</ele>
        <time>2021-05-10T18:28:19Z</time>
        <name>WPT.1294</name>
      </trkpt>
      <trkpt lat="35.235644980" lon="-107.607910010">
        <ele>3349.500</ele>
        <time>2021-05-10T18:28:24Z</time>
        <name>WPT.1295</name>
      </trkpt>
      <trkpt lat="35.235616180" lon="-107.607881640">
        <ele>3348.400</ele>
        <time>2021-05-10T18:28:28Z</time>
        <name>WPT.1296</name>
      </trkpt>
      <trkpt lat="35.235585280" lon="-107.607855040">
        <ele>3347.300</ele>
        <time>2021-05-10T18:28:32Z</time>
        <name>WPT.1297</name>
      </trkpt>
      <trkpt lat="35.235553040" lon="-107.607821890">
        <ele>3346.700</ele>
        <time>2021-05-10T18:28:37Z</time>
        <name>WPT.1298</name>
      </trkpt>
      <trkpt lat="35.235522810" lon="-107.607795260">
        <ele>3346.100</ele>
        <time>2021-05-10T18:28:42Z</time>
        <name>WPT.1299</name>
      </trkpt>
      <trkpt lat="35.235489610" lon="-107.607769660">
        <ele>3344.900</ele>
        <time>2021-05-10T18:28:47Z</time>
        <name>WPT.1300</name>
      </trkpt>
      <trkpt lat="35.235455920" lon="-107.607740080">
        <ele>3344.900</ele>
        <time>2021-05-10T18:28:51Z</time>
        <name>WPT.1301</name>
      </trkpt>
      <trkpt lat="35.235424650" lon="-107.607714620">
        <ele>3343.500</ele>
        <time>2021-05-10T18:28:56Z</time>
        <name>WPT.1302</name>
      </trkpt>
      <trkpt lat="35.235391550" lon="-107.607680400">
        <ele>3342.300</ele>
        <time>2021-05-10T18:29:01Z</time>
        <name>WPT.1303</name>
      </trkpt>
      <trkpt lat="35.235356410" lon="-107.607650920">
        <ele>3341.700</ele>
        <time>2021-05-10T18:29:06Z</time>
        <name>WPT.1304</name>
      </trkpt>
      <trkpt lat="35.235324520" lon="-107.607623640">
        <ele>3341.300</ele>
        <time>2021-05-10T18:29:11Z</time>
        <name>WPT.1305</name>
      </trkpt>
      <trkpt lat="35.235289330" lon="-107.607593890">
        <ele>3340.600</ele>
        <time>2021-05-10T18:29:17Z</time>
        <name>WPT.1306</name>
      </trkpt>
      <trkpt lat="35.235256750" lon="-107.607567880">
        <ele>3340.200</ele>
        <time>2021-05-10T18:29:22Z</time>
        <name>WPT.1307</name>
      </trkpt>
      <trkpt lat="35.235224820" lon="-107.607539110">
        <ele>3340.400</ele>
        <time>2021-05-10T18:29:27Z</time>
        <name>WPT.1308</name>
      </trkpt>
      <trkpt lat="35.235194400" lon="-107.607514440">
        <ele>3339.500</ele>
        <time>2021-05-10T18:29:32Z</time>
        <name>WPT.1309</name>
      </trkpt>
      <trkpt lat="35.235169440" lon="-107.607479480">
        <ele>3338.200</ele>
        <time>2021-05-10T18:29:39Z</time>
        <name>WPT.1310</name>
      </trkpt>
      <trkpt lat="35.235143800" lon="-107.607440210">
        <ele>3336.600</ele>
        <time>2021-05-10T18:30:11Z</time>
        <name>WPT.1311</name>
      </trkpt>
      <trkpt lat="35.235112020" lon="-107.607411570">
        <ele>3337.000</ele>
        <time>2021-05-10T18:30:16Z</time>
        <name>WPT.1312</name>
      </trkpt>
      <trkpt lat="35.235081840" lon="-107.607378810">
        <ele>3334.900</ele>
        <time>2021-05-10T18:30:21Z</time>
        <name>WPT.1313</name>
      </trkpt>
      <trkpt lat="35.235050410" lon="-107.607352270">
        <ele>3333.700</ele>
        <time>2021-05-10T18:30:25Z</time>
        <name>WPT.1314</name>
      </trkpt>
      <trkpt lat="35.235019090" lon="-107.607321550">
        <ele>3331.600</ele>
        <time>2021-05-10T18:30:29Z</time>
        <name>WPT.1315</name>
      </trkpt>
      <trkpt lat="35.234989430" lon="-107.607289130">
        <ele>3330.600</ele>
        <time>2021-05-10T18:30:33Z</time>
        <name>WPT.1316</name>
      </trkpt>
      <trkpt lat="35.234961920" lon="-107.607255570">
        <ele>3330.100</ele>
        <time>2021-05-10T18:30:37Z</time>
        <name>WPT.1317</name>
      </trkpt>
      <trkpt lat="35.234931640" lon="-107.607226080">
        <ele>3329.500</ele>
        <time>2021-05-10T18:30:42Z</time>
        <name>WPT.1318</name>
      </trkpt>
      <trkpt lat="35.234902890" lon="-107.607197440">
        <ele>3329.000</ele>
        <time>2021-05-10T18:30:46Z</time>
        <name>WPT.1319</name>
      </trkpt>
      <trkpt lat="35.234867650" lon="-107.607167380">
        <ele>3329.400</ele>
        <time>2021-05-10T18:30:51Z</time>
        <name>WPT.1320</name>
      </trkpt>
      <trkpt lat="35.234837890" lon="-107.607134100">
        <ele>3328.000</ele>
        <time>2021-05-10T18:30:55Z</time>
        <name>WPT.1321</name>
      </trkpt>
      <trkpt lat="35.234815620" lon="-107.607088400">
        <ele>3325.700</ele>
        <time>2021-05-10T18:30:59Z</time>
        <name>WPT.1322</name>
      </trkpt>
      <trkpt lat="35.234786980" lon="-107.607057440">
        <ele>3326.900</ele>
        <time>2021-05-10T18:31:03Z</time>
        <name>WPT.1323</name>
      </trkpt>
      <trkpt lat="35.234752940" lon="-107.607028940">
        <ele>3327.300</ele>
        <time>2021-05-10T18:31:07Z</time>
        <name>WPT.1324</name>
      </trkpt>
      <trkpt lat="35.234723170" lon="-107.607002330">
        <ele>3326.400</ele>
        <time>2021-05-10T18:31:11Z</time>
        <name>WPT.1325</name>
      </trkpt>
      <trkpt lat="35.234688980" lon="-107.606974430">
        <ele>3326.000</ele>
        <time>2021-05-10T18:31:15Z</time>
        <name>WPT.1326</name>
      </trkpt>
      <trkpt lat="35.234654870" lon="-107.606944200">
        <ele>3323.300</ele>
        <time>2021-05-10T18:31:20Z</time>
        <name>WPT.1327</name>
      </trkpt>
      <trkpt lat="35.234624300" lon="-107.606915860">
        <ele>3322.300</ele>
        <time>2021-05-10T18:31:25Z</time>
        <name>WPT.1328</name>
      </trkpt>
      <trkpt lat="35.234593480" lon="-107.606885180">
        <ele>3322.400</ele>
        <time>2021-05-10T18:31:39Z</time>
        <name>WPT.1329</name>
      </trkpt>
      <trkpt lat="35.234557270" lon="-107.606851980">
        <ele>3321.800</ele>
        <time>2021-05-10T18:31:46Z</time>
        <name>WPT.1330</name>
      </trkpt>
      <trkpt lat="35.234524660" lon="-107.606819430">
        <ele>3320.700</ele>
        <time>2021-05-10T18:31:52Z</time>
        <name>WPT.1331</name>
      </trkpt>
      <trkpt lat="35.234486230" lon="-107.606793210">
        <ele>3318.600</ele>
        <time>2021-05-10T18:31:57Z</time>
        <name>WPT.1332</name>
      </trkpt>
      <trkpt lat="35.234448760" lon="-107.606760290">
        <ele>3318.000</ele>
        <time>2021-05-10T18:32:02Z</time>
        <name>WPT.1333</name>
      </trkpt>
      <trkpt lat="35.234409750" lon="-107.606733160">
        <ele>3318.900</ele>
        <time>2021-05-10T18:32:06Z</time>
        <name>WPT.1334</name>
      </trkpt>
      <trkpt lat="35.234383330" lon="-107.606698280">
        <ele>3317.400</ele>
        <time>2021-05-10T18:32:10Z</time>
        <name>WPT.1335</name>
      </trkpt>
      <trkpt lat="35.234349650" lon="-107.606664130">
        <ele>3317.300</ele>
        <time>2021-05-10T18:32:15Z</time>
        <name>WPT.1336</name>
      </trkpt>
      <trkpt lat="35.234319580" lon="-107.606625710">
        <ele>3316.200</ele>
        <time>2021-05-10T18:32:20Z</time>
        <name>WPT.1337</name>
      </trkpt>
      <trkpt lat="35.234291430" lon="-107.606597540">
        <ele>3316.300</ele>
        <time>2021-05-10T18:32:24Z</time>
        <name>WPT.1338</name>
      </trkpt>
      <trkpt lat="35.234262670" lon="-107.606567950">
        <ele>3316.200</ele>
        <time>2021-05-10T18:32:29Z</time>
        <name>WPT.1339</name>
      </trkpt>
      <trkpt lat="35.234231830" lon="-107.606538320">
        <ele>3315.300</ele>
        <time>2021-05-10T18:32:34Z</time>
        <name>WPT.1340</name>
      </trkpt>
      <trkpt lat="35.234201350" lon="-107.606505230">
        <ele>3313.600</ele>
        <time>2021-05-10T18:32:43Z</time>
        <name>WPT.1341</name>
      </trkpt>
      <trkpt lat="35.234172870" lon="-107.606472830">
        <ele>3311.800</ele>
        <time>2021-05-10T18:32:47Z</time>
        <name>WPT.1342</name>
      </trkpt>
      <trkpt lat="35.234145160" lon="-107.606507460">
        <ele>3311.100</ele>
        <time>2021-05-10T18:32:57Z</time>
        <name>WPT.1343</name>
      </trkpt>
      <trkpt lat="35.234160570" lon="-107.606554660">
        <ele>3309.100</ele>
        <time>2021-05-10T18:33:06Z</time>
        <name>WPT.1344</name>
      </trkpt>
      <trkpt lat="35.234172070" lon="-107.606598250">
        <ele>3309.800</ele>
        <time>2021-05-10T18:33:14Z</time>
        <name>WPT.1345</name>
      </trkpt>
      <trkpt lat="35.234189050" lon="-107.606641950">
        <ele>3309.300</ele>
        <time>2021-05-10T18:33:20Z</time>
        <name>WPT.1346</name>
      </trkpt>
      <trkpt lat="35.234205880" lon="-107.606681980">
        <ele>3307.600</ele>
        <time>2021-05-10T18:33:25Z</time>
        <name>WPT.1347</name>
      </trkpt>
      <trkpt lat="35.234194890" lon="-107.606727010">
        <ele>3308.800</ele>
        <time>2021-05-10T18:34:16Z</time>
        <name>WPT.1348</name>
      </trkpt>
      <trkpt lat="35.234202790" lon="-107.606772170">
        <ele>3308.800</ele>
        <time>2021-05-10T18:34:31Z</time>
        <name>WPT.1349</name>
      </trkpt>
      <trkpt lat="35.234221460" lon="-107.606819960">
        <ele>3307.200</ele>
        <time>2021-05-10T18:34:39Z</time>
        <name>WPT.1350</name>
      </trkpt>
      <trkpt lat="35.234238760" lon="-107.606864760">
        <ele>3307.900</ele>
        <time>2021-05-10T18:34:43Z</time>
        <name>WPT.1351</name>
      </trkpt>
      <trkpt lat="35.234250860" lon="-107.606909490">
        <ele>3306.400</ele>
        <time>2021-05-10T18:34:48Z</time>
        <name>WPT.1352</name>
      </trkpt>
      <trkpt lat="35.234256900" lon="-107.606963600">
        <ele>3304.000</ele>
        <time>2021-05-10T18:34:54Z</time>
        <name>WPT.1353</name>
      </trkpt>
      <trkpt lat="35.234275040" lon="-107.607007060">
        <ele>3302.300</ele>
        <time>2021-05-10T18:34:59Z</time>
        <name>WPT.1354</name>
      </trkpt>
      <trkpt lat="35.234285370" lon="-107.607055360">
        <ele>3300.200</ele>
        <time>2021-05-10T18:35:04Z</time>
        <name>WPT.1355</name>
      </trkpt>
      <trkpt lat="35.234297570" lon="-107.607101930">
        <ele>3298.700</ele>
        <time>2021-05-10T18:35:09Z</time>
        <name>WPT.1356</name>
      </trkpt>
      <trkpt lat="35.234302770" lon="-107.607148360">
        <ele>3297.300</ele>
        <time>2021-05-10T18:35:13Z</time>
        <name>WPT.1357</name>
      </trkpt>
      <trkpt lat="35.234313600" lon="-107.607201580">
        <ele>3296.000</ele>
        <time>2021-05-10T18:35:18Z</time>
        <name>WPT.1358</name>
      </trkpt>
      <trkpt lat="35.234308840" lon="-107.607247970">
        <ele>3295.500</ele>
        <time>2021-05-10T18:35:23Z</time>
        <name>WPT.1359</name>
      </trkpt>
      <trkpt lat="35.234310120" lon="-107.607293610">
        <ele>3296.100</ele>
        <time>2021-05-10T18:35:27Z</time>
        <name>WPT.1360</name>
      </trkpt>
      <trkpt lat="35.234310040" lon="-107.607346050">
        <ele>3295.000</ele>
        <time>2021-05-10T18:35:31Z</time>
        <name>WPT.1361</name>
      </trkpt>
      <trkpt lat="35.234319340" lon="-107.607395360">
        <ele>3294.700</ele>
        <time>2021-05-10T18:35:35Z</time>
        <name>WPT.1362</name>
      </trkpt>
      <trkpt lat="35.234320750" lon="-107.607446260">
        <ele>3294.800</ele>
        <time>2021-05-10T18:35:39Z</time>
        <name>WPT.1363</name>
      </trkpt>
      <trkpt lat="35.234322130" lon="-107.607492430">
        <ele>3292.300</ele>
        <time>2021-05-10T18:35:44Z</time>
        <name>WPT.1364</name>
      </trkpt>
      <trkpt lat="35.234331760" lon="-107.607547180">
        <ele>3292.500</ele>
        <time>2021-05-10T18:35:48Z</time>
        <name>WPT.1365</name>
      </trkpt>
      <trkpt lat="35.234348890" lon="-107.607597290">
        <ele>3290.700</ele>
        <time>2021-05-10T18:35:53Z</time>
        <name>WPT.1366</name>
      </trkpt>
      <trkpt lat="35.234353260" lon="-107.607649430">
        <ele>3292.600</ele>
        <time>2021-05-10T18:35:57Z</time>
        <name>WPT.1367</name>
      </trkpt>
      <trkpt lat="35.234341070" lon="-107.607692030">
        <ele>3292.900</ele>
        <time>2021-05-10T18:36:01Z</time>
        <name>WPT.1368</name>
      </trkpt>
      <trkpt lat="35.234328120" lon="-107.607744340">
        <ele>3292.200</ele>
        <time>2021-05-10T18:36:06Z</time>
        <name>WPT.1369</name>
      </trkpt>
      <trkpt lat="35.234324100" lon="-107.607788570">
        <ele>3292.900</ele>
        <time>2021-05-10T18:36:10Z</time>
        <name>WPT.1370</name>
      </trkpt>
      <trkpt lat="35.234318130" lon="-107.607833930">
        <ele>3293.200</ele>
        <time>2021-05-10T18:36:14Z</time>
        <name>WPT.1371</name>
      </trkpt>
      <trkpt lat="35.234319150" lon="-107.607883500">
        <ele>3291.600</ele>
        <time>2021-05-10T18:36:19Z</time>
        <name>WPT.1372</name>
      </trkpt>
      <trkpt lat="35.234312540" lon="-107.607927850">
        <ele>3291.500</ele>
        <time>2021-05-10T18:36:24Z</time>
        <name>WPT.1373</name>
      </trkpt>
      <trkpt lat="35.234313460" lon="-107.607975000">
        <ele>3295.600</ele>
        <time>2021-05-10T18:36:29Z</time>
        <name>WPT.1374</name>
      </trkpt>
      <trkpt lat="35.234301370" lon="-107.608023090">
        <ele>3293.800</ele>
        <time>2021-05-10T18:36:33Z</time>
        <name>WPT.1375</name>
      </trkpt>
      <trkpt lat="35.234297640" lon="-107.608068980">
        <ele>3293.300</ele>
        <time>2021-05-10T18:36:38Z</time>
        <name>WPT.1376</name>
      </trkpt>
      <trkpt lat="35.234293250" lon="-107.608119900">
        <ele>3293.700</ele>
        <time>2021-05-10T18:36:43Z</time>
        <name>WPT.1377</name>
      </trkpt>
      <trkpt lat="35.234281700" lon="-107.608166060">
        <ele>3293.700</ele>
        <time>2021-05-10T18:36:47Z</time>
        <name>WPT.1378</name>
      </trkpt>
      <trkpt lat="35.234275060" lon="-107.608215090">
        <ele>3291.100</ele>
        <time>2021-05-10T18:36:52Z</time>
        <name>WPT.1379</name>
      </trkpt>
      <trkpt lat="35.234277300" lon="-107.608263390">
        <ele>3290.700</ele>
        <time>2021-05-10T18:36:57Z</time>
        <name>WPT.1380</name>
      </trkpt>
      <trkpt lat="35.234264360" lon="-107.608311210">
        <ele>3289.300</ele>
        <time>2021-05-10T18:37:02Z</time>
        <name>WPT.1381</name>
      </trkpt>
      <trkpt lat="35.234259490" lon="-107.608357470">
        <ele>3288.400</ele>
        <time>2021-05-10T18:37:07Z</time>
        <name>WPT.1382</name>
      </trkpt>
      <trkpt lat="35.234260450" lon="-107.608406530">
        <ele>3288.300</ele>
        <time>2021-05-10T18:37:14Z</time>
        <name>WPT.1383</name>
      </trkpt>
      <trkpt lat="35.234228880" lon="-107.608377630">
        <ele>3284.700</ele>
        <time>2021-05-10T18:37:23Z</time>
        <name>WPT.1384</name>
      </trkpt>
      <trkpt lat="35.234216760" lon="-107.608336060">
        <ele>3284.600</ele>
        <time>2021-05-10T18:37:27Z</time>
        <name>WPT.1385</name>
      </trkpt>
      <trkpt lat="35.234201220" lon="-107.608286150">
        <ele>3283.800</ele>
        <time>2021-05-10T18:37:32Z</time>
        <name>WPT.1386</name>
      </trkpt>
      <trkpt lat="35.234190950" lon="-107.608237890">
        <ele>3282.300</ele>
        <time>2021-05-10T18:37:37Z</time>
        <name>WPT.1387</name>
      </trkpt>
      <trkpt lat="35.234174740" lon="-107.608195820">
        <ele>3280.300</ele>
        <time>2021-05-10T18:37:41Z</time>
        <name>WPT.1388</name>
      </trkpt>
      <trkpt lat="35.234156450" lon="-107.608155560">
        <ele>3279.800</ele>
        <time>2021-05-10T18:37:48Z</time>
        <name>WPT.1389</name>
      </trkpt>
      <trkpt lat="35.234144930" lon="-107.608108690">
        <ele>3277.400</ele>
        <time>2021-05-10T18:37:55Z</time>
        <name>WPT.1390</name>
      </trkpt>
      <trkpt lat="35.234135100" lon="-107.608061860">
        <ele>3276.300</ele>
        <time>2021-05-10T18:37:58Z</time>
        <name>WPT.1391</name>
      </trkpt>
      <trkpt lat="35.234130290" lon="-107.608017200">
        <ele>3274.500</ele>
        <time>2021-05-10T18:38:02Z</time>
        <name>WPT.1392</name>
      </trkpt>
      <trkpt lat="35.234093410" lon="-107.607988130">
        <ele>3275.500</ele>
        <time>2021-05-10T18:38:09Z</time>
        <name>WPT.1393</name>
      </trkpt>
      <trkpt lat="35.234082560" lon="-107.607942760">
        <ele>3274.100</ele>
        <time>2021-05-10T18:38:14Z</time>
        <name>WPT.1394</name>
      </trkpt>
      <trkpt lat="35.234051090" lon="-107.607909330">
        <ele>3273.600</ele>
        <time>2021-05-10T18:38:21Z</time>
        <name>WPT.1395</name>
      </trkpt>
      <trkpt lat="35.234033940" lon="-107.607867910">
        <ele>3272.500</ele>
        <time>2021-05-10T18:38:26Z</time>
        <name>WPT.1396</name>
      </trkpt>
      <trkpt lat="35.234012490" lon="-107.607825680">
        <ele>3271.500</ele>
        <time>2021-05-10T18:38:31Z</time>
        <name>WPT.1397</name>
      </trkpt>
      <trkpt lat="35.233991450" lon="-107.607785330">
        <ele>3270.400</ele>
        <time>2021-05-10T18:38:37Z</time>
        <name>WPT.1398</name>
      </trkpt>
      <trkpt lat="35.233989100" lon="-107.607740980">
        <ele>3268.900</ele>
        <time>2021-05-10T18:38:53Z</time>
        <name>WPT.1399</name>
      </trkpt>
      <trkpt lat="35.233963180" lon="-107.607698510">
        <ele>3268.500</ele>
        <time>2021-05-10T18:38:58Z</time>
        <name>WPT.1400</name>
      </trkpt>
      <trkpt lat="35.233936010" lon="-107.607658040">
        <ele>3267.300</ele>
        <time>2021-05-10T18:39:04Z</time>
        <name>WPT.1401</name>
      </trkpt>
      <trkpt lat="35.233909250" lon="-107.607624450">
        <ele>3266.300</ele>
        <time>2021-05-10T18:39:10Z</time>
        <name>WPT.1402</name>
      </trkpt>
      <trkpt lat="35.233882900" lon="-107.607585900">
        <ele>3264.400</ele>
        <time>2021-05-10T18:39:16Z</time>
        <name>WPT.1403</name>
      </trkpt>
      <trkpt lat="35.233857600" lon="-107.607547130">
        <ele>3263.400</ele>
        <time>2021-05-10T18:39:22Z</time>
        <name>WPT.1404</name>
      </trkpt>
      <trkpt lat="35.233836350" lon="-107.607510430">
        <ele>3263.000</ele>
        <time>2021-05-10T18:39:26Z</time>
        <name>WPT.1405</name>
      </trkpt>
      <trkpt lat="35.233816960" lon="-107.607472880">
        <ele>3262.500</ele>
        <time>2021-05-10T18:39:30Z</time>
        <name>WPT.1406</name>
      </trkpt>
      <trkpt lat="35.233796830" lon="-107.607436130">
        <ele>3261.600</ele>
        <time>2021-05-10T18:39:35Z</time>
        <name>WPT.1407</name>
      </trkpt>
      <trkpt lat="35.233765820" lon="-107.607400620">
        <ele>3261.200</ele>
        <time>2021-05-10T18:39:40Z</time>
        <name>WPT.1408</name>
      </trkpt>
      <trkpt lat="35.233739920" lon="-107.607359950">
        <ele>3259.800</ele>
        <time>2021-05-10T18:39:44Z</time>
        <name>WPT.1409</name>
      </trkpt>
      <trkpt lat="35.233709920" lon="-107.607320590">
        <ele>3259.900</ele>
        <time>2021-05-10T18:39:49Z</time>
        <name>WPT.1410</name>
      </trkpt>
      <trkpt lat="35.233677150" lon="-107.607297510">
        <ele>3260.800</ele>
        <time>2021-05-10T18:39:54Z</time>
        <name>WPT.1411</name>
      </trkpt>
      <trkpt lat="35.233647630" lon="-107.607266520">
        <ele>3260.700</ele>
        <time>2021-05-10T18:40:00Z</time>
        <name>WPT.1412</name>
      </trkpt>
      <trkpt lat="35.233631780" lon="-107.607224840">
        <ele>3259.600</ele>
        <time>2021-05-10T18:40:04Z</time>
        <name>WPT.1413</name>
      </trkpt>
      <trkpt lat="35.233607550" lon="-107.607189550">
        <ele>3258.500</ele>
        <time>2021-05-10T18:40:08Z</time>
        <name>WPT.1414</name>
      </trkpt>
      <trkpt lat="35.233581810" lon="-107.607146380">
        <ele>3258.300</ele>
        <time>2021-05-10T18:40:13Z</time>
        <name>WPT.1415</name>
      </trkpt>
      <trkpt lat="35.233556640" lon="-107.607102720">
        <ele>3256.700</ele>
        <time>2021-05-10T18:40:18Z</time>
        <name>WPT.1416</name>
      </trkpt>
      <trkpt lat="35.233522740" lon="-107.607064150">
        <ele>3257.400</ele>
        <time>2021-05-10T18:40:23Z</time>
        <name>WPT.1417</name>
      </trkpt>
      <trkpt lat="35.233494270" lon="-107.607026870">
        <ele>3256.900</ele>
        <time>2021-05-10T18:40:27Z</time>
        <name>WPT.1418</name>
      </trkpt>
      <trkpt lat="35.233469340" lon="-107.606987520">
        <ele>3254.200</ele>
        <time>2021-05-10T18:40:32Z</time>
        <name>WPT.1419</name>
      </trkpt>
      <trkpt lat="35.233431420" lon="-107.606970760">
        <ele>3255.000</ele>
        <time>2021-05-10T18:40:39Z</time>
        <name>WPT.1420</name>
      </trkpt>
      <trkpt lat="35.233395320" lon="-107.606964460">
        <ele>3252.900</ele>
        <time>2021-05-10T18:40:44Z</time>
        <name>WPT.1421</name>
      </trkpt>
      <trkpt lat="35.233359270" lon="-107.606959650">
        <ele>3251.600</ele>
        <time>2021-05-10T18:40:48Z</time>
        <name>WPT.1422</name>
      </trkpt>
      <trkpt lat="35.233327580" lon="-107.606928930">
        <ele>3250.100</ele>
        <time>2021-05-10T18:40:53Z</time>
        <name>WPT.1423</name>
      </trkpt>
      <trkpt lat="35.233305650" lon="-107.606886030">
        <ele>3250.200</ele>
        <time>2021-05-10T18:40:58Z</time>
        <name>WPT.1424</name>
      </trkpt>
      <trkpt lat="35.233267120" lon="-107.606871120">
        <ele>3252.000</ele>
        <time>2021-05-10T18:41:04Z</time>
        <name>WPT.1425</name>
      </trkpt>
      <trkpt lat="35.233229600" lon="-107.606839790">
        <ele>3251.800</ele>
        <time>2021-05-10T18:41:10Z</time>
        <name>WPT.1426</name>
      </trkpt>
      <trkpt lat="35.233190770" lon="-107.606820880">
        <ele>3251.600</ele>
        <time>2021-05-10T18:41:15Z</time>
        <name>WPT.1427</name>
      </trkpt>
      <trkpt lat="35.233152650" lon="-107.606810950">
        <ele>3251.400</ele>
        <time>2021-05-10T18:41:19Z</time>
        <name>WPT.1428</name>
      </trkpt>
      <trkpt lat="35.233114010" lon="-107.606803030">
        <ele>3249.200</ele>
        <time>2021-05-10T18:41:24Z</time>
        <name>WPT.1429</name>
      </trkpt>
      <trkpt lat="35.233070890" lon="-107.606786820">
        <ele>3249.700</ele>
        <time>2021-05-10T18:41:29Z</time>
        <name>WPT.1430</name>
      </trkpt>
      <trkpt lat="35.233033810" lon="-107.606780830">
        <ele>3248.900</ele>
        <time>2021-05-10T18:41:33Z</time>
        <name>WPT.1431</name>
      </trkpt>
      <trkpt lat="35.232993260" lon="-107.606760160">
        <ele>3248.800</ele>
        <time>2021-05-10T18:41:38Z</time>
        <name>WPT.1432</name>
      </trkpt>
      <trkpt lat="35.232959840" lon="-107.606739420">
        <ele>3248.300</ele>
        <time>2021-05-10T18:41:42Z</time>
        <name>WPT.1433</name>
      </trkpt>
      <trkpt lat="35.232921420" lon="-107.606732120">
        <ele>3245.400</ele>
        <time>2021-05-10T18:41:47Z</time>
        <name>WPT.1434</name>
      </trkpt>
      <trkpt lat="35.232878720" lon="-107.606726990">
        <ele>3244.200</ele>
        <time>2021-05-10T18:41:52Z</time>
        <name>WPT.1435</name>
      </trkpt>
      <trkpt lat="35.232835610" lon="-107.606718180">
        <ele>3241.500</ele>
        <time>2021-05-10T18:41:59Z</time>
        <name>WPT.1436</name>
      </trkpt>
      <trkpt lat="35.232799650" lon="-107.606723600">
        <ele>3239.600</ele>
        <time>2021-05-10T18:42:03Z</time>
        <name>WPT.1437</name>
      </trkpt>
      <trkpt lat="35.232757690" lon="-107.606720080">
        <ele>3240.100</ele>
        <time>2021-05-10T18:42:09Z</time>
        <name>WPT.1438</name>
      </trkpt>
      <trkpt lat="35.232714680" lon="-107.606714940">
        <ele>3240.300</ele>
        <time>2021-05-10T18:42:14Z</time>
        <name>WPT.1439</name>
      </trkpt>
      <trkpt lat="35.232677900" lon="-107.606721410">
        <ele>3239.800</ele>
        <time>2021-05-10T18:42:18Z</time>
        <name>WPT.1440</name>
      </trkpt>
      <trkpt lat="35.232635710" lon="-107.606733860">
        <ele>3239.000</ele>
        <time>2021-05-10T18:42:24Z</time>
        <name>WPT.1441</name>
      </trkpt>
      <trkpt lat="35.232596670" lon="-107.606733580">
        <ele>3238.300</ele>
        <time>2021-05-10T18:42:28Z</time>
        <name>WPT.1442</name>
      </trkpt>
      <trkpt lat="35.232552960" lon="-107.606742550">
        <ele>3238.400</ele>
        <time>2021-05-10T18:42:33Z</time>
        <name>WPT.1443</name>
      </trkpt>
      <trkpt lat="35.232512920" lon="-107.606746820">
        <ele>3238.700</ele>
        <time>2021-05-10T18:42:38Z</time>
        <name>WPT.1444</name>
      </trkpt>
      <trkpt lat="35.232473500" lon="-107.606755430">
        <ele>3239.100</ele>
        <time>2021-05-10T18:42:43Z</time>
        <name>WPT.1445</name>
      </trkpt>
      <trkpt lat="35.232441320" lon="-107.606777940">
        <ele>3237.100</ele>
        <time>2021-05-10T18:42:47Z</time>
        <name>WPT.1446</name>
      </trkpt>
      <trkpt lat="35.232406760" lon="-107.606793850">
        <ele>3236.100</ele>
        <time>2021-05-10T18:42:52Z</time>
        <name>WPT.1447</name>
      </trkpt>
      <trkpt lat="35.232363170" lon="-107.606795480">
        <ele>3235.100</ele>
        <time>2021-05-10T18:42:58Z</time>
        <name>WPT.1448</name>
      </trkpt>
      <trkpt lat="35.232330410" lon="-107.606823060">
        <ele>3234.500</ele>
        <time>2021-05-10T18:43:03Z</time>
        <name>WPT.1449</name>
      </trkpt>
      <trkpt lat="35.232291990" lon="-107.606826050">
        <ele>3233.600</ele>
        <time>2021-05-10T18:43:09Z</time>
        <name>WPT.1450</name>
      </trkpt>
      <trkpt lat="35.232252990" lon="-107.606834720">
        <ele>3232.200</ele>
        <time>2021-05-10T18:43:14Z</time>
        <name>WPT.1451</name>
      </trkpt>
      <trkpt lat="35.232217460" lon="-107.606853280">
        <ele>3230.000</ele>
        <time>2021-05-10T18:43:18Z</time>
        <name>WPT.1452</name>
      </trkpt>
      <trkpt lat="35.232173750" lon="-107.606873880">
        <ele>3229.300</ele>
        <time>2021-05-10T18:43:22Z</time>
        <name>WPT.1453</name>
      </trkpt>
      <trkpt lat="35.232140260" lon="-107.606891750">
        <ele>3227.600</ele>
        <time>2021-05-10T18:43:27Z</time>
        <name>WPT.1454</name>
      </trkpt>
      <trkpt lat="35.232099880" lon="-107.606905110">
        <ele>3225.600</ele>
        <time>2021-05-10T18:43:33Z</time>
        <name>WPT.1455</name>
      </trkpt>
      <trkpt lat="35.232062310" lon="-107.606914030">
        <ele>3225.400</ele>
        <time>2021-05-10T18:43:38Z</time>
        <name>WPT.1456</name>
      </trkpt>
      <trkpt lat="35.232024350" lon="-107.606932570">
        <ele>3224.300</ele>
        <time>2021-05-10T18:43:42Z</time>
        <name>WPT.1457</name>
      </trkpt>
      <trkpt lat="35.231993550" lon="-107.606967010">
        <ele>3223.900</ele>
        <time>2021-05-10T18:43:46Z</time>
        <name>WPT.1458</name>
      </trkpt>
      <trkpt lat="35.231967510" lon="-107.607001490">
        <ele>3223.200</ele>
        <time>2021-05-10T18:43:51Z</time>
        <name>WPT.1459</name>
      </trkpt>
      <trkpt lat="35.231938140" lon="-107.607030340">
        <ele>3224.100</ele>
        <time>2021-05-10T18:43:59Z</time>
        <name>WPT.1460</name>
      </trkpt>
      <trkpt lat="35.231903370" lon="-107.607061880">
        <ele>3223.900</ele>
        <time>2021-05-10T18:44:04Z</time>
        <name>WPT.1461</name>
      </trkpt>
      <trkpt lat="35.231862740" lon="-107.607083200">
        <ele>3223.400</ele>
        <time>2021-05-10T18:44:10Z</time>
        <name>WPT.1462</name>
      </trkpt>
      <trkpt lat="35.231836710" lon="-107.607119840">
        <ele>3222.500</ele>
        <time>2021-05-10T18:44:15Z</time>
        <name>WPT.1463</name>
      </trkpt>
      <trkpt lat="35.231802210" lon="-107.607153490">
        <ele>3223.300</ele>
        <time>2021-05-10T18:44:20Z</time>
        <name>WPT.1464</name>
      </trkpt>
      <trkpt lat="35.231772360" lon="-107.607185930">
        <ele>3222.300</ele>
        <time>2021-05-10T18:44:25Z</time>
        <name>WPT.1465</name>
      </trkpt>
      <trkpt lat="35.231743780" lon="-107.607222410">
        <ele>3222.000</ele>
        <time>2021-05-10T18:44:31Z</time>
        <name>WPT.1466</name>
      </trkpt>
      <trkpt lat="35.231719530" lon="-107.607258940">
        <ele>3222.900</ele>
        <time>2021-05-10T18:44:36Z</time>
        <name>WPT.1467</name>
      </trkpt>
      <trkpt lat="35.231685950" lon="-107.607285680">
        <ele>3221.200</ele>
        <time>2021-05-10T18:44:42Z</time>
        <name>WPT.1468</name>
      </trkpt>
      <trkpt lat="35.231660360" lon="-107.607322630">
        <ele>3220.400</ele>
        <time>2021-05-10T18:44:48Z</time>
        <name>WPT.1469</name>
      </trkpt>
      <trkpt lat="35.231626950" lon="-107.607349020">
        <ele>3219.900</ele>
        <time>2021-05-10T18:44:52Z</time>
        <name>WPT.1470</name>
      </trkpt>
      <trkpt lat="35.231605790" lon="-107.607388880">
        <ele>3219.500</ele>
        <time>2021-05-10T18:45:07Z</time>
        <name>WPT.1471</name>
      </trkpt>
      <trkpt lat="35.231576380" lon="-107.607423340">
        <ele>3219.500</ele>
        <time>2021-05-10T18:45:12Z</time>
        <name>WPT.1472</name>
      </trkpt>
      <trkpt lat="35.231540300" lon="-107.607443910">
        <ele>3218.100</ele>
        <time>2021-05-10T18:45:17Z</time>
        <name>WPT.1473</name>
      </trkpt>
      <trkpt lat="35.231504100" lon="-107.607469840">
        <ele>3215.200</ele>
        <time>2021-05-10T18:45:23Z</time>
        <name>WPT.1474</name>
      </trkpt>
      <trkpt lat="35.231460360" lon="-107.607475500">
        <ele>3214.400</ele>
        <time>2021-05-10T18:45:28Z</time>
        <name>WPT.1475</name>
      </trkpt>
      <trkpt lat="35.231423220" lon="-107.607481900">
        <ele>3214.900</ele>
        <time>2021-05-10T18:45:33Z</time>
        <name>WPT.1476</name>
      </trkpt>
      <trkpt lat="35.231380440" lon="-107.607488420">
        <ele>3213.500</ele>
        <time>2021-05-10T18:45:38Z</time>
        <name>WPT.1477</name>
      </trkpt>
      <trkpt lat="35.231341400" lon="-107.607475650">
        <ele>3212.500</ele>
        <time>2021-05-10T18:45:42Z</time>
        <name>WPT.1478</name>
      </trkpt>
      <trkpt lat="35.231299530" lon="-107.607476510">
        <ele>3212.400</ele>
        <time>2021-05-10T18:45:47Z</time>
        <name>WPT.1479</name>
      </trkpt>
      <trkpt lat="35.231257180" lon="-107.607471610">
        <ele>3211.600</ele>
        <time>2021-05-10T18:45:52Z</time>
        <name>WPT.1480</name>
      </trkpt>
      <trkpt lat="35.231221610" lon="-107.607483340">
        <ele>3210.100</ele>
        <time>2021-05-10T18:45:56Z</time>
        <name>WPT.1481</name>
      </trkpt>
      <trkpt lat="35.231181920" lon="-107.607482000">
        <ele>3211.000</ele>
        <time>2021-05-10T18:46:00Z</time>
        <name>WPT.1482</name>
      </trkpt>
      <trkpt lat="35.231144130" lon="-107.607472080">
        <ele>3210.200</ele>
        <time>2021-05-10T18:46:04Z</time>
        <name>WPT.1483</name>
      </trkpt>
      <trkpt lat="35.231103890" lon="-107.607457560">
        <ele>3209.200</ele>
        <time>2021-05-10T18:46:09Z</time>
        <name>WPT.1484</name>
      </trkpt>
      <trkpt lat="35.231062360" lon="-107.607461700">
        <ele>3209.200</ele>
        <time>2021-05-10T18:46:16Z</time>
        <name>WPT.1485</name>
      </trkpt>
      <trkpt lat="35.231019120" lon="-107.607456790">
        <ele>3208.500</ele>
        <time>2021-05-10T18:46:23Z</time>
        <name>WPT.1486</name>
      </trkpt>
      <trkpt lat="35.230977710" lon="-107.607452150">
        <ele>3207.800</ele>
        <time>2021-05-10T18:46:28Z</time>
        <name>WPT.1487</name>
      </trkpt>
      <trkpt lat="35.230934000" lon="-107.607448490">
        <ele>3205.900</ele>
        <time>2021-05-10T18:46:33Z</time>
        <name>WPT.1488</name>
      </trkpt>
      <trkpt lat="35.230897970" lon="-107.607442140">
        <ele>3205.200</ele>
        <time>2021-05-10T18:46:37Z</time>
        <name>WPT.1489</name>
      </trkpt>
      <trkpt lat="35.230853410" lon="-107.607440580">
        <ele>3205.000</ele>
        <time>2021-05-10T18:46:42Z</time>
        <name>WPT.1490</name>
      </trkpt>
      <trkpt lat="35.230816470" lon="-107.607439730">
        <ele>3205.500</ele>
        <time>2021-05-10T18:46:47Z</time>
        <name>WPT.1491</name>
      </trkpt>
      <trkpt lat="35.230772900" lon="-107.607429290">
        <ele>3203.800</ele>
        <time>2021-05-10T18:46:52Z</time>
        <name>WPT.1492</name>
      </trkpt>
      <trkpt lat="35.230728310" lon="-107.607432240">
        <ele>3203.500</ele>
        <time>2021-05-10T18:46:57Z</time>
        <name>WPT.1493</name>
      </trkpt>
      <trkpt lat="35.230686340" lon="-107.607430620">
        <ele>3202.100</ele>
        <time>2021-05-10T18:47:04Z</time>
        <name>WPT.1494</name>
      </trkpt>
      <trkpt lat="35.230646250" lon="-107.607420140">
        <ele>3202.000</ele>
        <time>2021-05-10T18:47:09Z</time>
        <name>WPT.1495</name>
      </trkpt>
      <trkpt lat="35.230610750" lon="-107.607409400">
        <ele>3201.900</ele>
        <time>2021-05-10T18:47:13Z</time>
        <name>WPT.1496</name>
      </trkpt>
      <trkpt lat="35.230571120" lon="-107.607406160">
        <ele>3202.000</ele>
        <time>2021-05-10T18:47:25Z</time>
        <name>WPT.1497</name>
      </trkpt>
      <trkpt lat="35.230533140" lon="-107.607423390">
        <ele>3202.200</ele>
        <time>2021-05-10T18:47:31Z</time>
        <name>WPT.1498</name>
      </trkpt>
      <trkpt lat="35.230495090" lon="-107.607432900">
        <ele>3201.600</ele>
        <time>2021-05-10T18:47:36Z</time>
        <name>WPT.1499</name>
      </trkpt>
      <trkpt lat="35.230463290" lon="-107.607457150">
        <ele>3200.900</ele>
        <time>2021-05-10T18:47:45Z</time>
        <name>WPT.1500</name>
      </trkpt>
      <trkpt lat="35.230429270" lon="-107.607478010">
        <ele>3199.700</ele>
        <time>2021-05-10T18:47:50Z</time>
        <name>WPT.1501</name>
      </trkpt>
      <trkpt lat="35.230391770" lon="-107.607486220">
        <ele>3199.700</ele>
        <time>2021-05-10T18:47:55Z</time>
        <name>WPT.1502</name>
      </trkpt>
      <trkpt lat="35.230357120" lon="-107.607504440">
        <ele>3199.500</ele>
        <time>2021-05-10T18:48:00Z</time>
        <name>WPT.1503</name>
      </trkpt>
      <trkpt lat="35.230320830" lon="-107.607520940">
        <ele>3197.000</ele>
        <time>2021-05-10T18:48:59Z</time>
        <name>WPT.1504</name>
      </trkpt>
      <trkpt lat="35.230285820" lon="-107.607537270">
        <ele>3194.600</ele>
        <time>2021-05-10T18:49:04Z</time>
        <name>WPT.1505</name>
      </trkpt>
      <trkpt lat="35.230250710" lon="-107.607551050">
        <ele>3193.900</ele>
        <time>2021-05-10T18:49:09Z</time>
        <name>WPT.1506</name>
      </trkpt>
      <trkpt lat="35.230212010" lon="-107.607563700">
        <ele>3194.000</ele>
        <time>2021-05-10T18:49:15Z</time>
        <name>WPT.1507</name>
      </trkpt>
      <trkpt lat="35.230174250" lon="-107.607568910">
        <ele>3193.100</ele>
        <time>2021-05-10T18:49:20Z</time>
        <name>WPT.1508</name>
      </trkpt>
      <trkpt lat="35.230139670" lon="-107.607590260">
        <ele>3194.100</ele>
        <time>2021-05-10T18:49:29Z</time>
        <name>WPT.1509</name>
      </trkpt>
      <trkpt lat="35.230139370" lon="-107.607635980">
        <ele>3194.200</ele>
        <time>2021-05-10T18:49:34Z</time>
        <name>WPT.1510</name>
      </trkpt>
      <trkpt lat="35.230121810" lon="-107.607677200">
        <ele>3195.400</ele>
        <time>2021-05-10T18:49:38Z</time>
        <name>WPT.1511</name>
      </trkpt>
      <trkpt lat="35.230092300" lon="-107.607710400">
        <ele>3194.300</ele>
        <time>2021-05-10T18:49:43Z</time>
        <name>WPT.1512</name>
      </trkpt>
      <trkpt lat="35.230070700" lon="-107.607751170">
        <ele>3192.800</ele>
        <time>2021-05-10T18:49:48Z</time>
        <name>WPT.1513</name>
      </trkpt>
      <trkpt lat="35.230038860" lon="-107.607779000">
        <ele>3193.000</ele>
        <time>2021-05-10T18:50:01Z</time>
        <name>WPT.1514</name>
      </trkpt>
      <trkpt lat="35.230056480" lon="-107.607817890">
        <ele>3191.400</ele>
        <time>2021-05-10T18:51:35Z</time>
        <name>WPT.1515</name>
      </trkpt>
      <trkpt lat="35.230083220" lon="-107.607847570">
        <ele>3191.500</ele>
        <time>2021-05-10T18:51:40Z</time>
        <name>WPT.1516</name>
      </trkpt>
      <trkpt lat="35.230118510" lon="-107.607871990">
        <ele>3191.200</ele>
        <time>2021-05-10T18:51:45Z</time>
        <name>WPT.1517</name>
      </trkpt>
      <trkpt lat="35.230146930" lon="-107.607908850">
        <ele>3191.200</ele>
        <time>2021-05-10T18:51:51Z</time>
        <name>WPT.1518</name>
      </trkpt>
      <trkpt lat="35.230173110" lon="-107.607939080">
        <ele>3190.100</ele>
        <time>2021-05-10T18:51:56Z</time>
        <name>WPT.1519</name>
      </trkpt>
      <trkpt lat="35.230212130" lon="-107.607960910">
        <ele>3189.500</ele>
        <time>2021-05-10T18:52:03Z</time>
        <name>WPT.1520</name>
      </trkpt>
      <trkpt lat="35.230240490" lon="-107.607998060">
        <ele>3187.800</ele>
        <time>2021-05-10T18:52:09Z</time>
        <name>WPT.1521</name>
      </trkpt>
      <trkpt lat="35.230260740" lon="-107.608035210">
        <ele>3187.500</ele>
        <time>2021-05-10T18:52:22Z</time>
        <name>WPT.1522</name>
      </trkpt>
      <trkpt lat="35.230300090" lon="-107.608034250">
        <ele>3184.500</ele>
        <time>2021-05-10T18:52:27Z</time>
        <name>WPT.1523</name>
      </trkpt>
      <trkpt lat="35.230332900" lon="-107.608057350">
        <ele>3180.500</ele>
        <time>2021-05-10T18:52:31Z</time>
        <name>WPT.1524</name>
      </trkpt>
      <trkpt lat="35.230362470" lon="-107.608090900">
        <ele>3179.600</ele>
        <time>2021-05-10T18:52:38Z</time>
        <name>WPT.1525</name>
      </trkpt>
      <trkpt lat="35.230377250" lon="-107.608131330">
        <ele>3179.900</ele>
        <time>2021-05-10T18:52:43Z</time>
        <name>WPT.1526</name>
      </trkpt>
      <trkpt lat="35.230406000" lon="-107.608160240">
        <ele>3180.100</ele>
        <time>2021-05-10T18:52:50Z</time>
        <name>WPT.1527</name>
      </trkpt>
      <trkpt lat="35.230402320" lon="-107.608205050">
        <ele>3178.500</ele>
        <time>2021-05-10T18:53:23Z</time>
        <name>WPT.1528</name>
      </trkpt>
      <trkpt lat="35.230417140" lon="-107.608245230">
        <ele>3177.300</ele>
        <time>2021-05-10T18:53:34Z</time>
        <name>WPT.1529</name>
      </trkpt>
      <trkpt lat="35.230432920" lon="-107.608284870">
        <ele>3177.200</ele>
        <time>2021-05-10T18:53:53Z</time>
        <name>WPT.1530</name>
      </trkpt>
      <trkpt lat="35.230432120" lon="-107.608331680">
        <ele>3173.400</ele>
        <time>2021-05-10T18:54:01Z</time>
        <name>WPT.1531</name>
      </trkpt>
      <trkpt lat="35.230431600" lon="-107.608377770">
        <ele>3176.100</ele>
        <time>2021-05-10T18:54:11Z</time>
        <name>WPT.1532</name>
      </trkpt>
      <trkpt lat="35.230430230" lon="-107.608423900">
        <ele>3176.700</ele>
        <time>2021-05-10T18:54:18Z</time>
        <name>WPT.1533</name>
      </trkpt>
      <trkpt lat="35.230446970" lon="-107.608462920">
        <ele>3172.800</ele>
        <time>2021-05-10T18:54:26Z</time>
        <name>WPT.1534</name>
      </trkpt>
      <trkpt lat="35.230463410" lon="-107.608508470">
        <ele>3172.900</ele>
        <time>2021-05-10T18:54:34Z</time>
        <name>WPT.1535</name>
      </trkpt>
      <trkpt lat="35.230468710" lon="-107.608552970">
        <ele>3172.600</ele>
        <time>2021-05-10T18:54:40Z</time>
        <name>WPT.1536</name>
      </trkpt>
      <trkpt lat="35.230478560" lon="-107.608598430">
        <ele>3172.200</ele>
        <time>2021-05-10T18:54:45Z</time>
        <name>WPT.1537</name>
      </trkpt>
      <trkpt lat="35.230485560" lon="-107.608644020">
        <ele>3173.100</ele>
        <time>2021-05-10T18:54:51Z</time>
        <name>WPT.1538</name>
      </trkpt>
      <trkpt lat="35.230498650" lon="-107.608687230">
        <ele>3174.000</ele>
        <time>2021-05-10T18:55:02Z</time>
        <name>WPT.1539</name>
      </trkpt>
      <trkpt lat="35.230513800" lon="-107.608730750">
        <ele>3174.100</ele>
        <time>2021-05-10T18:55:13Z</time>
        <name>WPT.1540</name>
      </trkpt>
      <trkpt lat="35.230550550" lon="-107.608753390">
        <ele>3172.000</ele>
        <time>2021-05-10T18:55:20Z</time>
        <name>WPT.1541</name>
      </trkpt>
      <trkpt lat="35.230553810" lon="-107.608804110">
        <ele>3170.600</ele>
        <time>2021-05-10T18:55:30Z</time>
        <name>WPT.1542</name>
      </trkpt>
      <trkpt lat="35.230568160" lon="-107.608848740">
        <ele>3164.800</ele>
        <time>2021-05-10T18:55:43Z</time>
        <name>WPT.1543</name>
      </trkpt>
      <trkpt lat="35.230546290" lon="-107.608888310">
        <ele>3166.100</ele>
        <time>2021-05-10T18:55:49Z</time>
        <name>WPT.1544</name>
      </trkpt>
      <trkpt lat="35.230519310" lon="-107.608927430">
        <ele>3166.100</ele>
        <time>2021-05-10T18:55:54Z</time>
        <name>WPT.1545</name>
      </trkpt>
      <trkpt lat="35.230491460" lon="-107.608957080">
        <ele>3166.000</ele>
        <time>2021-05-10T18:56:00Z</time>
        <name>WPT.1546</name>
      </trkpt>
      <trkpt lat="35.230510630" lon="-107.609001970">
        <ele>3164.600</ele>
        <time>2021-05-10T18:56:15Z</time>
        <name>WPT.1547</name>
      </trkpt>
      <trkpt lat="35.230535510" lon="-107.609035450">
        <ele>3160.800</ele>
        <time>2021-05-10T18:56:21Z</time>
        <name>WPT.1548</name>
      </trkpt>
      <trkpt lat="35.230561700" lon="-107.609074670">
        <ele>3159.400</ele>
        <time>2021-05-10T18:56:29Z</time>
        <name>WPT.1549</name>
      </trkpt>
      <trkpt lat="35.230590080" lon="-107.609103950">
        <ele>3161.400</ele>
        <time>2021-05-10T18:56:45Z</time>
        <name>WPT.1550</name>
      </trkpt>
      <trkpt lat="35.230576360" lon="-107.609148750">
        <ele>3161.000</ele>
        <time>2021-05-10T18:57:22Z</time>
        <name>WPT.1551</name>
      </trkpt>
      <trkpt lat="35.230576700" lon="-107.609197550">
        <ele>3159.600</ele>
        <time>2021-05-10T18:57:33Z</time>
        <name>WPT.1552</name>
      </trkpt>
      <trkpt lat="35.230582730" lon="-107.609245110">
        <ele>3153.100</ele>
        <time>2021-05-10T18:57:45Z</time>
        <name>WPT.1553</name>
      </trkpt>
      <trkpt lat="35.230585060" lon="-107.609290490">
        <ele>3150.200</ele>
        <time>2021-05-10T18:57:54Z</time>
        <name>WPT.1554</name>
      </trkpt>
      <trkpt lat="35.230601010" lon="-107.609334340">
        <ele>3148.700</ele>
        <time>2021-05-10T18:57:59Z</time>
        <name>WPT.1555</name>
      </trkpt>
      <trkpt lat="35.230625020" lon="-107.609373580">
        <ele>3146.300</ele>
        <time>2021-05-10T18:58:04Z</time>
        <name>WPT.1556</name>
      </trkpt>
      <trkpt lat="35.230647450" lon="-107.609420510">
        <ele>3145.100</ele>
        <time>2021-05-10T18:58:09Z</time>
        <name>WPT.1557</name>
      </trkpt>
      <trkpt lat="35.230665590" lon="-107.609466090">
        <ele>3143.200</ele>
        <time>2021-05-10T18:58:19Z</time>
        <name>WPT.1558</name>
      </trkpt>
      <trkpt lat="35.230669240" lon="-107.609511540">
        <ele>3142.300</ele>
        <time>2021-05-10T18:58:34Z</time>
        <name>WPT.1559</name>
      </trkpt>
      <trkpt lat="35.230645600" lon="-107.609547850">
        <ele>3139.600</ele>
        <time>2021-05-10T18:58:50Z</time>
        <name>WPT.1560</name>
      </trkpt>
      <trkpt lat="35.230654760" lon="-107.609592770">
        <ele>3136.800</ele>
        <time>2021-05-10T18:58:59Z</time>
        <name>WPT.1561</name>
      </trkpt>
      <trkpt lat="35.230634670" lon="-107.609638910">
        <ele>3138.000</ele>
        <time>2021-05-10T18:59:05Z</time>
        <name>WPT.1562</name>
      </trkpt>
      <trkpt lat="35.230596730" lon="-107.609665520">
        <ele>3136.900</ele>
        <time>2021-05-10T18:59:10Z</time>
        <name>WPT.1563</name>
      </trkpt>
      <trkpt lat="35.230571760" lon="-107.609707920">
        <ele>3135.400</ele>
        <time>2021-05-10T18:59:15Z</time>
        <name>WPT.1564</name>
      </trkpt>
      <trkpt lat="35.230577660" lon="-107.609752240">
        <ele>3136.700</ele>
        <time>2021-05-10T18:59:23Z</time>
        <name>WPT.1565</name>
      </trkpt>
      <trkpt lat="35.230597700" lon="-107.609798230">
        <ele>3137.100</ele>
        <time>2021-05-10T18:59:29Z</time>
        <name>WPT.1566</name>
      </trkpt>
      <trkpt lat="35.230589030" lon="-107.609843880">
        <ele>3137.300</ele>
        <time>2021-05-10T18:59:34Z</time>
        <name>WPT.1567</name>
      </trkpt>
      <trkpt lat="35.230573320" lon="-107.609885870">
        <ele>3137.900</ele>
        <time>2021-05-10T18:59:40Z</time>
        <name>WPT.1568</name>
      </trkpt>
      <trkpt lat="35.230546640" lon="-107.609923420">
        <ele>3136.100</ele>
        <time>2021-05-10T18:59:46Z</time>
        <name>WPT.1569</name>
      </trkpt>
      <trkpt lat="35.230510950" lon="-107.609950520">
        <ele>3137.900</ele>
        <time>2021-05-10T18:59:52Z</time>
        <name>WPT.1570</name>
      </trkpt>
      <trkpt lat="35.230484780" lon="-107.609985060">
        <ele>3136.600</ele>
        <time>2021-05-10T18:59:59Z</time>
        <name>WPT.1571</name>
      </trkpt>
      <trkpt lat="35.230464170" lon="-107.610022630">
        <ele>3138.800</ele>
        <time>2021-05-10T19:00:09Z</time>
        <name>WPT.1572</name>
      </trkpt>
      <trkpt lat="35.230421360" lon="-107.610025560">
        <ele>3142.100</ele>
        <time>2021-05-10T19:00:16Z</time>
        <name>WPT.1573</name>
      </trkpt>
      <trkpt lat="35.230385620" lon="-107.610045230">
        <ele>3142.300</ele>
        <time>2021-05-10T19:00:22Z</time>
        <name>WPT.1574</name>
      </trkpt>
      <trkpt lat="35.230349050" lon="-107.610042370">
        <ele>3140.400</ele>
        <time>2021-05-10T19:00:30Z</time>
        <name>WPT.1575</name>
      </trkpt>
      <trkpt lat="35.230313340" lon="-107.610052010">
        <ele>3140.200</ele>
        <time>2021-05-10T19:00:34Z</time>
        <name>WPT.1576</name>
      </trkpt>
      <trkpt lat="35.230281650" lon="-107.610075770">
        <ele>3142.200</ele>
        <time>2021-05-10T19:00:38Z</time>
        <name>WPT.1577</name>
      </trkpt>
      <trkpt lat="35.230250640" lon="-107.610099230">
        <ele>3142.400</ele>
        <time>2021-05-10T19:00:44Z</time>
        <name>WPT.1578</name>
      </trkpt>
      <trkpt lat="35.230219020" lon="-107.610129290">
        <ele>3138.500</ele>
        <time>2021-05-10T19:00:51Z</time>
        <name>WPT.1579</name>
      </trkpt>
      <trkpt lat="35.230206730" lon="-107.610177690">
        <ele>3136.900</ele>
        <time>2021-05-10T19:00:56Z</time>
        <name>WPT.1580</name>
      </trkpt>
      <trkpt lat="35.230176130" lon="-107.610201380">
        <ele>3136.900</ele>
        <time>2021-05-10T19:01:00Z</time>
        <name>WPT.1581</name>
      </trkpt>
      <trkpt lat="35.230175420" lon="-107.610251270">
        <ele>3135.800</ele>
        <time>2021-05-10T19:01:08Z</time>
        <name>WPT.1582</name>
      </trkpt>
      <trkpt lat="35.230161010" lon="-107.610297140">
        <ele>3136.500</ele>
        <time>2021-05-10T19:01:20Z</time>
        <name>WPT.1583</name>
      </trkpt>
      <trkpt lat="35.230169300" lon="-107.610345810">
        <ele>3137.200</ele>
        <time>2021-05-10T19:01:30Z</time>
        <name>WPT.1584</name>
      </trkpt>
      <trkpt lat="35.230176610" lon="-107.610395720">
        <ele>3137.800</ele>
        <time>2021-05-10T19:01:35Z</time>
        <name>WPT.1585</name>
      </trkpt>
      <trkpt lat="35.230202410" lon="-107.610436670">
        <ele>3137.400</ele>
        <time>2021-05-10T19:01:41Z</time>
        <name>WPT.1586</name>
      </trkpt>
      <trkpt lat="35.230191560" lon="-107.610485490">
        <ele>3139.400</ele>
        <time>2021-05-10T19:01:50Z</time>
        <name>WPT.1587</name>
      </trkpt>
      <trkpt lat="35.230158500" lon="-107.610509270">
        <ele>3138.300</ele>
        <time>2021-05-10T19:02:00Z</time>
        <name>WPT.1588</name>
      </trkpt>
      <trkpt lat="35.230174730" lon="-107.610560230">
        <ele>3135.700</ele>
        <time>2021-05-10T19:02:06Z</time>
        <name>WPT.1589</name>
      </trkpt>
      <trkpt lat="35.230190300" lon="-107.610601800">
        <ele>3132.100</ele>
        <time>2021-05-10T19:02:10Z</time>
        <name>WPT.1590</name>
      </trkpt>
      <trkpt lat="35.230208250" lon="-107.610651050">
        <ele>3133.900</ele>
        <time>2021-05-10T19:02:15Z</time>
        <name>WPT.1591</name>
      </trkpt>
      <trkpt lat="35.230203890" lon="-107.610701540">
        <ele>3136.700</ele>
        <time>2021-05-10T19:02:25Z</time>
        <name>WPT.1592</name>
      </trkpt>
      <trkpt lat="35.230170330" lon="-107.610723180">
        <ele>3135.500</ele>
        <time>2021-05-10T19:02:32Z</time>
        <name>WPT.1593</name>
      </trkpt>
      <trkpt lat="35.230134270" lon="-107.610719060">
        <ele>3135.400</ele>
        <time>2021-05-10T19:02:53Z</time>
        <name>WPT.1594</name>
      </trkpt>
      <trkpt lat="35.230121410" lon="-107.610766160">
        <ele>3134.900</ele>
        <time>2021-05-10T19:03:06Z</time>
        <name>WPT.1595</name>
      </trkpt>
      <trkpt lat="35.230128750" lon="-107.610810110">
        <ele>3135.200</ele>
        <time>2021-05-10T19:03:11Z</time>
        <name>WPT.1596</name>
      </trkpt>
      <trkpt lat="35.230145530" lon="-107.610851140">
        <ele>3135.100</ele>
        <time>2021-05-10T19:03:14Z</time>
        <name>WPT.1597</name>
      </trkpt>
      <trkpt lat="35.230169660" lon="-107.610888510">
        <ele>3131.100</ele>
        <time>2021-05-10T19:03:19Z</time>
        <name>WPT.1598</name>
      </trkpt>
      <trkpt lat="35.230205910" lon="-107.610893120">
        <ele>3128.000</ele>
        <time>2021-05-10T19:03:36Z</time>
        <name>WPT.1599</name>
      </trkpt>
      <trkpt lat="35.230243400" lon="-107.610907640">
        <ele>3122.700</ele>
        <time>2021-05-10T19:03:42Z</time>
        <name>WPT.1600</name>
      </trkpt>
      <trkpt lat="35.230283170" lon="-107.610894070">
        <ele>3121.100</ele>
        <time>2021-05-10T19:03:47Z</time>
        <name>WPT.1601</name>
      </trkpt>
      <trkpt lat="35.230318670" lon="-107.610880150">
        <ele>3122.400</ele>
        <time>2021-05-10T19:03:51Z</time>
        <name>WPT.1602</name>
      </trkpt>
      <trkpt lat="35.230341980" lon="-107.610916820">
        <ele>3120.900</ele>
        <time>2021-05-10T19:04:04Z</time>
        <name>WPT.1603</name>
      </trkpt>
      <trkpt lat="35.230325970" lon="-107.610959340">
        <ele>3120.600</ele>
        <time>2021-05-10T19:04:12Z</time>
        <name>WPT.1604</name>
      </trkpt>
      <trkpt lat="35.230306300" lon="-107.610998720">
        <ele>3122.900</ele>
        <time>2021-05-10T19:04:21Z</time>
        <name>WPT.1605</name>
      </trkpt>
      <trkpt lat="35.230315850" lon="-107.611051520">
        <ele>3121.000</ele>
        <time>2021-05-10T19:04:25Z</time>
        <name>WPT.1606</name>
      </trkpt>
      <trkpt lat="35.230326250" lon="-107.611096150">
        <ele>3119.300</ele>
        <time>2021-05-10T19:04:29Z</time>
        <name>WPT.1607</name>
      </trkpt>
      <trkpt lat="35.230327590" lon="-107.611148170">
        <ele>3119.100</ele>
        <time>2021-05-10T19:04:34Z</time>
        <name>WPT.1608</name>
      </trkpt>
      <trkpt lat="35.230311510" lon="-107.611193000">
        <ele>3115.600</ele>
        <time>2021-05-10T19:04:42Z</time>
        <name>WPT.1609</name>
      </trkpt>
      <trkpt lat="35.230304960" lon="-107.611239730">
        <ele>3116.100</ele>
        <time>2021-05-10T19:04:47Z</time>
        <name>WPT.1610</name>
      </trkpt>
      <trkpt lat="35.230314300" lon="-107.611290060">
        <ele>3116.100</ele>
        <time>2021-05-10T19:04:52Z</time>
        <name>WPT.1611</name>
      </trkpt>
      <trkpt lat="35.230320060" lon="-107.611343330">
        <ele>3114.700</ele>
        <time>2021-05-10T19:04:57Z</time>
        <name>WPT.1612</name>
      </trkpt>
      <trkpt lat="35.230325120" lon="-107.611392480">
        <ele>3112.900</ele>
        <time>2021-05-10T19:05:03Z</time>
        <name>WPT.1613</name>
      </trkpt>
      <trkpt lat="35.230312580" lon="-107.611434450">
        <ele>3112.500</ele>
        <time>2021-05-10T19:05:10Z</time>
        <name>WPT.1614</name>
      </trkpt>
      <trkpt lat="35.230303570" lon="-107.611482020">
        <ele>3112.700</ele>
        <time>2021-05-10T19:05:14Z</time>
        <name>WPT.1615</name>
      </trkpt>
      <trkpt lat="35.230296510" lon="-107.611526360">
        <ele>3109.700</ele>
        <time>2021-05-10T19:05:19Z</time>
        <name>WPT.1616</name>
      </trkpt>
      <trkpt lat="35.230278650" lon="-107.611568460">
        <ele>3105.400</ele>
        <time>2021-05-10T19:05:24Z</time>
        <name>WPT.1617</name>
      </trkpt>
      <trkpt lat="35.230270130" lon="-107.611612030">
        <ele>3106.100</ele>
        <time>2021-05-10T19:05:29Z</time>
        <name>WPT.1618</name>
      </trkpt>
      <trkpt lat="35.230257270" lon="-107.611659380">
        <ele>3105.900</ele>
        <time>2021-05-10T19:05:34Z</time>
        <name>WPT.1619</name>
      </trkpt>
      <trkpt lat="35.230237140" lon="-107.611702090">
        <ele>3104.100</ele>
        <time>2021-05-10T19:05:40Z</time>
        <name>WPT.1620</name>
      </trkpt>
      <trkpt lat="35.230210940" lon="-107.611735470">
        <ele>3102.300</ele>
        <time>2021-05-10T19:05:46Z</time>
        <name>WPT.1621</name>
      </trkpt>
      <trkpt lat="35.230194210" lon="-107.611782060">
        <ele>3103.900</ele>
        <time>2021-05-10T19:05:51Z</time>
        <name>WPT.1622</name>
      </trkpt>
      <trkpt lat="35.230172780" lon="-107.611820850">
        <ele>3103.100</ele>
        <time>2021-05-10T19:05:55Z</time>
        <name>WPT.1623</name>
      </trkpt>
      <trkpt lat="35.230172990" lon="-107.611873190">
        <ele>3103.600</ele>
        <time>2021-05-10T19:06:00Z</time>
        <name>WPT.1624</name>
      </trkpt>
      <trkpt lat="35.230175970" lon="-107.611917720">
        <ele>3103.400</ele>
        <time>2021-05-10T19:06:22Z</time>
        <name>WPT.1625</name>
      </trkpt>
      <trkpt lat="35.230154200" lon="-107.611953710">
        <ele>3104.900</ele>
        <time>2021-05-10T19:06:28Z</time>
        <name>WPT.1626</name>
      </trkpt>
      <trkpt lat="35.230123310" lon="-107.611982490">
        <ele>3102.800</ele>
        <time>2021-05-10T19:06:34Z</time>
        <name>WPT.1627</name>
      </trkpt>
      <trkpt lat="35.230087620" lon="-107.612015390">
        <ele>3103.200</ele>
        <time>2021-05-10T19:06:40Z</time>
        <name>WPT.1628</name>
      </trkpt>
      <trkpt lat="35.230083770" lon="-107.612062550">
        <ele>3105.200</ele>
        <time>2021-05-10T19:06:45Z</time>
        <name>WPT.1629</name>
      </trkpt>
      <trkpt lat="35.230095030" lon="-107.612109720">
        <ele>3105.400</ele>
        <time>2021-05-10T19:06:49Z</time>
        <name>WPT.1630</name>
      </trkpt>
      <trkpt lat="35.230087440" lon="-107.612163900">
        <ele>3104.600</ele>
        <time>2021-05-10T19:06:53Z</time>
        <name>WPT.1631</name>
      </trkpt>
      <trkpt lat="35.230076540" lon="-107.612207970">
        <ele>3104.500</ele>
        <time>2021-05-10T19:06:57Z</time>
        <name>WPT.1632</name>
      </trkpt>
      <trkpt lat="35.230065110" lon="-107.612249790">
        <ele>3103.600</ele>
        <time>2021-05-10T19:07:02Z</time>
        <name>WPT.1633</name>
      </trkpt>
      <trkpt lat="35.230051950" lon="-107.612297210">
        <ele>3104.100</ele>
        <time>2021-05-10T19:07:06Z</time>
        <name>WPT.1634</name>
      </trkpt>
      <trkpt lat="35.230029540" lon="-107.612335340">
        <ele>3105.000</ele>
        <time>2021-05-10T19:07:10Z</time>
        <name>WPT.1635</name>
      </trkpt>
      <trkpt lat="35.230004370" lon="-107.612375270">
        <ele>3102.400</ele>
        <time>2021-05-10T19:07:15Z</time>
        <name>WPT.1636</name>
      </trkpt>
      <trkpt lat="35.229980950" lon="-107.612412680">
        <ele>3098.400</ele>
        <time>2021-05-10T19:07:22Z</time>
        <name>WPT.1637</name>
      </trkpt>
      <trkpt lat="35.229978930" lon="-107.612464730">
        <ele>3097.100</ele>
        <time>2021-05-10T19:07:30Z</time>
        <name>WPT.1638</name>
      </trkpt>
      <trkpt lat="35.229947120" lon="-107.612487280">
        <ele>3092.700</ele>
        <time>2021-05-10T19:07:35Z</time>
        <name>WPT.1639</name>
      </trkpt>
      <trkpt lat="35.229925540" lon="-107.612525350">
        <ele>3092.200</ele>
        <time>2021-05-10T19:07:38Z</time>
        <name>WPT.1640</name>
      </trkpt>
      <trkpt lat="35.229899090" lon="-107.612573910">
        <ele>3094.400</ele>
        <time>2021-05-10T19:07:42Z</time>
        <name>WPT.1641</name>
      </trkpt>
      <trkpt lat="35.229865780" lon="-107.612609160">
        <ele>3093.200</ele>
        <time>2021-05-10T19:07:46Z</time>
        <name>WPT.1642</name>
      </trkpt>
      <trkpt lat="35.229848980" lon="-107.612650100">
        <ele>3092.700</ele>
        <time>2021-05-10T19:07:49Z</time>
        <name>WPT.1643</name>
      </trkpt>
      <trkpt lat="35.229818010" lon="-107.612687180">
        <ele>3091.600</ele>
        <time>2021-05-10T19:07:53Z</time>
        <name>WPT.1644</name>
      </trkpt>
      <trkpt lat="35.229793550" lon="-107.612727820">
        <ele>3092.400</ele>
        <time>2021-05-10T19:07:57Z</time>
        <name>WPT.1645</name>
      </trkpt>
      <trkpt lat="35.229771430" lon="-107.612764220">
        <ele>3093.400</ele>
        <time>2021-05-10T19:08:01Z</time>
        <name>WPT.1646</name>
      </trkpt>
      <trkpt lat="35.229761010" lon="-107.612813850">
        <ele>3094.700</ele>
        <time>2021-05-10T19:08:05Z</time>
        <name>WPT.1647</name>
      </trkpt>
      <trkpt lat="35.229738640" lon="-107.612849040">
        <ele>3092.200</ele>
        <time>2021-05-10T19:08:22Z</time>
        <name>WPT.1648</name>
      </trkpt>
      <trkpt lat="35.229712960" lon="-107.612892260">
        <ele>3091.200</ele>
        <time>2021-05-10T19:08:35Z</time>
        <name>WPT.1649</name>
      </trkpt>
      <trkpt lat="35.229697690" lon="-107.612943040">
        <ele>3092.400</ele>
        <time>2021-05-10T19:08:39Z</time>
        <name>WPT.1650</name>
      </trkpt>
      <trkpt lat="35.229683940" lon="-107.612986300">
        <ele>3090.300</ele>
        <time>2021-05-10T19:08:44Z</time>
        <name>WPT.1651</name>
      </trkpt>
      <trkpt lat="35.229688630" lon="-107.613039320">
        <ele>3086.600</ele>
        <time>2021-05-10T19:08:50Z</time>
        <name>WPT.1652</name>
      </trkpt>
      <trkpt lat="35.229679160" lon="-107.613086100">
        <ele>3085.100</ele>
        <time>2021-05-10T19:08:54Z</time>
        <name>WPT.1653</name>
      </trkpt>
      <trkpt lat="35.229665060" lon="-107.613128600">
        <ele>3083.900</ele>
        <time>2021-05-10T19:08:58Z</time>
        <name>WPT.1654</name>
      </trkpt>
      <trkpt lat="35.229653620" lon="-107.613178830">
        <ele>3084.000</ele>
        <time>2021-05-10T19:09:02Z</time>
        <name>WPT.1655</name>
      </trkpt>
      <trkpt lat="35.229653280" lon="-107.613231630">
        <ele>3083.200</ele>
        <time>2021-05-10T19:09:06Z</time>
        <name>WPT.1656</name>
      </trkpt>
      <trkpt lat="35.229642980" lon="-107.613277350">
        <ele>3082.300</ele>
        <time>2021-05-10T19:09:11Z</time>
        <name>WPT.1657</name>
      </trkpt>
      <trkpt lat="35.229623530" lon="-107.613322160">
        <ele>3081.200</ele>
        <time>2021-05-10T19:09:17Z</time>
        <name>WPT.1658</name>
      </trkpt>
      <trkpt lat="35.229592700" lon="-107.613355290">
        <ele>3080.200</ele>
        <time>2021-05-10T19:09:22Z</time>
        <name>WPT.1659</name>
      </trkpt>
      <trkpt lat="35.229602120" lon="-107.613412570">
        <ele>3077.600</ele>
        <time>2021-05-10T19:09:26Z</time>
        <name>WPT.1660</name>
      </trkpt>
      <trkpt lat="35.229594850" lon="-107.613457580">
        <ele>3078.800</ele>
        <time>2021-05-10T19:09:29Z</time>
        <name>WPT.1661</name>
      </trkpt>
      <trkpt lat="35.229583060" lon="-107.613504480">
        <ele>3080.000</ele>
        <time>2021-05-10T19:09:33Z</time>
        <name>WPT.1662</name>
      </trkpt>
      <trkpt lat="35.229581020" lon="-107.613558640">
        <ele>3079.700</ele>
        <time>2021-05-10T19:09:38Z</time>
        <name>WPT.1663</name>
      </trkpt>
      <trkpt lat="35.229539120" lon="-107.613563620">
        <ele>3080.500</ele>
        <time>2021-05-10T19:09:44Z</time>
        <name>WPT.1664</name>
      </trkpt>
      <trkpt lat="35.229536410" lon="-107.613608630">
        <ele>3079.200</ele>
        <time>2021-05-10T19:09:49Z</time>
        <name>WPT.1665</name>
      </trkpt>
      <trkpt lat="35.229521580" lon="-107.613659590">
        <ele>3079.500</ele>
        <time>2021-05-10T19:09:55Z</time>
        <name>WPT.1666</name>
      </trkpt>
      <trkpt lat="35.229504930" lon="-107.613705900">
        <ele>3080.600</ele>
        <time>2021-05-10T19:10:00Z</time>
        <name>WPT.1667</name>
      </trkpt>
      <trkpt lat="35.229493700" lon="-107.613757880">
        <ele>3080.900</ele>
        <time>2021-05-10T19:10:04Z</time>
        <name>WPT.1668</name>
      </trkpt>
      <trkpt lat="35.229492440" lon="-107.613804980">
        <ele>3081.400</ele>
        <time>2021-05-10T19:10:09Z</time>
        <name>WPT.1669</name>
      </trkpt>
      <trkpt lat="35.229499650" lon="-107.613850710">
        <ele>3080.400</ele>
        <time>2021-05-10T19:10:13Z</time>
        <name>WPT.1670</name>
      </trkpt>
      <trkpt lat="35.229509760" lon="-107.613896980">
        <ele>3079.700</ele>
        <time>2021-05-10T19:10:17Z</time>
        <name>WPT.1671</name>
      </trkpt>
      <trkpt lat="35.229530560" lon="-107.613945270">
        <ele>3079.800</ele>
        <time>2021-05-10T19:10:21Z</time>
        <name>WPT.1672</name>
      </trkpt>
      <trkpt lat="35.229541290" lon="-107.613991800">
        <ele>3077.400</ele>
        <time>2021-05-10T19:10:25Z</time>
        <name>WPT.1673</name>
      </trkpt>
      <trkpt lat="35.229536830" lon="-107.614037790">
        <ele>3074.600</ele>
        <time>2021-05-10T19:10:29Z</time>
        <name>WPT.1674</name>
      </trkpt>
      <trkpt lat="35.229527760" lon="-107.614090530">
        <ele>3074.100</ele>
        <time>2021-05-10T19:10:33Z</time>
        <name>WPT.1675</name>
      </trkpt>
      <trkpt lat="35.229520900" lon="-107.614141870">
        <ele>3074.300</ele>
        <time>2021-05-10T19:10:38Z</time>
        <name>WPT.1676</name>
      </trkpt>
      <trkpt lat="35.229526650" lon="-107.614185290">
        <ele>3069.100</ele>
        <time>2021-05-10T19:11:04Z</time>
        <name>WPT.1677</name>
      </trkpt>
      <trkpt lat="35.229504770" lon="-107.614225950">
        <ele>3068.400</ele>
        <time>2021-05-10T19:11:08Z</time>
        <name>WPT.1678</name>
      </trkpt>
      <trkpt lat="35.229490060" lon="-107.614273670">
        <ele>3067.800</ele>
        <time>2021-05-10T19:11:13Z</time>
        <name>WPT.1679</name>
      </trkpt>
      <trkpt lat="35.229474240" lon="-107.614315020">
        <ele>3067.000</ele>
        <time>2021-05-10T19:11:18Z</time>
        <name>WPT.1680</name>
      </trkpt>
      <trkpt lat="35.229483350" lon="-107.614368390">
        <ele>3067.300</ele>
        <time>2021-05-10T19:11:23Z</time>
        <name>WPT.1681</name>
      </trkpt>
      <trkpt lat="35.229496410" lon="-107.614417060">
        <ele>3066.400</ele>
        <time>2021-05-10T19:11:27Z</time>
        <name>WPT.1682</name>
      </trkpt>
      <trkpt lat="35.229494060" lon="-107.614464540">
        <ele>3065.800</ele>
        <time>2021-05-10T19:11:39Z</time>
        <name>WPT.1683</name>
      </trkpt>
      <trkpt lat="35.229488560" lon="-107.614515460">
        <ele>3064.900</ele>
        <time>2021-05-10T19:11:51Z</time>
        <name>WPT.1684</name>
      </trkpt>
      <trkpt lat="35.229489220" lon="-107.614560480">
        <ele>3065.000</ele>
        <time>2021-05-10T19:11:55Z</time>
        <name>WPT.1685</name>
      </trkpt>
      <trkpt lat="35.229467080" lon="-107.614607930">
        <ele>3066.200</ele>
        <time>2021-05-10T19:12:00Z</time>
        <name>WPT.1686</name>
      </trkpt>
      <trkpt lat="35.229459640" lon="-107.614655810">
        <ele>3065.800</ele>
        <time>2021-05-10T19:12:35Z</time>
        <name>WPT.1687</name>
      </trkpt>
      <trkpt lat="35.229441970" lon="-107.614694690">
        <ele>3066.300</ele>
        <time>2021-05-10T19:12:43Z</time>
        <name>WPT.1688</name>
      </trkpt>
      <trkpt lat="35.229413080" lon="-107.614725510">
        <ele>3067.000</ele>
        <time>2021-05-10T19:12:47Z</time>
        <name>WPT.1689</name>
      </trkpt>
      <trkpt lat="35.229386120" lon="-107.614763480">
        <ele>3066.800</ele>
        <time>2021-05-10T19:12:51Z</time>
        <name>WPT.1690</name>
      </trkpt>
      <trkpt lat="35.229366360" lon="-107.614802170">
        <ele>3066.400</ele>
        <time>2021-05-10T19:12:57Z</time>
        <name>WPT.1691</name>
      </trkpt>
      <trkpt lat="35.229342280" lon="-107.614846300">
        <ele>3067.200</ele>
        <time>2021-05-10T19:13:04Z</time>
        <name>WPT.1692</name>
      </trkpt>
      <trkpt lat="35.229338150" lon="-107.614897770">
        <ele>3065.100</ele>
        <time>2021-05-10T19:13:12Z</time>
        <name>WPT.1693</name>
      </trkpt>
      <trkpt lat="35.229314940" lon="-107.614932570">
        <ele>3063.800</ele>
        <time>2021-05-10T19:13:16Z</time>
        <name>WPT.1694</name>
      </trkpt>
      <trkpt lat="35.229300560" lon="-107.614982550">
        <ele>3063.100</ele>
        <time>2021-05-10T19:13:26Z</time>
        <name>WPT.1695</name>
      </trkpt>
      <trkpt lat="35.229294180" lon="-107.615034400">
        <ele>3063.100</ele>
        <time>2021-05-10T19:13:31Z</time>
        <name>WPT.1696</name>
      </trkpt>
      <trkpt lat="35.229268680" lon="-107.615077870">
        <ele>3063.000</ele>
        <time>2021-05-10T19:13:36Z</time>
        <name>WPT.1697</name>
      </trkpt>
      <trkpt lat="35.229257090" lon="-107.615130260">
        <ele>3061.900</ele>
        <time>2021-05-10T19:13:42Z</time>
        <name>WPT.1698</name>
      </trkpt>
      <trkpt lat="35.229249470" lon="-107.615178740">
        <ele>3060.000</ele>
        <time>2021-05-10T19:13:47Z</time>
        <name>WPT.1699</name>
      </trkpt>
      <trkpt lat="35.229242560" lon="-107.615226410">
        <ele>3058.000</ele>
        <time>2021-05-10T19:13:52Z</time>
        <name>WPT.1700</name>
      </trkpt>
      <trkpt lat="35.229249520" lon="-107.615281710">
        <ele>3058.200</ele>
        <time>2021-05-10T19:13:57Z</time>
        <name>WPT.1701</name>
      </trkpt>
      <trkpt lat="35.229238530" lon="-107.615332370">
        <ele>3057.700</ele>
        <time>2021-05-10T19:14:01Z</time>
        <name>WPT.1702</name>
      </trkpt>
      <trkpt lat="35.229229480" lon="-107.615383890">
        <ele>3058.000</ele>
        <time>2021-05-10T19:14:05Z</time>
        <name>WPT.1703</name>
      </trkpt>
      <trkpt lat="35.229219050" lon="-107.615427930">
        <ele>3057.400</ele>
        <time>2021-05-10T19:14:09Z</time>
        <name>WPT.1704</name>
      </trkpt>
      <trkpt lat="35.229190180" lon="-107.615455010">
        <ele>3057.400</ele>
        <time>2021-05-10T19:14:14Z</time>
        <name>WPT.1705</name>
      </trkpt>
      <trkpt lat="35.229180870" lon="-107.615503660">
        <ele>3057.700</ele>
        <time>2021-05-10T19:14:19Z</time>
        <name>WPT.1706</name>
      </trkpt>
      <trkpt lat="35.229170870" lon="-107.615556990">
        <ele>3056.500</ele>
        <time>2021-05-10T19:14:24Z</time>
        <name>WPT.1707</name>
      </trkpt>
      <trkpt lat="35.229152050" lon="-107.615596530">
        <ele>3054.000</ele>
        <time>2021-05-10T19:14:28Z</time>
        <name>WPT.1708</name>
      </trkpt>
      <trkpt lat="35.229141910" lon="-107.615640000">
        <ele>3055.300</ele>
        <time>2021-05-10T19:14:32Z</time>
        <name>WPT.1709</name>
      </trkpt>
      <trkpt lat="35.229124260" lon="-107.615678530">
        <ele>3054.900</ele>
        <time>2021-05-10T19:14:37Z</time>
        <name>WPT.1710</name>
      </trkpt>
      <trkpt lat="35.229100010" lon="-107.615720630">
        <ele>3053.700</ele>
        <time>2021-05-10T19:14:43Z</time>
        <name>WPT.1711</name>
      </trkpt>
      <trkpt lat="35.229079270" lon="-107.615760840">
        <ele>3054.000</ele>
        <time>2021-05-10T19:15:05Z</time>
        <name>WPT.1712</name>
      </trkpt>
      <trkpt lat="35.229056610" lon="-107.615796430">
        <ele>3055.300</ele>
        <time>2021-05-10T19:15:09Z</time>
        <name>WPT.1713</name>
      </trkpt>
      <trkpt lat="35.229036890" lon="-107.615844720">
        <ele>3053.500</ele>
        <time>2021-05-10T19:15:14Z</time>
        <name>WPT.1714</name>
      </trkpt>
      <trkpt lat="35.229015500" lon="-107.615889570">
        <ele>3051.200</ele>
        <time>2021-05-10T19:15:18Z</time>
        <name>WPT.1715</name>
      </trkpt>
      <trkpt lat="35.229008090" lon="-107.615939590">
        <ele>3050.100</ele>
        <time>2021-05-10T19:15:24Z</time>
        <name>WPT.1716</name>
      </trkpt>
      <trkpt lat="35.228994990" lon="-107.615984290">
        <ele>3047.100</ele>
        <time>2021-05-10T19:15:28Z</time>
        <name>WPT.1717</name>
      </trkpt>
      <trkpt lat="35.228965070" lon="-107.616017450">
        <ele>3046.800</ele>
        <time>2021-05-10T19:15:32Z</time>
        <name>WPT.1718</name>
      </trkpt>
      <trkpt lat="35.228932610" lon="-107.616038940">
        <ele>3046.100</ele>
        <time>2021-05-10T19:15:36Z</time>
        <name>WPT.1719</name>
      </trkpt>
      <trkpt lat="35.228907740" lon="-107.616079540">
        <ele>3045.500</ele>
        <time>2021-05-10T19:15:42Z</time>
        <name>WPT.1720</name>
      </trkpt>
      <trkpt lat="35.228872680" lon="-107.616112040">
        <ele>3045.500</ele>
        <time>2021-05-10T19:15:46Z</time>
        <name>WPT.1721</name>
      </trkpt>
      <trkpt lat="35.228844520" lon="-107.616155490">
        <ele>3045.200</ele>
        <time>2021-05-10T19:15:50Z</time>
        <name>WPT.1722</name>
      </trkpt>
      <trkpt lat="35.228812530" lon="-107.616186890">
        <ele>3044.700</ele>
        <time>2021-05-10T19:15:54Z</time>
        <name>WPT.1723</name>
      </trkpt>
      <trkpt lat="35.228773920" lon="-107.616210730">
        <ele>3044.100</ele>
        <time>2021-05-10T19:15:58Z</time>
        <name>WPT.1724</name>
      </trkpt>
      <trkpt lat="35.228753560" lon="-107.616248870">
        <ele>3043.800</ele>
        <time>2021-05-10T19:16:02Z</time>
        <name>WPT.1725</name>
      </trkpt>
      <trkpt lat="35.228736910" lon="-107.616291140">
        <ele>3042.400</ele>
        <time>2021-05-10T19:16:06Z</time>
        <name>WPT.1726</name>
      </trkpt>
      <trkpt lat="35.228709600" lon="-107.616322380">
        <ele>3041.600</ele>
        <time>2021-05-10T19:16:11Z</time>
        <name>WPT.1727</name>
      </trkpt>
      <trkpt lat="35.228715500" lon="-107.616371440">
        <ele>3037.600</ele>
        <time>2021-05-10T19:16:35Z</time>
        <name>WPT.1728</name>
      </trkpt>
      <trkpt lat="35.228701680" lon="-107.616416000">
        <ele>3039.100</ele>
        <time>2021-05-10T19:16:45Z</time>
        <name>WPT.1729</name>
      </trkpt>
      <trkpt lat="35.228675050" lon="-107.616454340">
        <ele>3038.900</ele>
        <time>2021-05-10T19:16:50Z</time>
        <name>WPT.1730</name>
      </trkpt>
      <trkpt lat="35.228637250" lon="-107.616451620">
        <ele>3038.200</ele>
        <time>2021-05-10T19:16:59Z</time>
        <name>WPT.1731</name>
      </trkpt>
      <trkpt lat="35.228595020" lon="-107.616455430">
        <ele>3037.400</ele>
        <time>2021-05-10T19:17:04Z</time>
        <name>WPT.1732</name>
      </trkpt>
      <trkpt lat="35.228555580" lon="-107.616453530">
        <ele>3036.900</ele>
        <time>2021-05-10T19:18:15Z</time>
        <name>WPT.1733</name>
      </trkpt>
      <trkpt lat="35.228515490" lon="-107.616460210">
        <ele>3037.700</ele>
        <time>2021-05-10T19:18:41Z</time>
        <name>WPT.1734</name>
      </trkpt>
      <trkpt lat="35.228484400" lon="-107.616490240">
        <ele>3038.100</ele>
        <time>2021-05-10T19:18:46Z</time>
        <name>WPT.1735</name>
      </trkpt>
      <trkpt lat="35.228444030" lon="-107.616489270">
        <ele>3036.600</ele>
        <time>2021-05-10T19:18:51Z</time>
        <name>WPT.1736</name>
      </trkpt>
      <trkpt lat="35.228414160" lon="-107.616518300">
        <ele>3035.800</ele>
        <time>2021-05-10T19:18:56Z</time>
        <name>WPT.1737</name>
      </trkpt>
      <trkpt lat="35.228380300" lon="-107.616542710">
        <ele>3034.100</ele>
        <time>2021-05-10T19:19:01Z</time>
        <name>WPT.1738</name>
      </trkpt>
      <trkpt lat="35.228346260" lon="-107.616574050">
        <ele>3033.000</ele>
        <time>2021-05-10T19:19:07Z</time>
        <name>WPT.1739</name>
      </trkpt>
      <trkpt lat="35.228315130" lon="-107.616603980">
        <ele>3035.200</ele>
        <time>2021-05-10T19:19:12Z</time>
        <name>WPT.1740</name>
      </trkpt>
      <trkpt lat="35.228289830" lon="-107.616641690">
        <ele>3034.800</ele>
        <time>2021-05-10T19:19:16Z</time>
        <name>WPT.1741</name>
      </trkpt>
      <trkpt lat="35.228269200" lon="-107.616688130">
        <ele>3035.600</ele>
        <time>2021-05-10T19:19:21Z</time>
        <name>WPT.1742</name>
      </trkpt>
      <trkpt lat="35.228244960" lon="-107.616727470">
        <ele>3035.400</ele>
        <time>2021-05-10T19:19:26Z</time>
        <name>WPT.1743</name>
      </trkpt>
      <trkpt lat="35.228211980" lon="-107.616764960">
        <ele>3034.500</ele>
        <time>2021-05-10T19:19:31Z</time>
        <name>WPT.1744</name>
      </trkpt>
      <trkpt lat="35.228180270" lon="-107.616791360">
        <ele>3034.600</ele>
        <time>2021-05-10T19:19:36Z</time>
        <name>WPT.1745</name>
      </trkpt>
      <trkpt lat="35.228156350" lon="-107.616827810">
        <ele>3033.500</ele>
        <time>2021-05-10T19:19:42Z</time>
        <name>WPT.1746</name>
      </trkpt>
      <trkpt lat="35.228129130" lon="-107.616860980">
        <ele>3032.500</ele>
        <time>2021-05-10T19:19:48Z</time>
        <name>WPT.1747</name>
      </trkpt>
      <trkpt lat="35.228089040" lon="-107.616879300">
        <ele>3030.900</ele>
        <time>2021-05-10T19:19:55Z</time>
        <name>WPT.1748</name>
      </trkpt>
      <trkpt lat="35.228066620" lon="-107.616914180">
        <ele>3031.700</ele>
        <time>2021-05-10T19:20:01Z</time>
        <name>WPT.1749</name>
      </trkpt>
      <trkpt lat="35.228052820" lon="-107.616961450">
        <ele>3030.200</ele>
        <time>2021-05-10T19:20:07Z</time>
        <name>WPT.1750</name>
      </trkpt>
      <trkpt lat="35.228030350" lon="-107.616997140">
        <ele>3029.600</ele>
        <time>2021-05-10T19:20:12Z</time>
        <name>WPT.1751</name>
      </trkpt>
      <trkpt lat="35.227994990" lon="-107.617025840">
        <ele>3028.400</ele>
        <time>2021-05-10T19:20:17Z</time>
        <name>WPT.1752</name>
      </trkpt>
      <trkpt lat="35.227969690" lon="-107.617067540">
        <ele>3028.000</ele>
        <time>2021-05-10T19:20:21Z</time>
        <name>WPT.1753</name>
      </trkpt>
      <trkpt lat="35.227965780" lon="-107.617116290">
        <ele>3028.100</ele>
        <time>2021-05-10T19:20:24Z</time>
        <name>WPT.1754</name>
      </trkpt>
      <trkpt lat="35.227969850" lon="-107.617160200">
        <ele>3029.600</ele>
        <time>2021-05-10T19:20:27Z</time>
        <name>WPT.1755</name>
      </trkpt>
      <trkpt lat="35.227956190" lon="-107.617208480">
        <ele>3030.300</ele>
        <time>2021-05-10T19:20:32Z</time>
        <name>WPT.1756</name>
      </trkpt>
      <trkpt lat="35.227931050" lon="-107.617241060">
        <ele>3028.600</ele>
        <time>2021-05-10T19:20:37Z</time>
        <name>WPT.1757</name>
      </trkpt>
      <trkpt lat="35.227893840" lon="-107.617259440">
        <ele>3029.600</ele>
        <time>2021-05-10T19:20:42Z</time>
        <name>WPT.1758</name>
      </trkpt>
      <trkpt lat="35.227893500" lon="-107.617315260">
        <ele>3029.700</ele>
        <time>2021-05-10T19:20:47Z</time>
        <name>WPT.1759</name>
      </trkpt>
      <trkpt lat="35.227871150" lon="-107.617360270">
        <ele>3026.800</ele>
        <time>2021-05-10T19:20:54Z</time>
        <name>WPT.1760</name>
      </trkpt>
      <trkpt lat="35.227873660" lon="-107.617411110">
        <ele>3025.700</ele>
        <time>2021-05-10T19:21:00Z</time>
        <name>WPT.1761</name>
      </trkpt>
      <trkpt lat="35.227857790" lon="-107.617453610">
        <ele>3024.900</ele>
        <time>2021-05-10T19:21:07Z</time>
        <name>WPT.1762</name>
      </trkpt>
      <trkpt lat="35.227845080" lon="-107.617500350">
        <ele>3025.700</ele>
        <time>2021-05-10T19:21:13Z</time>
        <name>WPT.1763</name>
      </trkpt>
      <trkpt lat="35.227850000" lon="-107.617543950">
        <ele>3024.300</ele>
        <time>2021-05-10T19:21:17Z</time>
        <name>WPT.1764</name>
      </trkpt>
      <trkpt lat="35.227820920" lon="-107.617573310">
        <ele>3022.000</ele>
        <time>2021-05-10T19:21:21Z</time>
        <name>WPT.1765</name>
      </trkpt>
      <trkpt lat="35.227799810" lon="-107.617610340">
        <ele>3022.600</ele>
        <time>2021-05-10T19:21:28Z</time>
        <name>WPT.1766</name>
      </trkpt>
      <trkpt lat="35.227764620" lon="-107.617637430">
        <ele>3024.000</ele>
        <time>2021-05-10T19:21:33Z</time>
        <name>WPT.1767</name>
      </trkpt>
      <trkpt lat="35.227752010" lon="-107.617679000">
        <ele>3025.900</ele>
        <time>2021-05-10T19:21:37Z</time>
        <name>WPT.1768</name>
      </trkpt>
      <trkpt lat="35.227730680" lon="-107.617716190">
        <ele>3027.700</ele>
        <time>2021-05-10T19:21:45Z</time>
        <name>WPT.1769</name>
      </trkpt>
      <trkpt lat="35.227697880" lon="-107.617742270">
        <ele>3028.700</ele>
        <time>2021-05-10T19:21:50Z</time>
        <name>WPT.1770</name>
      </trkpt>
      <trkpt lat="35.227685420" lon="-107.617793780">
        <ele>3029.700</ele>
        <time>2021-05-10T19:21:55Z</time>
        <name>WPT.1771</name>
      </trkpt>
      <trkpt lat="35.227652520" lon="-107.617820030">
        <ele>3029.000</ele>
        <time>2021-05-10T19:22:00Z</time>
        <name>WPT.1772</name>
      </trkpt>
      <trkpt lat="35.227635240" lon="-107.617859300">
        <ele>3029.200</ele>
        <time>2021-05-10T19:22:04Z</time>
        <name>WPT.1773</name>
      </trkpt>
      <trkpt lat="35.227602480" lon="-107.617890670">
        <ele>3028.400</ele>
        <time>2021-05-10T19:22:08Z</time>
        <name>WPT.1774</name>
      </trkpt>
      <trkpt lat="35.227571280" lon="-107.617918030">
        <ele>3028.300</ele>
        <time>2021-05-10T19:22:13Z</time>
        <name>WPT.1775</name>
      </trkpt>
      <trkpt lat="35.227554800" lon="-107.617959530">
        <ele>3028.100</ele>
        <time>2021-05-10T19:22:18Z</time>
        <name>WPT.1776</name>
      </trkpt>
      <trkpt lat="35.227542220" lon="-107.618005380">
        <ele>3026.500</ele>
        <time>2021-05-10T19:22:21Z</time>
        <name>WPT.1777</name>
      </trkpt>
      <trkpt lat="35.227517860" lon="-107.618045710">
        <ele>3030.000</ele>
        <time>2021-05-10T19:22:26Z</time>
        <name>WPT.1778</name>
      </trkpt>
      <trkpt lat="35.227485290" lon="-107.618074890">
        <ele>3030.200</ele>
        <time>2021-05-10T19:22:35Z</time>
        <name>WPT.1779</name>
      </trkpt>
      <trkpt lat="35.227458320" lon="-107.618114500">
        <ele>3030.200</ele>
        <time>2021-05-10T19:22:41Z</time>
        <name>WPT.1780</name>
      </trkpt>
      <trkpt lat="35.227426970" lon="-107.618146530">
        <ele>3029.800</ele>
        <time>2021-05-10T19:22:47Z</time>
        <name>WPT.1781</name>
      </trkpt>
      <trkpt lat="35.227395880" lon="-107.618181030">
        <ele>3029.600</ele>
        <time>2021-05-10T19:22:51Z</time>
        <name>WPT.1782</name>
      </trkpt>
      <trkpt lat="35.227391790" lon="-107.618226650">
        <ele>3031.600</ele>
        <time>2021-05-10T19:22:56Z</time>
        <name>WPT.1783</name>
      </trkpt>
      <trkpt lat="35.227390510" lon="-107.618277130">
        <ele>3027.600</ele>
        <time>2021-05-10T19:23:06Z</time>
        <name>WPT.1784</name>
      </trkpt>
      <trkpt lat="35.227382730" lon="-107.618326740">
        <ele>3027.700</ele>
        <time>2021-05-10T19:23:12Z</time>
        <name>WPT.1785</name>
      </trkpt>
      <trkpt lat="35.227370520" lon="-107.618384760">
        <ele>3028.100</ele>
        <time>2021-05-10T19:23:17Z</time>
        <name>WPT.1786</name>
      </trkpt>
      <trkpt lat="35.227356270" lon="-107.618432130">
        <ele>3029.100</ele>
        <time>2021-05-10T19:23:22Z</time>
        <name>WPT.1787</name>
      </trkpt>
      <trkpt lat="35.227348840" lon="-107.618479490">
        <ele>3023.300</ele>
        <time>2021-05-10T19:23:27Z</time>
        <name>WPT.1788</name>
      </trkpt>
      <trkpt lat="35.227336530" lon="-107.618525680">
        <ele>3022.300</ele>
        <time>2021-05-10T19:23:32Z</time>
        <name>WPT.1789</name>
      </trkpt>
      <trkpt lat="35.227301150" lon="-107.618537580">
        <ele>3018.400</ele>
        <time>2021-05-10T19:23:38Z</time>
        <name>WPT.1790</name>
      </trkpt>
      <trkpt lat="35.227260260" lon="-107.618550660">
        <ele>3018.300</ele>
        <time>2021-05-10T19:23:45Z</time>
        <name>WPT.1791</name>
      </trkpt>
      <trkpt lat="35.227223840" lon="-107.618556110">
        <ele>3016.300</ele>
        <time>2021-05-10T19:23:50Z</time>
        <name>WPT.1792</name>
      </trkpt>
      <trkpt lat="35.227202870" lon="-107.618603770">
        <ele>3018.500</ele>
        <time>2021-05-10T19:23:55Z</time>
        <name>WPT.1793</name>
      </trkpt>
      <trkpt lat="35.227186770" lon="-107.618649250">
        <ele>3017.800</ele>
        <time>2021-05-10T19:23:59Z</time>
        <name>WPT.1794</name>
      </trkpt>
      <trkpt lat="35.227189310" lon="-107.618694860">
        <ele>3019.000</ele>
        <time>2021-05-10T19:24:03Z</time>
        <name>WPT.1795</name>
      </trkpt>
      <trkpt lat="35.227185270" lon="-107.618743480">
        <ele>3019.300</ele>
        <time>2021-05-10T19:24:07Z</time>
        <name>WPT.1796</name>
      </trkpt>
      <trkpt lat="35.227179360" lon="-107.618791300">
        <ele>3018.400</ele>
        <time>2021-05-10T19:24:11Z</time>
        <name>WPT.1797</name>
      </trkpt>
      <trkpt lat="35.227151220" lon="-107.618824210">
        <ele>3016.900</ele>
        <time>2021-05-10T19:24:15Z</time>
        <name>WPT.1798</name>
      </trkpt>
      <trkpt lat="35.227119850" lon="-107.618859980">
        <ele>3017.100</ele>
        <time>2021-05-10T19:24:19Z</time>
        <name>WPT.1799</name>
      </trkpt>
      <trkpt lat="35.227094280" lon="-107.618902780">
        <ele>3013.900</ele>
        <time>2021-05-10T19:24:25Z</time>
        <name>WPT.1800</name>
      </trkpt>
      <trkpt lat="35.227066290" lon="-107.618937330">
        <ele>3011.200</ele>
        <time>2021-05-10T19:24:30Z</time>
        <name>WPT.1801</name>
      </trkpt>
      <trkpt lat="35.227037310" lon="-107.618984360">
        <ele>3011.900</ele>
        <time>2021-05-10T19:24:35Z</time>
        <name>WPT.1802</name>
      </trkpt>
      <trkpt lat="35.227019040" lon="-107.619024240">
        <ele>3008.200</ele>
        <time>2021-05-10T19:24:39Z</time>
        <name>WPT.1803</name>
      </trkpt>
      <trkpt lat="35.226989140" lon="-107.619066390">
        <ele>3009.300</ele>
        <time>2021-05-10T19:24:45Z</time>
        <name>WPT.1804</name>
      </trkpt>
      <trkpt lat="35.226980510" lon="-107.619113560">
        <ele>3010.500</ele>
        <time>2021-05-10T19:24:49Z</time>
        <name>WPT.1805</name>
      </trkpt>
      <trkpt lat="35.226962820" lon="-107.619152210">
        <ele>3009.300</ele>
        <time>2021-05-10T19:24:55Z</time>
        <name>WPT.1806</name>
      </trkpt>
      <trkpt lat="35.226975650" lon="-107.619196210">
        <ele>3006.900</ele>
        <time>2021-05-10T19:25:02Z</time>
        <name>WPT.1807</name>
      </trkpt>
      <trkpt lat="35.226984580" lon="-107.619244610">
        <ele>3002.800</ele>
        <time>2021-05-10T19:25:16Z</time>
        <name>WPT.1808</name>
      </trkpt>
      <trkpt lat="35.227017630" lon="-107.619266520">
        <ele>2997.900</ele>
        <time>2021-05-10T19:25:45Z</time>
        <name>WPT.1809</name>
      </trkpt>
      <trkpt lat="35.226990860" lon="-107.619303440">
        <ele>2997.400</ele>
        <time>2021-05-10T19:26:30Z</time>
        <name>WPT.1810</name>
      </trkpt>
      <trkpt lat="35.226977780" lon="-107.619347160">
        <ele>2999.300</ele>
        <time>2021-05-10T19:26:35Z</time>
        <name>WPT.1811</name>
      </trkpt>
      <trkpt lat="35.226993650" lon="-107.619391890">
        <ele>2999.200</ele>
        <time>2021-05-10T19:26:50Z</time>
        <name>WPT.1812</name>
      </trkpt>
      <trkpt lat="35.226982460" lon="-107.619437720">
        <ele>3000.300</ele>
        <time>2021-05-10T19:27:08Z</time>
        <name>WPT.1813</name>
      </trkpt>
      <trkpt lat="35.226963020" lon="-107.619478480">
        <ele>3002.500</ele>
        <time>2021-05-10T19:27:23Z</time>
        <name>WPT.1814</name>
      </trkpt>
      <trkpt lat="35.226971550" lon="-107.619527540">
        <ele>3002.000</ele>
        <time>2021-05-10T19:27:29Z</time>
        <name>WPT.1815</name>
      </trkpt>
      <trkpt lat="35.226985580" lon="-107.619569750">
        <ele>3000.700</ele>
        <time>2021-05-10T19:27:34Z</time>
        <name>WPT.1816</name>
      </trkpt>
      <trkpt lat="35.227010200" lon="-107.619610990">
        <ele>2997.000</ele>
        <time>2021-05-10T19:27:40Z</time>
        <name>WPT.1817</name>
      </trkpt>
      <trkpt lat="35.226997910" lon="-107.619660360">
        <ele>2996.700</ele>
        <time>2021-05-10T19:27:45Z</time>
        <name>WPT.1818</name>
      </trkpt>
      <trkpt lat="35.226989290" lon="-107.619704690">
        <ele>2995.600</ele>
        <time>2021-05-10T19:27:49Z</time>
        <name>WPT.1819</name>
      </trkpt>
      <trkpt lat="35.226988210" lon="-107.619752720">
        <ele>2994.200</ele>
        <time>2021-05-10T19:27:55Z</time>
        <name>WPT.1820</name>
      </trkpt>
      <trkpt lat="35.227014880" lon="-107.619787210">
        <ele>2990.600</ele>
        <time>2021-05-10T19:27:59Z</time>
        <name>WPT.1821</name>
      </trkpt>
      <trkpt lat="35.227034100" lon="-107.619825390">
        <ele>2987.800</ele>
        <time>2021-05-10T19:28:13Z</time>
        <name>WPT.1822</name>
      </trkpt>
      <trkpt lat="35.227018090" lon="-107.619870240">
        <ele>2987.100</ele>
        <time>2021-05-10T19:28:18Z</time>
        <name>WPT.1823</name>
      </trkpt>
      <trkpt lat="35.227014390" lon="-107.619919540">
        <ele>2986.800</ele>
        <time>2021-05-10T19:28:23Z</time>
        <name>WPT.1824</name>
      </trkpt>
      <trkpt lat="35.227040860" lon="-107.619952110">
        <ele>2986.600</ele>
        <time>2021-05-10T19:28:31Z</time>
        <name>WPT.1825</name>
      </trkpt>
      <trkpt lat="35.227040790" lon="-107.620001010">
        <ele>2985.800</ele>
        <time>2021-05-10T19:28:38Z</time>
        <name>WPT.1826</name>
      </trkpt>
      <trkpt lat="35.227044040" lon="-107.620050410">
        <ele>2983.800</ele>
        <time>2021-05-10T19:28:43Z</time>
        <name>WPT.1827</name>
      </trkpt>
      <trkpt lat="35.227051490" lon="-107.620095290">
        <ele>2984.400</ele>
        <time>2021-05-10T19:28:47Z</time>
        <name>WPT.1828</name>
      </trkpt>
      <trkpt lat="35.227052480" lon="-107.620140770">
        <ele>2987.100</ele>
        <time>2021-05-10T19:29:02Z</time>
        <name>WPT.1829</name>
      </trkpt>
      <trkpt lat="35.227051770" lon="-107.620196520">
        <ele>2986.000</ele>
        <time>2021-05-10T19:29:07Z</time>
        <name>WPT.1830</name>
      </trkpt>
      <trkpt lat="35.227034240" lon="-107.620238590">
        <ele>2986.200</ele>
        <time>2021-05-10T19:29:13Z</time>
        <name>WPT.1831</name>
      </trkpt>
      <trkpt lat="35.227024150" lon="-107.620282840">
        <ele>2984.900</ele>
        <time>2021-05-10T19:29:20Z</time>
        <name>WPT.1832</name>
      </trkpt>
      <trkpt lat="35.227009340" lon="-107.620328290">
        <ele>2986.500</ele>
        <time>2021-05-10T19:29:26Z</time>
        <name>WPT.1833</name>
      </trkpt>
      <trkpt lat="35.227005650" lon="-107.620380050">
        <ele>2986.300</ele>
        <time>2021-05-10T19:29:39Z</time>
        <name>WPT.1834</name>
      </trkpt>
      <trkpt lat="35.226998190" lon="-107.620426380">
        <ele>2988.000</ele>
        <time>2021-05-10T19:29:43Z</time>
        <name>WPT.1835</name>
      </trkpt>
      <trkpt lat="35.226994130" lon="-107.620479460">
        <ele>2990.500</ele>
        <time>2021-05-10T19:29:49Z</time>
        <name>WPT.1836</name>
      </trkpt>
      <trkpt lat="35.226998030" lon="-107.620528960">
        <ele>2987.300</ele>
        <time>2021-05-10T19:30:28Z</time>
        <name>WPT.1837</name>
      </trkpt>
      <trkpt lat="35.226982410" lon="-107.620573870">
        <ele>2986.100</ele>
        <time>2021-05-10T19:30:33Z</time>
        <name>WPT.1838</name>
      </trkpt>
      <trkpt lat="35.226969810" lon="-107.620615760">
        <ele>2984.200</ele>
        <time>2021-05-10T19:30:37Z</time>
        <name>WPT.1839</name>
      </trkpt>
      <trkpt lat="35.226963040" lon="-107.620669580">
        <ele>2986.000</ele>
        <time>2021-05-10T19:30:43Z</time>
        <name>WPT.1840</name>
      </trkpt>
      <trkpt lat="35.226945680" lon="-107.620718510">
        <ele>2986.600</ele>
        <time>2021-05-10T19:30:47Z</time>
        <name>WPT.1841</name>
      </trkpt>
      <trkpt lat="35.226933260" lon="-107.620764700">
        <ele>2986.900</ele>
        <time>2021-05-10T19:30:51Z</time>
        <name>WPT.1842</name>
      </trkpt>
      <trkpt lat="35.226917390" lon="-107.620814390">
        <ele>2987.900</ele>
        <time>2021-05-10T19:30:59Z</time>
        <name>WPT.1843</name>
      </trkpt>
      <trkpt lat="35.226918630" lon="-107.620861020">
        <ele>2988.800</ele>
        <time>2021-05-10T19:31:03Z</time>
        <name>WPT.1844</name>
      </trkpt>
      <trkpt lat="35.226932050" lon="-107.620904680">
        <ele>2987.900</ele>
        <time>2021-05-10T19:31:09Z</time>
        <name>WPT.1845</name>
      </trkpt>
      <trkpt lat="35.226920050" lon="-107.620953760">
        <ele>2987.700</ele>
        <time>2021-05-10T19:31:17Z</time>
        <name>WPT.1846</name>
      </trkpt>
      <trkpt lat="35.226913990" lon="-107.621009590">
        <ele>2988.100</ele>
        <time>2021-05-10T19:31:22Z</time>
        <name>WPT.1847</name>
      </trkpt>
      <trkpt lat="35.226911560" lon="-107.621061580">
        <ele>2987.200</ele>
        <time>2021-05-10T19:31:27Z</time>
        <name>WPT.1848</name>
      </trkpt>
      <trkpt lat="35.226929690" lon="-107.621105780">
        <ele>2984.000</ele>
        <time>2021-05-10T19:31:36Z</time>
        <name>WPT.1849</name>
      </trkpt>
      <trkpt lat="35.226946060" lon="-107.621149620">
        <ele>2979.100</ele>
        <time>2021-05-10T19:31:56Z</time>
        <name>WPT.1850</name>
      </trkpt>
      <trkpt lat="35.226943450" lon="-107.621198660">
        <ele>2979.900</ele>
        <time>2021-05-10T19:32:03Z</time>
        <name>WPT.1851</name>
      </trkpt>
      <trkpt lat="35.226914600" lon="-107.621229210">
        <ele>2980.100</ele>
        <time>2021-05-10T19:32:09Z</time>
        <name>WPT.1852</name>
      </trkpt>
      <trkpt lat="35.226911960" lon="-107.621275140">
        <ele>2979.400</ele>
        <time>2021-05-10T19:32:13Z</time>
        <name>WPT.1853</name>
      </trkpt>
      <trkpt lat="35.226918350" lon="-107.621331590">
        <ele>2980.400</ele>
        <time>2021-05-10T19:32:17Z</time>
        <name>WPT.1854</name>
      </trkpt>
      <trkpt lat="35.226906120" lon="-107.621378410">
        <ele>2980.200</ele>
        <time>2021-05-10T19:32:21Z</time>
        <name>WPT.1855</name>
      </trkpt>
      <trkpt lat="35.226904920" lon="-107.621423990">
        <ele>2978.500</ele>
        <time>2021-05-10T19:32:25Z</time>
        <name>WPT.1856</name>
      </trkpt>
      <trkpt lat="35.226905640" lon="-107.621469430">
        <ele>2976.500</ele>
        <time>2021-05-10T19:32:36Z</time>
        <name>WPT.1857</name>
      </trkpt>
      <trkpt lat="35.226903530" lon="-107.621522310">
        <ele>2976.900</ele>
        <time>2021-05-10T19:32:41Z</time>
        <name>WPT.1858</name>
      </trkpt>
      <trkpt lat="35.226871250" lon="-107.621550790">
        <ele>2976.100</ele>
        <time>2021-05-10T19:32:45Z</time>
        <name>WPT.1859</name>
      </trkpt>
      <trkpt lat="35.226845930" lon="-107.621587470">
        <ele>2975.000</ele>
        <time>2021-05-10T19:32:49Z</time>
        <name>WPT.1860</name>
      </trkpt>
      <trkpt lat="35.226835000" lon="-107.621632590">
        <ele>2977.000</ele>
        <time>2021-05-10T19:32:53Z</time>
        <name>WPT.1861</name>
      </trkpt>
      <trkpt lat="35.226822680" lon="-107.621675510">
        <ele>2977.400</ele>
        <time>2021-05-10T19:32:58Z</time>
        <name>WPT.1862</name>
      </trkpt>
      <trkpt lat="35.226815070" lon="-107.621725640">
        <ele>2978.400</ele>
        <time>2021-05-10T19:33:03Z</time>
        <name>WPT.1863</name>
      </trkpt>
      <trkpt lat="35.226807120" lon="-107.621771350">
        <ele>2980.400</ele>
        <time>2021-05-10T19:33:08Z</time>
        <name>WPT.1864</name>
      </trkpt>
      <trkpt lat="35.226798270" lon="-107.621816650">
        <ele>2981.200</ele>
        <time>2021-05-10T19:33:12Z</time>
        <name>WPT.1865</name>
      </trkpt>
      <trkpt lat="35.226792520" lon="-107.621869630">
        <ele>2980.400</ele>
        <time>2021-05-10T19:33:17Z</time>
        <name>WPT.1866</name>
      </trkpt>
      <trkpt lat="35.226790110" lon="-107.621922990">
        <ele>2980.800</ele>
        <time>2021-05-10T19:33:22Z</time>
        <name>WPT.1867</name>
      </trkpt>
      <trkpt lat="35.226791670" lon="-107.621967280">
        <ele>2977.600</ele>
        <time>2021-05-10T19:33:26Z</time>
        <name>WPT.1868</name>
      </trkpt>
      <trkpt lat="35.226803550" lon="-107.622009770">
        <ele>2976.400</ele>
        <time>2021-05-10T19:33:33Z</time>
        <name>WPT.1869</name>
      </trkpt>
      <trkpt lat="35.226835070" lon="-107.622048720">
        <ele>2975.200</ele>
        <time>2021-05-10T19:33:41Z</time>
        <name>WPT.1870</name>
      </trkpt>
      <trkpt lat="35.226853440" lon="-107.622095300">
        <ele>2973.800</ele>
        <time>2021-05-10T19:33:46Z</time>
        <name>WPT.1871</name>
      </trkpt>
      <trkpt lat="35.226881140" lon="-107.622123730">
        <ele>2973.900</ele>
        <time>2021-05-10T19:33:57Z</time>
        <name>WPT.1872</name>
      </trkpt>
      <trkpt lat="35.226919880" lon="-107.622149150">
        <ele>2970.800</ele>
        <time>2021-05-10T19:34:13Z</time>
        <name>WPT.1873</name>
      </trkpt>
      <trkpt lat="35.226965060" lon="-107.622164890">
        <ele>2968.600</ele>
        <time>2021-05-10T19:34:18Z</time>
        <name>WPT.1874</name>
      </trkpt>
      <trkpt lat="35.227001340" lon="-107.622190690">
        <ele>2968.600</ele>
        <time>2021-05-10T19:34:23Z</time>
        <name>WPT.1875</name>
      </trkpt>
      <trkpt lat="35.227023010" lon="-107.622230830">
        <ele>2968.000</ele>
        <time>2021-05-10T19:34:28Z</time>
        <name>WPT.1876</name>
      </trkpt>
      <trkpt lat="35.227032760" lon="-107.622277570">
        <ele>2966.900</ele>
        <time>2021-05-10T19:34:34Z</time>
        <name>WPT.1877</name>
      </trkpt>
      <trkpt lat="35.227052830" lon="-107.622315510">
        <ele>2965.200</ele>
        <time>2021-05-10T19:34:39Z</time>
        <name>WPT.1878</name>
      </trkpt>
      <trkpt lat="35.227081240" lon="-107.622350940">
        <ele>2964.800</ele>
        <time>2021-05-10T19:34:43Z</time>
        <name>WPT.1879</name>
      </trkpt>
      <trkpt lat="35.227088450" lon="-107.622394210">
        <ele>2966.300</ele>
        <time>2021-05-10T19:34:47Z</time>
        <name>WPT.1880</name>
      </trkpt>
      <trkpt lat="35.227097950" lon="-107.622449430">
        <ele>2965.600</ele>
        <time>2021-05-10T19:34:51Z</time>
        <name>WPT.1881</name>
      </trkpt>
      <trkpt lat="35.227091500" lon="-107.622498760">
        <ele>2964.100</ele>
        <time>2021-05-10T19:34:55Z</time>
        <name>WPT.1882</name>
      </trkpt>
      <trkpt lat="35.227099100" lon="-107.622547210">
        <ele>2963.900</ele>
        <time>2021-05-10T19:34:59Z</time>
        <name>WPT.1883</name>
      </trkpt>
      <trkpt lat="35.227106060" lon="-107.622599760">
        <ele>2964.300</ele>
        <time>2021-05-10T19:35:03Z</time>
        <name>WPT.1884</name>
      </trkpt>
      <trkpt lat="35.227109140" lon="-107.622651000">
        <ele>2962.000</ele>
        <time>2021-05-10T19:35:07Z</time>
        <name>WPT.1885</name>
      </trkpt>
      <trkpt lat="35.227117070" lon="-107.622700530">
        <ele>2961.700</ele>
        <time>2021-05-10T19:35:11Z</time>
        <name>WPT.1886</name>
      </trkpt>
      <trkpt lat="35.227115840" lon="-107.622746930">
        <ele>2961.400</ele>
        <time>2021-05-10T19:35:15Z</time>
        <name>WPT.1887</name>
      </trkpt>
      <trkpt lat="35.227106700" lon="-107.622795110">
        <ele>2960.700</ele>
        <time>2021-05-10T19:35:19Z</time>
        <name>WPT.1888</name>
      </trkpt>
      <trkpt lat="35.227107960" lon="-107.622850710">
        <ele>2959.300</ele>
        <time>2021-05-10T19:35:24Z</time>
        <name>WPT.1889</name>
      </trkpt>
      <trkpt lat="35.227107560" lon="-107.622897800">
        <ele>2959.200</ele>
        <time>2021-05-10T19:35:28Z</time>
        <name>WPT.1890</name>
      </trkpt>
      <trkpt lat="35.227116260" lon="-107.622949210">
        <ele>2957.800</ele>
        <time>2021-05-10T19:35:32Z</time>
        <name>WPT.1891</name>
      </trkpt>
      <trkpt lat="35.227130600" lon="-107.622991170">
        <ele>2958.100</ele>
        <time>2021-05-10T19:35:36Z</time>
        <name>WPT.1892</name>
      </trkpt>
      <trkpt lat="35.227137920" lon="-107.623047500">
        <ele>2956.500</ele>
        <time>2021-05-10T19:35:41Z</time>
        <name>WPT.1893</name>
      </trkpt>
      <trkpt lat="35.227138170" lon="-107.623093600">
        <ele>2954.100</ele>
        <time>2021-05-10T19:35:45Z</time>
        <name>WPT.1894</name>
      </trkpt>
      <trkpt lat="35.227154300" lon="-107.623133700">
        <ele>2954.600</ele>
        <time>2021-05-10T19:35:49Z</time>
        <name>WPT.1895</name>
      </trkpt>
      <trkpt lat="35.227164970" lon="-107.623183110">
        <ele>2953.100</ele>
        <time>2021-05-10T19:35:53Z</time>
        <name>WPT.1896</name>
      </trkpt>
      <trkpt lat="35.227181660" lon="-107.623237470">
        <ele>2953.100</ele>
        <time>2021-05-10T19:35:57Z</time>
        <name>WPT.1897</name>
      </trkpt>
      <trkpt lat="35.227204960" lon="-107.623271230">
        <ele>2952.800</ele>
        <time>2021-05-10T19:36:00Z</time>
        <name>WPT.1898</name>
      </trkpt>
      <trkpt lat="35.227230370" lon="-107.623304340">
        <ele>2952.400</ele>
        <time>2021-05-10T19:36:07Z</time>
        <name>WPT.1899</name>
      </trkpt>
      <trkpt lat="35.227254420" lon="-107.623350830">
        <ele>2952.300</ele>
        <time>2021-05-10T19:36:12Z</time>
        <name>WPT.1900</name>
      </trkpt>
      <trkpt lat="35.227284500" lon="-107.623385490">
        <ele>2951.900</ele>
        <time>2021-05-10T19:36:16Z</time>
        <name>WPT.1901</name>
      </trkpt>
      <trkpt lat="35.227304610" lon="-107.623429170">
        <ele>2950.600</ele>
        <time>2021-05-10T19:36:21Z</time>
        <name>WPT.1902</name>
      </trkpt>
      <trkpt lat="35.227306130" lon="-107.623476210">
        <ele>2951.100</ele>
        <time>2021-05-10T19:36:25Z</time>
        <name>WPT.1903</name>
      </trkpt>
      <trkpt lat="35.227326870" lon="-107.623528280">
        <ele>2951.200</ele>
        <time>2021-05-10T19:36:30Z</time>
        <name>WPT.1904</name>
      </trkpt>
      <trkpt lat="35.227347840" lon="-107.623573850">
        <ele>2950.600</ele>
        <time>2021-05-10T19:36:34Z</time>
        <name>WPT.1905</name>
      </trkpt>
      <trkpt lat="35.227370860" lon="-107.623614280">
        <ele>2950.900</ele>
        <time>2021-05-10T19:36:38Z</time>
        <name>WPT.1906</name>
      </trkpt>
      <trkpt lat="35.227389790" lon="-107.623652360">
        <ele>2951.800</ele>
        <time>2021-05-10T19:36:42Z</time>
        <name>WPT.1907</name>
      </trkpt>
      <trkpt lat="35.227418440" lon="-107.623688150">
        <ele>2952.000</ele>
        <time>2021-05-10T19:36:46Z</time>
        <name>WPT.1908</name>
      </trkpt>
      <trkpt lat="35.227442470" lon="-107.623731950">
        <ele>2950.800</ele>
        <time>2021-05-10T19:36:51Z</time>
        <name>WPT.1909</name>
      </trkpt>
      <trkpt lat="35.227470960" lon="-107.623771720">
        <ele>2951.200</ele>
        <time>2021-05-10T19:36:56Z</time>
        <name>WPT.1910</name>
      </trkpt>
      <trkpt lat="35.227430030" lon="-107.623776820">
        <ele>2951.300</ele>
        <time>2021-05-10T19:38:15Z</time>
        <name>WPT.1911</name>
      </trkpt>
      <trkpt lat="35.227391100" lon="-107.623804510">
        <ele>2950.000</ele>
        <time>2021-05-10T19:38:21Z</time>
        <name>WPT.1912</name>
      </trkpt>
      <trkpt lat="35.227363020" lon="-107.623834830">
        <ele>2950.100</ele>
        <time>2021-05-10T19:38:26Z</time>
        <name>WPT.1913</name>
      </trkpt>
      <trkpt lat="35.227335790" lon="-107.623875060">
        <ele>2949.800</ele>
        <time>2021-05-10T19:38:51Z</time>
        <name>WPT.1914</name>
      </trkpt>
      <trkpt lat="35.227310000" lon="-107.623919110">
        <ele>2949.500</ele>
        <time>2021-05-10T19:38:55Z</time>
        <name>WPT.1915</name>
      </trkpt>
      <trkpt lat="35.227297650" lon="-107.623971580">
        <ele>2948.800</ele>
        <time>2021-05-10T19:38:59Z</time>
        <name>WPT.1916</name>
      </trkpt>
      <trkpt lat="35.227300210" lon="-107.624020390">
        <ele>2948.600</ele>
        <time>2021-05-10T19:39:03Z</time>
        <name>WPT.1917</name>
      </trkpt>
      <trkpt lat="35.227301080" lon="-107.624071490">
        <ele>2948.600</ele>
        <time>2021-05-10T19:39:07Z</time>
        <name>WPT.1918</name>
      </trkpt>
      <trkpt lat="35.227302450" lon="-107.624118960">
        <ele>2949.400</ele>
        <time>2021-05-10T19:39:11Z</time>
        <name>WPT.1919</name>
      </trkpt>
      <trkpt lat="35.227321560" lon="-107.624165680">
        <ele>2949.500</ele>
        <time>2021-05-10T19:39:15Z</time>
        <name>WPT.1920</name>
      </trkpt>
      <trkpt lat="35.227338140" lon="-107.624213440">
        <ele>2948.800</ele>
        <time>2021-05-10T19:39:19Z</time>
        <name>WPT.1921</name>
      </trkpt>
      <trkpt lat="35.227331650" lon="-107.624266800">
        <ele>2948.000</ele>
        <time>2021-05-10T19:39:23Z</time>
        <name>WPT.1922</name>
      </trkpt>
      <trkpt lat="35.227309780" lon="-107.624309800">
        <ele>2947.800</ele>
        <time>2021-05-10T19:39:27Z</time>
        <name>WPT.1923</name>
      </trkpt>
      <trkpt lat="35.227311140" lon="-107.624355670">
        <ele>2947.500</ele>
        <time>2021-05-10T19:39:33Z</time>
        <name>WPT.1924</name>
      </trkpt>
      <trkpt lat="35.227282210" lon="-107.624385850">
        <ele>2947.100</ele>
        <time>2021-05-10T19:39:40Z</time>
        <name>WPT.1925</name>
      </trkpt>
      <trkpt lat="35.227264490" lon="-107.624427290">
        <ele>2946.500</ele>
        <time>2021-05-10T19:39:44Z</time>
        <name>WPT.1926</name>
      </trkpt>
      <trkpt lat="35.227254370" lon="-107.624472230">
        <ele>2945.700</ele>
        <time>2021-05-10T19:39:48Z</time>
        <name>WPT.1927</name>
      </trkpt>
      <trkpt lat="35.227235850" lon="-107.624513710">
        <ele>2944.600</ele>
        <time>2021-05-10T19:39:52Z</time>
        <name>WPT.1928</name>
      </trkpt>
      <trkpt lat="35.227217340" lon="-107.624564290">
        <ele>2943.200</ele>
        <time>2021-05-10T19:39:57Z</time>
        <name>WPT.1929</name>
      </trkpt>
      <trkpt lat="35.227207710" lon="-107.624608530">
        <ele>2941.800</ele>
        <time>2021-05-10T19:40:01Z</time>
        <name>WPT.1930</name>
      </trkpt>
      <trkpt lat="35.227187930" lon="-107.624648230">
        <ele>2940.700</ele>
        <time>2021-05-10T19:40:05Z</time>
        <name>WPT.1931</name>
      </trkpt>
      <trkpt lat="35.227176930" lon="-107.624694310">
        <ele>2939.000</ele>
        <time>2021-05-10T19:40:09Z</time>
        <name>WPT.1932</name>
      </trkpt>
      <trkpt lat="35.227163990" lon="-107.624740630">
        <ele>2938.200</ele>
        <time>2021-05-10T19:40:13Z</time>
        <name>WPT.1933</name>
      </trkpt>
      <trkpt lat="35.227165720" lon="-107.624793030">
        <ele>2937.700</ele>
        <time>2021-05-10T19:40:17Z</time>
        <name>WPT.1934</name>
      </trkpt>
      <trkpt lat="35.227163230" lon="-107.624842310">
        <ele>2939.000</ele>
        <time>2021-05-10T19:40:21Z</time>
        <name>WPT.1935</name>
      </trkpt>
      <trkpt lat="35.227155430" lon="-107.624885290">
        <ele>2937.900</ele>
        <time>2021-05-10T19:40:25Z</time>
        <name>WPT.1936</name>
      </trkpt>
      <trkpt lat="35.227143190" lon="-107.624933550">
        <ele>2937.800</ele>
        <time>2021-05-10T19:40:30Z</time>
        <name>WPT.1937</name>
      </trkpt>
      <trkpt lat="35.227131300" lon="-107.624984820">
        <ele>2937.500</ele>
        <time>2021-05-10T19:40:35Z</time>
        <name>WPT.1938</name>
      </trkpt>
      <trkpt lat="35.227116720" lon="-107.625031380">
        <ele>2937.600</ele>
        <time>2021-05-10T19:40:39Z</time>
        <name>WPT.1939</name>
      </trkpt>
      <trkpt lat="35.227095750" lon="-107.625081880">
        <ele>2938.000</ele>
        <time>2021-05-10T19:40:44Z</time>
        <name>WPT.1940</name>
      </trkpt>
      <trkpt lat="35.227074900" lon="-107.625126400">
        <ele>2938.100</ele>
        <time>2021-05-10T19:40:49Z</time>
        <name>WPT.1941</name>
      </trkpt>
      <trkpt lat="35.227068220" lon="-107.625173300">
        <ele>2937.600</ele>
        <time>2021-05-10T19:40:53Z</time>
        <name>WPT.1942</name>
      </trkpt>
      <trkpt lat="35.227061970" lon="-107.625218490">
        <ele>2938.600</ele>
        <time>2021-05-10T19:40:57Z</time>
        <name>WPT.1943</name>
      </trkpt>
      <trkpt lat="35.227047520" lon="-107.625262980">
        <ele>2938.500</ele>
        <time>2021-05-10T19:41:01Z</time>
        <name>WPT.1944</name>
      </trkpt>
      <trkpt lat="35.227030240" lon="-107.625309470">
        <ele>2936.900</ele>
        <time>2021-05-10T19:41:06Z</time>
        <name>WPT.1945</name>
      </trkpt>
      <trkpt lat="35.227003360" lon="-107.625348170">
        <ele>2936.200</ele>
        <time>2021-05-10T19:41:11Z</time>
        <name>WPT.1946</name>
      </trkpt>
      <trkpt lat="35.226983210" lon="-107.625389920">
        <ele>2933.700</ele>
        <time>2021-05-10T19:41:15Z</time>
        <name>WPT.1947</name>
      </trkpt>
      <trkpt lat="35.226965630" lon="-107.625432760">
        <ele>2933.600</ele>
        <time>2021-05-10T19:41:19Z</time>
        <name>WPT.1948</name>
      </trkpt>
      <trkpt lat="35.226950480" lon="-107.625477350">
        <ele>2935.400</ele>
        <time>2021-05-10T19:41:24Z</time>
        <name>WPT.1949</name>
      </trkpt>
      <trkpt lat="35.226946660" lon="-107.625524680">
        <ele>2935.300</ele>
        <time>2021-05-10T19:41:29Z</time>
        <name>WPT.1950</name>
      </trkpt>
      <trkpt lat="35.226930900" lon="-107.625578990">
        <ele>2935.600</ele>
        <time>2021-05-10T19:41:33Z</time>
        <name>WPT.1951</name>
      </trkpt>
      <trkpt lat="35.226911210" lon="-107.625619650">
        <ele>2934.700</ele>
        <time>2021-05-10T19:41:37Z</time>
        <name>WPT.1952</name>
      </trkpt>
      <trkpt lat="35.226896890" lon="-107.625669450">
        <ele>2935.100</ele>
        <time>2021-05-10T19:41:42Z</time>
        <name>WPT.1953</name>
      </trkpt>
      <trkpt lat="35.226872210" lon="-107.625713510">
        <ele>2933.400</ele>
        <time>2021-05-10T19:41:46Z</time>
        <name>WPT.1954</name>
      </trkpt>
      <trkpt lat="35.226845660" lon="-107.625754080">
        <ele>2934.100</ele>
        <time>2021-05-10T19:41:50Z</time>
        <name>WPT.1955</name>
      </trkpt>
      <trkpt lat="35.226836780" lon="-107.625798930">
        <ele>2935.700</ele>
        <time>2021-05-10T19:41:55Z</time>
        <name>WPT.1956</name>
      </trkpt>
      <trkpt lat="35.226824070" lon="-107.625843950">
        <ele>2934.900</ele>
        <time>2021-05-10T19:42:08Z</time>
        <name>WPT.1957</name>
      </trkpt>
      <trkpt lat="35.226793430" lon="-107.625872830">
        <ele>2934.700</ele>
        <time>2021-05-10T19:42:19Z</time>
        <name>WPT.1958</name>
      </trkpt>
      <trkpt lat="35.226781240" lon="-107.625919850">
        <ele>2935.300</ele>
        <time>2021-05-10T19:42:24Z</time>
        <name>WPT.1959</name>
      </trkpt>
      <trkpt lat="35.226755230" lon="-107.625953150">
        <ele>2933.900</ele>
        <time>2021-05-10T19:42:28Z</time>
        <name>WPT.1960</name>
      </trkpt>
      <trkpt lat="35.226722830" lon="-107.625990560">
        <ele>2933.500</ele>
        <time>2021-05-10T19:42:32Z</time>
        <name>WPT.1961</name>
      </trkpt>
      <trkpt lat="35.226689480" lon="-107.626018000">
        <ele>2934.800</ele>
        <time>2021-05-10T19:42:37Z</time>
        <name>WPT.1962</name>
      </trkpt>
      <trkpt lat="35.226697680" lon="-107.626060830">
        <ele>2928.800</ele>
        <time>2021-05-10T19:43:56Z</time>
        <name>WPT.1963</name>
      </trkpt>
      <trkpt lat="35.226672520" lon="-107.626092670">
        <ele>2931.800</ele>
        <time>2021-05-10T19:47:07Z</time>
        <name>WPT.1964</name>
      </trkpt>
      <trkpt lat="35.226707320" lon="-107.626104570">
        <ele>2930.600</ele>
        <time>2021-05-10T19:48:18Z</time>
        <name>WPT.1965</name>
      </trkpt>
      <trkpt lat="35.226718730" lon="-107.626062140">
        <ele>2931.400</ele>
        <time>2021-05-10T19:48:59Z</time>
        <name>WPT.1966</name>
      </trkpt>
      <trkpt lat="35.226718640" lon="-107.626106200">
        <ele>2934.800</ele>
        <time>2021-05-10T19:57:29Z</time>
        <name>WPT.1967</name>
      </trkpt>
      <trkpt lat="35.226687290" lon="-107.626083960">
        <ele>2934.000</ele>
        <time>2021-05-10T20:04:06Z</time>
        <name>WPT.1968</name>
      </trkpt>
      <trkpt lat="35.226697400" lon="-107.626041660">
        <ele>2931.400</ele>
        <time>2021-05-10T20:07:58Z</time>
        <name>WPT.1969</name>
      </trkpt>
      <trkpt lat="35.226679210" lon="-107.626003670">
        <ele>2930.300</ele>
        <time>2021-05-10T20:09:57Z</time>
        <name>WPT.1970</name>
      </trkpt>
      <trkpt lat="35.226684650" lon="-107.626048370">
        <ele>2933.900</ele>
        <time>2021-05-10T20:10:49Z</time>
        <name>WPT.1971</name>
      </trkpt>
      <trkpt lat="35.226688290" lon="-107.626102820">
        <ele>2932.700</ele>
        <time>2021-05-10T20:11:31Z</time>
        <name>WPT.1972</name>
      </trkpt>
      <trkpt lat="35.226672860" lon="-107.626145120">
        <ele>2932.400</ele>
        <time>2021-05-10T20:11:35Z</time>
        <name>WPT.1973</name>
      </trkpt>
      <trkpt lat="35.226656850" lon="-107.626186480">
        <ele>2931.400</ele>
        <time>2021-05-10T20:11:40Z</time>
        <name>WPT.1974</name>
      </trkpt>
      <trkpt lat="35.226641410" lon="-107.626236920">
        <ele>2928.800</ele>
        <time>2021-05-10T20:11:45Z</time>
        <name>WPT.1975</name>
      </trkpt>
      <trkpt lat="35.226615750" lon="-107.626278560">
        <ele>2928.500</ele>
        <time>2021-05-10T20:11:49Z</time>
        <name>WPT.1976</name>
      </trkpt>
      <trkpt lat="35.226590480" lon="-107.626318850">
        <ele>2928.600</ele>
        <time>2021-05-10T20:11:53Z</time>
        <name>WPT.1977</name>
      </trkpt>
      <trkpt lat="35.226567960" lon="-107.626363630">
        <ele>2928.000</ele>
        <time>2021-05-10T20:11:58Z</time>
        <name>WPT.1978</name>
      </trkpt>
      <trkpt lat="35.226552820" lon="-107.626406630">
        <ele>2929.600</ele>
        <time>2021-05-10T20:12:03Z</time>
        <name>WPT.1979</name>
      </trkpt>
      <trkpt lat="35.226531190" lon="-107.626446870">
        <ele>2931.300</ele>
        <time>2021-05-10T20:12:08Z</time>
        <name>WPT.1980</name>
      </trkpt>
      <trkpt lat="35.226504650" lon="-107.626485810">
        <ele>2928.200</ele>
        <time>2021-05-10T20:12:13Z</time>
        <name>WPT.1981</name>
      </trkpt>
      <trkpt lat="35.226482140" lon="-107.626527180">
        <ele>2929.500</ele>
        <time>2021-05-10T20:12:18Z</time>
        <name>WPT.1982</name>
      </trkpt>
      <trkpt lat="35.226455090" lon="-107.626561910">
        <ele>2929.100</ele>
        <time>2021-05-10T20:12:22Z</time>
        <name>WPT.1983</name>
      </trkpt>
      <trkpt lat="35.226427700" lon="-107.626596960">
        <ele>2927.800</ele>
        <time>2021-05-10T20:12:26Z</time>
        <name>WPT.1984</name>
      </trkpt>
      <trkpt lat="35.226403950" lon="-107.626646520">
        <ele>2928.100</ele>
        <time>2021-05-10T20:12:30Z</time>
        <name>WPT.1985</name>
      </trkpt>
      <trkpt lat="35.226383340" lon="-107.626696390">
        <ele>2926.100</ele>
        <time>2021-05-10T20:12:34Z</time>
        <name>WPT.1986</name>
      </trkpt>
      <trkpt lat="35.226361960" lon="-107.626734160">
        <ele>2926.600</ele>
        <time>2021-05-10T20:12:38Z</time>
        <name>WPT.1987</name>
      </trkpt>
      <trkpt lat="35.226348360" lon="-107.626777690">
        <ele>2925.600</ele>
        <time>2021-05-10T20:12:42Z</time>
        <name>WPT.1988</name>
      </trkpt>
      <trkpt lat="35.226367090" lon="-107.626817550">
        <ele>2925.200</ele>
        <time>2021-05-10T20:12:48Z</time>
        <name>WPT.1989</name>
      </trkpt>
      <trkpt lat="35.226355610" lon="-107.626861210">
        <ele>2924.900</ele>
        <time>2021-05-10T20:12:56Z</time>
        <name>WPT.1990</name>
      </trkpt>
      <trkpt lat="35.226345600" lon="-107.626913190">
        <ele>2923.600</ele>
        <time>2021-05-10T20:13:00Z</time>
        <name>WPT.1991</name>
      </trkpt>
      <trkpt lat="35.226327220" lon="-107.626954880">
        <ele>2923.300</ele>
        <time>2021-05-10T20:13:04Z</time>
        <name>WPT.1992</name>
      </trkpt>
      <trkpt lat="35.226322420" lon="-107.627000760">
        <ele>2924.400</ele>
        <time>2021-05-10T20:13:26Z</time>
        <name>WPT.1993</name>
      </trkpt>
      <trkpt lat="35.226303470" lon="-107.627043240">
        <ele>2922.500</ele>
        <time>2021-05-10T20:13:32Z</time>
        <name>WPT.1994</name>
      </trkpt>
      <trkpt lat="35.226285730" lon="-107.627083220">
        <ele>2922.100</ele>
        <time>2021-05-10T20:13:36Z</time>
        <name>WPT.1995</name>
      </trkpt>
      <trkpt lat="35.226281810" lon="-107.627128630">
        <ele>2924.300</ele>
        <time>2021-05-10T20:13:40Z</time>
        <name>WPT.1996</name>
      </trkpt>
      <trkpt lat="35.226260490" lon="-107.627169530">
        <ele>2924.800</ele>
        <time>2021-05-10T20:13:45Z</time>
        <name>WPT.1997</name>
      </trkpt>
      <trkpt lat="35.226235340" lon="-107.627201520">
        <ele>2924.300</ele>
        <time>2021-05-10T20:13:50Z</time>
        <name>WPT.1998</name>
      </trkpt>
      <trkpt lat="35.226204280" lon="-107.627226820">
        <ele>2925.900</ele>
        <time>2021-05-10T20:13:57Z</time>
        <name>WPT.1999</name>
      </trkpt>
      <trkpt lat="35.226171010" lon="-107.627246680">
        <ele>2925.800</ele>
        <time>2021-05-10T20:14:03Z</time>
        <name>WPT.2000</name>
      </trkpt>
      <trkpt lat="35.226141810" lon="-107.627279940">
        <ele>2922.200</ele>
        <time>2021-05-10T20:14:08Z</time>
        <name>WPT.2001</name>
      </trkpt>
      <trkpt lat="35.226122690" lon="-107.627325970">
        <ele>2919.000</ele>
        <time>2021-05-10T20:14:12Z</time>
        <name>WPT.2002</name>
      </trkpt>
      <trkpt lat="35.226110130" lon="-107.627368050">
        <ele>2917.500</ele>
        <time>2021-05-10T20:14:16Z</time>
        <name>WPT.2003</name>
      </trkpt>
      <trkpt lat="35.226093540" lon="-107.627415180">
        <ele>2919.000</ele>
        <time>2021-05-10T20:14:21Z</time>
        <name>WPT.2004</name>
      </trkpt>
      <trkpt lat="35.226069530" lon="-107.627453390">
        <ele>2918.100</ele>
        <time>2021-05-10T20:14:26Z</time>
        <name>WPT.2005</name>
      </trkpt>
      <trkpt lat="35.226053240" lon="-107.627497350">
        <ele>2918.100</ele>
        <time>2021-05-10T20:14:31Z</time>
        <name>WPT.2006</name>
      </trkpt>
      <trkpt lat="35.226026190" lon="-107.627533970">
        <ele>2916.300</ele>
        <time>2021-05-10T20:14:37Z</time>
        <name>WPT.2007</name>
      </trkpt>
      <trkpt lat="35.225995660" lon="-107.627565570">
        <ele>2915.800</ele>
        <time>2021-05-10T20:14:41Z</time>
        <name>WPT.2008</name>
      </trkpt>
      <trkpt lat="35.225966070" lon="-107.627612370">
        <ele>2914.000</ele>
        <time>2021-05-10T20:14:45Z</time>
        <name>WPT.2009</name>
      </trkpt>
      <trkpt lat="35.225926930" lon="-107.627638170">
        <ele>2915.400</ele>
        <time>2021-05-10T20:14:49Z</time>
        <name>WPT.2010</name>
      </trkpt>
      <trkpt lat="35.225903390" lon="-107.627673260">
        <ele>2913.700</ele>
        <time>2021-05-10T20:14:52Z</time>
        <name>WPT.2011</name>
      </trkpt>
      <trkpt lat="35.225878410" lon="-107.627711230">
        <ele>2912.100</ele>
        <time>2021-05-10T20:14:56Z</time>
        <name>WPT.2012</name>
      </trkpt>
      <trkpt lat="35.225860860" lon="-107.627749820">
        <ele>2912.800</ele>
        <time>2021-05-10T20:14:59Z</time>
        <name>WPT.2013</name>
      </trkpt>
      <trkpt lat="35.225856870" lon="-107.627798540">
        <ele>2913.400</ele>
        <time>2021-05-10T20:15:04Z</time>
        <name>WPT.2014</name>
      </trkpt>
      <trkpt lat="35.225854700" lon="-107.627844060">
        <ele>2913.800</ele>
        <time>2021-05-10T20:15:09Z</time>
        <name>WPT.2015</name>
      </trkpt>
      <trkpt lat="35.225844650" lon="-107.627892520">
        <ele>2914.900</ele>
        <time>2021-05-10T20:15:13Z</time>
        <name>WPT.2016</name>
      </trkpt>
      <trkpt lat="35.225834370" lon="-107.627947650">
        <ele>2915.800</ele>
        <time>2021-05-10T20:15:17Z</time>
        <name>WPT.2017</name>
      </trkpt>
      <trkpt lat="35.225815750" lon="-107.627988430">
        <ele>2914.600</ele>
        <time>2021-05-10T20:15:20Z</time>
        <name>WPT.2018</name>
      </trkpt>
      <trkpt lat="35.225799560" lon="-107.628039200">
        <ele>2914.100</ele>
        <time>2021-05-10T20:15:24Z</time>
        <name>WPT.2019</name>
      </trkpt>
      <trkpt lat="35.225792600" lon="-107.628092320">
        <ele>2912.400</ele>
        <time>2021-05-10T20:15:28Z</time>
        <name>WPT.2020</name>
      </trkpt>
      <trkpt lat="35.225772610" lon="-107.628136100">
        <ele>2911.400</ele>
        <time>2021-05-10T20:15:32Z</time>
        <name>WPT.2021</name>
      </trkpt>
      <trkpt lat="35.225765270" lon="-107.628187500">
        <ele>2910.900</ele>
        <time>2021-05-10T20:15:36Z</time>
        <name>WPT.2022</name>
      </trkpt>
      <trkpt lat="35.225739880" lon="-107.628236490">
        <ele>2908.000</ele>
        <time>2021-05-10T20:15:40Z</time>
        <name>WPT.2023</name>
      </trkpt>
      <trkpt lat="35.225714490" lon="-107.628274700">
        <ele>2908.900</ele>
        <time>2021-05-10T20:15:44Z</time>
        <name>WPT.2024</name>
      </trkpt>
      <trkpt lat="35.225698910" lon="-107.628327800">
        <ele>2909.000</ele>
        <time>2021-05-10T20:15:49Z</time>
        <name>WPT.2025</name>
      </trkpt>
      <trkpt lat="35.225681760" lon="-107.628371490">
        <ele>2908.900</ele>
        <time>2021-05-10T20:15:53Z</time>
        <name>WPT.2026</name>
      </trkpt>
      <trkpt lat="35.225681100" lon="-107.628425420">
        <ele>2908.300</ele>
        <time>2021-05-10T20:16:01Z</time>
        <name>WPT.2027</name>
      </trkpt>
      <trkpt lat="35.225659060" lon="-107.628462170">
        <ele>2906.900</ele>
        <time>2021-05-10T20:16:05Z</time>
        <name>WPT.2028</name>
      </trkpt>
      <trkpt lat="35.225642770" lon="-107.628504950">
        <ele>2904.700</ele>
        <time>2021-05-10T20:16:10Z</time>
        <name>WPT.2029</name>
      </trkpt>
      <trkpt lat="35.225620120" lon="-107.628548690">
        <ele>2903.700</ele>
        <time>2021-05-10T20:16:23Z</time>
        <name>WPT.2030</name>
      </trkpt>
      <trkpt lat="35.225599990" lon="-107.628588970">
        <ele>2902.600</ele>
        <time>2021-05-10T20:16:31Z</time>
        <name>WPT.2031</name>
      </trkpt>
      <trkpt lat="35.225568610" lon="-107.628615350">
        <ele>2902.100</ele>
        <time>2021-05-10T20:16:35Z</time>
        <name>WPT.2032</name>
      </trkpt>
      <trkpt lat="35.225542960" lon="-107.628648400">
        <ele>2902.700</ele>
        <time>2021-05-10T20:16:40Z</time>
        <name>WPT.2033</name>
      </trkpt>
      <trkpt lat="35.225508090" lon="-107.628677920">
        <ele>2901.600</ele>
        <time>2021-05-10T20:16:45Z</time>
        <name>WPT.2034</name>
      </trkpt>
      <trkpt lat="35.225473620" lon="-107.628693870">
        <ele>2901.000</ele>
        <time>2021-05-10T20:16:49Z</time>
        <name>WPT.2035</name>
      </trkpt>
      <trkpt lat="35.225441640" lon="-107.628717990">
        <ele>2904.100</ele>
        <time>2021-05-10T20:16:54Z</time>
        <name>WPT.2036</name>
      </trkpt>
      <trkpt lat="35.225429160" lon="-107.628759530">
        <ele>2905.400</ele>
        <time>2021-05-10T20:17:01Z</time>
        <name>WPT.2037</name>
      </trkpt>
      <trkpt lat="35.225393450" lon="-107.628746760">
        <ele>2903.500</ele>
        <time>2021-05-10T20:17:14Z</time>
        <name>WPT.2038</name>
      </trkpt>
      <trkpt lat="35.225356550" lon="-107.628762300">
        <ele>2902.600</ele>
        <time>2021-05-10T20:17:19Z</time>
        <name>WPT.2039</name>
      </trkpt>
      <trkpt lat="35.225338460" lon="-107.628803330">
        <ele>2903.400</ele>
        <time>2021-05-10T20:17:23Z</time>
        <name>WPT.2040</name>
      </trkpt>
      <trkpt lat="35.225315230" lon="-107.628839770">
        <ele>2901.100</ele>
        <time>2021-05-10T20:17:28Z</time>
        <name>WPT.2041</name>
      </trkpt>
      <trkpt lat="35.225288420" lon="-107.628869460">
        <ele>2901.600</ele>
        <time>2021-05-10T20:17:32Z</time>
        <name>WPT.2042</name>
      </trkpt>
      <trkpt lat="35.225251740" lon="-107.628882030">
        <ele>2903.100</ele>
        <time>2021-05-10T20:18:02Z</time>
        <name>WPT.2043</name>
      </trkpt>
      <trkpt lat="35.225218820" lon="-107.628910280">
        <ele>2903.400</ele>
        <time>2021-05-10T20:18:08Z</time>
        <name>WPT.2044</name>
      </trkpt>
      <trkpt lat="35.225184570" lon="-107.628946050">
        <ele>2902.900</ele>
        <time>2021-05-10T20:18:13Z</time>
        <name>WPT.2045</name>
      </trkpt>
      <trkpt lat="35.225158240" lon="-107.628980990">
        <ele>2903.900</ele>
        <time>2021-05-10T20:18:17Z</time>
        <name>WPT.2046</name>
      </trkpt>
      <trkpt lat="35.225140810" lon="-107.629025750">
        <ele>2902.600</ele>
        <time>2021-05-10T20:18:21Z</time>
        <name>WPT.2047</name>
      </trkpt>
      <trkpt lat="35.225147490" lon="-107.629081740">
        <ele>2902.500</ele>
        <time>2021-05-10T20:18:27Z</time>
        <name>WPT.2048</name>
      </trkpt>
      <trkpt lat="35.225130850" lon="-107.629128090">
        <ele>2904.400</ele>
        <time>2021-05-10T20:18:31Z</time>
        <name>WPT.2049</name>
      </trkpt>
      <trkpt lat="35.225107240" lon="-107.629161440">
        <ele>2903.300</ele>
        <time>2021-05-10T20:18:34Z</time>
        <name>WPT.2050</name>
      </trkpt>
      <trkpt lat="35.225080980" lon="-107.629200310">
        <ele>2902.600</ele>
        <time>2021-05-10T20:18:38Z</time>
        <name>WPT.2051</name>
      </trkpt>
      <trkpt lat="35.225063370" lon="-107.629246800">
        <ele>2905.400</ele>
        <time>2021-05-10T20:18:42Z</time>
        <name>WPT.2052</name>
      </trkpt>
      <trkpt lat="35.225057410" lon="-107.629291000">
        <ele>2907.700</ele>
        <time>2021-05-10T20:18:46Z</time>
        <name>WPT.2053</name>
      </trkpt>
      <trkpt lat="35.225035610" lon="-107.629340820">
        <ele>2906.600</ele>
        <time>2021-05-10T20:18:50Z</time>
        <name>WPT.2054</name>
      </trkpt>
      <trkpt lat="35.225023950" lon="-107.629391690">
        <ele>2907.300</ele>
        <time>2021-05-10T20:18:55Z</time>
        <name>WPT.2055</name>
      </trkpt>
      <trkpt lat="35.224997270" lon="-107.629425220">
        <ele>2907.700</ele>
        <time>2021-05-10T20:18:59Z</time>
        <name>WPT.2056</name>
      </trkpt>
      <trkpt lat="35.224978690" lon="-107.629468750">
        <ele>2909.300</ele>
        <time>2021-05-10T20:19:07Z</time>
        <name>WPT.2057</name>
      </trkpt>
      <trkpt lat="35.224968450" lon="-107.629521040">
        <ele>2908.700</ele>
        <time>2021-05-10T20:19:13Z</time>
        <name>WPT.2058</name>
      </trkpt>
      <trkpt lat="35.224937420" lon="-107.629549440">
        <ele>2908.500</ele>
        <time>2021-05-10T20:19:18Z</time>
        <name>WPT.2059</name>
      </trkpt>
      <trkpt lat="35.224899630" lon="-107.629568910">
        <ele>2908.900</ele>
        <time>2021-05-10T20:19:25Z</time>
        <name>WPT.2060</name>
      </trkpt>
      <trkpt lat="35.224869450" lon="-107.629603330">
        <ele>2905.800</ele>
        <time>2021-05-10T20:19:29Z</time>
        <name>WPT.2061</name>
      </trkpt>
      <trkpt lat="35.224840390" lon="-107.629639430">
        <ele>2904.700</ele>
        <time>2021-05-10T20:19:34Z</time>
        <name>WPT.2062</name>
      </trkpt>
      <trkpt lat="35.224814860" lon="-107.629682870">
        <ele>2904.100</ele>
        <time>2021-05-10T20:19:39Z</time>
        <name>WPT.2063</name>
      </trkpt>
      <trkpt lat="35.224778980" lon="-107.629708100">
        <ele>2902.500</ele>
        <time>2021-05-10T20:19:43Z</time>
        <name>WPT.2064</name>
      </trkpt>
      <trkpt lat="35.224736420" lon="-107.629725570">
        <ele>2903.200</ele>
        <time>2021-05-10T20:19:47Z</time>
        <name>WPT.2065</name>
      </trkpt>
      <trkpt lat="35.224695950" lon="-107.629741460">
        <ele>2903.000</ele>
        <time>2021-05-10T20:19:53Z</time>
        <name>WPT.2066</name>
      </trkpt>
      <trkpt lat="35.224659590" lon="-107.629770510">
        <ele>2900.200</ele>
        <time>2021-05-10T20:20:00Z</time>
        <name>WPT.2067</name>
      </trkpt>
      <trkpt lat="35.224628870" lon="-107.629805290">
        <ele>2896.100</ele>
        <time>2021-05-10T20:20:04Z</time>
        <name>WPT.2068</name>
      </trkpt>
      <trkpt lat="35.224593960" lon="-107.629844540">
        <ele>2893.400</ele>
        <time>2021-05-10T20:20:08Z</time>
        <name>WPT.2069</name>
      </trkpt>
      <trkpt lat="35.224561700" lon="-107.629876520">
        <ele>2890.900</ele>
        <time>2021-05-10T20:20:12Z</time>
        <name>WPT.2070</name>
      </trkpt>
      <trkpt lat="35.224528570" lon="-107.629895350">
        <ele>2891.200</ele>
        <time>2021-05-10T20:20:16Z</time>
        <name>WPT.2071</name>
      </trkpt>
      <trkpt lat="35.224502660" lon="-107.629928420">
        <ele>2890.400</ele>
        <time>2021-05-10T20:20:21Z</time>
        <name>WPT.2072</name>
      </trkpt>
      <trkpt lat="35.224480010" lon="-107.629962760">
        <ele>2889.300</ele>
        <time>2021-05-10T20:20:25Z</time>
        <name>WPT.2073</name>
      </trkpt>
      <trkpt lat="35.224454350" lon="-107.630000830">
        <ele>2889.300</ele>
        <time>2021-05-10T20:20:30Z</time>
        <name>WPT.2074</name>
      </trkpt>
      <trkpt lat="35.224417450" lon="-107.630021920">
        <ele>2889.200</ele>
        <time>2021-05-10T20:20:35Z</time>
        <name>WPT.2075</name>
      </trkpt>
      <trkpt lat="35.224372430" lon="-107.630010930">
        <ele>2889.700</ele>
        <time>2021-05-10T20:20:48Z</time>
        <name>WPT.2076</name>
      </trkpt>
      <trkpt lat="35.224328650" lon="-107.630004980">
        <ele>2889.800</ele>
        <time>2021-05-10T20:20:53Z</time>
        <name>WPT.2077</name>
      </trkpt>
      <trkpt lat="35.224286230" lon="-107.630015300">
        <ele>2890.000</ele>
        <time>2021-05-10T20:20:57Z</time>
        <name>WPT.2078</name>
      </trkpt>
      <trkpt lat="35.224248850" lon="-107.630032490">
        <ele>2890.700</ele>
        <time>2021-05-10T20:21:01Z</time>
        <name>WPT.2079</name>
      </trkpt>
      <trkpt lat="35.224206530" lon="-107.630045970">
        <ele>2885.400</ele>
        <time>2021-05-10T20:21:05Z</time>
        <name>WPT.2080</name>
      </trkpt>
      <trkpt lat="35.224170350" lon="-107.630065420">
        <ele>2884.500</ele>
        <time>2021-05-10T20:21:08Z</time>
        <name>WPT.2081</name>
      </trkpt>
      <trkpt lat="35.224143530" lon="-107.630095710">
        <ele>2883.600</ele>
        <time>2021-05-10T20:21:11Z</time>
        <name>WPT.2082</name>
      </trkpt>
      <trkpt lat="35.224120560" lon="-107.630132450">
        <ele>2883.500</ele>
        <time>2021-05-10T20:21:14Z</time>
        <name>WPT.2083</name>
      </trkpt>
      <trkpt lat="35.224091350" lon="-107.630167210">
        <ele>2882.300</ele>
        <time>2021-05-10T20:21:17Z</time>
        <name>WPT.2084</name>
      </trkpt>
      <trkpt lat="35.224057090" lon="-107.630207190">
        <ele>2881.300</ele>
        <time>2021-05-10T20:21:21Z</time>
        <name>WPT.2085</name>
      </trkpt>
      <trkpt lat="35.224023430" lon="-107.630234510">
        <ele>2881.200</ele>
        <time>2021-05-10T20:21:25Z</time>
        <name>WPT.2086</name>
      </trkpt>
      <trkpt lat="35.224016660" lon="-107.630277710">
        <ele>2881.100</ele>
        <time>2021-05-10T20:21:29Z</time>
        <name>WPT.2087</name>
      </trkpt>
      <trkpt lat="35.224002110" lon="-107.630326550">
        <ele>2880.700</ele>
        <time>2021-05-10T20:21:33Z</time>
        <name>WPT.2088</name>
      </trkpt>
      <trkpt lat="35.224009680" lon="-107.630373170">
        <ele>2879.500</ele>
        <time>2021-05-10T20:21:38Z</time>
        <name>WPT.2089</name>
      </trkpt>
      <trkpt lat="35.224006410" lon="-107.630421230">
        <ele>2879.600</ele>
        <time>2021-05-10T20:21:43Z</time>
        <name>WPT.2090</name>
      </trkpt>
      <trkpt lat="35.223975940" lon="-107.630452070">
        <ele>2877.400</ele>
        <time>2021-05-10T20:21:50Z</time>
        <name>WPT.2091</name>
      </trkpt>
      <trkpt lat="35.223946420" lon="-107.630486970">
        <ele>2874.700</ele>
        <time>2021-05-10T20:21:56Z</time>
        <name>WPT.2092</name>
      </trkpt>
      <trkpt lat="35.223907870" lon="-107.630502480">
        <ele>2874.200</ele>
        <time>2021-05-10T20:22:01Z</time>
        <name>WPT.2093</name>
      </trkpt>
      <trkpt lat="35.223871960" lon="-107.630511190">
        <ele>2872.900</ele>
        <time>2021-05-10T20:22:05Z</time>
        <name>WPT.2094</name>
      </trkpt>
      <trkpt lat="35.223852970" lon="-107.630551480">
        <ele>2872.100</ele>
        <time>2021-05-10T20:22:10Z</time>
        <name>WPT.2095</name>
      </trkpt>
      <trkpt lat="35.223844270" lon="-107.630596020">
        <ele>2870.800</ele>
        <time>2021-05-10T20:22:14Z</time>
        <name>WPT.2096</name>
      </trkpt>
      <trkpt lat="35.223837740" lon="-107.630639900">
        <ele>2871.000</ele>
        <time>2021-05-10T20:22:18Z</time>
        <name>WPT.2097</name>
      </trkpt>
      <trkpt lat="35.223831860" lon="-107.630683690">
        <ele>2870.100</ele>
        <time>2021-05-10T20:22:23Z</time>
        <name>WPT.2098</name>
      </trkpt>
      <trkpt lat="35.223837220" lon="-107.630729480">
        <ele>2869.500</ele>
        <time>2021-05-10T20:22:30Z</time>
        <name>WPT.2099</name>
      </trkpt>
      <trkpt lat="35.223830210" lon="-107.630772780">
        <ele>2869.600</ele>
        <time>2021-05-10T20:22:40Z</time>
        <name>WPT.2100</name>
      </trkpt>
      <trkpt lat="35.223821380" lon="-107.630815850">
        <ele>2870.200</ele>
        <time>2021-05-10T20:22:50Z</time>
        <name>WPT.2101</name>
      </trkpt>
      <trkpt lat="35.223793670" lon="-107.630854900">
        <ele>2872.300</ele>
        <time>2021-05-10T20:22:55Z</time>
        <name>WPT.2102</name>
      </trkpt>
      <trkpt lat="35.223768290" lon="-107.630901160">
        <ele>2870.700</ele>
        <time>2021-05-10T20:22:59Z</time>
        <name>WPT.2103</name>
      </trkpt>
      <trkpt lat="35.223740780" lon="-107.630932150">
        <ele>2872.500</ele>
        <time>2021-05-10T20:23:03Z</time>
        <name>WPT.2104</name>
      </trkpt>
      <trkpt lat="35.223696010" lon="-107.630925320">
        <ele>2875.000</ele>
        <time>2021-05-10T20:23:08Z</time>
        <name>WPT.2105</name>
      </trkpt>
      <trkpt lat="35.223676550" lon="-107.630963940">
        <ele>2872.700</ele>
        <time>2021-05-10T20:23:11Z</time>
        <name>WPT.2106</name>
      </trkpt>
      <trkpt lat="35.223657580" lon="-107.631014140">
        <ele>2871.900</ele>
        <time>2021-05-10T20:23:14Z</time>
        <name>WPT.2107</name>
      </trkpt>
      <trkpt lat="35.223633280" lon="-107.631054090">
        <ele>2872.900</ele>
        <time>2021-05-10T20:23:17Z</time>
        <name>WPT.2108</name>
      </trkpt>
      <trkpt lat="35.223601340" lon="-107.631081230">
        <ele>2872.900</ele>
        <time>2021-05-10T20:23:21Z</time>
        <name>WPT.2109</name>
      </trkpt>
      <trkpt lat="35.223573430" lon="-107.631112610">
        <ele>2874.700</ele>
        <time>2021-05-10T20:23:42Z</time>
        <name>WPT.2110</name>
      </trkpt>
      <trkpt lat="35.223553450" lon="-107.631157350">
        <ele>2874.800</ele>
        <time>2021-05-10T20:24:02Z</time>
        <name>WPT.2111</name>
      </trkpt>
      <trkpt lat="35.223527250" lon="-107.631188630">
        <ele>2877.000</ele>
        <time>2021-05-10T20:24:30Z</time>
        <name>WPT.2112</name>
      </trkpt>
      <trkpt lat="35.223495090" lon="-107.631214550">
        <ele>2876.600</ele>
        <time>2021-05-10T20:24:34Z</time>
        <name>WPT.2113</name>
      </trkpt>
      <trkpt lat="35.223477490" lon="-107.631256900">
        <ele>2876.200</ele>
        <time>2021-05-10T20:24:39Z</time>
        <name>WPT.2114</name>
      </trkpt>
      <trkpt lat="35.223458420" lon="-107.631296030">
        <ele>2877.700</ele>
        <time>2021-05-10T20:24:45Z</time>
        <name>WPT.2115</name>
      </trkpt>
      <trkpt lat="35.223425890" lon="-107.631325310">
        <ele>2881.900</ele>
        <time>2021-05-10T20:24:53Z</time>
        <name>WPT.2116</name>
      </trkpt>
      <trkpt lat="35.223401380" lon="-107.631364370">
        <ele>2882.900</ele>
        <time>2021-05-10T20:25:03Z</time>
        <name>WPT.2117</name>
      </trkpt>
      <trkpt lat="35.223381430" lon="-107.631401940">
        <ele>2885.400</ele>
        <time>2021-05-10T20:25:10Z</time>
        <name>WPT.2118</name>
      </trkpt>
      <trkpt lat="35.223351650" lon="-107.631440170">
        <ele>2884.700</ele>
        <time>2021-05-10T20:25:14Z</time>
        <name>WPT.2119</name>
      </trkpt>
      <trkpt lat="35.223321840" lon="-107.631475120">
        <ele>2883.900</ele>
        <time>2021-05-10T20:25:19Z</time>
        <name>WPT.2120</name>
      </trkpt>
      <trkpt lat="35.223303920" lon="-107.631526090">
        <ele>2883.800</ele>
        <time>2021-05-10T20:25:23Z</time>
        <name>WPT.2121</name>
      </trkpt>
      <trkpt lat="35.223282150" lon="-107.631576560">
        <ele>2883.500</ele>
        <time>2021-05-10T20:25:27Z</time>
        <name>WPT.2122</name>
      </trkpt>
      <trkpt lat="35.223270610" lon="-107.631633440">
        <ele>2882.800</ele>
        <time>2021-05-10T20:25:31Z</time>
        <name>WPT.2123</name>
      </trkpt>
      <trkpt lat="35.223278560" lon="-107.631688010">
        <ele>2882.600</ele>
        <time>2021-05-10T20:25:35Z</time>
        <name>WPT.2124</name>
      </trkpt>
      <trkpt lat="35.223310130" lon="-107.631722440">
        <ele>2881.900</ele>
        <time>2021-05-10T20:25:38Z</time>
        <name>WPT.2125</name>
      </trkpt>
      <trkpt lat="35.223344830" lon="-107.631760750">
        <ele>2882.200</ele>
        <time>2021-05-10T20:25:42Z</time>
        <name>WPT.2126</name>
      </trkpt>
      <trkpt lat="35.223375780" lon="-107.631799290">
        <ele>2882.300</ele>
        <time>2021-05-10T20:25:47Z</time>
        <name>WPT.2127</name>
      </trkpt>
      <trkpt lat="35.223401150" lon="-107.631831190">
        <ele>2884.100</ele>
        <time>2021-05-10T20:25:53Z</time>
        <name>WPT.2128</name>
      </trkpt>
      <trkpt lat="35.223409440" lon="-107.631879630">
        <ele>2883.800</ele>
        <time>2021-05-10T20:26:04Z</time>
        <name>WPT.2129</name>
      </trkpt>
      <trkpt lat="35.223414390" lon="-107.631923250">
        <ele>2882.800</ele>
        <time>2021-05-10T20:26:09Z</time>
        <name>WPT.2130</name>
      </trkpt>
      <trkpt lat="35.223385710" lon="-107.631951760">
        <ele>2883.100</ele>
        <time>2021-05-10T20:26:16Z</time>
        <name>WPT.2131</name>
      </trkpt>
      <trkpt lat="35.223358080" lon="-107.631980150">
        <ele>2882.500</ele>
        <time>2021-05-10T20:26:22Z</time>
        <name>WPT.2132</name>
      </trkpt>
      <trkpt lat="35.223321800" lon="-107.631980140">
        <ele>2883.700</ele>
        <time>2021-05-10T20:26:29Z</time>
        <name>WPT.2133</name>
      </trkpt>
      <trkpt lat="35.223286720" lon="-107.631998240">
        <ele>2885.000</ele>
        <time>2021-05-10T20:26:37Z</time>
        <name>WPT.2134</name>
      </trkpt>
      <trkpt lat="35.223265920" lon="-107.632035050">
        <ele>2882.200</ele>
        <time>2021-05-10T20:27:13Z</time>
        <name>WPT.2135</name>
      </trkpt>
      <trkpt lat="35.223227820" lon="-107.632047650">
        <ele>2883.400</ele>
        <time>2021-05-10T20:27:17Z</time>
        <name>WPT.2136</name>
      </trkpt>
      <trkpt lat="35.223193020" lon="-107.632074350">
        <ele>2882.300</ele>
        <time>2021-05-10T20:27:21Z</time>
        <name>WPT.2137</name>
      </trkpt>
      <trkpt lat="35.223153840" lon="-107.632096570">
        <ele>2882.400</ele>
        <time>2021-05-10T20:27:27Z</time>
        <name>WPT.2138</name>
      </trkpt>
      <trkpt lat="35.223116610" lon="-107.632118370">
        <ele>2882.300</ele>
        <time>2021-05-10T20:27:33Z</time>
        <name>WPT.2139</name>
      </trkpt>
      <trkpt lat="35.223094490" lon="-107.632163410">
        <ele>2880.300</ele>
        <time>2021-05-10T20:27:37Z</time>
        <name>WPT.2140</name>
      </trkpt>
      <trkpt lat="35.223065250" lon="-107.632197820">
        <ele>2879.400</ele>
        <time>2021-05-10T20:27:43Z</time>
        <name>WPT.2141</name>
      </trkpt>
      <trkpt lat="35.223060830" lon="-107.632242950">
        <ele>2877.900</ele>
        <time>2021-05-10T20:27:48Z</time>
        <name>WPT.2142</name>
      </trkpt>
      <trkpt lat="35.223024980" lon="-107.632258370">
        <ele>2879.000</ele>
        <time>2021-05-10T20:27:56Z</time>
        <name>WPT.2143</name>
      </trkpt>
      <trkpt lat="35.222984220" lon="-107.632256840">
        <ele>2877.800</ele>
        <time>2021-05-10T20:28:03Z</time>
        <name>WPT.2144</name>
      </trkpt>
      <trkpt lat="35.222947600" lon="-107.632265410">
        <ele>2877.700</ele>
        <time>2021-05-10T20:28:08Z</time>
        <name>WPT.2145</name>
      </trkpt>
      <trkpt lat="35.222906210" lon="-107.632284940">
        <ele>2876.200</ele>
        <time>2021-05-10T20:28:13Z</time>
        <name>WPT.2146</name>
      </trkpt>
      <trkpt lat="35.222868390" lon="-107.632308570">
        <ele>2876.500</ele>
        <time>2021-05-10T20:28:19Z</time>
        <name>WPT.2147</name>
      </trkpt>
      <trkpt lat="35.222843430" lon="-107.632348650">
        <ele>2875.100</ele>
        <time>2021-05-10T20:28:24Z</time>
        <name>WPT.2148</name>
      </trkpt>
      <trkpt lat="35.222815050" lon="-107.632382670">
        <ele>2874.500</ele>
        <time>2021-05-10T20:28:31Z</time>
        <name>WPT.2149</name>
      </trkpt>
      <trkpt lat="35.222780930" lon="-107.632403550">
        <ele>2875.200</ele>
        <time>2021-05-10T20:28:51Z</time>
        <name>WPT.2150</name>
      </trkpt>
      <trkpt lat="35.222750370" lon="-107.632442540">
        <ele>2873.300</ele>
        <time>2021-05-10T20:28:58Z</time>
        <name>WPT.2151</name>
      </trkpt>
      <trkpt lat="35.222724480" lon="-107.632476390">
        <ele>2873.200</ele>
        <time>2021-05-10T20:29:03Z</time>
        <name>WPT.2152</name>
      </trkpt>
      <trkpt lat="35.222691840" lon="-107.632508560">
        <ele>2872.600</ele>
        <time>2021-05-10T20:29:09Z</time>
        <name>WPT.2153</name>
      </trkpt>
      <trkpt lat="35.222679800" lon="-107.632551130">
        <ele>2871.500</ele>
        <time>2021-05-10T20:29:15Z</time>
        <name>WPT.2154</name>
      </trkpt>
      <trkpt lat="35.222699340" lon="-107.632594520">
        <ele>2869.300</ele>
        <time>2021-05-10T20:29:20Z</time>
        <name>WPT.2155</name>
      </trkpt>
      <trkpt lat="35.222723040" lon="-107.632629620">
        <ele>2868.400</ele>
        <time>2021-05-10T20:29:25Z</time>
        <name>WPT.2156</name>
      </trkpt>
      <trkpt lat="35.222716690" lon="-107.632676370">
        <ele>2866.700</ele>
        <time>2021-05-10T20:29:33Z</time>
        <name>WPT.2157</name>
      </trkpt>
      <trkpt lat="35.222697760" lon="-107.632724100">
        <ele>2866.300</ele>
        <time>2021-05-10T20:29:38Z</time>
        <name>WPT.2158</name>
      </trkpt>
      <trkpt lat="35.222700380" lon="-107.632770320">
        <ele>2866.300</ele>
        <time>2021-05-10T20:29:43Z</time>
        <name>WPT.2159</name>
      </trkpt>
      <trkpt lat="35.222691060" lon="-107.632817470">
        <ele>2866.000</ele>
        <time>2021-05-10T20:29:47Z</time>
        <name>WPT.2160</name>
      </trkpt>
      <trkpt lat="35.222669870" lon="-107.632859250">
        <ele>2866.900</ele>
        <time>2021-05-10T20:29:52Z</time>
        <name>WPT.2161</name>
      </trkpt>
      <trkpt lat="35.222634110" lon="-107.632871130">
        <ele>2864.700</ele>
        <time>2021-05-10T20:29:58Z</time>
        <name>WPT.2162</name>
      </trkpt>
      <trkpt lat="35.222622760" lon="-107.632917850">
        <ele>2866.600</ele>
        <time>2021-05-10T20:30:17Z</time>
        <name>WPT.2163</name>
      </trkpt>
      <trkpt lat="35.222588020" lon="-107.632931490">
        <ele>2867.200</ele>
        <time>2021-05-10T20:30:23Z</time>
        <name>WPT.2164</name>
      </trkpt>
      <trkpt lat="35.222548430" lon="-107.632921040">
        <ele>2868.300</ele>
        <time>2021-05-10T20:30:28Z</time>
        <name>WPT.2165</name>
      </trkpt>
      <trkpt lat="35.222503460" lon="-107.632912640">
        <ele>2867.900</ele>
        <time>2021-05-10T20:30:37Z</time>
        <name>WPT.2166</name>
      </trkpt>
      <trkpt lat="35.222461150" lon="-107.632924360">
        <ele>2866.800</ele>
        <time>2021-05-10T20:30:42Z</time>
        <name>WPT.2167</name>
      </trkpt>
      <trkpt lat="35.222425780" lon="-107.632934530">
        <ele>2867.800</ele>
        <time>2021-05-10T20:30:47Z</time>
        <name>WPT.2168</name>
      </trkpt>
      <trkpt lat="35.222385070" lon="-107.632930560">
        <ele>2867.800</ele>
        <time>2021-05-10T20:30:55Z</time>
        <name>WPT.2169</name>
      </trkpt>
      <trkpt lat="35.222349970" lon="-107.632946180">
        <ele>2865.500</ele>
        <time>2021-05-10T20:31:01Z</time>
        <name>WPT.2170</name>
      </trkpt>
      <trkpt lat="35.222306340" lon="-107.632964800">
        <ele>2864.700</ele>
        <time>2021-05-10T20:31:06Z</time>
        <name>WPT.2171</name>
      </trkpt>
      <trkpt lat="35.222269890" lon="-107.632958870">
        <ele>2865.400</ele>
        <time>2021-05-10T20:31:10Z</time>
        <name>WPT.2172</name>
      </trkpt>
      <trkpt lat="35.222231970" lon="-107.632966000">
        <ele>2863.000</ele>
        <time>2021-05-10T20:31:14Z</time>
        <name>WPT.2173</name>
      </trkpt>
      <trkpt lat="35.222197170" lon="-107.632977700">
        <ele>2865.200</ele>
        <time>2021-05-10T20:31:18Z</time>
        <name>WPT.2174</name>
      </trkpt>
      <trkpt lat="35.222152990" lon="-107.632976540">
        <ele>2866.200</ele>
        <time>2021-05-10T20:31:22Z</time>
        <name>WPT.2175</name>
      </trkpt>
      <trkpt lat="35.222111200" lon="-107.633005480">
        <ele>2863.200</ele>
        <time>2021-05-10T20:31:26Z</time>
        <name>WPT.2176</name>
      </trkpt>
      <trkpt lat="35.222077870" lon="-107.633029480">
        <ele>2863.100</ele>
        <time>2021-05-10T20:31:29Z</time>
        <name>WPT.2177</name>
      </trkpt>
      <trkpt lat="35.222049260" lon="-107.633063650">
        <ele>2860.800</ele>
        <time>2021-05-10T20:31:33Z</time>
        <name>WPT.2178</name>
      </trkpt>
      <trkpt lat="35.222020240" lon="-107.633108120">
        <ele>2860.500</ele>
        <time>2021-05-10T20:31:37Z</time>
        <name>WPT.2179</name>
      </trkpt>
      <trkpt lat="35.221993860" lon="-107.633145680">
        <ele>2860.700</ele>
        <time>2021-05-10T20:31:41Z</time>
        <name>WPT.2180</name>
      </trkpt>
      <trkpt lat="35.221958100" lon="-107.633161220">
        <ele>2862.900</ele>
        <time>2021-05-10T20:31:45Z</time>
        <name>WPT.2181</name>
      </trkpt>
      <trkpt lat="35.221915480" lon="-107.633161980">
        <ele>2864.200</ele>
        <time>2021-05-10T20:31:50Z</time>
        <name>WPT.2182</name>
      </trkpt>
      <trkpt lat="35.221885430" lon="-107.633200640">
        <ele>2863.400</ele>
        <time>2021-05-10T20:31:55Z</time>
        <name>WPT.2183</name>
      </trkpt>
      <trkpt lat="35.221878560" lon="-107.633247450">
        <ele>2863.000</ele>
        <time>2021-05-10T20:31:58Z</time>
        <name>WPT.2184</name>
      </trkpt>
      <trkpt lat="35.221873890" lon="-107.633298990">
        <ele>2861.600</ele>
        <time>2021-05-10T20:32:02Z</time>
        <name>WPT.2185</name>
      </trkpt>
      <trkpt lat="35.221851720" lon="-107.633339180">
        <ele>2861.400</ele>
        <time>2021-05-10T20:32:12Z</time>
        <name>WPT.2186</name>
      </trkpt>
      <trkpt lat="35.221813050" lon="-107.633342490">
        <ele>2860.300</ele>
        <time>2021-05-10T20:32:17Z</time>
        <name>WPT.2187</name>
      </trkpt>
      <trkpt lat="35.221769380" lon="-107.633346360">
        <ele>2860.900</ele>
        <time>2021-05-10T20:32:22Z</time>
        <name>WPT.2188</name>
      </trkpt>
      <trkpt lat="35.221731130" lon="-107.633336110">
        <ele>2861.700</ele>
        <time>2021-05-10T20:32:26Z</time>
        <name>WPT.2189</name>
      </trkpt>
      <trkpt lat="35.221694620" lon="-107.633351740">
        <ele>2860.700</ele>
        <time>2021-05-10T20:32:30Z</time>
        <name>WPT.2190</name>
      </trkpt>
      <trkpt lat="35.221660680" lon="-107.633389360">
        <ele>2860.600</ele>
        <time>2021-05-10T20:32:34Z</time>
        <name>WPT.2191</name>
      </trkpt>
      <trkpt lat="35.221647470" lon="-107.633433150">
        <ele>2861.000</ele>
        <time>2021-05-10T20:32:38Z</time>
        <name>WPT.2192</name>
      </trkpt>
      <trkpt lat="35.221623810" lon="-107.633474040">
        <ele>2860.400</ele>
        <time>2021-05-10T20:32:41Z</time>
        <name>WPT.2193</name>
      </trkpt>
      <trkpt lat="35.221602050" lon="-107.633511390">
        <ele>2859.500</ele>
        <time>2021-05-10T20:32:44Z</time>
        <name>WPT.2194</name>
      </trkpt>
      <trkpt lat="35.221591210" lon="-107.633556300">
        <ele>2857.700</ele>
        <time>2021-05-10T20:32:48Z</time>
        <name>WPT.2195</name>
      </trkpt>
      <trkpt lat="35.221596190" lon="-107.633600030">
        <ele>2857.400</ele>
        <time>2021-05-10T20:32:51Z</time>
        <name>WPT.2196</name>
      </trkpt>
      <trkpt lat="35.221578610" lon="-107.633657860">
        <ele>2856.600</ele>
        <time>2021-05-10T20:32:54Z</time>
        <name>WPT.2197</name>
      </trkpt>
      <trkpt lat="35.221568200" lon="-107.633708850">
        <ele>2856.600</ele>
        <time>2021-05-10T20:32:57Z</time>
        <name>WPT.2198</name>
      </trkpt>
      <trkpt lat="35.221565040" lon="-107.633756670">
        <ele>2855.200</ele>
        <time>2021-05-10T20:33:00Z</time>
        <name>WPT.2199</name>
      </trkpt>
      <trkpt lat="35.221553130" lon="-107.633798340">
        <ele>2855.100</ele>
        <time>2021-05-10T20:33:03Z</time>
        <name>WPT.2200</name>
      </trkpt>
      <trkpt lat="35.221544990" lon="-107.633844420">
        <ele>2855.000</ele>
        <time>2021-05-10T20:33:07Z</time>
        <name>WPT.2201</name>
      </trkpt>
      <trkpt lat="35.221550080" lon="-107.633893870">
        <ele>2854.400</ele>
        <time>2021-05-10T20:33:11Z</time>
        <name>WPT.2202</name>
      </trkpt>
      <trkpt lat="35.221563030" lon="-107.633939280">
        <ele>2856.200</ele>
        <time>2021-05-10T20:33:15Z</time>
        <name>WPT.2203</name>
      </trkpt>
      <trkpt lat="35.221579040" lon="-107.633979200">
        <ele>2855.800</ele>
        <time>2021-05-10T20:33:19Z</time>
        <name>WPT.2204</name>
      </trkpt>
      <trkpt lat="35.221584500" lon="-107.634034210">
        <ele>2854.000</ele>
        <time>2021-05-10T20:33:23Z</time>
        <name>WPT.2205</name>
      </trkpt>
      <trkpt lat="35.221601420" lon="-107.634074020">
        <ele>2853.900</ele>
        <time>2021-05-10T20:33:27Z</time>
        <name>WPT.2206</name>
      </trkpt>
      <trkpt lat="35.221619290" lon="-107.634115030">
        <ele>2855.300</ele>
        <time>2021-05-10T20:33:32Z</time>
        <name>WPT.2207</name>
      </trkpt>
      <trkpt lat="35.221627560" lon="-107.634161670">
        <ele>2856.700</ele>
        <time>2021-05-10T20:33:38Z</time>
        <name>WPT.2208</name>
      </trkpt>
      <trkpt lat="35.221616010" lon="-107.634207430">
        <ele>2858.900</ele>
        <time>2021-05-10T20:33:43Z</time>
        <name>WPT.2209</name>
      </trkpt>
      <trkpt lat="35.221604830" lon="-107.634254440">
        <ele>2860.900</ele>
        <time>2021-05-10T20:33:50Z</time>
        <name>WPT.2210</name>
      </trkpt>
      <trkpt lat="35.221597830" lon="-107.634305080">
        <ele>2862.000</ele>
        <time>2021-05-10T20:33:55Z</time>
        <name>WPT.2211</name>
      </trkpt>
      <trkpt lat="35.221567990" lon="-107.634346740">
        <ele>2862.100</ele>
        <time>2021-05-10T20:34:02Z</time>
        <name>WPT.2212</name>
      </trkpt>
      <trkpt lat="35.221536500" lon="-107.634377320">
        <ele>2863.400</ele>
        <time>2021-05-10T20:34:08Z</time>
        <name>WPT.2213</name>
      </trkpt>
      <trkpt lat="35.221504560" lon="-107.634405340">
        <ele>2863.300</ele>
        <time>2021-05-10T20:34:16Z</time>
        <name>WPT.2214</name>
      </trkpt>
      <trkpt lat="35.221484540" lon="-107.634449870">
        <ele>2863.600</ele>
        <time>2021-05-10T20:34:20Z</time>
        <name>WPT.2215</name>
      </trkpt>
      <trkpt lat="35.221451980" lon="-107.634479980">
        <ele>2864.700</ele>
        <time>2021-05-10T20:34:25Z</time>
        <name>WPT.2216</name>
      </trkpt>
      <trkpt lat="35.221422750" lon="-107.634515600">
        <ele>2864.500</ele>
        <time>2021-05-10T20:34:30Z</time>
        <name>WPT.2217</name>
      </trkpt>
      <trkpt lat="35.221402910" lon="-107.634556770">
        <ele>2862.500</ele>
        <time>2021-05-10T20:34:35Z</time>
        <name>WPT.2218</name>
      </trkpt>
      <trkpt lat="35.221405440" lon="-107.634614900">
        <ele>2859.300</ele>
        <time>2021-05-10T20:34:39Z</time>
        <name>WPT.2219</name>
      </trkpt>
      <trkpt lat="35.221374630" lon="-107.634642190">
        <ele>2860.700</ele>
        <time>2021-05-10T20:34:45Z</time>
        <name>WPT.2220</name>
      </trkpt>
      <trkpt lat="35.221346710" lon="-107.634676950">
        <ele>2859.800</ele>
        <time>2021-05-10T20:34:50Z</time>
        <name>WPT.2221</name>
      </trkpt>
      <trkpt lat="35.221319660" lon="-107.634720310">
        <ele>2858.300</ele>
        <time>2021-05-10T20:35:01Z</time>
        <name>WPT.2222</name>
      </trkpt>
      <trkpt lat="35.221303920" lon="-107.634763190">
        <ele>2856.900</ele>
        <time>2021-05-10T20:35:04Z</time>
        <name>WPT.2223</name>
      </trkpt>
      <trkpt lat="35.221282780" lon="-107.634814650">
        <ele>2854.800</ele>
        <time>2021-05-10T20:35:08Z</time>
        <name>WPT.2224</name>
      </trkpt>
      <trkpt lat="35.221253510" lon="-107.634851600">
        <ele>2856.100</ele>
        <time>2021-05-10T20:35:12Z</time>
        <name>WPT.2225</name>
      </trkpt>
      <trkpt lat="35.221229490" lon="-107.634900910">
        <ele>2856.000</ele>
        <time>2021-05-10T20:35:16Z</time>
        <name>WPT.2226</name>
      </trkpt>
      <trkpt lat="35.221210690" lon="-107.634947210">
        <ele>2856.200</ele>
        <time>2021-05-10T20:35:20Z</time>
        <name>WPT.2227</name>
      </trkpt>
      <trkpt lat="35.221205620" lon="-107.634995750">
        <ele>2854.200</ele>
        <time>2021-05-10T20:35:24Z</time>
        <name>WPT.2228</name>
      </trkpt>
      <trkpt lat="35.221191570" lon="-107.635043180">
        <ele>2856.300</ele>
        <time>2021-05-10T20:35:28Z</time>
        <name>WPT.2229</name>
      </trkpt>
      <trkpt lat="35.221174870" lon="-107.635082170">
        <ele>2854.300</ele>
        <time>2021-05-10T20:35:33Z</time>
        <name>WPT.2230</name>
      </trkpt>
      <trkpt lat="35.221155540" lon="-107.635121790">
        <ele>2854.500</ele>
        <time>2021-05-10T20:35:37Z</time>
        <name>WPT.2231</name>
      </trkpt>
      <trkpt lat="35.221127570" lon="-107.635153600">
        <ele>2853.400</ele>
        <time>2021-05-10T20:35:45Z</time>
        <name>WPT.2232</name>
      </trkpt>
      <trkpt lat="35.221093960" lon="-107.635172210">
        <ele>2852.900</ele>
        <time>2021-05-10T20:35:52Z</time>
        <name>WPT.2233</name>
      </trkpt>
      <trkpt lat="35.221057430" lon="-107.635181330">
        <ele>2852.600</ele>
        <time>2021-05-10T20:35:59Z</time>
        <name>WPT.2234</name>
      </trkpt>
      <trkpt lat="35.221024480" lon="-107.635204610">
        <ele>2852.000</ele>
        <time>2021-05-10T20:36:05Z</time>
        <name>WPT.2235</name>
      </trkpt>
      <trkpt lat="35.220997230" lon="-107.635239540">
        <ele>2851.500</ele>
        <time>2021-05-10T20:36:09Z</time>
        <name>WPT.2236</name>
      </trkpt>
      <trkpt lat="35.220976850" lon="-107.635280150">
        <ele>2851.600</ele>
        <time>2021-05-10T20:36:13Z</time>
        <name>WPT.2237</name>
      </trkpt>
      <trkpt lat="35.220970130" lon="-107.635328420">
        <ele>2850.500</ele>
        <time>2021-05-10T20:36:18Z</time>
        <name>WPT.2238</name>
      </trkpt>
      <trkpt lat="35.220958690" lon="-107.635378660">
        <ele>2851.700</ele>
        <time>2021-05-10T20:36:23Z</time>
        <name>WPT.2239</name>
      </trkpt>
      <trkpt lat="35.220959080" lon="-107.635424230">
        <ele>2850.900</ele>
        <time>2021-05-10T20:36:28Z</time>
        <name>WPT.2240</name>
      </trkpt>
      <trkpt lat="35.220958710" lon="-107.635473580">
        <ele>2851.200</ele>
        <time>2021-05-10T20:36:34Z</time>
        <name>WPT.2241</name>
      </trkpt>
      <trkpt lat="35.220935390" lon="-107.635507120">
        <ele>2851.600</ele>
        <time>2021-05-10T20:36:43Z</time>
        <name>WPT.2242</name>
      </trkpt>
      <trkpt lat="35.220914820" lon="-107.635547600">
        <ele>2851.900</ele>
        <time>2021-05-10T20:36:48Z</time>
        <name>WPT.2243</name>
      </trkpt>
      <trkpt lat="35.220893130" lon="-107.635592060">
        <ele>2851.100</ele>
        <time>2021-05-10T20:36:52Z</time>
        <name>WPT.2244</name>
      </trkpt>
      <trkpt lat="35.220892520" lon="-107.635645290">
        <ele>2850.000</ele>
        <time>2021-05-10T20:36:58Z</time>
        <name>WPT.2245</name>
      </trkpt>
      <trkpt lat="35.220901070" lon="-107.635689240">
        <ele>2849.300</ele>
        <time>2021-05-10T20:37:01Z</time>
        <name>WPT.2246</name>
      </trkpt>
      <trkpt lat="35.220897300" lon="-107.635739260">
        <ele>2848.000</ele>
        <time>2021-05-10T20:37:04Z</time>
        <name>WPT.2247</name>
      </trkpt>
      <trkpt lat="35.220925110" lon="-107.635777790">
        <ele>2844.800</ele>
        <time>2021-05-10T20:37:07Z</time>
        <name>WPT.2248</name>
      </trkpt>
      <trkpt lat="35.220946010" lon="-107.635822820">
        <ele>2845.900</ele>
        <time>2021-05-10T20:37:12Z</time>
        <name>WPT.2249</name>
      </trkpt>
      <trkpt lat="35.220950010" lon="-107.635867620">
        <ele>2844.700</ele>
        <time>2021-05-10T20:37:22Z</time>
        <name>WPT.2250</name>
      </trkpt>
      <trkpt lat="35.220960880" lon="-107.635912560">
        <ele>2846.100</ele>
        <time>2021-05-10T20:37:27Z</time>
        <name>WPT.2251</name>
      </trkpt>
      <trkpt lat="35.220974550" lon="-107.635953960">
        <ele>2845.000</ele>
        <time>2021-05-10T20:37:31Z</time>
        <name>WPT.2252</name>
      </trkpt>
      <trkpt lat="35.220982550" lon="-107.635998500">
        <ele>2844.000</ele>
        <time>2021-05-10T20:37:37Z</time>
        <name>WPT.2253</name>
      </trkpt>
      <trkpt lat="35.220970260" lon="-107.636045580">
        <ele>2845.300</ele>
        <time>2021-05-10T20:37:45Z</time>
        <name>WPT.2254</name>
      </trkpt>
      <trkpt lat="35.220965920" lon="-107.636095860">
        <ele>2843.300</ele>
        <time>2021-05-10T20:37:51Z</time>
        <name>WPT.2255</name>
      </trkpt>
      <trkpt lat="35.220986640" lon="-107.636138870">
        <ele>2840.600</ele>
        <time>2021-05-10T20:37:55Z</time>
        <name>WPT.2256</name>
      </trkpt>
      <trkpt lat="35.221005970" lon="-107.636179220">
        <ele>2839.400</ele>
        <time>2021-05-10T20:37:59Z</time>
        <name>WPT.2257</name>
      </trkpt>
      <trkpt lat="35.221014340" lon="-107.636230370">
        <ele>2840.500</ele>
        <time>2021-05-10T20:38:09Z</time>
        <name>WPT.2258</name>
      </trkpt>
      <trkpt lat="35.221042910" lon="-107.636272500">
        <ele>2840.200</ele>
        <time>2021-05-10T20:38:15Z</time>
        <name>WPT.2259</name>
      </trkpt>
      <trkpt lat="35.221073100" lon="-107.636306410">
        <ele>2839.000</ele>
        <time>2021-05-10T20:38:21Z</time>
        <name>WPT.2260</name>
      </trkpt>
      <trkpt lat="35.221093390" lon="-107.636355890">
        <ele>2840.500</ele>
        <time>2021-05-10T20:38:25Z</time>
        <name>WPT.2261</name>
      </trkpt>
      <trkpt lat="35.221109640" lon="-107.636400640">
        <ele>2842.300</ele>
        <time>2021-05-10T20:38:30Z</time>
        <name>WPT.2262</name>
      </trkpt>
      <trkpt lat="35.221125380" lon="-107.636444510">
        <ele>2843.900</ele>
        <time>2021-05-10T20:38:36Z</time>
        <name>WPT.2263</name>
      </trkpt>
      <trkpt lat="35.221158970" lon="-107.636477190">
        <ele>2843.400</ele>
        <time>2021-05-10T20:38:44Z</time>
        <name>WPT.2264</name>
      </trkpt>
      <trkpt lat="35.221190230" lon="-107.636500500">
        <ele>2842.500</ele>
        <time>2021-05-10T20:38:49Z</time>
        <name>WPT.2265</name>
      </trkpt>
      <trkpt lat="35.221214810" lon="-107.636533010">
        <ele>2839.800</ele>
        <time>2021-05-10T20:38:56Z</time>
        <name>WPT.2266</name>
      </trkpt>
      <trkpt lat="35.221239650" lon="-107.636571090">
        <ele>2840.700</ele>
        <time>2021-05-10T20:39:03Z</time>
        <name>WPT.2267</name>
      </trkpt>
      <trkpt lat="35.221268610" lon="-107.636610060">
        <ele>2841.700</ele>
        <time>2021-05-10T20:39:08Z</time>
        <name>WPT.2268</name>
      </trkpt>
      <trkpt lat="35.221303770" lon="-107.636634010">
        <ele>2839.400</ele>
        <time>2021-05-10T20:39:12Z</time>
        <name>WPT.2269</name>
      </trkpt>
      <trkpt lat="35.221335210" lon="-107.636671710">
        <ele>2840.400</ele>
        <time>2021-05-10T20:39:16Z</time>
        <name>WPT.2270</name>
      </trkpt>
      <trkpt lat="35.221374090" lon="-107.636694780">
        <ele>2839.400</ele>
        <time>2021-05-10T20:39:21Z</time>
        <name>WPT.2271</name>
      </trkpt>
      <trkpt lat="35.221411250" lon="-107.636712680">
        <ele>2840.700</ele>
        <time>2021-05-10T20:39:26Z</time>
        <name>WPT.2272</name>
      </trkpt>
      <trkpt lat="35.221446470" lon="-107.636735000">
        <ele>2840.900</ele>
        <time>2021-05-10T20:39:29Z</time>
        <name>WPT.2273</name>
      </trkpt>
      <trkpt lat="35.221478240" lon="-107.636763400">
        <ele>2840.200</ele>
        <time>2021-05-10T20:39:33Z</time>
        <name>WPT.2274</name>
      </trkpt>
      <trkpt lat="35.221450970" lon="-107.636727120">
        <ele>2836.400</ele>
        <time>2021-05-10T20:39:47Z</time>
        <name>WPT.2275</name>
      </trkpt>
      <trkpt lat="35.221421240" lon="-107.636697980">
        <ele>2835.600</ele>
        <time>2021-05-10T20:39:53Z</time>
        <name>WPT.2276</name>
      </trkpt>
      <trkpt lat="35.221383120" lon="-107.636691870">
        <ele>2836.400</ele>
        <time>2021-05-10T20:40:04Z</time>
        <name>WPT.2277</name>
      </trkpt>
      <trkpt lat="35.221343940" lon="-107.636695750">
        <ele>2837.500</ele>
        <time>2021-05-10T20:40:09Z</time>
        <name>WPT.2278</name>
      </trkpt>
      <trkpt lat="35.221321960" lon="-107.636738400">
        <ele>2835.300</ele>
        <time>2021-05-10T20:40:14Z</time>
        <name>WPT.2279</name>
      </trkpt>
      <trkpt lat="35.221282680" lon="-107.636744560">
        <ele>2834.300</ele>
        <time>2021-05-10T20:40:21Z</time>
        <name>WPT.2280</name>
      </trkpt>
      <trkpt lat="35.221242560" lon="-107.636748240">
        <ele>2832.800</ele>
        <time>2021-05-10T20:40:27Z</time>
        <name>WPT.2281</name>
      </trkpt>
      <trkpt lat="35.221211160" lon="-107.636772420">
        <ele>2831.200</ele>
        <time>2021-05-10T20:40:33Z</time>
        <name>WPT.2282</name>
      </trkpt>
      <trkpt lat="35.221169540" lon="-107.636774870">
        <ele>2832.200</ele>
        <time>2021-05-10T20:40:49Z</time>
        <name>WPT.2283</name>
      </trkpt>
      <trkpt lat="35.221130040" lon="-107.636761750">
        <ele>2831.000</ele>
        <time>2021-05-10T20:40:57Z</time>
        <name>WPT.2284</name>
      </trkpt>
      <trkpt lat="35.221096650" lon="-107.636743220">
        <ele>2830.400</ele>
        <time>2021-05-10T20:41:02Z</time>
        <name>WPT.2285</name>
      </trkpt>
      <trkpt lat="35.221060330" lon="-107.636729830">
        <ele>2826.400</ele>
        <time>2021-05-10T20:41:12Z</time>
        <name>WPT.2286</name>
      </trkpt>
      <trkpt lat="35.221012420" lon="-107.636718820">
        <ele>2823.600</ele>
        <time>2021-05-10T20:41:17Z</time>
        <name>WPT.2287</name>
      </trkpt>
      <trkpt lat="35.220969640" lon="-107.636724770">
        <ele>2821.300</ele>
        <time>2021-05-10T20:41:22Z</time>
        <name>WPT.2288</name>
      </trkpt>
      <trkpt lat="35.220932210" lon="-107.636722170">
        <ele>2819.800</ele>
        <time>2021-05-10T20:41:28Z</time>
        <name>WPT.2289</name>
      </trkpt>
      <trkpt lat="35.220895670" lon="-107.636717270">
        <ele>2822.400</ele>
        <time>2021-05-10T20:41:34Z</time>
        <name>WPT.2290</name>
      </trkpt>
      <trkpt lat="35.220854040" lon="-107.636709970">
        <ele>2819.500</ele>
        <time>2021-05-10T20:41:39Z</time>
        <name>WPT.2291</name>
      </trkpt>
      <trkpt lat="35.220822410" lon="-107.636683750">
        <ele>2821.900</ele>
        <time>2021-05-10T20:41:44Z</time>
        <name>WPT.2292</name>
      </trkpt>
      <trkpt lat="35.220784550" lon="-107.636670930">
        <ele>2822.300</ele>
        <time>2021-05-10T20:41:48Z</time>
        <name>WPT.2293</name>
      </trkpt>
      <trkpt lat="35.220744480" lon="-107.636658900">
        <ele>2821.700</ele>
        <time>2021-05-10T20:41:54Z</time>
        <name>WPT.2294</name>
      </trkpt>
      <trkpt lat="35.220701600" lon="-107.636651460">
        <ele>2821.200</ele>
        <time>2021-05-10T20:41:59Z</time>
        <name>WPT.2295</name>
      </trkpt>
      <trkpt lat="35.220662720" lon="-107.636651600">
        <ele>2821.500</ele>
        <time>2021-05-10T20:42:06Z</time>
        <name>WPT.2296</name>
      </trkpt>
      <trkpt lat="35.220622170" lon="-107.636666070">
        <ele>2819.300</ele>
        <time>2021-05-10T20:42:11Z</time>
        <name>WPT.2297</name>
      </trkpt>
      <trkpt lat="35.220584260" lon="-107.636669610">
        <ele>2818.600</ele>
        <time>2021-05-10T20:42:15Z</time>
        <name>WPT.2298</name>
      </trkpt>
      <trkpt lat="35.220540130" lon="-107.636666240">
        <ele>2816.900</ele>
        <time>2021-05-10T20:42:20Z</time>
        <name>WPT.2299</name>
      </trkpt>
      <trkpt lat="35.220499080" lon="-107.636675710">
        <ele>2816.300</ele>
        <time>2021-05-10T20:42:24Z</time>
        <name>WPT.2300</name>
      </trkpt>
      <trkpt lat="35.220460790" lon="-107.636692130">
        <ele>2818.700</ele>
        <time>2021-05-10T20:42:29Z</time>
        <name>WPT.2301</name>
      </trkpt>
      <trkpt lat="35.220430970" lon="-107.636733480">
        <ele>2818.100</ele>
        <time>2021-05-10T20:42:33Z</time>
        <name>WPT.2302</name>
      </trkpt>
      <trkpt lat="35.220397880" lon="-107.636765580">
        <ele>2816.800</ele>
        <time>2021-05-10T20:42:36Z</time>
        <name>WPT.2303</name>
      </trkpt>
      <trkpt lat="35.220353190" lon="-107.636788720">
        <ele>2817.200</ele>
        <time>2021-05-10T20:42:39Z</time>
        <name>WPT.2304</name>
      </trkpt>
      <trkpt lat="35.220319930" lon="-107.636809120">
        <ele>2816.800</ele>
        <time>2021-05-10T20:42:42Z</time>
        <name>WPT.2305</name>
      </trkpt>
      <trkpt lat="35.220275860" lon="-107.636825820">
        <ele>2818.100</ele>
        <time>2021-05-10T20:42:46Z</time>
        <name>WPT.2306</name>
      </trkpt>
      <trkpt lat="35.220238270" lon="-107.636834070">
        <ele>2818.000</ele>
        <time>2021-05-10T20:42:50Z</time>
        <name>WPT.2307</name>
      </trkpt>
      <trkpt lat="35.220195300" lon="-107.636823470">
        <ele>2818.300</ele>
        <time>2021-05-10T20:42:55Z</time>
        <name>WPT.2308</name>
      </trkpt>
      <trkpt lat="35.220150140" lon="-107.636829820">
        <ele>2819.900</ele>
        <time>2021-05-10T20:43:01Z</time>
        <name>WPT.2309</name>
      </trkpt>
      <trkpt lat="35.220114100" lon="-107.636828060">
        <ele>2821.100</ele>
        <time>2021-05-10T20:43:06Z</time>
        <name>WPT.2310</name>
      </trkpt>
      <trkpt lat="35.220076710" lon="-107.636828720">
        <ele>2820.600</ele>
        <time>2021-05-10T20:43:10Z</time>
        <name>WPT.2311</name>
      </trkpt>
      <trkpt lat="35.220046700" lon="-107.636854780">
        <ele>2821.800</ele>
        <time>2021-05-10T20:43:14Z</time>
        <name>WPT.2312</name>
      </trkpt>
      <trkpt lat="35.220037370" lon="-107.636901020">
        <ele>2820.100</ele>
        <time>2021-05-10T20:43:19Z</time>
        <name>WPT.2313</name>
      </trkpt>
      <trkpt lat="35.220022270" lon="-107.636955270">
        <ele>2816.200</ele>
        <time>2021-05-10T20:43:43Z</time>
        <name>WPT.2314</name>
      </trkpt>
      <trkpt lat="35.220053450" lon="-107.636980610">
        <ele>2812.900</ele>
        <time>2021-05-10T20:44:03Z</time>
        <name>WPT.2315</name>
      </trkpt>
      <trkpt lat="35.220062700" lon="-107.636972190">
        <ele>2811.800</ele>
        <time>2021-05-10T20:44:47Z</time>
        <name>WPT.2316</name>
      </trkpt>
    </trkseg>
  </trk>
</gpx>
